<?xml version="1.0" encoding="UTF-8" standalone="no" ?>
<gpx xmlns="http://www.topografix.com/GPX/1/1" xmlns:xsi="http://www.w3.org/2001/XMLSchema-instance" xsi:schemaLocation="http://www.topografix.com/GPX/1/1 http://www.topografix.com/GPX/1/1/gpx.xsd" version="1.1" creator="VisuGPX - https://www.visugpx.com">
  <metadata>
    <name>Jour 11 : Sainte Anne d'Auray_Trémelin</name>
  </metadata>
  <trk>
    <name><![CDATA[K_GTB 2022-Sainte Anne d'Auray_Trémelin]]></name>
    <trkseg>
      <trkpt lat="47.70392" lon="-2.95477">
        <ele>50.236291</ele>
        <time>2022-02-07T14:53:57.597Z</time>
      </trkpt>
      <trkpt lat="47.70379" lon="-2.9536">
        <ele>50.236291</ele>
        <time>2022-02-07T14:54:11.848Z</time>
      </trkpt>
      <trkpt lat="47.70377" lon="-2.95344">
        <ele>50.239643</ele>
        <time>2022-02-07T14:54:13.922Z</time>
      </trkpt>
      <trkpt lat="47.70358" lon="-2.95166">
        <ele>50.674053</ele>
        <time>2022-02-07T14:54:36.212Z</time>
      </trkpt>
      <trkpt lat="47.70357" lon="-2.95137">
        <ele>50.743916</ele>
        <time>2022-02-07T14:54:40.181Z</time>
      </trkpt>
      <trkpt lat="47.70361" lon="-2.95114">
        <ele>50.802418</ele>
        <time>2022-02-07T14:54:43.431Z</time>
      </trkpt>
      <trkpt lat="47.7036" lon="-2.95112">
        <ele>50.809376</ele>
        <time>2022-02-07T14:54:43.800Z</time>
      </trkpt>
      <trkpt lat="47.70358" lon="-2.951">
        <ele>50.839019</ele>
        <time>2022-02-07T14:54:45.499Z</time>
      </trkpt>
      <trkpt lat="47.70364" lon="-2.95095">
        <ele>50.864507</ele>
        <time>2022-02-07T14:54:47.011Z</time>
      </trkpt>
      <trkpt lat="47.70369" lon="-2.95057">
        <ele>51.140771</ele>
        <time>2022-02-07T14:54:52.581Z</time>
      </trkpt>
      <trkpt lat="47.7037" lon="-2.95051">
        <ele>51.187141</ele>
        <time>2022-02-07T14:54:53.428Z</time>
      </trkpt>
      <trkpt lat="47.7038" lon="-2.94995">
        <ele>51.651148</ele>
        <time>2022-02-07T14:55:02.311Z</time>
      </trkpt>
      <trkpt lat="47.70395" lon="-2.9491">
        <ele>52.355386</ele>
        <time>2022-02-07T14:55:16.189Z</time>
      </trkpt>
      <trkpt lat="47.70394" lon="-2.94869">
        <ele>52.684359</ele>
        <time>2022-02-07T14:55:22.903Z</time>
      </trkpt>
      <trkpt lat="47.70394" lon="-2.94861">
        <ele>52.742423</ele>
        <time>2022-02-07T14:55:24.004Z</time>
      </trkpt>
      <trkpt lat="47.7039" lon="-2.94769">
        <ele>53.227091</ele>
        <time>2022-02-07T14:55:38.153Z</time>
      </trkpt>
      <trkpt lat="47.7039" lon="-2.94759">
        <ele>53.263226</ele>
        <time>2022-02-07T14:55:39.485Z</time>
      </trkpt>
      <trkpt lat="47.70391" lon="-2.94747">
        <ele>53.3054</ele>
        <time>2022-02-07T14:55:41.052Z</time>
      </trkpt>
      <trkpt lat="47.70389" lon="-2.94725">
        <ele>53.383457</ele>
        <time>2022-02-07T14:55:44.120Z</time>
      </trkpt>
      <trkpt lat="47.70394" lon="-2.94684">
        <ele>53.532564</ele>
        <time>2022-02-07T14:55:49.391Z</time>
      </trkpt>
      <trkpt lat="47.70394" lon="-2.94673">
        <ele>53.571112</ele>
        <time>2022-02-07T14:55:50.831Z</time>
      </trkpt>
      <trkpt lat="47.70412" lon="-2.94383">
        <ele>54.517192</ele>
        <time>2022-02-07T14:56:26.699Z</time>
      </trkpt>
      <trkpt lat="47.70386" lon="-2.94268">
        <ele>54.884161</ele>
        <time>2022-02-07T14:56:44.794Z</time>
      </trkpt>
      <trkpt lat="47.70376" lon="-2.94247">
        <ele>54.959155</ele>
        <time>2022-02-07T14:56:48.667Z</time>
      </trkpt>
      <trkpt lat="47.7037" lon="-2.94204">
        <ele>55.088504</ele>
        <time>2022-02-07T14:56:55.123Z</time>
      </trkpt>
      <trkpt lat="47.70365" lon="-2.94177">
        <ele>55.169829</ele>
        <time>2022-02-07T14:56:59.464Z</time>
      </trkpt>
      <trkpt lat="47.70381" lon="-2.94175">
        <ele>55.238454</ele>
        <time>2022-02-07T14:57:02.740Z</time>
      </trkpt>
      <trkpt lat="47.7038" lon="-2.94168">
        <ele>55.260155</ele>
        <time>2022-02-07T14:57:03.992Z</time>
      </trkpt>
      <trkpt lat="47.70369" lon="-2.94158">
        <ele>55.317625</ele>
        <time>2022-02-07T14:57:07.283Z</time>
      </trkpt>
      <trkpt lat="47.70367" lon="-2.94144">
        <ele>55.3587</ele>
        <time>2022-02-07T14:57:09.270Z</time>
      </trkpt>
      <trkpt lat="47.70368" lon="-2.93934">
        <ele>54.343224</ele>
        <time>2022-02-07T14:57:34.281Z</time>
      </trkpt>
      <trkpt lat="47.70362" lon="-2.9387">
        <ele>53.751797</ele>
        <time>2022-02-07T14:57:41.594Z</time>
      </trkpt>
      <trkpt lat="47.70373" lon="-2.93842">
        <ele>53.454247</ele>
        <time>2022-02-07T14:57:45.147Z</time>
      </trkpt>
      <trkpt lat="47.70373" lon="-2.93836">
        <ele>53.399449</ele>
        <time>2022-02-07T14:57:45.794Z</time>
      </trkpt>
      <trkpt lat="47.70374" lon="-2.93822">
        <ele>53.271633</ele>
        <time>2022-02-07T14:57:47.304Z</time>
      </trkpt>
      <trkpt lat="47.70375" lon="-2.93817">
        <ele>53.22601</ele>
        <time>2022-02-07T14:57:47.798Z</time>
      </trkpt>
      <trkpt lat="47.70427" lon="-2.93836">
        <ele>52.657587</ele>
        <time>2022-02-07T14:57:56.942Z</time>
      </trkpt>
      <trkpt lat="47.70473" lon="-2.93848">
        <ele>52.182109</ele>
        <time>2022-02-07T14:58:05.345Z</time>
      </trkpt>
      <trkpt lat="47.70516" lon="-2.93843">
        <ele>51.740696</ele>
        <time>2022-02-07T14:58:13.015Z</time>
      </trkpt>
      <trkpt lat="47.70554" lon="-2.93814">
        <ele>51.311252</ele>
        <time>2022-02-07T14:58:21.035Z</time>
      </trkpt>
      <trkpt lat="47.70576" lon="-2.93783">
        <ele>51.156733</ele>
        <time>2022-02-07T14:58:26.816Z</time>
      </trkpt>
      <trkpt lat="47.70609" lon="-2.93726">
        <ele>50.895689</ele>
        <time>2022-02-07T14:58:36.355Z</time>
      </trkpt>
      <trkpt lat="47.70658" lon="-2.93638">
        <ele>50.500207</ele>
        <time>2022-02-07T14:58:50.852Z</time>
      </trkpt>
      <trkpt lat="47.70647" lon="-2.93569">
        <ele>50.261297</ele>
        <time>2022-02-07T14:58:59.604Z</time>
      </trkpt>
      <trkpt lat="47.70625" lon="-2.93475">
        <ele>49.941734</ele>
        <time>2022-02-07T14:59:11.872Z</time>
      </trkpt>
      <trkpt lat="47.70616" lon="-2.93408">
        <ele>49.720328</ele>
        <time>2022-02-07T14:59:20.652Z</time>
      </trkpt>
      <trkpt lat="47.70619" lon="-2.9339">
        <ele>49.663244</ele>
        <time>2022-02-07T14:59:22.825Z</time>
      </trkpt>
      <trkpt lat="47.70627" lon="-2.93355">
        <ele>49.54077</ele>
        <time>2022-02-07T14:59:27.788Z</time>
      </trkpt>
      <trkpt lat="47.70645" lon="-2.93149">
        <ele>49.326507</ele>
        <time>2022-02-07T14:59:54.787Z</time>
      </trkpt>
      <trkpt lat="47.7064" lon="-2.93141">
        <ele>49.315707</ele>
        <time>2022-02-07T14:59:56.214Z</time>
      </trkpt>
      <trkpt lat="47.70602" lon="-2.93121">
        <ele>49.254605</ele>
        <time>2022-02-07T15:00:04.157Z</time>
      </trkpt>
      <trkpt lat="47.70593" lon="-2.93092">
        <ele>49.209711</ele>
        <time>2022-02-07T15:00:08.606Z</time>
      </trkpt>
      <trkpt lat="47.70567" lon="-2.92988">
        <ele>49.055354</ele>
        <time>2022-02-07T15:00:30.635Z</time>
      </trkpt>
      <trkpt lat="47.70606" lon="-2.9292">
        <ele>48.930652</ele>
        <time>2022-02-07T15:00:47.979Z</time>
      </trkpt>
      <trkpt lat="47.70662" lon="-2.92944">
        <ele>48.78066</ele>
        <time>2022-02-07T15:01:04.495Z</time>
      </trkpt>
      <trkpt lat="47.70668" lon="-2.92941">
        <ele>48.76095</ele>
        <time>2022-02-07T15:01:06.455Z</time>
      </trkpt>
      <trkpt lat="47.70674" lon="-2.92823">
        <ele>48.5342</ele>
        <time>2022-02-07T15:01:29.238Z</time>
      </trkpt>
      <trkpt lat="47.70675" lon="-2.92805">
        <ele>48.498072</ele>
        <time>2022-02-07T15:01:31.489Z</time>
      </trkpt>
      <trkpt lat="47.70647" lon="-2.928">
        <ele>48.420023</ele>
        <time>2022-02-07T15:01:36.846Z</time>
      </trkpt>
      <trkpt lat="47.70637" lon="-2.92792">
        <ele>48.386246</ele>
        <time>2022-02-07T15:01:39.147Z</time>
      </trkpt>
      <trkpt lat="47.70619" lon="-2.92691">
        <ele>48.614959</ele>
        <time>2022-02-07T15:01:53.252Z</time>
      </trkpt>
      <trkpt lat="47.70588" lon="-2.92563">
        <ele>48.942693</ele>
        <time>2022-02-07T15:02:13.312Z</time>
      </trkpt>
      <trkpt lat="47.70652" lon="-2.92532">
        <ele>49.187889</ele>
        <time>2022-02-07T15:02:28.263Z</time>
      </trkpt>
      <trkpt lat="47.70624" lon="-2.92309">
        <ele>49.639468</ele>
        <time>2022-02-07T15:03:00.504Z</time>
      </trkpt>
      <trkpt lat="47.70719" lon="-2.92251">
        <ele>49.42304</ele>
        <time>2022-02-07T15:03:20.479Z</time>
      </trkpt>
      <trkpt lat="47.70719" lon="-2.92242">
        <ele>49.409457</ele>
        <time>2022-02-07T15:03:21.679Z</time>
      </trkpt>
      <trkpt lat="47.70701" lon="-2.92084">
        <ele>48.895349</ele>
        <time>2022-02-07T15:03:41.663Z</time>
      </trkpt>
      <trkpt lat="47.70658" lon="-2.9194">
        <ele>48.128836</ele>
        <time>2022-02-07T15:04:00.812Z</time>
      </trkpt>
      <trkpt lat="47.70621" lon="-2.91755">
        <ele>47.212634</ele>
        <time>2022-02-07T15:04:24.650Z</time>
      </trkpt>
      <trkpt lat="47.70585" lon="-2.91638">
        <ele>46.591702</ele>
        <time>2022-02-07T15:04:40.556Z</time>
      </trkpt>
      <trkpt lat="47.70579" lon="-2.91631">
        <ele>46.533054</ele>
        <time>2022-02-07T15:04:41.943Z</time>
      </trkpt>
      <trkpt lat="47.70423" lon="-2.91678">
        <ele>45.294882</ele>
        <time>2022-02-07T15:05:10.935Z</time>
      </trkpt>
      <trkpt lat="47.70419" lon="-2.91649">
        <ele>45.081959</ele>
        <time>2022-02-07T15:05:14.582Z</time>
      </trkpt>
      <trkpt lat="47.70428" lon="-2.9153">
        <ele>44.233645</ele>
        <time>2022-02-07T15:05:28.982Z</time>
      </trkpt>
      <trkpt lat="47.70339" lon="-2.91534">
        <ele>43.27451</ele>
        <time>2022-02-07T15:05:42.823Z</time>
      </trkpt>
      <trkpt lat="47.70335" lon="-2.91529">
        <ele>43.212526</ele>
        <time>2022-02-07T15:05:43.719Z</time>
      </trkpt>
      <trkpt lat="47.70309" lon="-2.91414">
        <ele>42.236751</ele>
        <time>2022-02-07T15:05:57.852Z</time>
      </trkpt>
      <trkpt lat="47.7029" lon="-2.9137">
        <ele>41.820933</ele>
        <time>2022-02-07T15:06:03.866Z</time>
      </trkpt>
      <trkpt lat="47.70265" lon="-2.91332">
        <ele>41.389269</ele>
        <time>2022-02-07T15:06:13.854Z</time>
      </trkpt>
      <trkpt lat="47.70205" lon="-2.91354">
        <ele>41.536445</ele>
        <time>2022-02-07T15:06:31.486Z</time>
      </trkpt>
      <trkpt lat="47.70199" lon="-2.91347">
        <ele>41.569507</ele>
        <time>2022-02-07T15:06:33.559Z</time>
      </trkpt>
      <trkpt lat="47.70198" lon="-2.91316">
        <ele>41.660247</ele>
        <time>2022-02-07T15:06:39.791Z</time>
      </trkpt>
      <trkpt lat="47.70203" lon="-2.91292">
        <ele>41.732179</ele>
        <time>2022-02-07T15:06:44.632Z</time>
      </trkpt>
      <trkpt lat="47.7018" lon="-2.91225">
        <ele>41.950279</ele>
        <time>2022-02-07T15:06:57.941Z</time>
      </trkpt>
      <trkpt lat="47.70212" lon="-2.91103">
        <ele>42.896616</ele>
        <time>2022-02-07T15:07:20.778Z</time>
      </trkpt>
      <trkpt lat="47.70206" lon="-2.9107">
        <ele>43.215176</ele>
        <time>2022-02-07T15:07:27.029Z</time>
      </trkpt>
      <trkpt lat="47.70205" lon="-2.91066">
        <ele>43.256948</ele>
        <time>2022-02-07T15:07:27.713Z</time>
      </trkpt>
      <trkpt lat="47.70214" lon="-2.91044">
        <ele>43.498081</ele>
        <time>2022-02-07T15:07:32.368Z</time>
      </trkpt>
      <trkpt lat="47.70201" lon="-2.90973">
        <ele>44.192376</ele>
        <time>2022-02-07T15:07:44.814Z</time>
      </trkpt>
      <trkpt lat="47.7021" lon="-2.90905">
        <ele>44.592719</ele>
        <time>2022-02-07T15:07:55.868Z</time>
      </trkpt>
      <trkpt lat="47.7017" lon="-2.90893">
        <ele>44.592463</ele>
        <time>2022-02-07T15:08:05.165Z</time>
      </trkpt>
      <trkpt lat="47.70164" lon="-2.90856">
        <ele>44.592303</ele>
        <time>2022-02-07T15:08:09.937Z</time>
      </trkpt>
      <trkpt lat="47.70166" lon="-2.90789">
        <ele>44.592017</ele>
        <time>2022-02-07T15:08:18.370Z</time>
      </trkpt>
      <trkpt lat="47.70155" lon="-2.9076">
        <ele>44.591874</ele>
        <time>2022-02-07T15:08:22.563Z</time>
      </trkpt>
      <trkpt lat="47.70074" lon="-2.90785">
        <ele>44.622732</ele>
        <time>2022-02-07T15:08:37.985Z</time>
      </trkpt>
      <trkpt lat="47.70069" lon="-2.90785">
        <ele>44.625556</ele>
        <time>2022-02-07T15:08:39.120Z</time>
      </trkpt>
      <trkpt lat="47.70063" lon="-2.90746">
        <ele>44.640986</ele>
        <time>2022-02-07T15:08:44.178Z</time>
      </trkpt>
      <trkpt lat="47.70073" lon="-2.90693">
        <ele>44.662254</ele>
        <time>2022-02-07T15:08:51.252Z</time>
      </trkpt>
      <trkpt lat="47.70103" lon="-2.90685">
        <ele>44.679948</ele>
        <time>2022-02-07T15:08:58.120Z</time>
      </trkpt>
      <trkpt lat="47.70109" lon="-2.90676">
        <ele>44.684738</ele>
        <time>2022-02-07T15:08:59.734Z</time>
      </trkpt>
      <trkpt lat="47.7011" lon="-2.90624">
        <ele>44.944139</ele>
        <time>2022-02-07T15:09:08.202Z</time>
      </trkpt>
      <trkpt lat="47.70088" lon="-2.90618">
        <ele>45.276969</ele>
        <time>2022-02-07T15:09:14.625Z</time>
      </trkpt>
      <trkpt lat="47.70082" lon="-2.90617">
        <ele>45.370283</ele>
        <time>2022-02-07T15:09:16.049Z</time>
      </trkpt>
      <trkpt lat="47.70094" lon="-2.90563">
        <ele>45.934766</ele>
        <time>2022-02-07T15:09:25.869Z</time>
      </trkpt>
      <trkpt lat="47.7009" lon="-2.90554">
        <ele>46.030865</ele>
        <time>2022-02-07T15:09:27.391Z</time>
      </trkpt>
      <trkpt lat="47.7008" lon="-2.90541">
        <ele>46.227264</ele>
        <time>2022-02-07T15:09:31.488Z</time>
      </trkpt>
      <trkpt lat="47.70078" lon="-2.90453">
        <ele>47.092363</ele>
        <time>2022-02-07T15:09:46.536Z</time>
      </trkpt>
      <trkpt lat="47.70072" lon="-2.90433">
        <ele>47.30531</ele>
        <time>2022-02-07T15:09:51.002Z</time>
      </trkpt>
      <trkpt lat="47.70041" lon="-2.90432">
        <ele>47.485092</ele>
        <time>2022-02-07T15:09:59.176Z</time>
      </trkpt>
      <trkpt lat="47.70001" lon="-2.90418">
        <ele>47.709444</ele>
        <time>2022-02-07T15:10:09.289Z</time>
      </trkpt>
      <trkpt lat="47.69997" lon="-2.90412">
        <ele>47.740312</ele>
        <time>2022-02-07T15:10:10.654Z</time>
      </trkpt>
      <trkpt lat="47.69992" lon="-2.90312">
        <ele>48.109977</ele>
        <time>2022-02-07T15:10:24.501Z</time>
      </trkpt>
      <trkpt lat="47.69996" lon="-2.90265">
        <ele>48.283042</ele>
        <time>2022-02-07T15:10:30.418Z</time>
      </trkpt>
      <trkpt lat="47.69989" lon="-2.90244">
        <ele>48.207774</ele>
        <time>2022-02-07T15:10:33.694Z</time>
      </trkpt>
      <trkpt lat="47.69983" lon="-2.90235">
        <ele>48.14128</ele>
        <time>2022-02-07T15:10:35.103Z</time>
      </trkpt>
      <trkpt lat="47.69972" lon="-2.90182">
        <ele>47.855345</ele>
        <time>2022-02-07T15:10:42.001Z</time>
      </trkpt>
      <trkpt lat="47.6994" lon="-2.90109">
        <ele>47.401819</ele>
        <time>2022-02-07T15:10:52.969Z</time>
      </trkpt>
      <trkpt lat="47.69883" lon="-2.89893">
        <ele>46.419396</ele>
        <time>2022-02-07T15:11:20.320Z</time>
      </trkpt>
      <trkpt lat="47.69933" lon="-2.89817">
        <ele>46.030038</ele>
        <time>2022-02-07T15:11:33.015Z</time>
      </trkpt>
      <trkpt lat="47.69803" lon="-2.89677">
        <ele>46.638461</ele>
        <time>2022-02-07T15:12:04.831Z</time>
      </trkpt>
      <trkpt lat="47.6977" lon="-2.89626">
        <ele>46.754617</ele>
        <time>2022-02-07T15:12:14.887Z</time>
      </trkpt>
      <trkpt lat="47.69751" lon="-2.89589">
        <ele>46.655497</ele>
        <time>2022-02-07T15:12:20.930Z</time>
      </trkpt>
      <trkpt lat="47.6976" lon="-2.8958">
        <ele>46.621396</ele>
        <time>2022-02-07T15:12:22.873Z</time>
      </trkpt>
      <trkpt lat="47.69735" lon="-2.89449">
        <ele>46.333492</ele>
        <time>2022-02-07T15:12:38.332Z</time>
      </trkpt>
      <trkpt lat="47.69691" lon="-2.89307">
        <ele>45.306323</ele>
        <time>2022-02-07T15:12:54.728Z</time>
      </trkpt>
      <trkpt lat="47.69687" lon="-2.89289">
        <ele>45.15072</ele>
        <time>2022-02-07T15:12:56.633Z</time>
      </trkpt>
      <trkpt lat="47.69684" lon="-2.89262">
        <ele>44.909275</ele>
        <time>2022-02-07T15:12:59.553Z</time>
      </trkpt>
      <trkpt lat="47.69668" lon="-2.89262">
        <ele>44.710339</ele>
        <time>2022-02-07T15:13:02.280Z</time>
      </trkpt>
      <trkpt lat="47.69585" lon="-2.89166">
        <ele>43.514632</ele>
        <time>2022-02-07T15:13:20.462Z</time>
      </trkpt>
      <trkpt lat="47.69585" lon="-2.89156">
        <ele>43.452987</ele>
        <time>2022-02-07T15:13:21.566Z</time>
      </trkpt>
      <trkpt lat="47.69539" lon="-2.8907">
        <ele>42.738816</ele>
        <time>2022-02-07T15:13:34.502Z</time>
      </trkpt>
      <trkpt lat="47.6947" lon="-2.88889">
        <ele>42.281477</ele>
        <time>2022-02-07T15:14:01.539Z</time>
      </trkpt>
      <trkpt lat="47.69421" lon="-2.88847">
        <ele>42.320733</ele>
        <time>2022-02-07T15:14:13.985Z</time>
      </trkpt>
      <trkpt lat="47.69392" lon="-2.888">
        <ele>42.225277</ele>
        <time>2022-02-07T15:14:23.528Z</time>
      </trkpt>
      <trkpt lat="47.69359" lon="-2.88717">
        <ele>41.00888</ele>
        <time>2022-02-07T15:14:35.805Z</time>
      </trkpt>
      <trkpt lat="47.69368" lon="-2.88723">
        <ele>40.826007</ele>
        <time>2022-02-07T15:14:37.316Z</time>
      </trkpt>
      <trkpt lat="47.69364" lon="-2.88714">
        <ele>40.684822</ele>
        <time>2022-02-07T15:14:38.558Z</time>
      </trkpt>
      <trkpt lat="47.69386" lon="-2.88688">
        <ele>40.158921</ele>
        <time>2022-02-07T15:14:42.882Z</time>
      </trkpt>
      <trkpt lat="47.69409" lon="-2.88673">
        <ele>39.679973</ele>
        <time>2022-02-07T15:14:46.859Z</time>
      </trkpt>
      <trkpt lat="47.69429" lon="-2.88647">
        <ele>39.1771</ele>
        <time>2022-02-07T15:14:50.996Z</time>
      </trkpt>
      <trkpt lat="47.69434" lon="-2.88627">
        <ele>38.88653</ele>
        <time>2022-02-07T15:14:53.112Z</time>
      </trkpt>
      <trkpt lat="47.69431" lon="-2.88603">
        <ele>38.414555</ele>
        <time>2022-02-07T15:14:55.700Z</time>
      </trkpt>
      <trkpt lat="47.69423" lon="-2.88559">
        <ele>37.533811</ele>
        <time>2022-02-07T15:15:00.222Z</time>
      </trkpt>
      <trkpt lat="47.69389" lon="-2.88503">
        <ele>36.064174</ele>
        <time>2022-02-07T15:15:07.962Z</time>
      </trkpt>
      <trkpt lat="47.69387" lon="-2.88457">
        <ele>35.164778</ele>
        <time>2022-02-07T15:15:12.760Z</time>
      </trkpt>
      <trkpt lat="47.69345" lon="-2.88448">
        <ele>33.967062</ele>
        <time>2022-02-07T15:15:19.350Z</time>
      </trkpt>
      <trkpt lat="47.69342" lon="-2.88443">
        <ele>33.834036</ele>
        <time>2022-02-07T15:15:20.053Z</time>
      </trkpt>
      <trkpt lat="47.69345" lon="-2.88431">
        <ele>33.850801</ele>
        <time>2022-02-07T15:15:21.497Z</time>
      </trkpt>
      <trkpt lat="47.69395" lon="-2.88398">
        <ele>34.654795</ele>
        <time>2022-02-07T15:15:33.285Z</time>
      </trkpt>
      <trkpt lat="47.69412" lon="-2.88384">
        <ele>34.947046</ele>
        <time>2022-02-07T15:15:40.785Z</time>
      </trkpt>
      <trkpt lat="47.69429" lon="-2.88388">
        <ele>35.200127</ele>
        <time>2022-02-07T15:15:46.875Z</time>
      </trkpt>
      <trkpt lat="47.6946" lon="-2.88343">
        <ele>35.848932</ele>
        <time>2022-02-07T15:16:03.960Z</time>
      </trkpt>
      <trkpt lat="47.69457" lon="-2.88328">
        <ele>36.012504</ele>
        <time>2022-02-07T15:16:08.690Z</time>
      </trkpt>
      <trkpt lat="47.69428" lon="-2.88314">
        <ele>36.488978</ele>
        <time>2022-02-07T15:16:21.591Z</time>
      </trkpt>
      <trkpt lat="47.69418" lon="-2.88302">
        <ele>36.956176</ele>
        <time>2022-02-07T15:16:27.372Z</time>
      </trkpt>
      <trkpt lat="47.69392" lon="-2.88254">
        <ele>38.415487</ele>
        <time>2022-02-07T15:16:46.167Z</time>
      </trkpt>
      <trkpt lat="47.69408" lon="-2.88201">
        <ele>39.801781</ele>
        <time>2022-02-07T15:16:59.190Z</time>
      </trkpt>
      <trkpt lat="47.6941" lon="-2.88151">
        <ele>40.970253</ele>
        <time>2022-02-07T15:17:09.543Z</time>
      </trkpt>
      <trkpt lat="47.69404" lon="-2.88118">
        <ele>41.795244</ele>
        <time>2022-02-07T15:17:17.046Z</time>
      </trkpt>
      <trkpt lat="47.69392" lon="-2.88084">
        <ele>42.687525</ele>
        <time>2022-02-07T15:17:25.271Z</time>
      </trkpt>
      <trkpt lat="47.69332" lon="-2.87947">
        <ele>45.594867</ele>
        <time>2022-02-07T15:17:59.007Z</time>
      </trkpt>
      <trkpt lat="47.69308" lon="-2.87905">
        <ele>46.55882</ele>
        <time>2022-02-07T15:18:08.696Z</time>
      </trkpt>
      <trkpt lat="47.69283" lon="-2.87765">
        <ele>47.58823</ele>
        <time>2022-02-07T15:18:33.265Z</time>
      </trkpt>
      <trkpt lat="47.69289" lon="-2.87734">
        <ele>47.631096</ele>
        <time>2022-02-07T15:18:38.111Z</time>
      </trkpt>
      <trkpt lat="47.69287" lon="-2.87717">
        <ele>47.653135</ele>
        <time>2022-02-07T15:18:40.644Z</time>
      </trkpt>
      <trkpt lat="47.69285" lon="-2.87692">
        <ele>47.687905</ele>
        <time>2022-02-07T15:18:44.264Z</time>
      </trkpt>
      <trkpt lat="47.69306" lon="-2.87631">
        <ele>47.779125</ele>
        <time>2022-02-07T15:18:52.540Z</time>
      </trkpt>
      <trkpt lat="47.69302" lon="-2.87613">
        <ele>47.804178</ele>
        <time>2022-02-07T15:18:54.791Z</time>
      </trkpt>
      <trkpt lat="47.69282" lon="-2.87571">
        <ele>47.215415</ele>
        <time>2022-02-07T15:19:00.765Z</time>
      </trkpt>
      <trkpt lat="47.69281" lon="-2.87557">
        <ele>46.995102</ele>
        <time>2022-02-07T15:19:02.407Z</time>
      </trkpt>
      <trkpt lat="47.69281" lon="-2.87549">
        <ele>46.871454</ele>
        <time>2022-02-07T15:19:03.309Z</time>
      </trkpt>
      <trkpt lat="47.69308" lon="-2.87545">
        <ele>46.275013</ele>
        <time>2022-02-07T15:19:07.708Z</time>
      </trkpt>
      <trkpt lat="47.69312" lon="-2.87535">
        <ele>46.090822</ele>
        <time>2022-02-07T15:19:09.031Z</time>
      </trkpt>
      <trkpt lat="47.69309" lon="-2.87474">
        <ele>45.161862</ele>
        <time>2022-02-07T15:19:15.605Z</time>
      </trkpt>
      <trkpt lat="47.69303" lon="-2.87336">
        <ele>42.832666</ele>
        <time>2022-02-07T15:19:30.204Z</time>
      </trkpt>
      <trkpt lat="47.69306" lon="-2.87214">
        <ele>40.43094</ele>
        <time>2022-02-07T15:19:42.865Z</time>
      </trkpt>
      <trkpt lat="47.69295" lon="-2.87106">
        <ele>38.366119</ele>
        <time>2022-02-07T15:19:54.504Z</time>
      </trkpt>
      <trkpt lat="47.69319" lon="-2.87034">
        <ele>37.482377</ele>
        <time>2022-02-07T15:20:03.342Z</time>
      </trkpt>
      <trkpt lat="47.69352" lon="-2.86894">
        <ele>35.869346</ele>
        <time>2022-02-07T15:20:20.502Z</time>
      </trkpt>
      <trkpt lat="47.69373" lon="-2.86825">
        <ele>35.582668</ele>
        <time>2022-02-07T15:20:29.915Z</time>
      </trkpt>
      <trkpt lat="47.69419" lon="-2.86713">
        <ele>35.658827</ele>
        <time>2022-02-07T15:20:47.314Z</time>
      </trkpt>
      <trkpt lat="47.6942" lon="-2.86663">
        <ele>35.687699</ele>
        <time>2022-02-07T15:20:54.720Z</time>
      </trkpt>
      <trkpt lat="47.69429" lon="-2.86641">
        <ele>35.702464</ele>
        <time>2022-02-07T15:20:58.655Z</time>
      </trkpt>
      <trkpt lat="47.69429" lon="-2.86621">
        <ele>35.779059</ele>
        <time>2022-02-07T15:21:01.824Z</time>
      </trkpt>
      <trkpt lat="47.69418" lon="-2.86594">
        <ele>36.112423</ele>
        <time>2022-02-07T15:21:06.940Z</time>
      </trkpt>
      <trkpt lat="47.69345" lon="-2.86503">
        <ele>37.614677</ele>
        <time>2022-02-07T15:21:31.180Z</time>
      </trkpt>
      <trkpt lat="47.69256" lon="-2.86436">
        <ele>39.376645</ele>
        <time>2022-02-07T15:21:59.455Z</time>
      </trkpt>
      <trkpt lat="47.69271" lon="-2.86365">
        <ele>40.420616</ele>
        <time>2022-02-07T15:22:14.453Z</time>
      </trkpt>
      <trkpt lat="47.69225" lon="-2.86352">
        <ele>41.402597</ele>
        <time>2022-02-07T15:22:28.564Z</time>
      </trkpt>
      <trkpt lat="47.69213" lon="-2.86335">
        <ele>41.749666</ele>
        <time>2022-02-07T15:22:32.886Z</time>
      </trkpt>
      <trkpt lat="47.692" lon="-2.8616">
        <ele>42.551811</ele>
        <time>2022-02-07T15:23:02.123Z</time>
      </trkpt>
      <trkpt lat="47.69193" lon="-2.86119">
        <ele>42.633213</ele>
        <time>2022-02-07T15:23:07.574Z</time>
      </trkpt>
      <trkpt lat="47.69176" lon="-2.86076">
        <ele>42.731509</ele>
        <time>2022-02-07T15:23:13.867Z</time>
      </trkpt>
      <trkpt lat="47.69169" lon="-2.86018">
        <ele>42.510494</ele>
        <time>2022-02-07T15:23:20.792Z</time>
      </trkpt>
      <trkpt lat="47.69176" lon="-2.85958">
        <ele>41.712107</ele>
        <time>2022-02-07T15:23:27.607Z</time>
      </trkpt>
      <trkpt lat="47.69181" lon="-2.85599">
        <ele>36.925073</ele>
        <time>2022-02-07T15:24:06.917Z</time>
      </trkpt>
      <trkpt lat="47.69158" lon="-2.85489">
        <ele>35.545817</ele>
        <time>2022-02-07T15:24:20.074Z</time>
      </trkpt>
      <trkpt lat="47.69159" lon="-2.8547">
        <ele>35.429405</ele>
        <time>2022-02-07T15:24:22.350Z</time>
      </trkpt>
      <trkpt lat="47.69163" lon="-2.85456">
        <ele>35.340076</ele>
        <time>2022-02-07T15:24:24.094Z</time>
      </trkpt>
      <trkpt lat="47.69191" lon="-2.85419">
        <ele>34.999333</ele>
        <time>2022-02-07T15:24:30.846Z</time>
      </trkpt>
      <trkpt lat="47.69207" lon="-2.85281">
        <ele>34.156494</ele>
        <time>2022-02-07T15:24:48.158Z</time>
      </trkpt>
      <trkpt lat="47.69205" lon="-2.85267">
        <ele>34.071222</ele>
        <time>2022-02-07T15:24:49.958Z</time>
      </trkpt>
      <trkpt lat="47.69187" lon="-2.85239">
        <ele>34.048468</ele>
        <time>2022-02-07T15:24:54.865Z</time>
      </trkpt>
      <trkpt lat="47.69135" lon="-2.85231">
        <ele>34.007057</ele>
        <time>2022-02-07T15:25:04.984Z</time>
      </trkpt>
      <trkpt lat="47.69113" lon="-2.85213">
        <ele>33.986758</ele>
        <time>2022-02-07T15:25:10.006Z</time>
      </trkpt>
      <trkpt lat="47.69089" lon="-2.85219">
        <ele>33.968038</ele>
        <time>2022-02-07T15:25:14.726Z</time>
      </trkpt>
      <trkpt lat="47.6908" lon="-2.85216">
        <ele>33.960664</ele>
        <time>2022-02-07T15:25:16.592Z</time>
      </trkpt>
      <trkpt lat="47.69066" lon="-2.85191">
        <ele>33.94314</ele>
        <time>2022-02-07T15:25:21.097Z</time>
      </trkpt>
      <trkpt lat="47.69035" lon="-2.85073">
        <ele>34.348897</ele>
        <time>2022-02-07T15:25:39.107Z</time>
      </trkpt>
      <trkpt lat="47.6901" lon="-2.8502">
        <ele>34.639007</ele>
        <time>2022-02-07T15:25:49.022Z</time>
      </trkpt>
      <trkpt lat="47.69005" lon="-2.85001">
        <ele>34.727092</ele>
        <time>2022-02-07T15:25:52.077Z</time>
      </trkpt>
      <trkpt lat="47.68991" lon="-2.84856">
        <ele>35.572101</ele>
        <time>2022-02-07T15:26:15.491Z</time>
      </trkpt>
      <trkpt lat="47.68993" lon="-2.84821">
        <ele>35.837766</ele>
        <time>2022-02-07T15:26:21.185Z</time>
      </trkpt>
      <trkpt lat="47.69036" lon="-2.84682">
        <ele>37.006567</ele>
        <time>2022-02-07T15:26:46.322Z</time>
      </trkpt>
      <trkpt lat="47.69094" lon="-2.84543">
        <ele>38.48882</ele>
        <time>2022-02-07T15:27:14.192Z</time>
      </trkpt>
      <trkpt lat="47.69111" lon="-2.84516">
        <ele>38.837701</ele>
        <time>2022-02-07T15:27:20.680Z</time>
      </trkpt>
      <trkpt lat="47.69121" lon="-2.84453">
        <ele>39.442944</ele>
        <time>2022-02-07T15:27:31.761Z</time>
      </trkpt>
      <trkpt lat="47.69115" lon="-2.84391">
        <ele>39.950079</ele>
        <time>2022-02-07T15:27:42.361Z</time>
      </trkpt>
      <trkpt lat="47.69124" lon="-2.84331">
        <ele>40.408269</ele>
        <time>2022-02-07T15:27:52.496Z</time>
      </trkpt>
      <trkpt lat="47.69119" lon="-2.84325">
        <ele>40.477237</ele>
        <time>2022-02-07T15:27:54.081Z</time>
      </trkpt>
      <trkpt lat="47.68966" lon="-2.84324">
        <ele>42.051992</ele>
        <time>2022-02-07T15:28:30.537Z</time>
      </trkpt>
      <trkpt lat="47.68949" lon="-2.84324">
        <ele>42.192395</ele>
        <time>2022-02-07T15:28:34.244Z</time>
      </trkpt>
      <trkpt lat="47.68944" lon="-2.84318">
        <ele>42.237891</ele>
        <time>2022-02-07T15:28:35.338Z</time>
      </trkpt>
      <trkpt lat="47.6894" lon="-2.84228">
        <ele>42.743377</ele>
        <time>2022-02-07T15:28:48.896Z</time>
      </trkpt>
      <trkpt lat="47.68936" lon="-2.84219">
        <ele>42.802387</ele>
        <time>2022-02-07T15:28:50.461Z</time>
      </trkpt>
      <trkpt lat="47.6892" lon="-2.84218">
        <ele>42.932948</ele>
        <time>2022-02-07T15:28:54.049Z</time>
      </trkpt>
      <trkpt lat="47.68908" lon="-2.84246">
        <ele>43.114214</ele>
        <time>2022-02-07T15:28:59.251Z</time>
      </trkpt>
      <trkpt lat="47.68876" lon="-2.84255">
        <ele>43.507243</ele>
        <time>2022-02-07T15:29:07.654Z</time>
      </trkpt>
      <trkpt lat="47.68872" lon="-2.8425">
        <ele>43.570655</ele>
        <time>2022-02-07T15:29:08.960Z</time>
      </trkpt>
      <trkpt lat="47.68879" lon="-2.84137">
        <ele>44.488832</ele>
        <time>2022-02-07T15:29:28.462Z</time>
      </trkpt>
      <trkpt lat="47.68887" lon="-2.84114">
        <ele>44.699708</ele>
        <time>2022-02-07T15:29:32.941Z</time>
      </trkpt>
      <trkpt lat="47.68883" lon="-2.84034">
        <ele>45.297723</ele>
        <time>2022-02-07T15:29:45.948Z</time>
      </trkpt>
      <trkpt lat="47.68888" lon="-2.84022">
        <ele>45.277857</ele>
        <time>2022-02-07T15:29:48.264Z</time>
      </trkpt>
      <trkpt lat="47.68912" lon="-2.84004">
        <ele>45.218902</ele>
        <time>2022-02-07T15:29:54.213Z</time>
      </trkpt>
      <trkpt lat="47.68914" lon="-2.8397">
        <ele>45.169473</ele>
        <time>2022-02-07T15:29:59.147Z</time>
      </trkpt>
      <trkpt lat="47.68925" lon="-2.83926">
        <ele>45.101535</ele>
        <time>2022-02-07T15:30:05.230Z</time>
      </trkpt>
      <trkpt lat="47.68965" lon="-2.83934">
        <ele>45.014499</ele>
        <time>2022-02-07T15:30:12.832Z</time>
      </trkpt>
      <trkpt lat="47.68972" lon="-2.83927">
        <ele>44.996278</ele>
        <time>2022-02-07T15:30:14.299Z</time>
      </trkpt>
      <trkpt lat="47.68989" lon="-2.83785">
        <ele>44.254232</ele>
        <time>2022-02-07T15:30:30.993Z</time>
      </trkpt>
      <trkpt lat="47.68995" lon="-2.83768">
        <ele>44.110305</ele>
        <time>2022-02-07T15:30:33.254Z</time>
      </trkpt>
      <trkpt lat="47.69007" lon="-2.83754">
        <ele>43.948434</ele>
        <time>2022-02-07T15:30:35.809Z</time>
      </trkpt>
      <trkpt lat="47.69026" lon="-2.83675">
        <ele>43.334908</ele>
        <time>2022-02-07T15:30:45.651Z</time>
      </trkpt>
      <trkpt lat="47.69025" lon="-2.83666">
        <ele>43.264696</ele>
        <time>2022-02-07T15:30:46.823Z</time>
      </trkpt>
      <trkpt lat="47.68928" lon="-2.83546">
        <ele>43.052396</ele>
        <time>2022-02-07T15:31:11.135Z</time>
      </trkpt>
      <trkpt lat="47.68856" lon="-2.83472">
        <ele>43.149953</ele>
        <time>2022-02-07T15:31:30.136Z</time>
      </trkpt>
      <trkpt lat="47.68792" lon="-2.83396">
        <ele>43.438266</ele>
        <time>2022-02-07T15:31:48.838Z</time>
      </trkpt>
      <trkpt lat="47.68753" lon="-2.83361">
        <ele>43.598532</ele>
        <time>2022-02-07T15:31:58.579Z</time>
      </trkpt>
      <trkpt lat="47.68749" lon="-2.83346">
        <ele>43.638164</ele>
        <time>2022-02-07T15:32:01.210Z</time>
      </trkpt>
      <trkpt lat="47.68734" lon="-2.8329">
        <ele>43.720621</ele>
        <time>2022-02-07T15:32:13.045Z</time>
      </trkpt>
      <trkpt lat="47.68718" lon="-2.8327">
        <ele>43.534857</ele>
        <time>2022-02-07T15:32:18.767Z</time>
      </trkpt>
      <trkpt lat="47.68652" lon="-2.8325">
        <ele>42.915791</ele>
        <time>2022-02-07T15:32:31.233Z</time>
      </trkpt>
      <trkpt lat="47.6862" lon="-2.83237">
        <ele>42.611966</ele>
        <time>2022-02-07T15:32:36.841Z</time>
      </trkpt>
      <trkpt lat="47.68617" lon="-2.83238">
        <ele>42.58909</ele>
        <time>2022-02-07T15:32:37.248Z</time>
      </trkpt>
      <trkpt lat="47.68609" lon="-2.83142">
        <ele>41.955446</ele>
        <time>2022-02-07T15:32:48.315Z</time>
      </trkpt>
      <trkpt lat="47.6859" lon="-2.83062">
        <ele>41.273336</ele>
        <time>2022-02-07T15:32:57.981Z</time>
      </trkpt>
      <trkpt lat="47.68565" lon="-2.82855">
        <ele>39.807199</ele>
        <time>2022-02-07T15:33:23.280Z</time>
      </trkpt>
      <trkpt lat="47.68633" lon="-2.82689">
        <ele>39.148017</ele>
        <time>2022-02-07T15:33:47.908Z</time>
      </trkpt>
      <trkpt lat="47.68674" lon="-2.8262">
        <ele>38.959613</ele>
        <time>2022-02-07T15:34:00.010Z</time>
      </trkpt>
      <trkpt lat="47.68693" lon="-2.82596">
        <ele>38.89999</ele>
        <time>2022-02-07T15:34:04.987Z</time>
      </trkpt>
      <trkpt lat="47.68726" lon="-2.82572">
        <ele>38.813075</ele>
        <time>2022-02-07T15:34:12.035Z</time>
      </trkpt>
      <trkpt lat="47.68729" lon="-2.82565">
        <ele>38.799348</ele>
        <time>2022-02-07T15:34:13.076Z</time>
      </trkpt>
      <trkpt lat="47.68735" lon="-2.82551">
        <ele>38.772622</ele>
        <time>2022-02-07T15:34:15.263Z</time>
      </trkpt>
      <trkpt lat="47.68735" lon="-2.82542">
        <ele>38.757928</ele>
        <time>2022-02-07T15:34:16.489Z</time>
      </trkpt>
      <trkpt lat="47.68718" lon="-2.82507">
        <ele>38.690303</ele>
        <time>2022-02-07T15:34:21.928Z</time>
      </trkpt>
      <trkpt lat="47.68714" lon="-2.8248">
        <ele>38.645529</ele>
        <time>2022-02-07T15:34:25.651Z</time>
      </trkpt>
      <trkpt lat="47.68694" lon="-2.82425">
        <ele>38.438004</ele>
        <time>2022-02-07T15:34:33.664Z</time>
      </trkpt>
      <trkpt lat="47.68697" lon="-2.82408">
        <ele>38.379107</ele>
        <time>2022-02-07T15:34:35.936Z</time>
      </trkpt>
      <trkpt lat="47.68719" lon="-2.82377">
        <ele>38.228573</ele>
        <time>2022-02-07T15:34:41.638Z</time>
      </trkpt>
      <trkpt lat="47.68722" lon="-2.8236">
        <ele>38.170373</ele>
        <time>2022-02-07T15:34:43.887Z</time>
      </trkpt>
      <trkpt lat="47.68718" lon="-2.82338">
        <ele>38.093894</ele>
        <time>2022-02-07T15:34:46.772Z</time>
      </trkpt>
      <trkpt lat="47.68712" lon="-2.82315">
        <ele>38.012589</ele>
        <time>2022-02-07T15:34:49.771Z</time>
      </trkpt>
      <trkpt lat="47.68675" lon="-2.82275">
        <ele>37.782463</ele>
        <time>2022-02-07T15:34:58.244Z</time>
      </trkpt>
      <trkpt lat="47.6866" lon="-2.82243">
        <ele>37.620312</ele>
        <time>2022-02-07T15:35:03.005Z</time>
      </trkpt>
      <trkpt lat="47.68654" lon="-2.82192">
        <ele>37.390566</ele>
        <time>2022-02-07T15:35:12.768Z</time>
      </trkpt>
      <trkpt lat="47.68636" lon="-2.82151">
        <ele>37.168337</ele>
        <time>2022-02-07T15:35:22.200Z</time>
      </trkpt>
      <trkpt lat="47.6863" lon="-2.82118">
        <ele>37.014434</ele>
        <time>2022-02-07T15:35:28.725Z</time>
      </trkpt>
      <trkpt lat="47.68637" lon="-2.82061">
        <ele>36.752084</ele>
        <time>2022-02-07T15:35:39.793Z</time>
      </trkpt>
      <trkpt lat="47.68624" lon="-2.82015">
        <ele>36.535422</ele>
        <time>2022-02-07T15:35:49.161Z</time>
      </trkpt>
      <trkpt lat="47.68604" lon="-2.81978">
        <ele>36.384837</ele>
        <time>2022-02-07T15:35:58.035Z</time>
      </trkpt>
      <trkpt lat="47.68581" lon="-2.81945">
        <ele>36.234113</ele>
        <time>2022-02-07T15:36:06.947Z</time>
      </trkpt>
      <trkpt lat="47.68517" lon="-2.81909">
        <ele>35.905845</ele>
        <time>2022-02-07T15:36:26.545Z</time>
      </trkpt>
      <trkpt lat="47.68486" lon="-2.81859">
        <ele>35.703297</ele>
        <time>2022-02-07T15:36:40.094Z</time>
      </trkpt>
      <trkpt lat="47.68452" lon="-2.81833">
        <ele>35.871492</ele>
        <time>2022-02-07T15:36:51.590Z</time>
      </trkpt>
      <trkpt lat="47.68419" lon="-2.8182">
        <ele>36.022383</ele>
        <time>2022-02-07T15:37:02.137Z</time>
      </trkpt>
      <trkpt lat="47.68405" lon="-2.81815">
        <ele>36.08397</ele>
        <time>2022-02-07T15:37:04.981Z</time>
      </trkpt>
      <trkpt lat="47.68399" lon="-2.81809">
        <ele>36.116409</ele>
        <time>2022-02-07T15:37:06.508Z</time>
      </trkpt>
      <trkpt lat="47.68369" lon="-2.81789">
        <ele>36.26392</ele>
        <time>2022-02-07T15:37:13.895Z</time>
      </trkpt>
      <trkpt lat="47.68364" lon="-2.81771">
        <ele>36.321399</ele>
        <time>2022-02-07T15:37:16.860Z</time>
      </trkpt>
      <trkpt lat="47.68352" lon="-2.81662">
        <ele>36.786902</ele>
        <time>2022-02-07T15:37:34.218Z</time>
      </trkpt>
      <trkpt lat="47.6847" lon="-2.81537">
        <ele>37.987701</ele>
        <time>2022-02-07T15:38:07.916Z</time>
      </trkpt>
      <trkpt lat="47.68465" lon="-2.8153">
        <ele>38.010477</ele>
        <time>2022-02-07T15:38:09.629Z</time>
      </trkpt>
      <trkpt lat="47.68416" lon="-2.81343">
        <ele>38.458611</ele>
        <time>2022-02-07T15:38:37.303Z</time>
      </trkpt>
      <trkpt lat="47.68417" lon="-2.81335">
        <ele>38.475352</ele>
        <time>2022-02-07T15:38:38.383Z</time>
      </trkpt>
      <trkpt lat="47.68435" lon="-2.81319">
        <ele>38.545066</ele>
        <time>2022-02-07T15:38:42.700Z</time>
      </trkpt>
      <trkpt lat="47.68432" lon="-2.81191">
        <ele>38.875258</ele>
        <time>2022-02-07T15:39:00.770Z</time>
      </trkpt>
      <trkpt lat="47.68452" lon="-2.81188">
        <ele>38.954028</ele>
        <time>2022-02-07T15:39:04.869Z</time>
      </trkpt>
      <trkpt lat="47.68458" lon="-2.81165">
        <ele>39.020649</ele>
        <time>2022-02-07T15:39:10.396Z</time>
      </trkpt>
      <trkpt lat="47.68456" lon="-2.81123">
        <ele>39.130072</ele>
        <time>2022-02-07T15:39:19.865Z</time>
      </trkpt>
      <trkpt lat="47.68449" lon="-2.81084">
        <ele>39.237617</ele>
        <time>2022-02-07T15:39:28.497Z</time>
      </trkpt>
      <trkpt lat="47.68438" lon="-2.8106">
        <ele>39.271259</ele>
        <time>2022-02-07T15:39:34.337Z</time>
      </trkpt>
      <trkpt lat="47.68475" lon="-2.81032">
        <ele>39.179001</ele>
        <time>2022-02-07T15:39:46.525Z</time>
      </trkpt>
      <trkpt lat="47.68482" lon="-2.81015">
        <ele>39.148331</ele>
        <time>2022-02-07T15:39:50.586Z</time>
      </trkpt>
      <trkpt lat="47.68479" lon="-2.80989">
        <ele>39.109146</ele>
        <time>2022-02-07T15:39:55.687Z</time>
      </trkpt>
      <trkpt lat="47.68471" lon="-2.80957">
        <ele>39.057311</ele>
        <time>2022-02-07T15:40:02.478Z</time>
      </trkpt>
      <trkpt lat="47.68491" lon="-2.80817">
        <ele>38.902948</ele>
        <time>2022-02-07T15:40:20.412Z</time>
      </trkpt>
      <trkpt lat="47.68514" lon="-2.80724">
        <ele>38.966528</ele>
        <time>2022-02-07T15:40:32.823Z</time>
      </trkpt>
      <trkpt lat="47.68501" lon="-2.80554">
        <ele>39.294147</ele>
        <time>2022-02-07T15:40:58.141Z</time>
      </trkpt>
      <trkpt lat="47.6848" lon="-2.80497">
        <ele>39.799861</ele>
        <time>2022-02-07T15:41:09.016Z</time>
      </trkpt>
      <trkpt lat="47.68461" lon="-2.80478">
        <ele>40.067517</ele>
        <time>2022-02-07T15:41:15.050Z</time>
      </trkpt>
      <trkpt lat="47.68475" lon="-2.80451">
        <ele>40.332318</ele>
        <time>2022-02-07T15:41:23.032Z</time>
      </trkpt>
      <trkpt lat="47.68446" lon="-2.80437">
        <ele>40.680985</ele>
        <time>2022-02-07T15:41:30.185Z</time>
      </trkpt>
      <trkpt lat="47.68401" lon="-2.80355">
        <ele>41.381257</ele>
        <time>2022-02-07T15:41:47.026Z</time>
      </trkpt>
      <trkpt lat="47.68341" lon="-2.80118">
        <ele>42.624446</ele>
        <time>2022-02-07T15:42:22.816Z</time>
      </trkpt>
      <trkpt lat="47.68335" lon="-2.80089">
        <ele>42.715853</ele>
        <time>2022-02-07T15:42:27.104Z</time>
      </trkpt>
      <trkpt lat="47.68334" lon="-2.80082">
        <ele>42.735367</ele>
        <time>2022-02-07T15:42:28.037Z</time>
      </trkpt>
      <trkpt lat="47.68309" lon="-2.79982">
        <ele>43.052111</ele>
        <time>2022-02-07T15:42:42.519Z</time>
      </trkpt>
      <trkpt lat="47.68287" lon="-2.79907">
        <ele>43.29443</ele>
        <time>2022-02-07T15:42:53.593Z</time>
      </trkpt>
      <trkpt lat="47.68279" lon="-2.79902">
        <ele>43.30741</ele>
        <time>2022-02-07T15:42:55.171Z</time>
      </trkpt>
      <trkpt lat="47.68275" lon="-2.7989">
        <ele>43.286207</ele>
        <time>2022-02-07T15:42:56.742Z</time>
      </trkpt>
      <trkpt lat="47.68282" lon="-2.79871">
        <ele>43.25013</ele>
        <time>2022-02-07T15:42:59.590Z</time>
      </trkpt>
      <trkpt lat="47.68282" lon="-2.7981">
        <ele>43.148101</ele>
        <time>2022-02-07T15:43:08.117Z</time>
      </trkpt>
      <trkpt lat="47.68283" lon="-2.79795">
        <ele>43.12265</ele>
        <time>2022-02-07T15:43:10.126Z</time>
      </trkpt>
      <trkpt lat="47.68285" lon="-2.79764">
        <ele>43.071028</ele>
        <time>2022-02-07T15:43:13.396Z</time>
      </trkpt>
      <trkpt lat="47.68292" lon="-2.79764">
        <ele>43.05339</ele>
        <time>2022-02-07T15:43:15.769Z</time>
      </trkpt>
      <trkpt lat="47.68295" lon="-2.79717">
        <ele>42.975271</ele>
        <time>2022-02-07T15:43:24.651Z</time>
      </trkpt>
      <trkpt lat="47.68276" lon="-2.79594">
        <ele>42.301172</ele>
        <time>2022-02-07T15:43:48.289Z</time>
      </trkpt>
      <trkpt lat="47.68291" lon="-2.79587">
        <ele>42.089358</ele>
        <time>2022-02-07T15:43:52.341Z</time>
      </trkpt>
      <trkpt lat="47.68338" lon="-2.79593">
        <ele>41.453252</ele>
        <time>2022-02-07T15:44:05.535Z</time>
      </trkpt>
      <trkpt lat="47.68344" lon="-2.79582">
        <ele>41.3308</ele>
        <time>2022-02-07T15:44:08.092Z</time>
      </trkpt>
      <trkpt lat="47.68345" lon="-2.79542">
        <ele>40.967392</ele>
        <time>2022-02-07T15:44:15.348Z</time>
      </trkpt>
      <trkpt lat="47.68333" lon="-2.79452">
        <ele>39.819678</ele>
        <time>2022-02-07T15:44:31.203Z</time>
      </trkpt>
      <trkpt lat="47.68362" lon="-2.79431">
        <ele>38.93494</ele>
        <time>2022-02-07T15:44:40.014Z</time>
      </trkpt>
      <trkpt lat="47.68368" lon="-2.79416">
        <ele>38.62158</ele>
        <time>2022-02-07T15:44:43.157Z</time>
      </trkpt>
      <trkpt lat="47.68363" lon="-2.79408">
        <ele>38.427645</ele>
        <time>2022-02-07T15:44:44.662Z</time>
      </trkpt>
      <trkpt lat="47.68342" lon="-2.79417">
        <ele>37.851505</ele>
        <time>2022-02-07T15:44:50.188Z</time>
      </trkpt>
      <trkpt lat="47.68337" lon="-2.79419">
        <ele>37.711092</ele>
        <time>2022-02-07T15:44:51.583Z</time>
      </trkpt>
      <trkpt lat="47.68334" lon="-2.79413">
        <ele>37.564432</ele>
        <time>2022-02-07T15:44:52.848Z</time>
      </trkpt>
      <trkpt lat="47.68357" lon="-2.79392">
        <ele>36.848634</ele>
        <time>2022-02-07T15:44:59.358Z</time>
      </trkpt>
      <trkpt lat="47.68343" lon="-2.79392">
        <ele>36.489153</ele>
        <time>2022-02-07T15:45:02.407Z</time>
      </trkpt>
      <trkpt lat="47.68345" lon="-2.79387">
        <ele>36.38482</ele>
        <time>2022-02-07T15:45:03.312Z</time>
      </trkpt>
      <trkpt lat="47.68381" lon="-2.79338">
        <ele>35.174581</ele>
        <time>2022-02-07T15:45:15.585Z</time>
      </trkpt>
      <trkpt lat="47.68387" lon="-2.7932">
        <ele>34.872916</ele>
        <time>2022-02-07T15:45:19.279Z</time>
      </trkpt>
      <trkpt lat="47.68383" lon="-2.79311">
        <ele>34.725191</ele>
        <time>2022-02-07T15:45:20.681Z</time>
      </trkpt>
      <trkpt lat="47.68372" lon="-2.7928">
        <ele>34.21373</ele>
        <time>2022-02-07T15:45:27.007Z</time>
      </trkpt>
      <trkpt lat="47.68326" lon="-2.79296">
        <ele>33.180605</ele>
        <time>2022-02-07T15:45:38.906Z</time>
      </trkpt>
      <trkpt lat="47.68281" lon="-2.7933">
        <ele>32.100822</ele>
        <time>2022-02-07T15:45:52.138Z</time>
      </trkpt>
      <trkpt lat="47.68279" lon="-2.79261">
        <ele>32.019863</ele>
        <time>2022-02-07T15:46:04.788Z</time>
      </trkpt>
      <trkpt lat="47.6827" lon="-2.79261">
        <ele>32.124459</ele>
        <time>2022-02-07T15:46:08.230Z</time>
      </trkpt>
      <trkpt lat="47.6827" lon="-2.79174">
        <ele>32.793316</ele>
        <time>2022-02-07T15:46:28.325Z</time>
      </trkpt>
      <trkpt lat="47.68263" lon="-2.79169">
        <ele>32.886889</ele>
        <time>2022-02-07T15:46:31.549Z</time>
      </trkpt>
      <trkpt lat="47.68243" lon="-2.79187">
        <ele>33.15172</ele>
        <time>2022-02-07T15:46:40.654Z</time>
      </trkpt>
      <trkpt lat="47.68223" lon="-2.79156">
        <ele>33.485088</ele>
        <time>2022-02-07T15:46:52.213Z</time>
      </trkpt>
      <trkpt lat="47.68214" lon="-2.79071">
        <ele>34.422547</ele>
        <time>2022-02-07T15:47:14.228Z</time>
      </trkpt>
      <trkpt lat="47.68216" lon="-2.79061">
        <ele>34.568066</ele>
        <time>2022-02-07T15:47:17.194Z</time>
      </trkpt>
      <trkpt lat="47.68216" lon="-2.79056">
        <ele>34.626262</ele>
        <time>2022-02-07T15:47:18.266Z</time>
      </trkpt>
      <trkpt lat="47.68209" lon="-2.79018">
        <ele>35.14718</ele>
        <time>2022-02-07T15:47:25.158Z</time>
      </trkpt>
      <trkpt lat="47.68218" lon="-2.78997">
        <ele>35.465662</ele>
        <time>2022-02-07T15:47:29.592Z</time>
      </trkpt>
      <trkpt lat="47.68199" lon="-2.7897">
        <ele>35.968928</ele>
        <time>2022-02-07T15:47:36.530Z</time>
      </trkpt>
      <trkpt lat="47.68196" lon="-2.78957">
        <ele>36.151948</ele>
        <time>2022-02-07T15:47:38.900Z</time>
      </trkpt>
      <trkpt lat="47.682" lon="-2.78905">
        <ele>36.84422</ele>
        <time>2022-02-07T15:47:48.412Z</time>
      </trkpt>
      <trkpt lat="47.6821" lon="-2.78841">
        <ele>37.436508</ele>
        <time>2022-02-07T15:47:59.409Z</time>
      </trkpt>
      <trkpt lat="47.68214" lon="-2.78807">
        <ele>37.619243</ele>
        <time>2022-02-07T15:48:04.934Z</time>
      </trkpt>
      <trkpt lat="47.68217" lon="-2.7852">
        <ele>38.961726</ele>
        <time>2022-02-07T15:48:42.616Z</time>
      </trkpt>
      <trkpt lat="47.68223" lon="-2.7844">
        <ele>39.236462</ele>
        <time>2022-02-07T15:48:53.305Z</time>
      </trkpt>
      <trkpt lat="47.68219" lon="-2.78418">
        <ele>39.314785</ele>
        <time>2022-02-07T15:48:56.189Z</time>
      </trkpt>
      <trkpt lat="47.68233" lon="-2.78415">
        <ele>39.389623</ele>
        <time>2022-02-07T15:49:01.023Z</time>
      </trkpt>
      <trkpt lat="47.68268" lon="-2.78436">
        <ele>39.582152</ele>
        <time>2022-02-07T15:49:13.096Z</time>
      </trkpt>
      <trkpt lat="47.68305" lon="-2.78448">
        <ele>39.766516</ele>
        <time>2022-02-07T15:49:25.227Z</time>
      </trkpt>
      <trkpt lat="47.6836" lon="-2.78456">
        <ele>40.033588</ele>
        <time>2022-02-07T15:49:42.725Z</time>
      </trkpt>
      <trkpt lat="47.68421" lon="-2.78479">
        <ele>40.339962</ele>
        <time>2022-02-07T15:50:02.778Z</time>
      </trkpt>
      <trkpt lat="47.68462" lon="-2.78484">
        <ele>40.588176</ele>
        <time>2022-02-07T15:50:15.268Z</time>
      </trkpt>
      <trkpt lat="47.68515" lon="-2.78507">
        <ele>41.000977</ele>
        <time>2022-02-07T15:50:32.314Z</time>
      </trkpt>
      <trkpt lat="47.68553" lon="-2.78537">
        <ele>41.326053</ele>
        <time>2022-02-07T15:50:47.222Z</time>
      </trkpt>
      <trkpt lat="47.68586" lon="-2.78546">
        <ele>41.576755</ele>
        <time>2022-02-07T15:50:59.188Z</time>
      </trkpt>
      <trkpt lat="47.68623" lon="-2.78544">
        <ele>41.772644</ele>
        <time>2022-02-07T15:51:12.834Z</time>
      </trkpt>
      <trkpt lat="47.68632" lon="-2.78538">
        <ele>41.74039</ele>
        <time>2022-02-07T15:51:15.617Z</time>
      </trkpt>
      <trkpt lat="47.68693" lon="-2.78489">
        <ele>41.508992</ele>
        <time>2022-02-07T15:51:35.017Z</time>
      </trkpt>
      <trkpt lat="47.68753" lon="-2.78465">
        <ele>41.29968</ele>
        <time>2022-02-07T15:51:52.008Z</time>
      </trkpt>
      <trkpt lat="47.6878" lon="-2.78507">
        <ele>41.187566</ele>
        <time>2022-02-07T15:52:03.889Z</time>
      </trkpt>
      <trkpt lat="47.68793" lon="-2.78521">
        <ele>41.168404</ele>
        <time>2022-02-07T15:52:09.924Z</time>
      </trkpt>
      <trkpt lat="47.68805" lon="-2.78525">
        <ele>41.154095</ele>
        <time>2022-02-07T15:52:13.125Z</time>
      </trkpt>
      <trkpt lat="47.68812" lon="-2.78534">
        <ele>41.142211</ele>
        <time>2022-02-07T15:52:15.843Z</time>
      </trkpt>
      <trkpt lat="47.68845" lon="-2.78538">
        <ele>41.103651</ele>
        <time>2022-02-07T15:52:25.254Z</time>
      </trkpt>
      <trkpt lat="47.68862" lon="-2.78548">
        <ele>41.081473</ele>
        <time>2022-02-07T15:52:31.229Z</time>
      </trkpt>
      <trkpt lat="47.68872" lon="-2.78554">
        <ele>41.068524</ele>
        <time>2022-02-07T15:52:34.009Z</time>
      </trkpt>
      <trkpt lat="47.68882" lon="-2.78571">
        <ele>41.050727</ele>
        <time>2022-02-07T15:52:37.977Z</time>
      </trkpt>
      <trkpt lat="47.68894" lon="-2.78576">
        <ele>41.035421</ele>
        <time>2022-02-07T15:52:42.297Z</time>
      </trkpt>
      <trkpt lat="47.68946" lon="-2.78628">
        <ele>41.046932</ele>
        <time>2022-02-07T15:53:00.680Z</time>
      </trkpt>
      <trkpt lat="47.6896" lon="-2.7861">
        <ele>41.107752</ele>
        <time>2022-02-07T15:53:07.648Z</time>
      </trkpt>
      <trkpt lat="47.68979" lon="-2.7855">
        <ele>41.258091</ele>
        <time>2022-02-07T15:53:23.479Z</time>
      </trkpt>
      <trkpt lat="47.6902" lon="-2.78358">
        <ele>41.444775</ele>
        <time>2022-02-07T15:54:03.518Z</time>
      </trkpt>
      <trkpt lat="47.69043" lon="-2.78327">
        <ele>41.333527</ele>
        <time>2022-02-07T15:54:12.107Z</time>
      </trkpt>
      <trkpt lat="47.69069" lon="-2.78319">
        <ele>41.237229</ele>
        <time>2022-02-07T15:54:19.641Z</time>
      </trkpt>
      <trkpt lat="47.69162" lon="-2.78314">
        <ele>40.955475</ele>
        <time>2022-02-07T15:54:46.391Z</time>
      </trkpt>
      <trkpt lat="47.69207" lon="-2.78312">
        <ele>41.096296</ele>
        <time>2022-02-07T15:54:59.920Z</time>
      </trkpt>
      <trkpt lat="47.69233" lon="-2.78323">
        <ele>41.178951</ele>
        <time>2022-02-07T15:55:08.187Z</time>
      </trkpt>
      <trkpt lat="47.6922" lon="-2.78357">
        <ele>41.260056</ele>
        <time>2022-02-07T15:55:13.266Z</time>
      </trkpt>
      <trkpt lat="47.69216" lon="-2.78372">
        <ele>41.293354</ele>
        <time>2022-02-07T15:55:15.560Z</time>
      </trkpt>
      <trkpt lat="47.69199" lon="-2.78879">
        <ele>43.356367</ele>
        <time>2022-02-07T15:56:29.122Z</time>
      </trkpt>
      <trkpt lat="47.69213" lon="-2.78916">
        <ele>43.504733</ele>
        <time>2022-02-07T15:56:34.392Z</time>
      </trkpt>
      <trkpt lat="47.69283" lon="-2.79035">
        <ele>44.244823</ele>
        <time>2022-02-07T15:56:55.348Z</time>
      </trkpt>
      <trkpt lat="47.69309" lon="-2.79125">
        <ele>44.811912</ele>
        <time>2022-02-07T15:57:09.609Z</time>
      </trkpt>
      <trkpt lat="47.69319" lon="-2.79165">
        <ele>45.059983</ele>
        <time>2022-02-07T15:57:16.464Z</time>
      </trkpt>
      <trkpt lat="47.6935" lon="-2.79212">
        <ele>45.62034</ele>
        <time>2022-02-07T15:57:27.134Z</time>
      </trkpt>
      <trkpt lat="47.69401" lon="-2.79274">
        <ele>46.979095</ele>
        <time>2022-02-07T15:57:44.454Z</time>
      </trkpt>
      <trkpt lat="47.69434" lon="-2.79314">
        <ele>47.856481</ele>
        <time>2022-02-07T15:57:56.966Z</time>
      </trkpt>
      <trkpt lat="47.69502" lon="-2.79396">
        <ele>49.927874</ele>
        <time>2022-02-07T15:58:20.183Z</time>
      </trkpt>
      <trkpt lat="47.69515" lon="-2.79421">
        <ele>50.529288</ele>
        <time>2022-02-07T15:58:26.487Z</time>
      </trkpt>
      <trkpt lat="47.69525" lon="-2.79468">
        <ele>51.477704</ele>
        <time>2022-02-07T15:58:36.825Z</time>
      </trkpt>
      <trkpt lat="47.6953" lon="-2.79527">
        <ele>52.633397</ele>
        <time>2022-02-07T15:58:49.760Z</time>
      </trkpt>
      <trkpt lat="47.69532" lon="-2.79545">
        <ele>52.973415</ele>
        <time>2022-02-07T15:58:53.286Z</time>
      </trkpt>
      <trkpt lat="47.6954" lon="-2.79608">
        <ele>54.218595</ele>
        <time>2022-02-07T15:59:06.754Z</time>
      </trkpt>
      <trkpt lat="47.69556" lon="-2.79666">
        <ele>54.829477</ele>
        <time>2022-02-07T15:59:19.429Z</time>
      </trkpt>
      <trkpt lat="47.69557" lon="-2.79669">
        <ele>54.860169</ele>
        <time>2022-02-07T15:59:20.069Z</time>
      </trkpt>
      <trkpt lat="47.69571" lon="-2.79667">
        <ele>55.06364</ele>
        <time>2022-02-07T15:59:25.946Z</time>
      </trkpt>
      <trkpt lat="47.69595" lon="-2.79642">
        <ele>55.497246</ele>
        <time>2022-02-07T15:59:37.439Z</time>
      </trkpt>
      <trkpt lat="47.69654" lon="-2.79635">
        <ele>56.35503</ele>
        <time>2022-02-07T15:59:58.422Z</time>
      </trkpt>
      <trkpt lat="47.69721" lon="-2.79609">
        <ele>55.975226</ele>
        <time>2022-02-07T16:00:17.364Z</time>
      </trkpt>
      <trkpt lat="47.69777" lon="-2.79608">
        <ele>54.650704</ele>
        <time>2022-02-07T16:00:31.588Z</time>
      </trkpt>
      <trkpt lat="47.69778" lon="-2.79608">
        <ele>54.619915</ele>
        <time>2022-02-07T16:00:31.865Z</time>
      </trkpt>
      <trkpt lat="47.69824" lon="-2.79582">
        <ele>53.45637</ele>
        <time>2022-02-07T16:00:44.088Z</time>
      </trkpt>
      <trkpt lat="47.69834" lon="-2.79574">
        <ele>53.190585</ele>
        <time>2022-02-07T16:00:46.993Z</time>
      </trkpt>
      <trkpt lat="47.69851" lon="-2.79578">
        <ele>52.772282</ele>
        <time>2022-02-07T16:00:51.261Z</time>
      </trkpt>
      <trkpt lat="47.69931" lon="-2.79619">
        <ele>51.181389</ele>
        <time>2022-02-07T16:01:11.964Z</time>
      </trkpt>
      <trkpt lat="47.69953" lon="-2.79637">
        <ele>50.731348</ele>
        <time>2022-02-07T16:01:18.332Z</time>
      </trkpt>
      <trkpt lat="47.6996" lon="-2.79654">
        <ele>50.493201</ele>
        <time>2022-02-07T16:01:21.802Z</time>
      </trkpt>
      <trkpt lat="47.6996" lon="-2.79689">
        <ele>50.063856</ele>
        <time>2022-02-07T16:01:28.432Z</time>
      </trkpt>
      <trkpt lat="47.69965" lon="-2.79705">
        <ele>49.841126</ele>
        <time>2022-02-07T16:01:31.874Z</time>
      </trkpt>
      <trkpt lat="47.69981" lon="-2.79714">
        <ele>49.527527</ele>
        <time>2022-02-07T16:01:37.058Z</time>
      </trkpt>
      <trkpt lat="47.69959" lon="-2.79836">
        <ele>49.782423</ele>
        <time>2022-02-07T16:01:54.180Z</time>
      </trkpt>
      <trkpt lat="47.69958" lon="-2.79845">
        <ele>49.823597</ele>
        <time>2022-02-07T16:01:55.253Z</time>
      </trkpt>
      <trkpt lat="47.69954" lon="-2.79863">
        <ele>49.908017</ele>
        <time>2022-02-07T16:01:57.945Z</time>
      </trkpt>
      <trkpt lat="47.69949" lon="-2.79894">
        <ele>50.053194</ele>
        <time>2022-02-07T16:02:02.432Z</time>
      </trkpt>
      <trkpt lat="47.69943" lon="-2.79927">
        <ele>50.205766</ele>
        <time>2022-02-07T16:02:07.410Z</time>
      </trkpt>
      <trkpt lat="47.6994" lon="-2.79947">
        <ele>50.297744</ele>
        <time>2022-02-07T16:02:10.525Z</time>
      </trkpt>
      <trkpt lat="47.69929" lon="-2.79991">
        <ele>50.506873</ele>
        <time>2022-02-07T16:02:17.718Z</time>
      </trkpt>
      <trkpt lat="47.6992" lon="-2.80033">
        <ele>50.650049</ele>
        <time>2022-02-07T16:02:24.157Z</time>
      </trkpt>
      <trkpt lat="47.69896" lon="-2.80146">
        <ele>51.033464</ele>
        <time>2022-02-07T16:02:39.969Z</time>
      </trkpt>
      <trkpt lat="47.69886" lon="-2.80243">
        <ele>51.349324</ele>
        <time>2022-02-07T16:02:52.285Z</time>
      </trkpt>
      <trkpt lat="47.69883" lon="-2.8034">
        <ele>51.405923</ele>
        <time>2022-02-07T16:03:03.578Z</time>
      </trkpt>
      <trkpt lat="47.69882" lon="-2.80392">
        <ele>51.42825</ele>
        <time>2022-02-07T16:03:10.027Z</time>
      </trkpt>
      <trkpt lat="47.6987" lon="-2.8043">
        <ele>51.445718</ele>
        <time>2022-02-07T16:03:15.165Z</time>
      </trkpt>
      <trkpt lat="47.69846" lon="-2.80482">
        <ele>51.472564</ele>
        <time>2022-02-07T16:03:22.954Z</time>
      </trkpt>
      <trkpt lat="47.69851" lon="-2.80492">
        <ele>51.478093</ele>
        <time>2022-02-07T16:03:24.596Z</time>
      </trkpt>
      <trkpt lat="47.69883" lon="-2.80552">
        <ele>51.393995</ele>
        <time>2022-02-07T16:03:34.355Z</time>
      </trkpt>
      <trkpt lat="47.69908" lon="-2.80608">
        <ele>51.311097</ele>
        <time>2022-02-07T16:03:42.584Z</time>
      </trkpt>
      <trkpt lat="47.69922" lon="-2.80645">
        <ele>51.259522</ele>
        <time>2022-02-07T16:03:47.459Z</time>
      </trkpt>
      <trkpt lat="47.69942" lon="-2.80697">
        <ele>51.186285</ele>
        <time>2022-02-07T16:03:54.229Z</time>
      </trkpt>
      <trkpt lat="47.69965" lon="-2.80735">
        <ele>50.96906</ele>
        <time>2022-02-07T16:03:59.779Z</time>
      </trkpt>
      <trkpt lat="47.69982" lon="-2.80755">
        <ele>50.722085</ele>
        <time>2022-02-07T16:04:03.240Z</time>
      </trkpt>
      <trkpt lat="47.69988" lon="-2.80762">
        <ele>50.636309</ele>
        <time>2022-02-07T16:04:04.449Z</time>
      </trkpt>
      <trkpt lat="47.70015" lon="-2.80741">
        <ele>50.29351</ele>
        <time>2022-02-07T16:04:09.411Z</time>
      </trkpt>
      <trkpt lat="47.70066" lon="-2.80712">
        <ele>49.671474</ele>
        <time>2022-02-07T16:04:18.358Z</time>
      </trkpt>
      <trkpt lat="47.70098" lon="-2.80693">
        <ele>49.277865</ele>
        <time>2022-02-07T16:04:23.918Z</time>
      </trkpt>
      <trkpt lat="47.70141" lon="-2.80663">
        <ele>48.926314</ele>
        <time>2022-02-07T16:04:31.480Z</time>
      </trkpt>
      <trkpt lat="47.70183" lon="-2.80638">
        <ele>48.668299</ele>
        <time>2022-02-07T16:04:38.901Z</time>
      </trkpt>
      <trkpt lat="47.7021" lon="-2.80632">
        <ele>48.51695</ele>
        <time>2022-02-07T16:04:43.395Z</time>
      </trkpt>
      <trkpt lat="47.70255" lon="-2.80612">
        <ele>48.252727</ele>
        <time>2022-02-07T16:04:51.872Z</time>
      </trkpt>
      <trkpt lat="47.70307" lon="-2.80562">
        <ele>48.754043</ele>
        <time>2022-02-07T16:05:04.908Z</time>
      </trkpt>
      <trkpt lat="47.70406" lon="-2.80495">
        <ele>50.801854</ele>
        <time>2022-02-07T16:05:34.501Z</time>
      </trkpt>
      <trkpt lat="47.70447" lon="-2.8047">
        <ele>51.638458</ele>
        <time>2022-02-07T16:05:48.114Z</time>
      </trkpt>
      <trkpt lat="47.70457" lon="-2.8046">
        <ele>51.843191</ele>
        <time>2022-02-07T16:05:51.754Z</time>
      </trkpt>
      <trkpt lat="47.705" lon="-2.80413">
        <ele>52.738319</ele>
        <time>2022-02-07T16:06:06.587Z</time>
      </trkpt>
      <trkpt lat="47.70511" lon="-2.80407">
        <ele>52.95514</ele>
        <time>2022-02-07T16:06:09.964Z</time>
      </trkpt>
      <trkpt lat="47.70546" lon="-2.80412">
        <ele>53.542946</ele>
        <time>2022-02-07T16:06:18.783Z</time>
      </trkpt>
      <trkpt lat="47.70572" lon="-2.80391">
        <ele>54.049602</ele>
        <time>2022-02-07T16:06:25.801Z</time>
      </trkpt>
      <trkpt lat="47.70603" lon="-2.8035">
        <ele>54.581104</ele>
        <time>2022-02-07T16:06:34.367Z</time>
      </trkpt>
      <trkpt lat="47.70634" lon="-2.8033">
        <ele>54.630526</ele>
        <time>2022-02-07T16:06:40.405Z</time>
      </trkpt>
      <trkpt lat="47.70805" lon="-2.80364">
        <ele>55.206659</ele>
        <time>2022-02-07T16:07:12.177Z</time>
      </trkpt>
      <trkpt lat="47.70994" lon="-2.80361">
        <ele>56.932779</ele>
        <time>2022-02-07T16:07:57.659Z</time>
      </trkpt>
      <trkpt lat="47.7105" lon="-2.80348">
        <ele>57.300362</ele>
        <time>2022-02-07T16:08:10.041Z</time>
      </trkpt>
      <trkpt lat="47.71141" lon="-2.80309">
        <ele>57.856535</ele>
        <time>2022-02-07T16:08:27.544Z</time>
      </trkpt>
      <trkpt lat="47.71363" lon="-2.80214">
        <ele>59.898184</ele>
        <time>2022-02-07T16:09:14.150Z</time>
      </trkpt>
      <trkpt lat="47.71549" lon="-2.80181">
        <ele>63.761938</ele>
        <time>2022-02-07T16:10:13.110Z</time>
      </trkpt>
      <trkpt lat="47.71675" lon="-2.80139">
        <ele>65.441912</ele>
        <time>2022-02-07T16:10:44.001Z</time>
      </trkpt>
      <trkpt lat="47.71768" lon="-2.80115">
        <ele>64.156216</ele>
        <time>2022-02-07T16:10:59.059Z</time>
      </trkpt>
      <trkpt lat="47.71865" lon="-2.80114">
        <ele>62.417491</ele>
        <time>2022-02-07T16:11:13.256Z</time>
      </trkpt>
      <trkpt lat="47.71897" lon="-2.8012">
        <ele>61.631996</ele>
        <time>2022-02-07T16:11:17.940Z</time>
      </trkpt>
      <trkpt lat="47.71913" lon="-2.80123">
        <ele>61.252797</ele>
        <time>2022-02-07T16:11:20.197Z</time>
      </trkpt>
      <trkpt lat="47.72005" lon="-2.80118">
        <ele>59.007292</ele>
        <time>2022-02-07T16:11:34.038Z</time>
      </trkpt>
      <trkpt lat="47.72115" lon="-2.80171">
        <ele>58.838679</ele>
        <time>2022-02-07T16:11:53.969Z</time>
      </trkpt>
      <trkpt lat="47.72183" lon="-2.80205">
        <ele>58.869417</ele>
        <time>2022-02-07T16:12:10.213Z</time>
      </trkpt>
      <trkpt lat="47.72229" lon="-2.80228">
        <ele>59.825282</ele>
        <time>2022-02-07T16:12:22.607Z</time>
      </trkpt>
      <trkpt lat="47.72242" lon="-2.80225">
        <ele>60.095155</ele>
        <time>2022-02-07T16:12:26.258Z</time>
      </trkpt>
      <trkpt lat="47.72368" lon="-2.80144">
        <ele>62.938764</ele>
        <time>2022-02-07T16:13:03.851Z</time>
      </trkpt>
      <trkpt lat="47.72379" lon="-2.8014">
        <ele>63.238966</ele>
        <time>2022-02-07T16:13:07.367Z</time>
      </trkpt>
      <trkpt lat="47.72385" lon="-2.80141">
        <ele>63.391825</ele>
        <time>2022-02-07T16:13:08.984Z</time>
      </trkpt>
      <trkpt lat="47.72436" lon="-2.80152">
        <ele>64.688511</ele>
        <time>2022-02-07T16:13:23.641Z</time>
      </trkpt>
      <trkpt lat="47.72456" lon="-2.80146">
        <ele>65.199744</ele>
        <time>2022-02-07T16:13:29.617Z</time>
      </trkpt>
      <trkpt lat="47.72512" lon="-2.80113">
        <ele>66.721358</ele>
        <time>2022-02-07T16:13:47.395Z</time>
      </trkpt>
      <trkpt lat="47.72519" lon="-2.8011">
        <ele>66.897914</ele>
        <time>2022-02-07T16:13:49.657Z</time>
      </trkpt>
      <trkpt lat="47.72665" lon="-2.8007">
        <ele>70.07607</ele>
        <time>2022-02-07T16:14:30.855Z</time>
      </trkpt>
      <trkpt lat="47.72732" lon="-2.80223">
        <ele>71.475812</ele>
        <time>2022-02-07T16:14:58.527Z</time>
      </trkpt>
      <trkpt lat="47.72793" lon="-2.80315">
        <ele>72.184087</ele>
        <time>2022-02-07T16:15:15.152Z</time>
      </trkpt>
      <trkpt lat="47.72841" lon="-2.80399">
        <ele>72.390059</ele>
        <time>2022-02-07T16:15:29.199Z</time>
      </trkpt>
      <trkpt lat="47.72892" lon="-2.80526">
        <ele>72.669165</ele>
        <time>2022-02-07T16:15:48.276Z</time>
      </trkpt>
      <trkpt lat="47.72935" lon="-2.80623">
        <ele>72.471855</ele>
        <time>2022-02-07T16:16:02.194Z</time>
      </trkpt>
      <trkpt lat="47.72973" lon="-2.80715">
        <ele>72.256595</ele>
        <time>2022-02-07T16:16:14.305Z</time>
      </trkpt>
      <trkpt lat="47.72981" lon="-2.80745">
        <ele>72.190782</ele>
        <time>2022-02-07T16:16:18.008Z</time>
      </trkpt>
      <trkpt lat="47.72997" lon="-2.80883">
        <ele>71.950002</ele>
        <time>2022-02-07T16:16:33.309Z</time>
      </trkpt>
      <trkpt lat="47.72998" lon="-2.80892">
        <ele>71.933465</ele>
        <time>2022-02-07T16:16:34.420Z</time>
      </trkpt>
      <trkpt lat="47.73" lon="-2.80912">
        <ele>71.899726</ele>
        <time>2022-02-07T16:16:36.667Z</time>
      </trkpt>
      <trkpt lat="47.73002" lon="-2.80925">
        <ele>71.877925</ele>
        <time>2022-02-07T16:16:38.113Z</time>
      </trkpt>
      <trkpt lat="47.73083" lon="-2.8108">
        <ele>72.307399</ele>
        <time>2022-02-07T16:17:04.466Z</time>
      </trkpt>
      <trkpt lat="47.73215" lon="-2.81326">
        <ele>74.44285</ele>
        <time>2022-02-07T16:17:55.025Z</time>
      </trkpt>
      <trkpt lat="47.73261" lon="-2.8149">
        <ele>75.376348</ele>
        <time>2022-02-07T16:18:20.920Z</time>
      </trkpt>
      <trkpt lat="47.73352" lon="-2.81631">
        <ele>75.491278</ele>
        <time>2022-02-07T16:18:45.508Z</time>
      </trkpt>
      <trkpt lat="47.73442" lon="-2.81797">
        <ele>74.443072</ele>
        <time>2022-02-07T16:19:10.310Z</time>
      </trkpt>
      <trkpt lat="47.73556" lon="-2.82002">
        <ele>71.961628</ele>
        <time>2022-02-07T16:19:38.804Z</time>
      </trkpt>
      <trkpt lat="47.73558" lon="-2.82019">
        <ele>71.773429</ele>
        <time>2022-02-07T16:19:40.649Z</time>
      </trkpt>
      <trkpt lat="47.73557" lon="-2.82028">
        <ele>71.667646</ele>
        <time>2022-02-07T16:19:41.576Z</time>
      </trkpt>
      <trkpt lat="47.73537" lon="-2.82045">
        <ele>71.301704</ele>
        <time>2022-02-07T16:19:45.197Z</time>
      </trkpt>
      <trkpt lat="47.73439" lon="-2.82091">
        <ele>69.697181</ele>
        <time>2022-02-07T16:20:00.897Z</time>
      </trkpt>
      <trkpt lat="47.73351" lon="-2.82119">
        <ele>68.295198</ele>
        <time>2022-02-07T16:20:15.365Z</time>
      </trkpt>
      <trkpt lat="47.73435" lon="-2.82299">
        <ele>67.855071</ele>
        <time>2022-02-07T16:20:41.175Z</time>
      </trkpt>
      <trkpt lat="47.73448" lon="-2.82329">
        <ele>67.782193</ele>
        <time>2022-02-07T16:20:46.403Z</time>
      </trkpt>
      <trkpt lat="47.73573" lon="-2.82604">
        <ele>69.218825</ele>
        <time>2022-02-07T16:21:34.124Z</time>
      </trkpt>
      <trkpt lat="47.73638" lon="-2.8273">
        <ele>70.101092</ele>
        <time>2022-02-07T16:21:55.871Z</time>
      </trkpt>
      <trkpt lat="47.73657" lon="-2.82769">
        <ele>70.372907</ele>
        <time>2022-02-07T16:22:03.486Z</time>
      </trkpt>
      <trkpt lat="47.73664" lon="-2.82783">
        <ele>70.614175</ele>
        <time>2022-02-07T16:22:06.321Z</time>
      </trkpt>
      <trkpt lat="47.73679" lon="-2.82825">
        <ele>71.60157</ele>
        <time>2022-02-07T16:22:14.360Z</time>
      </trkpt>
      <trkpt lat="47.73684" lon="-2.82843">
        <ele>72.007843</ele>
        <time>2022-02-07T16:22:18.032Z</time>
      </trkpt>
      <trkpt lat="47.7383" lon="-2.8277">
        <ele>77.205858</ele>
        <time>2022-02-07T16:23:26.787Z</time>
      </trkpt>
      <trkpt lat="47.73863" lon="-2.8277">
        <ele>78.746472</ele>
        <time>2022-02-07T16:23:42.799Z</time>
      </trkpt>
      <trkpt lat="47.73919" lon="-2.82796">
        <ele>81.582519</ele>
        <time>2022-02-07T16:24:11.625Z</time>
      </trkpt>
      <trkpt lat="47.73997" lon="-2.8277">
        <ele>85.398644</ele>
        <time>2022-02-07T16:24:52.339Z</time>
      </trkpt>
      <trkpt lat="47.74059" lon="-2.82733">
        <ele>88.603384</ele>
        <time>2022-02-07T16:25:26.112Z</time>
      </trkpt>
      <trkpt lat="47.74077" lon="-2.82751">
        <ele>89.65955</ele>
        <time>2022-02-07T16:25:36.965Z</time>
      </trkpt>
      <trkpt lat="47.74084" lon="-2.8277">
        <ele>90.35453</ele>
        <time>2022-02-07T16:25:44.223Z</time>
      </trkpt>
      <trkpt lat="47.74096" lon="-2.82777">
        <ele>90.958798</ele>
        <time>2022-02-07T16:25:50.558Z</time>
      </trkpt>
      <trkpt lat="47.74231" lon="-2.82768">
        <ele>96.274816</ele>
        <time>2022-02-07T16:26:52.394Z</time>
      </trkpt>
      <trkpt lat="47.74267" lon="-2.82786">
        <ele>97.574281</ele>
        <time>2022-02-07T16:27:07.842Z</time>
      </trkpt>
      <trkpt lat="47.74331" lon="-2.82817">
        <ele>99.831237</ele>
        <time>2022-02-07T16:27:35.419Z</time>
      </trkpt>
      <trkpt lat="47.74347" lon="-2.82814">
        <ele>100.330665</ele>
        <time>2022-02-07T16:27:42.403Z</time>
      </trkpt>
      <trkpt lat="47.74574" lon="-2.82643">
        <ele>107.690633</ele>
        <time>2022-02-07T16:29:27.867Z</time>
      </trkpt>
      <trkpt lat="47.74522" lon="-2.82589">
        <ele>109.497317</ele>
        <time>2022-02-07T16:29:53.634Z</time>
      </trkpt>
      <trkpt lat="47.7451" lon="-2.82568">
        <ele>110.065159</ele>
        <time>2022-02-07T16:30:00.511Z</time>
      </trkpt>
      <trkpt lat="47.74501" lon="-2.82526">
        <ele>111.145295</ele>
        <time>2022-02-07T16:30:12.573Z</time>
      </trkpt>
      <trkpt lat="47.74527" lon="-2.82508">
        <ele>112.182279</ele>
        <time>2022-02-07T16:30:24.960Z</time>
      </trkpt>
      <trkpt lat="47.74591" lon="-2.8249">
        <ele>114.508697</ele>
        <time>2022-02-07T16:30:52.854Z</time>
      </trkpt>
      <trkpt lat="47.74613" lon="-2.82474">
        <ele>115.402356</ele>
        <time>2022-02-07T16:31:04.461Z</time>
      </trkpt>
      <trkpt lat="47.74671" lon="-2.82447">
        <ele>117.805971</ele>
        <time>2022-02-07T16:31:35.330Z</time>
      </trkpt>
      <trkpt lat="47.74757" lon="-2.82377">
        <ele>121.887148</ele>
        <time>2022-02-07T16:32:21.116Z</time>
      </trkpt>
      <trkpt lat="47.74788" lon="-2.82367">
        <ele>123.208562</ele>
        <time>2022-02-07T16:32:35.402Z</time>
      </trkpt>
      <trkpt lat="47.748" lon="-2.82363">
        <ele>123.734805</ele>
        <time>2022-02-07T16:32:41.065Z</time>
      </trkpt>
      <trkpt lat="47.74846" lon="-2.82313">
        <ele>124.941552</ele>
        <time>2022-02-07T16:33:04.508Z</time>
      </trkpt>
      <trkpt lat="47.74831" lon="-2.82214">
        <ele>126.347194</ele>
        <time>2022-02-07T16:33:30.117Z</time>
      </trkpt>
      <trkpt lat="47.74828" lon="-2.82213">
        <ele>126.426119</ele>
        <time>2022-02-07T16:33:31.491Z</time>
      </trkpt>
      <trkpt lat="47.74822" lon="-2.82188">
        <ele>126.783851</ele>
        <time>2022-02-07T16:33:37.577Z</time>
      </trkpt>
      <trkpt lat="47.74828" lon="-2.82179">
        <ele>126.969319</ele>
        <time>2022-02-07T16:33:40.709Z</time>
      </trkpt>
      <trkpt lat="47.74841" lon="-2.8217">
        <ele>127.265338</ele>
        <time>2022-02-07T16:33:45.551Z</time>
      </trkpt>
      <trkpt lat="47.7491" lon="-2.82156">
        <ele>127.723286</ele>
        <time>2022-02-07T16:34:07.430Z</time>
      </trkpt>
      <trkpt lat="47.74921" lon="-2.82149">
        <ele>127.767476</ele>
        <time>2022-02-07T16:34:11.147Z</time>
      </trkpt>
      <trkpt lat="47.75017" lon="-2.82145">
        <ele>128.112807</ele>
        <time>2022-02-07T16:34:40.236Z</time>
      </trkpt>
      <trkpt lat="47.7505" lon="-2.82129">
        <ele>128.197908</ele>
        <time>2022-02-07T16:34:50.765Z</time>
      </trkpt>
      <trkpt lat="47.75066" lon="-2.82082">
        <ele>128.250596</ele>
        <time>2022-02-07T16:35:01.258Z</time>
      </trkpt>
      <trkpt lat="47.75096" lon="-2.82052">
        <ele>128.305154</ele>
        <time>2022-02-07T16:35:12.273Z</time>
      </trkpt>
      <trkpt lat="47.75099" lon="-2.82022">
        <ele>128.336392</ele>
        <time>2022-02-07T16:35:18.593Z</time>
      </trkpt>
      <trkpt lat="47.75115" lon="-2.82005">
        <ele>128.365226</ele>
        <time>2022-02-07T16:35:24.420Z</time>
      </trkpt>
      <trkpt lat="47.75115" lon="-2.81998">
        <ele>128.372095</ele>
        <time>2022-02-07T16:35:25.823Z</time>
      </trkpt>
      <trkpt lat="47.75134" lon="-2.81984">
        <ele>128.403963</ele>
        <time>2022-02-07T16:35:32.281Z</time>
      </trkpt>
      <trkpt lat="47.75155" lon="-2.81979">
        <ele>128.436732</ele>
        <time>2022-02-07T16:35:39.028Z</time>
      </trkpt>
      <trkpt lat="47.75177" lon="-2.81958">
        <ele>128.221101</ele>
        <time>2022-02-07T16:35:47.094Z</time>
      </trkpt>
      <trkpt lat="47.75205" lon="-2.81914">
        <ele>127.879865</ele>
        <time>2022-02-07T16:35:59.921Z</time>
      </trkpt>
      <trkpt lat="47.75208" lon="-2.81898">
        <ele>127.787753</ele>
        <time>2022-02-07T16:36:03.419Z</time>
      </trkpt>
      <trkpt lat="47.75229" lon="-2.81859">
        <ele>127.509178</ele>
        <time>2022-02-07T16:36:12.629Z</time>
      </trkpt>
      <trkpt lat="47.75229" lon="-2.8183">
        <ele>127.346217</ele>
        <time>2022-02-07T16:36:17.877Z</time>
      </trkpt>
      <trkpt lat="47.75239" lon="-2.81801">
        <ele>127.161072</ele>
        <time>2022-02-07T16:36:23.817Z</time>
      </trkpt>
      <trkpt lat="47.75273" lon="-2.81774">
        <ele>126.421343</ele>
        <time>2022-02-07T16:36:33.754Z</time>
      </trkpt>
      <trkpt lat="47.75268" lon="-2.81754">
        <ele>125.80541</ele>
        <time>2022-02-07T16:36:37.146Z</time>
      </trkpt>
      <trkpt lat="47.75285" lon="-2.81737">
        <ele>124.877143</ele>
        <time>2022-02-07T16:36:42.374Z</time>
      </trkpt>
      <trkpt lat="47.75282" lon="-2.81688">
        <ele>123.403242</ele>
        <time>2022-02-07T16:36:50.334Z</time>
      </trkpt>
      <trkpt lat="47.75229" lon="-2.8162">
        <ele>120.267135</ele>
        <time>2022-02-07T16:37:06.551Z</time>
      </trkpt>
      <trkpt lat="47.75188" lon="-2.81555">
        <ele>117.053001</ele>
        <time>2022-02-07T16:37:19.556Z</time>
      </trkpt>
      <trkpt lat="47.75147" lon="-2.8152">
        <ele>114.05226</ele>
        <time>2022-02-07T16:37:30.048Z</time>
      </trkpt>
      <trkpt lat="47.75126" lon="-2.81502">
        <ele>112.577446</ele>
        <time>2022-02-07T16:37:35.142Z</time>
      </trkpt>
      <trkpt lat="47.75099" lon="-2.81467">
        <ele>110.261924</ele>
        <time>2022-02-07T16:37:43.251Z</time>
      </trkpt>
      <trkpt lat="47.75058" lon="-2.81439">
        <ele>107.443136</ele>
        <time>2022-02-07T16:37:53.407Z</time>
      </trkpt>
      <trkpt lat="47.75043" lon="-2.81392">
        <ele>105.908853</ele>
        <time>2022-02-07T16:38:01.236Z</time>
      </trkpt>
      <trkpt lat="47.75042" lon="-2.81346">
        <ele>104.520665</ele>
        <time>2022-02-07T16:38:08.358Z</time>
      </trkpt>
      <trkpt lat="47.7506" lon="-2.81287">
        <ele>102.59523</ele>
        <time>2022-02-07T16:38:18.696Z</time>
      </trkpt>
      <trkpt lat="47.75131" lon="-2.81206">
        <ele>98.982687</ele>
        <time>2022-02-07T16:38:40.619Z</time>
      </trkpt>
      <trkpt lat="47.75183" lon="-2.81117">
        <ele>96.77153</ele>
        <time>2022-02-07T16:39:00.246Z</time>
      </trkpt>
      <trkpt lat="47.7524" lon="-2.81039">
        <ele>94.585054</ele>
        <time>2022-02-07T16:39:19.907Z</time>
      </trkpt>
      <trkpt lat="47.75276" lon="-2.81009">
        <ele>93.982667</ele>
        <time>2022-02-07T16:39:30.409Z</time>
      </trkpt>
      <trkpt lat="47.75346" lon="-2.81008">
        <ele>93.002004</ele>
        <time>2022-02-07T16:39:48.293Z</time>
      </trkpt>
      <trkpt lat="47.75439" lon="-2.80993">
        <ele>92.393386</ele>
        <time>2022-02-07T16:40:15.559Z</time>
      </trkpt>
      <trkpt lat="47.75451" lon="-2.80984">
        <ele>92.638156</ele>
        <time>2022-02-07T16:40:19.631Z</time>
      </trkpt>
      <trkpt lat="47.75449" lon="-2.80883">
        <ele>93.834816</ele>
        <time>2022-02-07T16:40:43.349Z</time>
      </trkpt>
      <trkpt lat="47.75435" lon="-2.80882">
        <ele>94.080591</ele>
        <time>2022-02-07T16:40:49.444Z</time>
      </trkpt>
      <trkpt lat="47.75415" lon="-2.80862">
        <ele>94.507725</ele>
        <time>2022-02-07T16:40:58.945Z</time>
      </trkpt>
      <trkpt lat="47.75385" lon="-2.80739">
        <ele>97.151351</ele>
        <time>2022-02-07T16:41:37.552Z</time>
      </trkpt>
      <trkpt lat="47.75362" lon="-2.80649">
        <ele>99.709213</ele>
        <time>2022-02-07T16:42:07.277Z</time>
      </trkpt>
      <trkpt lat="47.75365" lon="-2.80619">
        <ele>100.507679</ele>
        <time>2022-02-07T16:42:16.224Z</time>
      </trkpt>
      <trkpt lat="47.75362" lon="-2.80601">
        <ele>100.999462</ele>
        <time>2022-02-07T16:42:22.303Z</time>
      </trkpt>
      <trkpt lat="47.75335" lon="-2.80579">
        <ele>102.214471</ele>
        <time>2022-02-07T16:42:36.802Z</time>
      </trkpt>
      <trkpt lat="47.75334" lon="-2.80555">
        <ele>103.028806</ele>
        <time>2022-02-07T16:42:44.420Z</time>
      </trkpt>
      <trkpt lat="47.75315" lon="-2.8049">
        <ele>105.467003</ele>
        <time>2022-02-07T16:43:07.473Z</time>
      </trkpt>
      <trkpt lat="47.75312" lon="-2.80466">
        <ele>106.298022</ele>
        <time>2022-02-07T16:43:16.094Z</time>
      </trkpt>
      <trkpt lat="47.753" lon="-2.8039">
        <ele>108.964209</ele>
        <time>2022-02-07T16:43:42.064Z</time>
      </trkpt>
      <trkpt lat="47.75291" lon="-2.80386">
        <ele>109.44295</ele>
        <time>2022-02-07T16:43:47.205Z</time>
      </trkpt>
      <trkpt lat="47.7528" lon="-2.80314">
        <ele>111.908688</ele>
        <time>2022-02-07T16:44:13.855Z</time>
      </trkpt>
      <trkpt lat="47.75268" lon="-2.80303">
        <ele>112.529412</ele>
        <time>2022-02-07T16:44:20.669Z</time>
      </trkpt>
      <trkpt lat="47.7525" lon="-2.80219">
        <ele>115.209205</ele>
        <time>2022-02-07T16:44:50.132Z</time>
      </trkpt>
      <trkpt lat="47.75236" lon="-2.80179">
        <ele>116.587052</ele>
        <time>2022-02-07T16:45:04.878Z</time>
      </trkpt>
      <trkpt lat="47.75238" lon="-2.80162">
        <ele>117.090942</ele>
        <time>2022-02-07T16:45:09.588Z</time>
      </trkpt>
      <trkpt lat="47.7523" lon="-2.80152">
        <ele>117.562472</ele>
        <time>2022-02-07T16:45:14.945Z</time>
      </trkpt>
      <trkpt lat="47.75218" lon="-2.80114">
        <ele>118.848754</ele>
        <time>2022-02-07T16:45:27.257Z</time>
      </trkpt>
      <trkpt lat="47.75204" lon="-2.80045">
        <ele>119.982226</ele>
        <time>2022-02-07T16:45:48.359Z</time>
      </trkpt>
      <trkpt lat="47.75204" lon="-2.80017">
        <ele>120.221243</ele>
        <time>2022-02-07T16:45:55.289Z</time>
      </trkpt>
      <trkpt lat="47.75212" lon="-2.79989">
        <ele>120.482695</ele>
        <time>2022-02-07T16:46:03.529Z</time>
      </trkpt>
      <trkpt lat="47.7519" lon="-2.79896">
        <ele>121.324574</ele>
        <time>2022-02-07T16:46:27.212Z</time>
      </trkpt>
      <trkpt lat="47.7516" lon="-2.79879">
        <ele>121.727514</ele>
        <time>2022-02-07T16:46:35.259Z</time>
      </trkpt>
      <trkpt lat="47.75141" lon="-2.79842">
        <ele>121.558205</ele>
        <time>2022-02-07T16:46:43.658Z</time>
      </trkpt>
      <trkpt lat="47.7514" lon="-2.79761">
        <ele>120.794429</ele>
        <time>2022-02-07T16:46:59.372Z</time>
      </trkpt>
      <trkpt lat="47.75145" lon="-2.7975">
        <ele>120.667122</ele>
        <time>2022-02-07T16:47:01.539Z</time>
      </trkpt>
      <trkpt lat="47.75175" lon="-2.79742">
        <ele>120.236888</ele>
        <time>2022-02-07T16:47:10.328Z</time>
      </trkpt>
      <trkpt lat="47.75185" lon="-2.79729">
        <ele>120.057496</ele>
        <time>2022-02-07T16:47:13.084Z</time>
      </trkpt>
      <trkpt lat="47.7517" lon="-2.79668">
        <ele>119.441824</ele>
        <time>2022-02-07T16:47:25.294Z</time>
      </trkpt>
      <trkpt lat="47.75129" lon="-2.79569">
        <ele>118.303995</ele>
        <time>2022-02-07T16:47:45.963Z</time>
      </trkpt>
      <trkpt lat="47.75121" lon="-2.79568">
        <ele>118.176385</ele>
        <time>2022-02-07T16:47:48.808Z</time>
      </trkpt>
      <trkpt lat="47.75052" lon="-2.79456">
        <ele>116.653334</ele>
        <time>2022-02-07T16:48:16.716Z</time>
      </trkpt>
      <trkpt lat="47.75006" lon="-2.79397">
        <ele>114.108143</ele>
        <time>2022-02-07T16:48:32.260Z</time>
      </trkpt>
      <trkpt lat="47.75006" lon="-2.7939">
        <ele>113.898006</ele>
        <time>2022-02-07T16:48:33.361Z</time>
      </trkpt>
      <trkpt lat="47.75058" lon="-2.79325">
        <ele>111.038104</ele>
        <time>2022-02-07T16:48:49.106Z</time>
      </trkpt>
      <trkpt lat="47.75053" lon="-2.79313">
        <ele>110.643589</ele>
        <time>2022-02-07T16:48:51.069Z</time>
      </trkpt>
      <trkpt lat="47.75022" lon="-2.79231">
        <ele>107.560945</ele>
        <time>2022-02-07T16:49:05.451Z</time>
      </trkpt>
      <trkpt lat="47.75091" lon="-2.79205">
        <ele>103.466647</ele>
        <time>2022-02-07T16:49:21.075Z</time>
      </trkpt>
      <trkpt lat="47.75123" lon="-2.79225">
        <ele>101.461673</ele>
        <time>2022-02-07T16:49:28.691Z</time>
      </trkpt>
      <trkpt lat="47.75141" lon="-2.79226">
        <ele>100.382363</ele>
        <time>2022-02-07T16:49:33.056Z</time>
      </trkpt>
      <trkpt lat="47.75183" lon="-2.79212">
        <ele>98.327747</ele>
        <time>2022-02-07T16:49:43.117Z</time>
      </trkpt>
      <trkpt lat="47.7519" lon="-2.7921">
        <ele>98.136545</ele>
        <time>2022-02-07T16:49:43.971Z</time>
      </trkpt>
      <trkpt lat="47.75217" lon="-2.79192">
        <ele>97.229568</ele>
        <time>2022-02-07T16:49:48.115Z</time>
      </trkpt>
      <trkpt lat="47.75236" lon="-2.79171">
        <ele>96.539792</ele>
        <time>2022-02-07T16:49:51.439Z</time>
      </trkpt>
      <trkpt lat="47.75247" lon="-2.79147">
        <ele>95.953791</ele>
        <time>2022-02-07T16:49:54.278Z</time>
      </trkpt>
      <trkpt lat="47.75263" lon="-2.79083">
        <ele>94.583292</ele>
        <time>2022-02-07T16:50:00.779Z</time>
      </trkpt>
      <trkpt lat="47.75276" lon="-2.79055">
        <ele>93.904455</ele>
        <time>2022-02-07T16:50:03.965Z</time>
      </trkpt>
      <trkpt lat="47.75303" lon="-2.79021">
        <ele>93.042282</ele>
        <time>2022-02-07T16:50:09.096Z</time>
      </trkpt>
      <trkpt lat="47.75349" lon="-2.7898">
        <ele>91.958205</ele>
        <time>2022-02-07T16:50:17.164Z</time>
      </trkpt>
      <trkpt lat="47.75358" lon="-2.78965">
        <ele>91.695516</ele>
        <time>2022-02-07T16:50:19.012Z</time>
      </trkpt>
      <trkpt lat="47.7536" lon="-2.78965">
        <ele>91.640717</ele>
        <time>2022-02-07T16:50:19.451Z</time>
      </trkpt>
      <trkpt lat="47.75378" lon="-2.78964">
        <ele>91.287118</ele>
        <time>2022-02-07T16:50:22.106Z</time>
      </trkpt>
      <trkpt lat="47.7559" lon="-2.7889">
        <ele>86.891997</ele>
        <time>2022-02-07T16:50:53.990Z</time>
      </trkpt>
      <trkpt lat="47.75681" lon="-2.78865">
        <ele>85.185513</ele>
        <time>2022-02-07T16:51:07.553Z</time>
      </trkpt>
      <trkpt lat="47.75689" lon="-2.78837">
        <ele>84.827315</ele>
        <time>2022-02-07T16:51:10.622Z</time>
      </trkpt>
      <trkpt lat="47.75701" lon="-2.78803">
        <ele>84.371315</ele>
        <time>2022-02-07T16:51:14.608Z</time>
      </trkpt>
      <trkpt lat="47.75712" lon="-2.78775">
        <ele>84.003266</ele>
        <time>2022-02-07T16:51:17.787Z</time>
      </trkpt>
      <trkpt lat="47.75711" lon="-2.78725">
        <ele>83.416501</ele>
        <time>2022-02-07T16:51:22.933Z</time>
      </trkpt>
      <trkpt lat="47.75704" lon="-2.78729">
        <ele>83.300411</ele>
        <time>2022-02-07T16:51:24.018Z</time>
      </trkpt>
      <trkpt lat="47.75703" lon="-2.78724">
        <ele>83.239751</ele>
        <time>2022-02-07T16:51:24.567Z</time>
      </trkpt>
      <trkpt lat="47.75699" lon="-2.78705">
        <ele>83.021764</ele>
        <time>2022-02-07T16:51:26.581Z</time>
      </trkpt>
      <trkpt lat="47.75708" lon="-2.78699">
        <ele>82.903158</ele>
        <time>2022-02-07T16:51:28.054Z</time>
      </trkpt>
      <trkpt lat="47.75713" lon="-2.78695">
        <ele>82.829553</ele>
        <time>2022-02-07T16:51:29.017Z</time>
      </trkpt>
      <trkpt lat="47.75715" lon="-2.78703">
        <ele>82.763282</ele>
        <time>2022-02-07T16:51:29.903Z</time>
      </trkpt>
      <trkpt lat="47.75755" lon="-2.78649">
        <ele>82.125133</ele>
        <time>2022-02-07T16:51:37.973Z</time>
      </trkpt>
      <trkpt lat="47.75761" lon="-2.78626">
        <ele>81.929156</ele>
        <time>2022-02-07T16:51:40.511Z</time>
      </trkpt>
      <trkpt lat="47.75761" lon="-2.78473">
        <ele>80.769206</ele>
        <time>2022-02-07T16:51:57.032Z</time>
      </trkpt>
      <trkpt lat="47.7576" lon="-2.78409">
        <ele>80.432816</ele>
        <time>2022-02-07T16:52:03.987Z</time>
      </trkpt>
      <trkpt lat="47.75763" lon="-2.78337">
        <ele>80.049786</ele>
        <time>2022-02-07T16:52:11.851Z</time>
      </trkpt>
      <trkpt lat="47.75772" lon="-2.78291">
        <ele>79.795347</ele>
        <time>2022-02-07T16:52:17.227Z</time>
      </trkpt>
      <trkpt lat="47.75795" lon="-2.78222">
        <ele>79.387772</ele>
        <time>2022-02-07T16:52:25.542Z</time>
      </trkpt>
      <trkpt lat="47.75818" lon="-2.78152">
        <ele>78.95178</ele>
        <time>2022-02-07T16:52:34.249Z</time>
      </trkpt>
      <trkpt lat="47.75834" lon="-2.78122">
        <ele>78.740079</ele>
        <time>2022-02-07T16:52:38.355Z</time>
      </trkpt>
      <trkpt lat="47.75824" lon="-2.78099">
        <ele>78.592657</ele>
        <time>2022-02-07T16:52:41.161Z</time>
      </trkpt>
      <trkpt lat="47.75829" lon="-2.7808">
        <ele>78.48168</ele>
        <time>2022-02-07T16:52:43.293Z</time>
      </trkpt>
      <trkpt lat="47.75821" lon="-2.78069">
        <ele>78.392885</ele>
        <time>2022-02-07T16:52:45.320Z</time>
      </trkpt>
      <trkpt lat="47.75824" lon="-2.78061">
        <ele>78.338252</ele>
        <time>2022-02-07T16:52:46.265Z</time>
      </trkpt>
      <trkpt lat="47.75839" lon="-2.7806">
        <ele>78.215998</ele>
        <time>2022-02-07T16:52:48.806Z</time>
      </trkpt>
      <trkpt lat="47.7585" lon="-2.78039">
        <ele>78.065957</ele>
        <time>2022-02-07T16:52:51.947Z</time>
      </trkpt>
      <trkpt lat="47.75859" lon="-2.78">
        <ele>77.980626</ele>
        <time>2022-02-07T16:52:56.629Z</time>
      </trkpt>
      <trkpt lat="47.75861" lon="-2.77967">
        <ele>77.950784</ele>
        <time>2022-02-07T16:53:00.360Z</time>
      </trkpt>
      <trkpt lat="47.75855" lon="-2.77932">
        <ele>77.918421</ele>
        <time>2022-02-07T16:53:04.470Z</time>
      </trkpt>
      <trkpt lat="47.75856" lon="-2.77925">
        <ele>77.912188</ele>
        <time>2022-02-07T16:53:05.292Z</time>
      </trkpt>
      <trkpt lat="47.75874" lon="-2.77901">
        <ele>77.87943</ele>
        <time>2022-02-07T16:53:09.867Z</time>
      </trkpt>
      <trkpt lat="47.75877" lon="-2.77811">
        <ele>77.798424</ele>
        <time>2022-02-07T16:53:20.991Z</time>
      </trkpt>
      <trkpt lat="47.75866" lon="-2.77727">
        <ele>78.144127</ele>
        <time>2022-02-07T16:53:33.763Z</time>
      </trkpt>
      <trkpt lat="47.75856" lon="-2.77673">
        <ele>78.548089</ele>
        <time>2022-02-07T16:53:42.832Z</time>
      </trkpt>
      <trkpt lat="47.75847" lon="-2.77654">
        <ele>78.725039</ele>
        <time>2022-02-07T16:53:46.735Z</time>
      </trkpt>
      <trkpt lat="47.75844" lon="-2.77637">
        <ele>78.849705</ele>
        <time>2022-02-07T16:53:49.636Z</time>
      </trkpt>
      <trkpt lat="47.75831" lon="-2.77602">
        <ele>79.147091</ele>
        <time>2022-02-07T16:53:56.227Z</time>
      </trkpt>
      <trkpt lat="47.75813" lon="-2.77523">
        <ele>79.72154</ele>
        <time>2022-02-07T16:54:09.299Z</time>
      </trkpt>
      <trkpt lat="47.75797" lon="-2.77503">
        <ele>79.727885</ele>
        <time>2022-02-07T16:54:13.945Z</time>
      </trkpt>
      <trkpt lat="47.75797" lon="-2.77499">
        <ele>79.728688</ele>
        <time>2022-02-07T16:54:14.509Z</time>
      </trkpt>
      <trkpt lat="47.75796" lon="-2.77488">
        <ele>79.731011</ele>
        <time>2022-02-07T16:54:16.163Z</time>
      </trkpt>
      <trkpt lat="47.75796" lon="-2.77484">
        <ele>79.731835</ele>
        <time>2022-02-07T16:54:16.745Z</time>
      </trkpt>
      <trkpt lat="47.75784" lon="-2.77356">
        <ele>79.758392</ele>
        <time>2022-02-07T16:54:32.856Z</time>
      </trkpt>
      <trkpt lat="47.75787" lon="-2.77337">
        <ele>79.762363</ele>
        <time>2022-02-07T16:54:35.048Z</time>
      </trkpt>
      <trkpt lat="47.75781" lon="-2.77248">
        <ele>79.8442</ele>
        <time>2022-02-07T16:54:45.220Z</time>
      </trkpt>
      <trkpt lat="47.75787" lon="-2.77162">
        <ele>80.086388</ele>
        <time>2022-02-07T16:54:55.029Z</time>
      </trkpt>
      <trkpt lat="47.75808" lon="-2.76999">
        <ele>80.739791</ele>
        <time>2022-02-07T16:55:19.740Z</time>
      </trkpt>
      <trkpt lat="47.75811" lon="-2.76992">
        <ele>80.919649</ele>
        <time>2022-02-07T16:55:21.333Z</time>
      </trkpt>
      <trkpt lat="47.7582" lon="-2.76992">
        <ele>81.177801</ele>
        <time>2022-02-07T16:55:23.797Z</time>
      </trkpt>
      <trkpt lat="47.75821" lon="-2.76981">
        <ele>81.428697</ele>
        <time>2022-02-07T16:55:26.066Z</time>
      </trkpt>
      <trkpt lat="47.75824" lon="-2.76956">
        <ele>81.955396</ele>
        <time>2022-02-07T16:55:30.964Z</time>
      </trkpt>
      <trkpt lat="47.75821" lon="-2.76836">
        <ele>84.540841</ele>
        <time>2022-02-07T16:55:57.067Z</time>
      </trkpt>
      <trkpt lat="47.75823" lon="-2.76742">
        <ele>86.484983</ele>
        <time>2022-02-07T16:56:18.544Z</time>
      </trkpt>
      <trkpt lat="47.75828" lon="-2.7664">
        <ele>88.164942</ele>
        <time>2022-02-07T16:56:40.410Z</time>
      </trkpt>
      <trkpt lat="47.75828" lon="-2.76637">
        <ele>88.212823</ele>
        <time>2022-02-07T16:56:40.965Z</time>
      </trkpt>
      <trkpt lat="47.75825" lon="-2.76613">
        <ele>88.612853</ele>
        <time>2022-02-07T16:56:45.478Z</time>
      </trkpt>
      <trkpt lat="47.75824" lon="-2.76533">
        <ele>89.938907</ele>
        <time>2022-02-07T16:56:59.243Z</time>
      </trkpt>
      <trkpt lat="47.75828" lon="-2.76498">
        <ele>90.524195</ele>
        <time>2022-02-07T16:57:04.413Z</time>
      </trkpt>
      <trkpt lat="47.75868" lon="-2.76301">
        <ele>90.819024</ele>
        <time>2022-02-07T16:57:30.644Z</time>
      </trkpt>
      <trkpt lat="47.75869" lon="-2.76288">
        <ele>90.829228</ele>
        <time>2022-02-07T16:57:32.082Z</time>
      </trkpt>
      <trkpt lat="47.75893" lon="-2.76088">
        <ele>89.519753</ele>
        <time>2022-02-07T16:57:54.325Z</time>
      </trkpt>
      <trkpt lat="47.75896" lon="-2.7607">
        <ele>89.342821</ele>
        <time>2022-02-07T16:57:56.285Z</time>
      </trkpt>
      <trkpt lat="47.75951" lon="-2.75827">
        <ele>85.679933</ele>
        <time>2022-02-07T16:58:21.116Z</time>
      </trkpt>
      <trkpt lat="47.75954" lon="-2.75814">
        <ele>85.452993</ele>
        <time>2022-02-07T16:58:22.189Z</time>
      </trkpt>
      <trkpt lat="47.75963" lon="-2.75738">
        <ele>84.080814</ele>
        <time>2022-02-07T16:58:29.524Z</time>
      </trkpt>
      <trkpt lat="47.75973" lon="-2.75673">
        <ele>83.021816</ele>
        <time>2022-02-07T16:58:35.711Z</time>
      </trkpt>
      <trkpt lat="47.75999" lon="-2.75507">
        <ele>80.442276</ele>
        <time>2022-02-07T16:58:52.023Z</time>
      </trkpt>
      <trkpt lat="47.76004" lon="-2.75312">
        <ele>79.085838</ele>
        <time>2022-02-07T16:59:12.711Z</time>
      </trkpt>
      <trkpt lat="47.76035" lon="-2.75165">
        <ele>78.601547</ele>
        <time>2022-02-07T16:59:31.716Z</time>
      </trkpt>
      <trkpt lat="47.76046" lon="-2.7511">
        <ele>78.608665</ele>
        <time>2022-02-07T16:59:38.686Z</time>
      </trkpt>
      <trkpt lat="47.76055" lon="-2.75063">
        <ele>78.614785</ele>
        <time>2022-02-07T16:59:44.846Z</time>
      </trkpt>
      <trkpt lat="47.76069" lon="-2.74972">
        <ele>78.626329</ele>
        <time>2022-02-07T16:59:55.850Z</time>
      </trkpt>
      <trkpt lat="47.76102" lon="-2.74815">
        <ele>78.729959</ele>
        <time>2022-02-07T17:00:15.122Z</time>
      </trkpt>
      <trkpt lat="47.76106" lon="-2.74791">
        <ele>78.749767</ele>
        <time>2022-02-07T17:00:17.994Z</time>
      </trkpt>
      <trkpt lat="47.76127" lon="-2.74694">
        <ele>78.831318</ele>
        <time>2022-02-07T17:00:30.753Z</time>
      </trkpt>
      <trkpt lat="47.76146" lon="-2.74595">
        <ele>79.673503</ele>
        <time>2022-02-07T17:00:45.305Z</time>
      </trkpt>
      <trkpt lat="47.7615" lon="-2.74497">
        <ele>80.620902</ele>
        <time>2022-02-07T17:01:01.557Z</time>
      </trkpt>
      <trkpt lat="47.76156" lon="-2.7445">
        <ele>81.075639</ele>
        <time>2022-02-07T17:01:09.825Z</time>
      </trkpt>
      <trkpt lat="47.76164" lon="-2.744">
        <ele>81.57648</ele>
        <time>2022-02-07T17:01:18.838Z</time>
      </trkpt>
      <trkpt lat="47.76179" lon="-2.74335">
        <ele>82.248513</ele>
        <time>2022-02-07T17:01:30.326Z</time>
      </trkpt>
      <trkpt lat="47.76194" lon="-2.74256">
        <ele>83.044397</ele>
        <time>2022-02-07T17:01:43.550Z</time>
      </trkpt>
      <trkpt lat="47.76203" lon="-2.74168">
        <ele>83.916204</ele>
        <time>2022-02-07T17:01:57.462Z</time>
      </trkpt>
      <trkpt lat="47.76206" lon="-2.74141">
        <ele>84.059857</ele>
        <time>2022-02-07T17:02:01.314Z</time>
      </trkpt>
      <trkpt lat="47.76212" lon="-2.74092">
        <ele>84.158132</ele>
        <time>2022-02-07T17:02:08.051Z</time>
      </trkpt>
      <trkpt lat="47.76233" lon="-2.74027">
        <ele>84.301522</ele>
        <time>2022-02-07T17:02:17.281Z</time>
      </trkpt>
      <trkpt lat="47.76275" lon="-2.73898">
        <ele>84.54439</ele>
        <time>2022-02-07T17:02:34.239Z</time>
      </trkpt>
      <trkpt lat="47.7635" lon="-2.73655">
        <ele>84.240156</ele>
        <time>2022-02-07T17:03:05.508Z</time>
      </trkpt>
      <trkpt lat="47.76354" lon="-2.73631">
        <ele>84.222665</ele>
        <time>2022-02-07T17:03:08.295Z</time>
      </trkpt>
      <trkpt lat="47.76351" lon="-2.73617">
        <ele>84.211802</ele>
        <time>2022-02-07T17:03:10.038Z</time>
      </trkpt>
      <trkpt lat="47.76351" lon="-2.73593">
        <ele>84.194117</ele>
        <time>2022-02-07T17:03:12.975Z</time>
      </trkpt>
      <trkpt lat="47.76366" lon="-2.73576">
        <ele>84.173837</ele>
        <time>2022-02-07T17:03:16.212Z</time>
      </trkpt>
      <trkpt lat="47.76382" lon="-2.7356">
        <ele>84.153373</ele>
        <time>2022-02-07T17:03:19.693Z</time>
      </trkpt>
      <trkpt lat="47.76417" lon="-2.73488">
        <ele>84.088539</ele>
        <time>2022-02-07T17:03:30.172Z</time>
      </trkpt>
      <trkpt lat="47.76455" lon="-2.73426">
        <ele>83.963821</ele>
        <time>2022-02-07T17:03:39.896Z</time>
      </trkpt>
      <trkpt lat="47.76481" lon="-2.73404">
        <ele>83.8558</ele>
        <time>2022-02-07T17:03:45.265Z</time>
      </trkpt>
      <trkpt lat="47.76546" lon="-2.73373">
        <ele>83.613173</ele>
        <time>2022-02-07T17:03:56.936Z</time>
      </trkpt>
      <trkpt lat="47.76559" lon="-2.73352">
        <ele>83.54364</ele>
        <time>2022-02-07T17:04:00.206Z</time>
      </trkpt>
      <trkpt lat="47.76616" lon="-2.7321">
        <ele>82.897991</ele>
        <time>2022-02-07T17:04:18.422Z</time>
      </trkpt>
      <trkpt lat="47.76649" lon="-2.73134">
        <ele>82.482704</ele>
        <time>2022-02-07T17:04:28.171Z</time>
      </trkpt>
      <trkpt lat="47.76684" lon="-2.73097">
        <ele>82.183981</ele>
        <time>2022-02-07T17:04:35.182Z</time>
      </trkpt>
      <trkpt lat="47.76858" lon="-2.7292">
        <ele>82.617603</ele>
        <time>2022-02-07T17:05:12.165Z</time>
      </trkpt>
      <trkpt lat="47.7694" lon="-2.72836">
        <ele>84.55583</ele>
        <time>2022-02-07T17:05:38.265Z</time>
      </trkpt>
      <trkpt lat="47.77032" lon="-2.72713">
        <ele>86.93461</ele>
        <time>2022-02-07T17:06:15.673Z</time>
      </trkpt>
      <trkpt lat="47.77045" lon="-2.72687">
        <ele>87.355871</ele>
        <time>2022-02-07T17:06:21.820Z</time>
      </trkpt>
      <trkpt lat="47.77065" lon="-2.72648">
        <ele>87.981721</ele>
        <time>2022-02-07T17:06:30.076Z</time>
      </trkpt>
      <trkpt lat="47.77106" lon="-2.72547">
        <ele>88.721091</ele>
        <time>2022-02-07T17:06:46.130Z</time>
      </trkpt>
      <trkpt lat="47.77158" lon="-2.72415">
        <ele>87.724059</ele>
        <time>2022-02-07T17:07:02.141Z</time>
      </trkpt>
      <trkpt lat="47.77204" lon="-2.72302">
        <ele>86.64906</ele>
        <time>2022-02-07T17:07:15.289Z</time>
      </trkpt>
      <trkpt lat="47.77261" lon="-2.72195">
        <ele>85.251374</ele>
        <time>2022-02-07T17:07:29.315Z</time>
      </trkpt>
      <trkpt lat="47.77291" lon="-2.72152">
        <ele>84.626161</ele>
        <time>2022-02-07T17:07:35.721Z</time>
      </trkpt>
      <trkpt lat="47.77493" lon="-2.71944">
        <ele>81.554392</ele>
        <time>2022-02-07T17:08:13.949Z</time>
      </trkpt>
      <trkpt lat="47.77495" lon="-2.71942">
        <ele>81.535504</ele>
        <time>2022-02-07T17:08:14.197Z</time>
      </trkpt>
      <trkpt lat="47.77542" lon="-2.71862">
        <ele>80.693116</ele>
        <time>2022-02-07T17:08:25.410Z</time>
      </trkpt>
      <trkpt lat="47.7757" lon="-2.71787">
        <ele>80.02685</ele>
        <time>2022-02-07T17:08:34.452Z</time>
      </trkpt>
      <trkpt lat="47.77617" lon="-2.71717">
        <ele>79.289222</ele>
        <time>2022-02-07T17:08:45.029Z</time>
      </trkpt>
      <trkpt lat="47.77627" lon="-2.71677">
        <ele>78.967274</ele>
        <time>2022-02-07T17:08:49.552Z</time>
      </trkpt>
      <trkpt lat="47.77612" lon="-2.71555">
        <ele>78.134713</ele>
        <time>2022-02-07T17:09:02.474Z</time>
      </trkpt>
      <trkpt lat="47.77612" lon="-2.7151">
        <ele>78.167545</ele>
        <time>2022-02-07T17:09:07.204Z</time>
      </trkpt>
      <trkpt lat="47.7762" lon="-2.71428">
        <ele>78.228532</ele>
        <time>2022-02-07T17:09:16.879Z</time>
      </trkpt>
      <trkpt lat="47.77634" lon="-2.71357">
        <ele>78.281886</ele>
        <time>2022-02-07T17:09:26.866Z</time>
      </trkpt>
      <trkpt lat="47.77651" lon="-2.71306">
        <ele>78.351181</ele>
        <time>2022-02-07T17:09:35.620Z</time>
      </trkpt>
      <trkpt lat="47.77654" lon="-2.71298">
        <ele>78.450734</ele>
        <time>2022-02-07T17:09:36.878Z</time>
      </trkpt>
      <trkpt lat="47.77676" lon="-2.71229">
        <ele>79.305963</ele>
        <time>2022-02-07T17:09:49.075Z</time>
      </trkpt>
      <trkpt lat="47.77724" lon="-2.71126">
        <ele>80.708541</ele>
        <time>2022-02-07T17:10:10.557Z</time>
      </trkpt>
      <trkpt lat="47.77745" lon="-2.71072">
        <ele>81.393715</ele>
        <time>2022-02-07T17:10:21.406Z</time>
      </trkpt>
      <trkpt lat="47.77762" lon="-2.70988">
        <ele>82.289692</ele>
        <time>2022-02-07T17:10:35.194Z</time>
      </trkpt>
      <trkpt lat="47.77815" lon="-2.70834">
        <ele>84.079374</ele>
        <time>2022-02-07T17:11:02.628Z</time>
      </trkpt>
      <trkpt lat="47.77824" lon="-2.70785">
        <ele>84.612932</ele>
        <time>2022-02-07T17:11:10.940Z</time>
      </trkpt>
      <trkpt lat="47.77827" lon="-2.7065">
        <ele>86.056307</ele>
        <time>2022-02-07T17:11:33.343Z</time>
      </trkpt>
      <trkpt lat="47.77816" lon="-2.70533">
        <ele>87.253177</ele>
        <time>2022-02-07T17:11:52.324Z</time>
      </trkpt>
      <trkpt lat="47.77803" lon="-2.70476">
        <ele>87.810683</ele>
        <time>2022-02-07T17:12:01.494Z</time>
      </trkpt>
      <trkpt lat="47.7779" lon="-2.70412">
        <ele>88.421768</ele>
        <time>2022-02-07T17:12:10.958Z</time>
      </trkpt>
      <trkpt lat="47.77784" lon="-2.70333">
        <ele>89.15037</ele>
        <time>2022-02-07T17:12:23.019Z</time>
      </trkpt>
      <trkpt lat="47.77784" lon="-2.70289">
        <ele>89.83642</ele>
        <time>2022-02-07T17:12:30.473Z</time>
      </trkpt>
      <trkpt lat="47.77795" lon="-2.70197">
        <ele>91.914803</ele>
        <time>2022-02-07T17:12:47.922Z</time>
      </trkpt>
      <trkpt lat="47.77806" lon="-2.70141">
        <ele>93.206615</ele>
        <time>2022-02-07T17:12:59.921Z</time>
      </trkpt>
      <trkpt lat="47.77819" lon="-2.70101">
        <ele>94.201529</ele>
        <time>2022-02-07T17:13:10.115Z</time>
      </trkpt>
      <trkpt lat="47.77862" lon="-2.69967">
        <ele>98.522577</ele>
        <time>2022-02-07T17:13:48.506Z</time>
      </trkpt>
      <trkpt lat="47.77896" lon="-2.69882">
        <ele>101.742693</ele>
        <time>2022-02-07T17:14:14.029Z</time>
      </trkpt>
      <trkpt lat="47.77927" lon="-2.69815">
        <ele>104.262622</ele>
        <time>2022-02-07T17:14:34.004Z</time>
      </trkpt>
      <trkpt lat="47.77933" lon="-2.69785">
        <ele>104.835888</ele>
        <time>2022-02-07T17:14:41.256Z</time>
      </trkpt>
      <trkpt lat="47.77934" lon="-2.69689">
        <ele>106.597528</ele>
        <time>2022-02-07T17:15:01.760Z</time>
      </trkpt>
      <trkpt lat="47.77935" lon="-2.69674">
        <ele>106.873779</ele>
        <time>2022-02-07T17:15:04.602Z</time>
      </trkpt>
      <trkpt lat="47.77935" lon="-2.69601">
        <ele>108.211625</ele>
        <time>2022-02-07T17:15:16.667Z</time>
      </trkpt>
      <trkpt lat="47.77934" lon="-2.69557">
        <ele>109.006045</ele>
        <time>2022-02-07T17:15:23.160Z</time>
      </trkpt>
      <trkpt lat="47.77928" lon="-2.6952">
        <ele>109.264828</ele>
        <time>2022-02-07T17:15:28.464Z</time>
      </trkpt>
      <trkpt lat="47.77891" lon="-2.69415">
        <ele>110.090211</ele>
        <time>2022-02-07T17:15:45.990Z</time>
      </trkpt>
      <trkpt lat="47.77882" lon="-2.69391">
        <ele>110.27452</ele>
        <time>2022-02-07T17:15:49.908Z</time>
      </trkpt>
      <trkpt lat="47.77876" lon="-2.69371">
        <ele>110.42935</ele>
        <time>2022-02-07T17:15:53.173Z</time>
      </trkpt>
      <trkpt lat="47.77867" lon="-2.69299">
        <ele>110.965565</ele>
        <time>2022-02-07T17:16:03.608Z</time>
      </trkpt>
      <trkpt lat="47.77867" lon="-2.69264">
        <ele>111.287632</ele>
        <time>2022-02-07T17:16:08.653Z</time>
      </trkpt>
      <trkpt lat="47.77873" lon="-2.6924">
        <ele>111.529713</ele>
        <time>2022-02-07T17:16:12.610Z</time>
      </trkpt>
      <trkpt lat="47.77888" lon="-2.69203">
        <ele>111.932986</ele>
        <time>2022-02-07T17:16:19.508Z</time>
      </trkpt>
      <trkpt lat="47.77893" lon="-2.69194">
        <ele>112.036363</ele>
        <time>2022-02-07T17:16:21.099Z</time>
      </trkpt>
      <trkpt lat="47.77901" lon="-2.69202">
        <ele>112.164396</ele>
        <time>2022-02-07T17:16:23.495Z</time>
      </trkpt>
      <trkpt lat="47.77913" lon="-2.69247">
        <ele>112.607231</ele>
        <time>2022-02-07T17:16:31.348Z</time>
      </trkpt>
      <trkpt lat="47.77915" lon="-2.69291">
        <ele>113.017258</ele>
        <time>2022-02-07T17:16:38.748Z</time>
      </trkpt>
      <trkpt lat="47.77921" lon="-2.69296">
        <ele>113.102783</ele>
        <time>2022-02-07T17:16:40.300Z</time>
      </trkpt>
      <trkpt lat="47.7794" lon="-2.69314">
        <ele>113.466455</ele>
        <time>2022-02-07T17:16:45.987Z</time>
      </trkpt>
      <trkpt lat="47.77987" lon="-2.69341">
        <ele>114.54758</ele>
        <time>2022-02-07T17:16:58.472Z</time>
      </trkpt>
      <trkpt lat="47.78024" lon="-2.69374">
        <ele>115.444576</ele>
        <time>2022-02-07T17:17:09.500Z</time>
      </trkpt>
      <trkpt lat="47.78076" lon="-2.69365">
        <ele>116.569</ele>
        <time>2022-02-07T17:17:23.906Z</time>
      </trkpt>
      <trkpt lat="47.78164" lon="-2.69375">
        <ele>118.585321</ele>
        <time>2022-02-07T17:17:48.819Z</time>
      </trkpt>
      <trkpt lat="47.7826" lon="-2.69417">
        <ele>120.959999</ele>
        <time>2022-02-07T17:18:16.742Z</time>
      </trkpt>
      <trkpt lat="47.78295" lon="-2.69418">
        <ele>121.596377</ele>
        <time>2022-02-07T17:18:25.482Z</time>
      </trkpt>
      <trkpt lat="47.78341" lon="-2.69414">
        <ele>122.186146</ele>
        <time>2022-02-07T17:18:36.405Z</time>
      </trkpt>
      <trkpt lat="47.78384" lon="-2.6939">
        <ele>122.76677</ele>
        <time>2022-02-07T17:18:46.766Z</time>
      </trkpt>
      <trkpt lat="47.78476" lon="-2.6935">
        <ele>123.830815</ele>
        <time>2022-02-07T17:19:06.860Z</time>
      </trkpt>
      <trkpt lat="47.78571" lon="-2.69324">
        <ele>124.486328</ele>
        <time>2022-02-07T17:19:26.502Z</time>
      </trkpt>
      <trkpt lat="47.7862" lon="-2.69319">
        <ele>124.82101</ele>
        <time>2022-02-07T17:19:36.676Z</time>
      </trkpt>
      <trkpt lat="47.78679" lon="-2.69311">
        <ele>125.445345</ele>
        <time>2022-02-07T17:19:48.669Z</time>
      </trkpt>
      <trkpt lat="47.78688" lon="-2.6931">
        <ele>125.547435</ele>
        <time>2022-02-07T17:19:50.448Z</time>
      </trkpt>
      <trkpt lat="47.78743" lon="-2.69298">
        <ele>126.176736</ele>
        <time>2022-02-07T17:20:02.131Z</time>
      </trkpt>
      <trkpt lat="47.78842" lon="-2.69262">
        <ele>127.784241</ele>
        <time>2022-02-07T17:20:27.471Z</time>
      </trkpt>
      <trkpt lat="47.78857" lon="-2.69262">
        <ele>128.119557</ele>
        <time>2022-02-07T17:20:31.564Z</time>
      </trkpt>
      <trkpt lat="47.78864" lon="-2.69239">
        <ele>128.511806</ele>
        <time>2022-02-07T17:20:36.269Z</time>
      </trkpt>
      <trkpt lat="47.7888" lon="-2.6922">
        <ele>129.000835</ele>
        <time>2022-02-07T17:20:42.317Z</time>
      </trkpt>
      <trkpt lat="47.78916" lon="-2.69197">
        <ele>129.90742</ele>
        <time>2022-02-07T17:20:53.708Z</time>
      </trkpt>
      <trkpt lat="47.78963" lon="-2.69185">
        <ele>131.015888</ele>
        <time>2022-02-07T17:21:08.088Z</time>
      </trkpt>
      <trkpt lat="47.79101" lon="-2.69169">
        <ele>133.165063</ele>
        <time>2022-02-07T17:21:44.932Z</time>
      </trkpt>
      <trkpt lat="47.79164" lon="-2.69148">
        <ele>133.721161</ele>
        <time>2022-02-07T17:21:57.528Z</time>
      </trkpt>
      <trkpt lat="47.7925" lon="-2.69112">
        <ele>133.044935</ele>
        <time>2022-02-07T17:22:12.578Z</time>
      </trkpt>
      <trkpt lat="47.79323" lon="-2.69058">
        <ele>132.484179</ele>
        <time>2022-02-07T17:22:25.710Z</time>
      </trkpt>
      <trkpt lat="47.79357" lon="-2.69055">
        <ele>132.388236</ele>
        <time>2022-02-07T17:22:31.666Z</time>
      </trkpt>
      <trkpt lat="47.79397" lon="-2.69061">
        <ele>132.273537</ele>
        <time>2022-02-07T17:22:38.759Z</time>
      </trkpt>
      <trkpt lat="47.79388" lon="-2.68935">
        <ele>132.030676</ele>
        <time>2022-02-07T17:22:58.593Z</time>
      </trkpt>
      <trkpt lat="47.7938" lon="-2.68832">
        <ele>132.374011</ele>
        <time>2022-02-07T17:23:20.364Z</time>
      </trkpt>
      <trkpt lat="47.79379" lon="-2.68796">
        <ele>132.523325</ele>
        <time>2022-02-07T17:23:28.787Z</time>
      </trkpt>
      <trkpt lat="47.79378" lon="-2.68744">
        <ele>132.739827</ele>
        <time>2022-02-07T17:23:40.978Z</time>
      </trkpt>
      <trkpt lat="47.79351" lon="-2.68746">
        <ele>132.90855</ele>
        <time>2022-02-07T17:23:49.886Z</time>
      </trkpt>
      <trkpt lat="47.79347" lon="-2.68738">
        <ele>132.948904</ele>
        <time>2022-02-07T17:23:51.918Z</time>
      </trkpt>
      <trkpt lat="47.79353" lon="-2.68617">
        <ele>133.261595</ele>
        <time>2022-02-07T17:24:17.085Z</time>
      </trkpt>
      <trkpt lat="47.79328" lon="-2.68593">
        <ele>133.341136</ele>
        <time>2022-02-07T17:24:22.914Z</time>
      </trkpt>
      <trkpt lat="47.79323" lon="-2.6858">
        <ele>133.369088</ele>
        <time>2022-02-07T17:24:24.862Z</time>
      </trkpt>
      <trkpt lat="47.79344" lon="-2.68326">
        <ele>133.993888</ele>
        <time>2022-02-07T17:24:58.282Z</time>
      </trkpt>
      <trkpt lat="47.79358" lon="-2.68205">
        <ele>134.370129</ele>
        <time>2022-02-07T17:25:15.799Z</time>
      </trkpt>
      <trkpt lat="47.79407" lon="-2.68018">
        <ele>134.85686</ele>
        <time>2022-02-07T17:25:43.737Z</time>
      </trkpt>
      <trkpt lat="47.79215" lon="-2.67989">
        <ele>135.14353</ele>
        <time>2022-02-07T17:26:19.381Z</time>
      </trkpt>
      <trkpt lat="47.79195" lon="-2.67984">
        <ele>135.15705</ele>
        <time>2022-02-07T17:26:23.534Z</time>
      </trkpt>
      <trkpt lat="47.79187" lon="-2.67972">
        <ele>135.164473</ele>
        <time>2022-02-07T17:26:25.512Z</time>
      </trkpt>
      <trkpt lat="47.79202" lon="-2.67958">
        <ele>135.156992</ele>
        <time>2022-02-07T17:26:29.194Z</time>
      </trkpt>
      <trkpt lat="47.79262" lon="-2.67902">
        <ele>135.035422</ele>
        <time>2022-02-07T17:26:42.678Z</time>
      </trkpt>
      <trkpt lat="47.79544" lon="-2.67578">
        <ele>132.73187</ele>
        <time>2022-02-07T17:27:42.006Z</time>
      </trkpt>
      <trkpt lat="47.79558" lon="-2.67557">
        <ele>132.427922</ele>
        <time>2022-02-07T17:27:44.972Z</time>
      </trkpt>
      <trkpt lat="47.79573" lon="-2.67519">
        <ele>131.968953</ele>
        <time>2022-02-07T17:27:49.383Z</time>
      </trkpt>
      <trkpt lat="47.79623" lon="-2.67317">
        <ele>128.426231</ele>
        <time>2022-02-07T17:28:09.758Z</time>
      </trkpt>
      <trkpt lat="47.79649" lon="-2.67253">
        <ele>126.910808</ele>
        <time>2022-02-07T17:28:16.557Z</time>
      </trkpt>
      <trkpt lat="47.79693" lon="-2.67144">
        <ele>124.261812</ele>
        <time>2022-02-07T17:28:28.171Z</time>
      </trkpt>
      <trkpt lat="47.79729" lon="-2.67102">
        <ele>122.819234</ele>
        <time>2022-02-07T17:28:34.361Z</time>
      </trkpt>
      <trkpt lat="47.80019" lon="-2.66898">
        <ele>114.165004</ele>
        <time>2022-02-07T17:29:18.884Z</time>
      </trkpt>
      <trkpt lat="47.80056" lon="-2.66882">
        <ele>113.614967</ele>
        <time>2022-02-07T17:29:25.171Z</time>
      </trkpt>
      <trkpt lat="47.80147" lon="-2.66877">
        <ele>112.312765</ele>
        <time>2022-02-07T17:29:40.143Z</time>
      </trkpt>
      <trkpt lat="47.80174" lon="-2.66862">
        <ele>111.651417</ele>
        <time>2022-02-07T17:29:44.851Z</time>
      </trkpt>
      <trkpt lat="47.80198" lon="-2.66834">
        <ele>110.93233</ele>
        <time>2022-02-07T17:29:49.955Z</time>
      </trkpt>
      <trkpt lat="47.805" lon="-2.66429">
        <ele>101.186418</ele>
        <time>2022-02-07T17:30:47.052Z</time>
      </trkpt>
      <trkpt lat="47.80613" lon="-2.66277">
        <ele>98.783825</ele>
        <time>2022-02-07T17:31:08.708Z</time>
      </trkpt>
      <trkpt lat="47.80445" lon="-2.65994">
        <ele>100.574542</ele>
        <time>2022-02-07T17:32:02.203Z</time>
      </trkpt>
      <trkpt lat="47.80327" lon="-2.65784">
        <ele>107.319647</ele>
        <time>2022-02-07T17:33:08.015Z</time>
      </trkpt>
      <trkpt lat="47.8032" lon="-2.65617">
        <ele>109.932232</ele>
        <time>2022-02-07T17:33:42.183Z</time>
      </trkpt>
      <trkpt lat="47.80314" lon="-2.65595">
        <ele>110.231982</ele>
        <time>2022-02-07T17:33:46.275Z</time>
      </trkpt>
      <trkpt lat="47.80176" lon="-2.65253">
        <ele>111.108947</ele>
        <time>2022-02-07T17:34:34.975Z</time>
      </trkpt>
      <trkpt lat="47.80186" lon="-2.65103">
        <ele>108.838793</ele>
        <time>2022-02-07T17:34:49.721Z</time>
      </trkpt>
      <trkpt lat="47.80196" lon="-2.65047">
        <ele>107.9718</ele>
        <time>2022-02-07T17:34:55.026Z</time>
      </trkpt>
      <trkpt lat="47.80212" lon="-2.65013">
        <ele>107.327946</ele>
        <time>2022-02-07T17:34:58.756Z</time>
      </trkpt>
      <trkpt lat="47.80301" lon="-2.64893">
        <ele>104.016142</ele>
        <time>2022-02-07T17:35:15.133Z</time>
      </trkpt>
      <trkpt lat="47.80316" lon="-2.64849">
        <ele>103.110591</ele>
        <time>2022-02-07T17:35:19.822Z</time>
      </trkpt>
      <trkpt lat="47.80313" lon="-2.6478">
        <ele>102.404181</ele>
        <time>2022-02-07T17:35:27.029Z</time>
      </trkpt>
      <trkpt lat="47.80293" lon="-2.64737">
        <ele>102.312509</ele>
        <time>2022-02-07T17:35:32.822Z</time>
      </trkpt>
      <trkpt lat="47.80267" lon="-2.647">
        <ele>102.219686</ele>
        <time>2022-02-07T17:35:39.053Z</time>
      </trkpt>
      <trkpt lat="47.80228" lon="-2.64646">
        <ele>102.082412</ele>
        <time>2022-02-07T17:35:49.561Z</time>
      </trkpt>
      <trkpt lat="47.80127" lon="-2.64503">
        <ele>102.053921</ele>
        <time>2022-02-07T17:36:16.336Z</time>
      </trkpt>
      <trkpt lat="47.80017" lon="-2.64363">
        <ele>101.793527</ele>
        <time>2022-02-07T17:36:40.837Z</time>
      </trkpt>
      <trkpt lat="47.80004" lon="-2.64338">
        <ele>101.70605</ele>
        <time>2022-02-07T17:36:44.421Z</time>
      </trkpt>
      <trkpt lat="47.79992" lon="-2.64239">
        <ele>101.426434</ele>
        <time>2022-02-07T17:36:55.820Z</time>
      </trkpt>
      <trkpt lat="47.79987" lon="-2.64221">
        <ele>101.37225</ele>
        <time>2022-02-07T17:36:58.025Z</time>
      </trkpt>
      <trkpt lat="47.79968" lon="-2.64198">
        <ele>101.31817</ele>
        <time>2022-02-07T17:37:02.170Z</time>
      </trkpt>
      <trkpt lat="47.79929" lon="-2.64171">
        <ele>101.249266</ele>
        <time>2022-02-07T17:37:09.431Z</time>
      </trkpt>
      <trkpt lat="47.79848" lon="-2.64017">
        <ele>101.135755</ele>
        <time>2022-02-07T17:37:32.489Z</time>
      </trkpt>
      <trkpt lat="47.79816" lon="-2.63946">
        <ele>101.49128</ele>
        <time>2022-02-07T17:37:43.365Z</time>
      </trkpt>
      <trkpt lat="47.79812" lon="-2.63933">
        <ele>101.550972</ele>
        <time>2022-02-07T17:37:45.396Z</time>
      </trkpt>
      <trkpt lat="47.79812" lon="-2.63885">
        <ele>101.748437</ele>
        <time>2022-02-07T17:37:51.811Z</time>
      </trkpt>
      <trkpt lat="47.7983" lon="-2.6362">
        <ele>103.239567</ele>
        <time>2022-02-07T17:38:31.727Z</time>
      </trkpt>
      <trkpt lat="47.79829" lon="-2.63571">
        <ele>103.561733</ele>
        <time>2022-02-07T17:38:39.044Z</time>
      </trkpt>
      <trkpt lat="47.79807" lon="-2.63431">
        <ele>103.686491</ele>
        <time>2022-02-07T17:38:58.266Z</time>
      </trkpt>
      <trkpt lat="47.79793" lon="-2.63339">
        <ele>103.458728</ele>
        <time>2022-02-07T17:39:09.067Z</time>
      </trkpt>
      <trkpt lat="47.79794" lon="-2.63314">
        <ele>103.39838</ele>
        <time>2022-02-07T17:39:11.751Z</time>
      </trkpt>
      <trkpt lat="47.79808" lon="-2.63279">
        <ele>103.301352</ele>
        <time>2022-02-07T17:39:15.984Z</time>
      </trkpt>
      <trkpt lat="47.79847" lon="-2.63229">
        <ele>102.599629</ele>
        <time>2022-02-07T17:39:23.836Z</time>
      </trkpt>
      <trkpt lat="47.79821" lon="-2.6314">
        <ele>101.515117</ele>
        <time>2022-02-07T17:39:33.739Z</time>
      </trkpt>
      <trkpt lat="47.79826" lon="-2.6309">
        <ele>100.956313</ele>
        <time>2022-02-07T17:39:38.888Z</time>
      </trkpt>
      <trkpt lat="47.79851" lon="-2.6301">
        <ele>100.244372</ele>
        <time>2022-02-07T17:39:48.446Z</time>
      </trkpt>
      <trkpt lat="47.79853" lon="-2.6298">
        <ele>100.218644</ele>
        <time>2022-02-07T17:39:51.703Z</time>
      </trkpt>
      <trkpt lat="47.79853" lon="-2.6298">
        <ele>100.218644</ele>
        <time>2022-02-07T17:39:51.714Z</time>
      </trkpt>
      <trkpt lat="47.7985" lon="-2.6295">
        <ele>100.193128</ele>
        <time>2022-02-07T17:39:55.319Z</time>
      </trkpt>
      <trkpt lat="47.79815" lon="-2.62909">
        <ele>100.137121</ele>
        <time>2022-02-07T17:40:02.974Z</time>
      </trkpt>
      <trkpt lat="47.7978" lon="-2.62745">
        <ele>101.059364</ele>
        <time>2022-02-07T17:40:28.520Z</time>
      </trkpt>
      <trkpt lat="47.79769" lon="-2.6273">
        <ele>101.44335</ele>
        <time>2022-02-07T17:40:32.811Z</time>
      </trkpt>
      <trkpt lat="47.79714" lon="-2.62734">
        <ele>102.883638</ele>
        <time>2022-02-07T17:40:49.494Z</time>
      </trkpt>
      <trkpt lat="47.7966" lon="-2.62716">
        <ele>104.321054</ele>
        <time>2022-02-07T17:41:07.068Z</time>
      </trkpt>
      <trkpt lat="47.796" lon="-2.62695">
        <ele>106.580076</ele>
        <time>2022-02-07T17:41:34.112Z</time>
      </trkpt>
      <trkpt lat="47.79541" lon="-2.62647">
        <ele>109.271088</ele>
        <time>2022-02-07T17:42:06.044Z</time>
      </trkpt>
      <trkpt lat="47.79527" lon="-2.62533">
        <ele>112.2782</ele>
        <time>2022-02-07T17:42:42.359Z</time>
      </trkpt>
      <trkpt lat="47.79555" lon="-2.62481">
        <ele>113.570128</ele>
        <time>2022-02-07T17:43:01.969Z</time>
      </trkpt>
      <trkpt lat="47.79585" lon="-2.62389">
        <ele>115.571066</ele>
        <time>2022-02-07T17:43:30.587Z</time>
      </trkpt>
      <trkpt lat="47.79604" lon="-2.62265">
        <ele>117.254029</ele>
        <time>2022-02-07T17:44:03.080Z</time>
      </trkpt>
      <trkpt lat="47.79658" lon="-2.62149">
        <ele>117.554587</ele>
        <time>2022-02-07T17:44:32.830Z</time>
      </trkpt>
      <trkpt lat="47.79531" lon="-2.61664">
        <ele>113.240437</ele>
        <time>2022-02-07T17:46:08.371Z</time>
      </trkpt>
      <trkpt lat="47.79437" lon="-2.61294">
        <ele>104.496605</ele>
        <time>2022-02-07T17:47:12.050Z</time>
      </trkpt>
      <trkpt lat="47.79271" lon="-2.60634">
        <ele>92.58666</ele>
        <time>2022-02-07T17:49:11.455Z</time>
      </trkpt>
      <trkpt lat="47.79255" lon="-2.60585">
        <ele>91.911015</ele>
        <time>2022-02-07T17:49:17.969Z</time>
      </trkpt>
      <trkpt lat="47.79237" lon="-2.605">
        <ele>91.595418</ele>
        <time>2022-02-07T17:49:29.601Z</time>
      </trkpt>
      <trkpt lat="47.79221" lon="-2.60339">
        <ele>91.232187</ele>
        <time>2022-02-07T17:49:49.091Z</time>
      </trkpt>
      <trkpt lat="47.79223" lon="-2.60243">
        <ele>89.944665</ele>
        <time>2022-02-07T17:49:58.819Z</time>
      </trkpt>
      <trkpt lat="47.79219" lon="-2.6001">
        <ele>85.674064</ele>
        <time>2022-02-07T17:50:20.325Z</time>
      </trkpt>
      <trkpt lat="47.79217" lon="-2.59831">
        <ele>81.836934</ele>
        <time>2022-02-07T17:50:36.140Z</time>
      </trkpt>
      <trkpt lat="47.79219" lon="-2.59688">
        <ele>80.6528</ele>
        <time>2022-02-07T17:50:50.840Z</time>
      </trkpt>
      <trkpt lat="47.79221" lon="-2.59639">
        <ele>80.648296</ele>
        <time>2022-02-07T17:50:56.602Z</time>
      </trkpt>
      <trkpt lat="47.79226" lon="-2.59579">
        <ele>80.642699</ele>
        <time>2022-02-07T17:51:04.525Z</time>
      </trkpt>
      <trkpt lat="47.7917" lon="-2.59545">
        <ele>80.88635</ele>
        <time>2022-02-07T17:51:18.731Z</time>
      </trkpt>
      <trkpt lat="47.79161" lon="-2.59506">
        <ele>81.391062</ele>
        <time>2022-02-07T17:51:29.790Z</time>
      </trkpt>
      <trkpt lat="47.79167" lon="-2.59485">
        <ele>81.670308</ele>
        <time>2022-02-07T17:51:35.852Z</time>
      </trkpt>
      <trkpt lat="47.79163" lon="-2.59452">
        <ele>82.075032</ele>
        <time>2022-02-07T17:51:45.242Z</time>
      </trkpt>
      <trkpt lat="47.7917" lon="-2.59388">
        <ele>82.87395</ele>
        <time>2022-02-07T17:52:02.247Z</time>
      </trkpt>
      <trkpt lat="47.79172" lon="-2.59364">
        <ele>83.16677</ele>
        <time>2022-02-07T17:52:08.087Z</time>
      </trkpt>
      <trkpt lat="47.79206" lon="-2.59282">
        <ele>84.084405</ele>
        <time>2022-02-07T17:52:29.788Z</time>
      </trkpt>
      <trkpt lat="47.7913" lon="-2.59263">
        <ele>84.625356</ele>
        <time>2022-02-07T17:52:45.193Z</time>
      </trkpt>
      <trkpt lat="47.79072" lon="-2.59225">
        <ele>85.073401</ele>
        <time>2022-02-07T17:52:58.845Z</time>
      </trkpt>
      <trkpt lat="47.7905" lon="-2.59211">
        <ele>85.263936</ele>
        <time>2022-02-07T17:53:03.930Z</time>
      </trkpt>
      <trkpt lat="47.79053" lon="-2.59101">
        <ele>86.004697</ele>
        <time>2022-02-07T17:53:20.396Z</time>
      </trkpt>
      <trkpt lat="47.79055" lon="-2.59053">
        <ele>86.324417</ele>
        <time>2022-02-07T17:53:27.756Z</time>
      </trkpt>
      <trkpt lat="47.79058" lon="-2.58949">
        <ele>87.015319</ele>
        <time>2022-02-07T17:53:44.220Z</time>
      </trkpt>
      <trkpt lat="47.79072" lon="-2.58808">
        <ele>87.773786</ele>
        <time>2022-02-07T17:54:05.741Z</time>
      </trkpt>
      <trkpt lat="47.79076" lon="-2.58756">
        <ele>88.054395</ele>
        <time>2022-02-07T17:54:13.170Z</time>
      </trkpt>
      <trkpt lat="47.79084" lon="-2.58472">
        <ele>89.053319</ele>
        <time>2022-02-07T17:55:12.170Z</time>
      </trkpt>
      <trkpt lat="47.79079" lon="-2.58439">
        <ele>89.15344</ele>
        <time>2022-02-07T17:55:19.404Z</time>
      </trkpt>
      <trkpt lat="47.79055" lon="-2.58428">
        <ele>89.392295</ele>
        <time>2022-02-07T17:55:27.292Z</time>
      </trkpt>
      <trkpt lat="47.79031" lon="-2.58274">
        <ele>90.886484</ele>
        <time>2022-02-07T17:56:03.187Z</time>
      </trkpt>
      <trkpt lat="47.79034" lon="-2.58228">
        <ele>91.3308</ele>
        <time>2022-02-07T17:56:14.988Z</time>
      </trkpt>
      <trkpt lat="47.79029" lon="-2.58119">
        <ele>92.740811</ele>
        <time>2022-02-07T17:56:44.233Z</time>
      </trkpt>
      <trkpt lat="47.79009" lon="-2.58055">
        <ele>93.82104</ele>
        <time>2022-02-07T17:57:03.415Z</time>
      </trkpt>
      <trkpt lat="47.78998" lon="-2.58015">
        <ele>94.483866</ele>
        <time>2022-02-07T17:57:14.963Z</time>
      </trkpt>
      <trkpt lat="47.78988" lon="-2.5798">
        <ele>95.055539</ele>
        <time>2022-02-07T17:57:24.747Z</time>
      </trkpt>
      <trkpt lat="47.78943" lon="-2.579">
        <ele>95.987181</ele>
        <time>2022-02-07T17:57:50.769Z</time>
      </trkpt>
      <trkpt lat="47.78927" lon="-2.57877">
        <ele>96.093163</ele>
        <time>2022-02-07T17:57:58.393Z</time>
      </trkpt>
      <trkpt lat="47.78907" lon="-2.57786">
        <ele>96.400303</ele>
        <time>2022-02-07T17:58:19.106Z</time>
      </trkpt>
      <trkpt lat="47.78895" lon="-2.57634">
        <ele>96.633475</ele>
        <time>2022-02-07T17:58:47.426Z</time>
      </trkpt>
      <trkpt lat="47.78847" lon="-2.57631">
        <ele>96.597781</ele>
        <time>2022-02-07T17:59:00.918Z</time>
      </trkpt>
      <trkpt lat="47.78817" lon="-2.57645">
        <ele>96.574717</ele>
        <time>2022-02-07T17:59:09.948Z</time>
      </trkpt>
      <trkpt lat="47.78777" lon="-2.57655">
        <ele>96.543823</ele>
        <time>2022-02-07T17:59:18.782Z</time>
      </trkpt>
      <trkpt lat="47.78739" lon="-2.57664">
        <ele>97.168679</ele>
        <time>2022-02-07T17:59:28.051Z</time>
      </trkpt>
      <trkpt lat="47.78744" lon="-2.57753">
        <ele>98.706048</ele>
        <time>2022-02-07T17:59:43.739Z</time>
      </trkpt>
      <trkpt lat="47.78746" lon="-2.57899">
        <ele>101.179629</ele>
        <time>2022-02-07T18:00:14.527Z</time>
      </trkpt>
      <trkpt lat="47.78675" lon="-2.57912">
        <ele>102.448432</ele>
        <time>2022-02-07T18:00:44.885Z</time>
      </trkpt>
      <trkpt lat="47.78619" lon="-2.57923">
        <ele>103.460408</ele>
        <time>2022-02-07T18:01:04.734Z</time>
      </trkpt>
      <trkpt lat="47.78603" lon="-2.57901">
        <ele>103.838522</ele>
        <time>2022-02-07T18:01:11.793Z</time>
      </trkpt>
      <trkpt lat="47.7859" lon="-2.57794">
        <ele>104.256475</ele>
        <time>2022-02-07T18:01:33.359Z</time>
      </trkpt>
      <trkpt lat="47.78579" lon="-2.57712">
        <ele>104.192544</ele>
        <time>2022-02-07T18:01:49.471Z</time>
      </trkpt>
      <trkpt lat="47.7857" lon="-2.57689">
        <ele>104.172498</ele>
        <time>2022-02-07T18:01:54.904Z</time>
      </trkpt>
      <trkpt lat="47.78567" lon="-2.57612">
        <ele>104.113833</ele>
        <time>2022-02-07T18:02:09.822Z</time>
      </trkpt>
      <trkpt lat="47.78564" lon="-2.57538">
        <ele>104.219586</ele>
        <time>2022-02-07T18:02:24.875Z</time>
      </trkpt>
      <trkpt lat="47.78557" lon="-2.57502">
        <ele>104.287455</ele>
        <time>2022-02-07T18:02:32.974Z</time>
      </trkpt>
      <trkpt lat="47.78544" lon="-2.57443">
        <ele>104.398962</ele>
        <time>2022-02-07T18:02:46.998Z</time>
      </trkpt>
      <trkpt lat="47.78538" lon="-2.57387">
        <ele>104.502275</ele>
        <time>2022-02-07T18:02:59.020Z</time>
      </trkpt>
      <trkpt lat="47.78551" lon="-2.57292">
        <ele>104.098596</ele>
        <time>2022-02-07T18:03:18.428Z</time>
      </trkpt>
      <trkpt lat="47.78548" lon="-2.57237">
        <ele>103.543833</ele>
        <time>2022-02-07T18:03:28.179Z</time>
      </trkpt>
      <trkpt lat="47.78562" lon="-2.57168">
        <ele>102.814225</ele>
        <time>2022-02-07T18:03:40.576Z</time>
      </trkpt>
      <trkpt lat="47.78564" lon="-2.57079">
        <ele>101.921007</ele>
        <time>2022-02-07T18:03:56.153Z</time>
      </trkpt>
      <trkpt lat="47.78553" lon="-2.57011">
        <ele>101.329171</ele>
        <time>2022-02-07T18:04:08.322Z</time>
      </trkpt>
      <trkpt lat="47.78549" lon="-2.56881">
        <ele>100.231481</ele>
        <time>2022-02-07T18:04:32.103Z</time>
      </trkpt>
      <trkpt lat="47.78553" lon="-2.5678">
        <ele>99.599633</ele>
        <time>2022-02-07T18:04:51.190Z</time>
      </trkpt>
      <trkpt lat="47.78565" lon="-2.56749">
        <ele>99.553501</ele>
        <time>2022-02-07T18:04:58.680Z</time>
      </trkpt>
      <trkpt lat="47.7858" lon="-2.56665">
        <ele>99.441767</ele>
        <time>2022-02-07T18:05:15.893Z</time>
      </trkpt>
      <trkpt lat="47.78576" lon="-2.56639">
        <ele>99.408899</ele>
        <time>2022-02-07T18:05:20.978Z</time>
      </trkpt>
      <trkpt lat="47.78544" lon="-2.56584">
        <ele>99.315622</ele>
        <time>2022-02-07T18:05:35.467Z</time>
      </trkpt>
      <trkpt lat="47.78512" lon="-2.565">
        <ele>99.560931</ele>
        <time>2022-02-07T18:05:54.261Z</time>
      </trkpt>
      <trkpt lat="47.78492" lon="-2.56432">
        <ele>99.806486</ele>
        <time>2022-02-07T18:06:10.277Z</time>
      </trkpt>
      <trkpt lat="47.78514" lon="-2.56296">
        <ele>100.309391</ele>
        <time>2022-02-07T18:06:30.996Z</time>
      </trkpt>
      <trkpt lat="47.78455" lon="-2.56263">
        <ele>100.751759</ele>
        <time>2022-02-07T18:06:45.202Z</time>
      </trkpt>
      <trkpt lat="47.78423" lon="-2.56225">
        <ele>101.034998</ele>
        <time>2022-02-07T18:06:53.532Z</time>
      </trkpt>
      <trkpt lat="47.783" lon="-2.55869">
        <ele>102.118148</ele>
        <time>2022-02-07T18:07:44.444Z</time>
      </trkpt>
      <trkpt lat="47.78285" lon="-2.55819">
        <ele>102.319516</ele>
        <time>2022-02-07T18:07:51.696Z</time>
      </trkpt>
      <trkpt lat="47.78278" lon="-2.55731">
        <ele>102.641854</ele>
        <time>2022-02-07T18:08:03.746Z</time>
      </trkpt>
      <trkpt lat="47.78281" lon="-2.5547">
        <ele>104.244399</ele>
        <time>2022-02-07T18:08:39.292Z</time>
      </trkpt>
      <trkpt lat="47.78282" lon="-2.55388">
        <ele>104.831719</ele>
        <time>2022-02-07T18:08:52.225Z</time>
      </trkpt>
      <trkpt lat="47.78083" lon="-2.55385">
        <ele>110.094094</ele>
        <time>2022-02-07T18:10:13.503Z</time>
      </trkpt>
      <trkpt lat="47.77954" lon="-2.55376">
        <ele>113.840521</ele>
        <time>2022-02-07T18:11:08.282Z</time>
      </trkpt>
      <trkpt lat="47.77945" lon="-2.55391">
        <ele>114.235622</ele>
        <time>2022-02-07T18:11:13.990Z</time>
      </trkpt>
      <trkpt lat="47.77714" lon="-2.55389">
        <ele>118.442012</ele>
        <time>2022-02-07T18:12:39.958Z</time>
      </trkpt>
      <trkpt lat="47.77709" lon="-2.55381">
        <ele>118.478538</ele>
        <time>2022-02-07T18:12:42.422Z</time>
      </trkpt>
      <trkpt lat="47.777" lon="-2.55205">
        <ele>119.087657</ele>
        <time>2022-02-07T18:13:19.826Z</time>
      </trkpt>
      <trkpt lat="47.77691" lon="-2.55021">
        <ele>117.909022</ele>
        <time>2022-02-07T18:13:54.008Z</time>
      </trkpt>
      <trkpt lat="47.77684" lon="-2.54956">
        <ele>117.339808</ele>
        <time>2022-02-07T18:14:05.811Z</time>
      </trkpt>
      <trkpt lat="47.77656" lon="-2.54902">
        <ele>116.681198</ele>
        <time>2022-02-07T18:14:17.617Z</time>
      </trkpt>
      <trkpt lat="47.77579" lon="-2.54814">
        <ele>114.909267</ele>
        <time>2022-02-07T18:14:43.007Z</time>
      </trkpt>
      <trkpt lat="47.7757" lon="-2.54817">
        <ele>114.738711</ele>
        <time>2022-02-07T18:14:45.230Z</time>
      </trkpt>
      <trkpt lat="47.77554" lon="-2.54831">
        <ele>114.408241</ele>
        <time>2022-02-07T18:14:50.167Z</time>
      </trkpt>
      <trkpt lat="47.77457" lon="-2.54965">
        <ele>112.196498</ele>
        <time>2022-02-07T18:15:25.574Z</time>
      </trkpt>
      <trkpt lat="47.77407" lon="-2.55006">
        <ele>111.276433</ele>
        <time>2022-02-07T18:15:41.237Z</time>
      </trkpt>
      <trkpt lat="47.7713" lon="-2.54481">
        <ele>103.850346</ele>
        <time>2022-02-07T18:17:37.424Z</time>
      </trkpt>
      <trkpt lat="47.76955" lon="-2.54157">
        <ele>107.272838</ele>
        <time>2022-02-07T18:19:22.595Z</time>
      </trkpt>
      <trkpt lat="47.76659" lon="-2.53587">
        <ele>108.999342</ele>
        <time>2022-02-07T18:21:52.845Z</time>
      </trkpt>
      <trkpt lat="47.76693" lon="-2.53564">
        <ele>108.940916</ele>
        <time>2022-02-07T18:22:03.452Z</time>
      </trkpt>
      <trkpt lat="47.76715" lon="-2.53526">
        <ele>108.887588</ele>
        <time>2022-02-07T18:22:12.940Z</time>
      </trkpt>
      <trkpt lat="47.76728" lon="-2.53494">
        <ele>108.658789</ele>
        <time>2022-02-07T18:22:20.001Z</time>
      </trkpt>
      <trkpt lat="47.76747" lon="-2.53385">
        <ele>107.59604</ele>
        <time>2022-02-07T18:22:40.695Z</time>
      </trkpt>
      <trkpt lat="47.76745" lon="-2.53367">
        <ele>107.421197</ele>
        <time>2022-02-07T18:22:44.051Z</time>
      </trkpt>
      <trkpt lat="47.76734" lon="-2.53372">
        <ele>107.26108</ele>
        <time>2022-02-07T18:22:47.021Z</time>
      </trkpt>
      <trkpt lat="47.76707" lon="-2.53332">
        <ele>106.725577</ele>
        <time>2022-02-07T18:22:56.967Z</time>
      </trkpt>
      <trkpt lat="47.76657" lon="-2.53311">
        <ele>105.908272</ele>
        <time>2022-02-07T18:23:10.596Z</time>
      </trkpt>
      <trkpt lat="47.76608" lon="-2.53249">
        <ele>104.800995</ele>
        <time>2022-02-07T18:23:27.469Z</time>
      </trkpt>
      <trkpt lat="47.76584" lon="-2.53217">
        <ele>104.239649</ele>
        <time>2022-02-07T18:23:36.160Z</time>
      </trkpt>
      <trkpt lat="47.7656" lon="-2.53199">
        <ele>103.773475</ele>
        <time>2022-02-07T18:23:43.355Z</time>
      </trkpt>
      <trkpt lat="47.76532" lon="-2.53193">
        <ele>103.292531</ele>
        <time>2022-02-07T18:23:50.742Z</time>
      </trkpt>
      <trkpt lat="47.76488" lon="-2.53221">
        <ele>102.593176</ele>
        <time>2022-02-07T18:24:03.377Z</time>
      </trkpt>
      <trkpt lat="47.76469" lon="-2.53224">
        <ele>102.305868</ele>
        <time>2022-02-07T18:24:08.650Z</time>
      </trkpt>
      <trkpt lat="47.76427" lon="-2.53263">
        <ele>101.592641</ele>
        <time>2022-02-07T18:24:21.865Z</time>
      </trkpt>
      <trkpt lat="47.76408" lon="-2.53262">
        <ele>101.324117</ele>
        <time>2022-02-07T18:24:26.874Z</time>
      </trkpt>
      <trkpt lat="47.76314" lon="-2.53196">
        <ele>99.967263</ele>
        <time>2022-02-07T18:24:55.235Z</time>
      </trkpt>
      <trkpt lat="47.76296" lon="-2.53176">
        <ele>99.710511</ele>
        <time>2022-02-07T18:25:01.255Z</time>
      </trkpt>
      <trkpt lat="47.76083" lon="-2.53512">
        <ele>95.884747</ele>
        <time>2022-02-07T18:26:26.143Z</time>
      </trkpt>
      <trkpt lat="47.76049" lon="-2.53504">
        <ele>95.289928</ele>
        <time>2022-02-07T18:26:31.623Z</time>
      </trkpt>
      <trkpt lat="47.76033" lon="-2.53525">
        <ele>94.933248</ele>
        <time>2022-02-07T18:26:37.113Z</time>
      </trkpt>
      <trkpt lat="47.76005" lon="-2.53641">
        <ele>93.530073</ele>
        <time>2022-02-07T18:26:58.838Z</time>
      </trkpt>
      <trkpt lat="47.75991" lon="-2.53664">
        <ele>93.25806</ele>
        <time>2022-02-07T18:27:04.179Z</time>
      </trkpt>
      <trkpt lat="47.7596" lon="-2.537">
        <ele>92.919449</ele>
        <time>2022-02-07T18:27:14.618Z</time>
      </trkpt>
      <trkpt lat="47.75936" lon="-2.53698">
        <ele>92.711302</ele>
        <time>2022-02-07T18:27:21.154Z</time>
      </trkpt>
      <trkpt lat="47.75875" lon="-2.53779">
        <ele>92.013774</ele>
        <time>2022-02-07T18:27:44.358Z</time>
      </trkpt>
      <trkpt lat="47.7587" lon="-2.53796">
        <ele>91.908968</ele>
        <time>2022-02-07T18:27:48.035Z</time>
      </trkpt>
      <trkpt lat="47.75857" lon="-2.53814">
        <ele>91.828504</ele>
        <time>2022-02-07T18:27:53.231Z</time>
      </trkpt>
      <trkpt lat="47.75834" lon="-2.53826">
        <ele>92.012197</ele>
        <time>2022-02-07T18:28:00.999Z</time>
      </trkpt>
      <trkpt lat="47.75814" lon="-2.53851">
        <ele>92.205955</ele>
        <time>2022-02-07T18:28:09.492Z</time>
      </trkpt>
      <trkpt lat="47.75695" lon="-2.54011">
        <ele>93.413521</ele>
        <time>2022-02-07T18:29:03.230Z</time>
      </trkpt>
      <trkpt lat="47.75552" lon="-2.54186">
        <ele>94.826441</ele>
        <time>2022-02-07T18:30:04.180Z</time>
      </trkpt>
      <trkpt lat="47.75542" lon="-2.54195">
        <ele>94.891454</ele>
        <time>2022-02-07T18:30:07.850Z</time>
      </trkpt>
      <trkpt lat="47.75525" lon="-2.54186">
        <ele>94.994223</ele>
        <time>2022-02-07T18:30:13.548Z</time>
      </trkpt>
      <trkpt lat="47.75551" lon="-2.54108">
        <ele>95.337352</ele>
        <time>2022-02-07T18:30:25.646Z</time>
      </trkpt>
      <trkpt lat="47.75545" lon="-2.54106">
        <ele>95.376265</ele>
        <time>2022-02-07T18:30:27.745Z</time>
      </trkpt>
      <trkpt lat="47.75535" lon="-2.54104">
        <ele>95.43521</ele>
        <time>2022-02-07T18:30:30.903Z</time>
      </trkpt>
      <trkpt lat="47.75516" lon="-2.54091">
        <ele>95.557405</ele>
        <time>2022-02-07T18:30:37.484Z</time>
      </trkpt>
      <trkpt lat="47.75538" lon="-2.54">
        <ele>95.256749</ele>
        <time>2022-02-07T18:30:57.037Z</time>
      </trkpt>
      <trkpt lat="47.75542" lon="-2.53961">
        <ele>95.06537</ele>
        <time>2022-02-07T18:31:04.727Z</time>
      </trkpt>
      <trkpt lat="47.75535" lon="-2.53929">
        <ele>94.904574</ele>
        <time>2022-02-07T18:31:11.038Z</time>
      </trkpt>
      <trkpt lat="47.75461" lon="-2.53914">
        <ele>94.367633</ele>
        <time>2022-02-07T18:31:31.225Z</time>
      </trkpt>
      <trkpt lat="47.7532" lon="-2.5391">
        <ele>91.601868</ele>
        <time>2022-02-07T18:32:07.922Z</time>
      </trkpt>
      <trkpt lat="47.75269" lon="-2.53893">
        <ele>90.596505</ele>
        <time>2022-02-07T18:32:21.292Z</time>
      </trkpt>
      <trkpt lat="47.75267" lon="-2.53821">
        <ele>89.792959</ele>
        <time>2022-02-07T18:32:33.807Z</time>
      </trkpt>
      <trkpt lat="47.75259" lon="-2.5378">
        <ele>89.31883</ele>
        <time>2022-02-07T18:32:41.308Z</time>
      </trkpt>
      <trkpt lat="47.75239" lon="-2.53722">
        <ele>88.591601</ele>
        <time>2022-02-07T18:32:52.861Z</time>
      </trkpt>
      <trkpt lat="47.75208" lon="-2.53663">
        <ele>87.757163</ele>
        <time>2022-02-07T18:33:06.574Z</time>
      </trkpt>
      <trkpt lat="47.75149" lon="-2.53548">
        <ele>87.415926</ele>
        <time>2022-02-07T18:33:33.910Z</time>
      </trkpt>
      <trkpt lat="47.75138" lon="-2.53527">
        <ele>87.351774</ele>
        <time>2022-02-07T18:33:39.385Z</time>
      </trkpt>
      <trkpt lat="47.75152" lon="-2.53488">
        <ele>87.244638</ele>
        <time>2022-02-07T18:33:48.322Z</time>
      </trkpt>
      <trkpt lat="47.75143" lon="-2.53455">
        <ele>87.161123</ele>
        <time>2022-02-07T18:33:55.382Z</time>
      </trkpt>
      <trkpt lat="47.75139" lon="-2.53408">
        <ele>87.237147</ele>
        <time>2022-02-07T18:34:05.279Z</time>
      </trkpt>
      <trkpt lat="47.75131" lon="-2.53384">
        <ele>87.333155</ele>
        <time>2022-02-07T18:34:10.928Z</time>
      </trkpt>
      <trkpt lat="47.75114" lon="-2.53373">
        <ele>87.437408</ele>
        <time>2022-02-07T18:34:16.920Z</time>
      </trkpt>
      <trkpt lat="47.74957" lon="-2.53339">
        <ele>88.52429</ele>
        <time>2022-02-07T18:35:08.290Z</time>
      </trkpt>
      <trkpt lat="47.74977" lon="-2.53261">
        <ele>89.170693</ele>
        <time>2022-02-07T18:35:27.390Z</time>
      </trkpt>
      <trkpt lat="47.74984" lon="-2.53209">
        <ele>89.581441</ele>
        <time>2022-02-07T18:35:39.936Z</time>
      </trkpt>
      <trkpt lat="47.74989" lon="-2.53188">
        <ele>89.752314</ele>
        <time>2022-02-07T18:35:45.712Z</time>
      </trkpt>
      <trkpt lat="47.74999" lon="-2.53003">
        <ele>91.210834</ele>
        <time>2022-02-07T18:36:29.346Z</time>
      </trkpt>
      <trkpt lat="47.74995" lon="-2.52981">
        <ele>91.394533</ele>
        <time>2022-02-07T18:36:35.237Z</time>
      </trkpt>
      <trkpt lat="47.74946" lon="-2.52868">
        <ele>92.354305</ele>
        <time>2022-02-07T18:37:05.273Z</time>
      </trkpt>
      <trkpt lat="47.74929" lon="-2.52807">
        <ele>92.550967</ele>
        <time>2022-02-07T18:37:19.059Z</time>
      </trkpt>
      <trkpt lat="47.74895" lon="-2.52653">
        <ele>93.038826</ele>
        <time>2022-02-07T18:37:52.345Z</time>
      </trkpt>
      <trkpt lat="47.74884" lon="-2.52563">
        <ele>93.659181</ele>
        <time>2022-02-07T18:38:12.016Z</time>
      </trkpt>
      <trkpt lat="47.75057" lon="-2.52482">
        <ele>95.555952</ele>
        <time>2022-02-07T18:38:54.523Z</time>
      </trkpt>
      <trkpt lat="47.751" lon="-2.52464">
        <ele>95.918787</ele>
        <time>2022-02-07T18:39:04.423Z</time>
      </trkpt>
      <trkpt lat="47.75125" lon="-2.52461">
        <ele>96.120727</ele>
        <time>2022-02-07T18:39:09.584Z</time>
      </trkpt>
      <trkpt lat="47.7511" lon="-2.52353">
        <ele>96.68186</ele>
        <time>2022-02-07T18:39:23.673Z</time>
      </trkpt>
      <trkpt lat="47.751" lon="-2.52313">
        <ele>96.844179</ele>
        <time>2022-02-07T18:39:29.403Z</time>
      </trkpt>
      <trkpt lat="47.75055" lon="-2.52213">
        <ele>97.294543</ele>
        <time>2022-02-07T18:39:45.386Z</time>
      </trkpt>
      <trkpt lat="47.75172" lon="-2.52205">
        <ele>98.667274</ele>
        <time>2022-02-07T18:40:25.274Z</time>
      </trkpt>
      <trkpt lat="47.75198" lon="-2.52209">
        <ele>99.113912</ele>
        <time>2022-02-07T18:40:35.093Z</time>
      </trkpt>
      <trkpt lat="47.75278" lon="-2.52236">
        <ele>100.506429</ele>
        <time>2022-02-07T18:41:06.954Z</time>
      </trkpt>
      <trkpt lat="47.75402" lon="-2.52193">
        <ele>102.220998</ele>
        <time>2022-02-07T18:41:52.569Z</time>
      </trkpt>
      <trkpt lat="47.75412" lon="-2.5218">
        <ele>102.39334</ele>
        <time>2022-02-07T18:41:56.876Z</time>
      </trkpt>
      <trkpt lat="47.75465" lon="-2.51988">
        <ele>103.705112</ele>
        <time>2022-02-07T18:42:42.157Z</time>
      </trkpt>
      <trkpt lat="47.755" lon="-2.51858">
        <ele>104.403404</ele>
        <time>2022-02-07T18:43:12.737Z</time>
      </trkpt>
      <trkpt lat="47.75568" lon="-2.51607">
        <ele>105.644674</ele>
        <time>2022-02-07T18:44:12.501Z</time>
      </trkpt>
      <trkpt lat="47.75573" lon="-2.51585">
        <ele>105.655294</ele>
        <time>2022-02-07T18:44:17.516Z</time>
      </trkpt>
      <trkpt lat="47.7559" lon="-2.51385">
        <ele>105.744119</ele>
        <time>2022-02-07T18:44:57.619Z</time>
      </trkpt>
      <trkpt lat="47.75599" lon="-2.51389">
        <ele>105.750749</ele>
        <time>2022-02-07T18:44:59.355Z</time>
      </trkpt>
      <trkpt lat="47.7561" lon="-2.51372">
        <ele>105.743764</ele>
        <time>2022-02-07T18:45:03.872Z</time>
      </trkpt>
      <trkpt lat="47.7562" lon="-2.51372">
        <ele>105.712324</ele>
        <time>2022-02-07T18:45:06.849Z</time>
      </trkpt>
      <trkpt lat="47.75662" lon="-2.51401">
        <ele>105.571408</ele>
        <time>2022-02-07T18:45:20.260Z</time>
      </trkpt>
      <trkpt lat="47.75679" lon="-2.51424">
        <ele>105.499308</ele>
        <time>2022-02-07T18:45:27.108Z</time>
      </trkpt>
      <trkpt lat="47.75707" lon="-2.51442">
        <ele>105.408676</ele>
        <time>2022-02-07T18:45:35.728Z</time>
      </trkpt>
      <trkpt lat="47.75742" lon="-2.5148">
        <ele>105.27688</ele>
        <time>2022-02-07T18:45:48.289Z</time>
      </trkpt>
      <trkpt lat="47.75752" lon="-2.51513">
        <ele>105.191713</ele>
        <time>2022-02-07T18:45:55.447Z</time>
      </trkpt>
      <trkpt lat="47.75765" lon="-2.5152">
        <ele>105.100162</ele>
        <time>2022-02-07T18:45:59.370Z</time>
      </trkpt>
      <trkpt lat="47.75785" lon="-2.51517">
        <ele>104.964502</ele>
        <time>2022-02-07T18:46:05.080Z</time>
      </trkpt>
      <trkpt lat="47.75822" lon="-2.51536">
        <ele>104.69923</ele>
        <time>2022-02-07T18:46:16.212Z</time>
      </trkpt>
      <trkpt lat="47.75836" lon="-2.51531">
        <ele>104.600027</ele>
        <time>2022-02-07T18:46:20.340Z</time>
      </trkpt>
      <trkpt lat="47.7587" lon="-2.51452">
        <ele>104.173868</ele>
        <time>2022-02-07T18:46:37.972Z</time>
      </trkpt>
      <trkpt lat="47.75884" lon="-2.51392">
        <ele>103.823764</ele>
        <time>2022-02-07T18:46:49.887Z</time>
      </trkpt>
      <trkpt lat="47.7593" lon="-2.51304">
        <ele>103.049162</ele>
        <time>2022-02-07T18:47:10.783Z</time>
      </trkpt>
      <trkpt lat="47.75963" lon="-2.51241">
        <ele>102.490224</ele>
        <time>2022-02-07T18:47:25.468Z</time>
      </trkpt>
      <trkpt lat="47.75994" lon="-2.51197">
        <ele>101.999819</ele>
        <time>2022-02-07T18:47:36.994Z</time>
      </trkpt>
      <trkpt lat="47.76011" lon="-2.51141">
        <ele>101.297239</ele>
        <time>2022-02-07T18:47:48.192Z</time>
      </trkpt>
      <trkpt lat="47.76023" lon="-2.51107">
        <ele>100.863357</ele>
        <time>2022-02-07T18:47:54.936Z</time>
      </trkpt>
      <trkpt lat="47.76044" lon="-2.51072">
        <ele>100.32808</ele>
        <time>2022-02-07T18:48:03.314Z</time>
      </trkpt>
      <trkpt lat="47.76129" lon="-2.50951">
        <ele>98.356175</ele>
        <time>2022-02-07T18:48:34.074Z</time>
      </trkpt>
      <trkpt lat="47.76095" lon="-2.5047">
        <ele>93.298228</ele>
        <time>2022-02-07T18:49:25.748Z</time>
      </trkpt>
      <trkpt lat="47.76053" lon="-2.49897">
        <ele>89.217529</ele>
        <time>2022-02-07T18:50:29.315Z</time>
      </trkpt>
      <trkpt lat="47.76012" lon="-2.49322">
        <ele>90.281214</ele>
        <time>2022-02-07T18:51:45.606Z</time>
      </trkpt>
      <trkpt lat="47.76002" lon="-2.4918">
        <ele>91.217225</ele>
        <time>2022-02-07T18:52:08.875Z</time>
      </trkpt>
      <trkpt lat="47.75973" lon="-2.48791">
        <ele>94.092537</ele>
        <time>2022-02-07T18:53:11.001Z</time>
      </trkpt>
      <trkpt lat="47.7593" lon="-2.48192">
        <ele>96.630146</ele>
        <time>2022-02-07T18:54:34.334Z</time>
      </trkpt>
      <trkpt lat="47.7593" lon="-2.48185">
        <ele>96.653338</ele>
        <time>2022-02-07T18:54:35.277Z</time>
      </trkpt>
      <trkpt lat="47.75911" lon="-2.47923">
        <ele>97.709014</ele>
        <time>2022-02-07T18:55:12.415Z</time>
      </trkpt>
      <trkpt lat="47.75913" lon="-2.47913">
        <ele>97.756184</ele>
        <time>2022-02-07T18:55:13.980Z</time>
      </trkpt>
      <trkpt lat="47.75895" lon="-2.47724">
        <ele>98.618245</ele>
        <time>2022-02-07T18:55:55.279Z</time>
      </trkpt>
      <trkpt lat="47.75887" lon="-2.47584">
        <ele>99.297754</ele>
        <time>2022-02-07T18:56:26.356Z</time>
      </trkpt>
      <trkpt lat="47.75863" lon="-2.47444">
        <ele>99.660693</ele>
        <time>2022-02-07T18:56:57.804Z</time>
      </trkpt>
      <trkpt lat="47.75759" lon="-2.46903">
        <ele>99.973323</ele>
        <time>2022-02-07T18:58:52.914Z</time>
      </trkpt>
      <trkpt lat="47.75693" lon="-2.46567">
        <ele>96.897763</ele>
        <time>2022-02-07T18:59:56.164Z</time>
      </trkpt>
      <trkpt lat="47.75804" lon="-2.46308">
        <ele>92.043467</ele>
        <time>2022-02-07T19:00:48.040Z</time>
      </trkpt>
      <trkpt lat="47.75911" lon="-2.46128">
        <ele>90.070727</ele>
        <time>2022-02-07T19:01:32.038Z</time>
      </trkpt>
      <trkpt lat="47.76063" lon="-2.45947">
        <ele>89.66644</ele>
        <time>2022-02-07T19:02:29.453Z</time>
      </trkpt>
      <trkpt lat="47.75814" lon="-2.4525">
        <ele>90.845518</ele>
        <time>2022-02-07T19:05:11.669Z</time>
      </trkpt>
      <trkpt lat="47.75578" lon="-2.4459">
        <ele>93.099054</ele>
        <time>2022-02-07T19:07:48.620Z</time>
      </trkpt>
      <trkpt lat="47.75522" lon="-2.44432">
        <ele>94.122541</ele>
        <time>2022-02-07T19:08:29.737Z</time>
      </trkpt>
      <trkpt lat="47.75512" lon="-2.44415">
        <ele>94.279319</ele>
        <time>2022-02-07T19:08:35.087Z</time>
      </trkpt>
      <trkpt lat="47.755" lon="-2.44405">
        <ele>94.417635</ele>
        <time>2022-02-07T19:08:39.805Z</time>
      </trkpt>
      <trkpt lat="47.75453" lon="-2.44395">
        <ele>94.894373</ele>
        <time>2022-02-07T19:08:56.030Z</time>
      </trkpt>
      <trkpt lat="47.75228" lon="-2.44312">
        <ele>96.365023</ele>
        <time>2022-02-07T19:10:09.651Z</time>
      </trkpt>
      <trkpt lat="47.75212" lon="-2.44298">
        <ele>96.504588</ele>
        <time>2022-02-07T19:10:15.328Z</time>
      </trkpt>
      <trkpt lat="47.7519" lon="-2.44262">
        <ele>96.75743</ele>
        <time>2022-02-07T19:10:25.736Z</time>
      </trkpt>
      <trkpt lat="47.75345" lon="-2.43929">
        <ele>98.896047</ele>
        <time>2022-02-07T19:11:26.487Z</time>
      </trkpt>
      <trkpt lat="47.75352" lon="-2.43899">
        <ele>98.948437</ele>
        <time>2022-02-07T19:11:30.921Z</time>
      </trkpt>
      <trkpt lat="47.75357" lon="-2.43878">
        <ele>98.76807</ele>
        <time>2022-02-07T19:11:33.781Z</time>
      </trkpt>
      <trkpt lat="47.75379" lon="-2.4386">
        <ele>98.468589</ele>
        <time>2022-02-07T19:11:38.090Z</time>
      </trkpt>
      <trkpt lat="47.75402" lon="-2.43839">
        <ele>98.141341</ele>
        <time>2022-02-07T19:11:42.549Z</time>
      </trkpt>
      <trkpt lat="47.75433" lon="-2.43823">
        <ele>97.742324</ele>
        <time>2022-02-07T19:11:47.690Z</time>
      </trkpt>
      <trkpt lat="47.75492" lon="-2.43818">
        <ele>97.023765</ele>
        <time>2022-02-07T19:11:56.341Z</time>
      </trkpt>
      <trkpt lat="47.75679" lon="-2.43764">
        <ele>92.019261</ele>
        <time>2022-02-07T19:12:22.562Z</time>
      </trkpt>
      <trkpt lat="47.75632" lon="-2.43481">
        <ele>89.831067</ele>
        <time>2022-02-07T19:12:57.548Z</time>
      </trkpt>
      <trkpt lat="47.75567" lon="-2.43087">
        <ele>89.202287</ele>
        <time>2022-02-07T19:13:50.988Z</time>
      </trkpt>
      <trkpt lat="47.75673" lon="-2.42765">
        <ele>88.243892</ele>
        <time>2022-02-07T19:14:36.881Z</time>
      </trkpt>
      <trkpt lat="47.75705" lon="-2.42669">
        <ele>87.263904</ele>
        <time>2022-02-07T19:14:49.358Z</time>
      </trkpt>
      <trkpt lat="47.75712" lon="-2.42646">
        <ele>86.992492</ele>
        <time>2022-02-07T19:14:52.325Z</time>
      </trkpt>
      <trkpt lat="47.75716" lon="-2.42632">
        <ele>86.831978</ele>
        <time>2022-02-07T19:14:54.052Z</time>
      </trkpt>
      <trkpt lat="47.75751" lon="-2.42513">
        <ele>85.452981</ele>
        <time>2022-02-07T19:15:08.502Z</time>
      </trkpt>
      <trkpt lat="47.75785" lon="-2.42357">
        <ele>83.667961</ele>
        <time>2022-02-07T19:15:26.992Z</time>
      </trkpt>
      <trkpt lat="47.75787" lon="-2.42336">
        <ele>83.442625</ele>
        <time>2022-02-07T19:15:30.761Z</time>
      </trkpt>
      <trkpt lat="47.75783" lon="-2.42313">
        <ele>83.183748</ele>
        <time>2022-02-07T19:15:35.148Z</time>
      </trkpt>
      <trkpt lat="47.75703" lon="-2.42072">
        <ele>79.540588</ele>
        <time>2022-02-07T19:16:23.659Z</time>
      </trkpt>
      <trkpt lat="47.7576" lon="-2.41842">
        <ele>74.029695</ele>
        <time>2022-02-07T19:17:02.988Z</time>
      </trkpt>
      <trkpt lat="47.75807" lon="-2.41624">
        <ele>69.149062</ele>
        <time>2022-02-07T19:17:39.973Z</time>
      </trkpt>
      <trkpt lat="47.75936" lon="-2.41075">
        <ele>62.018722</ele>
        <time>2022-02-07T19:19:23.564Z</time>
      </trkpt>
      <trkpt lat="47.7596" lon="-2.40935">
        <ele>60.472559</ele>
        <time>2022-02-07T19:19:50.820Z</time>
      </trkpt>
      <trkpt lat="47.75968" lon="-2.40859">
        <ele>59.530292</ele>
        <time>2022-02-07T19:20:04.702Z</time>
      </trkpt>
      <trkpt lat="47.76038" lon="-2.40736">
        <ele>57.245064</ele>
        <time>2022-02-07T19:20:32.255Z</time>
      </trkpt>
      <trkpt lat="47.76047" lon="-2.40714">
        <ele>56.674778</ele>
        <time>2022-02-07T19:20:36.473Z</time>
      </trkpt>
      <trkpt lat="47.76063" lon="-2.40681">
        <ele>55.79289</ele>
        <time>2022-02-07T19:20:43.008Z</time>
      </trkpt>
      <trkpt lat="47.76085" lon="-2.40613">
        <ele>54.132396</ele>
        <time>2022-02-07T19:20:55.149Z</time>
      </trkpt>
      <trkpt lat="47.76121" lon="-2.40554">
        <ele>52.386961</ele>
        <time>2022-02-07T19:21:08.177Z</time>
      </trkpt>
      <trkpt lat="47.76189" lon="-2.40479">
        <ele>50.868016</ele>
        <time>2022-02-07T19:21:29.854Z</time>
      </trkpt>
      <trkpt lat="47.76217" lon="-2.40453">
        <ele>50.348215</ele>
        <time>2022-02-07T19:21:38.612Z</time>
      </trkpt>
      <trkpt lat="47.7624" lon="-2.40412">
        <ele>49.780415</ele>
        <time>2022-02-07T19:21:48.464Z</time>
      </trkpt>
      <trkpt lat="47.76252" lon="-2.4041">
        <ele>49.587085</ele>
        <time>2022-02-07T19:21:51.943Z</time>
      </trkpt>
      <trkpt lat="47.76261" lon="-2.40422">
        <ele>49.394659</ele>
        <time>2022-02-07T19:21:54.046Z</time>
      </trkpt>
      <trkpt lat="47.76293" lon="-2.40413">
        <ele>49.379394</ele>
        <time>2022-02-07T19:21:59.758Z</time>
      </trkpt>
      <trkpt lat="47.76327" lon="-2.40383">
        <ele>49.680094</ele>
        <time>2022-02-07T19:22:07.359Z</time>
      </trkpt>
      <trkpt lat="47.76321" lon="-2.40369">
        <ele>49.762908</ele>
        <time>2022-02-07T19:22:09.325Z</time>
      </trkpt>
      <trkpt lat="47.76261" lon="-2.40228">
        <ele>50.662358</ele>
        <time>2022-02-07T19:22:34.897Z</time>
      </trkpt>
      <trkpt lat="47.76198" lon="-2.40079">
        <ele>52.518749</ele>
        <time>2022-02-07T19:23:04.356Z</time>
      </trkpt>
      <trkpt lat="47.76142" lon="-2.39889">
        <ele>53.695092</ele>
        <time>2022-02-07T19:23:36.412Z</time>
      </trkpt>
      <trkpt lat="47.76455" lon="-2.39746">
        <ele>52.654239</ele>
        <time>2022-02-07T19:24:31.315Z</time>
      </trkpt>
      <trkpt lat="47.76512" lon="-2.39705">
        <ele>52.070042</ele>
        <time>2022-02-07T19:24:41.183Z</time>
      </trkpt>
      <trkpt lat="47.76549" lon="-2.39668">
        <ele>51.656555</ele>
        <time>2022-02-07T19:24:48.069Z</time>
      </trkpt>
      <trkpt lat="47.76551" lon="-2.39665">
        <ele>51.632699</ele>
        <time>2022-02-07T19:24:48.470Z</time>
      </trkpt>
      <trkpt lat="47.76658" lon="-2.39539">
        <ele>50.359198</ele>
        <time>2022-02-07T19:25:10.360Z</time>
      </trkpt>
      <trkpt lat="47.76667" lon="-2.39531">
        <ele>50.263889</ele>
        <time>2022-02-07T19:25:12.078Z</time>
      </trkpt>
      <trkpt lat="47.76715" lon="-2.39489">
        <ele>49.748928</ele>
        <time>2022-02-07T19:25:21.026Z</time>
      </trkpt>
      <trkpt lat="47.76798" lon="-2.39451">
        <ele>49.075803</ele>
        <time>2022-02-07T19:25:35.130Z</time>
      </trkpt>
      <trkpt lat="47.76927" lon="-2.39451">
        <ele>48.135017</ele>
        <time>2022-02-07T19:25:56.031Z</time>
      </trkpt>
      <trkpt lat="47.77041" lon="-2.39507">
        <ele>47.393205</ele>
        <time>2022-02-07T19:26:16.732Z</time>
      </trkpt>
      <trkpt lat="47.77131" lon="-2.39618">
        <ele>45.266814</ele>
        <time>2022-02-07T19:26:34.713Z</time>
      </trkpt>
      <trkpt lat="47.77182" lon="-2.39691">
        <ele>43.785791</ele>
        <time>2022-02-07T19:26:44.679Z</time>
      </trkpt>
      <trkpt lat="47.77263" lon="-2.39771">
        <ele>40.527737</ele>
        <time>2022-02-07T19:26:57.562Z</time>
      </trkpt>
      <trkpt lat="47.77334" lon="-2.39807">
        <ele>37.854185</ele>
        <time>2022-02-07T19:27:07.504Z</time>
      </trkpt>
      <trkpt lat="47.77393" lon="-2.3982">
        <ele>36.311132</ele>
        <time>2022-02-07T19:27:15.840Z</time>
      </trkpt>
      <trkpt lat="47.77423" lon="-2.39819">
        <ele>35.695696</ele>
        <time>2022-02-07T19:27:20.117Z</time>
      </trkpt>
      <trkpt lat="47.77451" lon="-2.3982">
        <ele>35.111326</ele>
        <time>2022-02-07T19:27:24.276Z</time>
      </trkpt>
      <trkpt lat="47.77496" lon="-2.39809">
        <ele>34.160127</ele>
        <time>2022-02-07T19:27:31.138Z</time>
      </trkpt>
      <trkpt lat="47.77553" lon="-2.39784">
        <ele>33.091774</ele>
        <time>2022-02-07T19:27:40.126Z</time>
      </trkpt>
      <trkpt lat="47.77631" lon="-2.39722">
        <ele>31.897005</ele>
        <time>2022-02-07T19:27:54.070Z</time>
      </trkpt>
      <trkpt lat="47.77673" lon="-2.39663">
        <ele>31.115352</ele>
        <time>2022-02-07T19:28:03.035Z</time>
      </trkpt>
      <trkpt lat="47.77848" lon="-2.39317">
        <ele>26.270841</ele>
        <time>2022-02-07T19:28:46.785Z</time>
      </trkpt>
      <trkpt lat="47.77949" lon="-2.3917">
        <ele>23.388577</ele>
        <time>2022-02-07T19:29:07.583Z</time>
      </trkpt>
      <trkpt lat="47.78023" lon="-2.39083">
        <ele>21.121705</ele>
        <time>2022-02-07T19:29:20.879Z</time>
      </trkpt>
      <trkpt lat="47.78161" lon="-2.38993">
        <ele>18.705266</ele>
        <time>2022-02-07T19:29:42.394Z</time>
      </trkpt>
      <trkpt lat="47.78187" lon="-2.38977">
        <ele>18.304349</ele>
        <time>2022-02-07T19:29:47.113Z</time>
      </trkpt>
      <trkpt lat="47.78285" lon="-2.38928">
        <ele>19.867185</ele>
        <time>2022-02-07T19:30:11.911Z</time>
      </trkpt>
      <trkpt lat="47.78421" lon="-2.38934">
        <ele>23.471577</ele>
        <time>2022-02-07T19:30:55.531Z</time>
      </trkpt>
      <trkpt lat="47.78481" lon="-2.38963">
        <ele>25.411111</ele>
        <time>2022-02-07T19:31:16.483Z</time>
      </trkpt>
      <trkpt lat="47.78543" lon="-2.39008">
        <ele>27.514508</ele>
        <time>2022-02-07T19:31:36.190Z</time>
      </trkpt>
      <trkpt lat="47.78617" lon="-2.39103">
        <ele>29.371579</ele>
        <time>2022-02-07T19:31:59.746Z</time>
      </trkpt>
      <trkpt lat="47.78648" lon="-2.39161">
        <ele>30.218597</ele>
        <time>2022-02-07T19:32:11.213Z</time>
      </trkpt>
      <trkpt lat="47.78674" lon="-2.39229">
        <ele>31.228277</ele>
        <time>2022-02-07T19:32:22.013Z</time>
      </trkpt>
      <trkpt lat="47.78745" lon="-2.39505">
        <ele>39.567879</ele>
        <time>2022-02-07T19:33:27.259Z</time>
      </trkpt>
      <trkpt lat="47.78815" lon="-2.39481">
        <ele>45.698922</ele>
        <time>2022-02-07T19:34:01.751Z</time>
      </trkpt>
      <trkpt lat="47.78909" lon="-2.39487">
        <ele>53.915543</ele>
        <time>2022-02-07T19:35:03.009Z</time>
      </trkpt>
      <trkpt lat="47.78929" lon="-2.39468">
        <ele>56.308024</ele>
        <time>2022-02-07T19:35:18.573Z</time>
      </trkpt>
      <trkpt lat="47.78932" lon="-2.39418">
        <ele>59.636184</ele>
        <time>2022-02-07T19:35:38.402Z</time>
      </trkpt>
      <trkpt lat="47.78944" lon="-2.39392">
        <ele>61.781257</ele>
        <time>2022-02-07T19:35:51.745Z</time>
      </trkpt>
      <trkpt lat="47.78999" lon="-2.39333">
        <ele>68.450503</ele>
        <time>2022-02-07T19:36:30.532Z</time>
      </trkpt>
      <trkpt lat="47.79035" lon="-2.39253">
        <ele>72.209955</ele>
        <time>2022-02-07T19:37:02.748Z</time>
      </trkpt>
      <trkpt lat="47.79066" lon="-2.39217">
        <ele>73.594854</ele>
        <time>2022-02-07T19:37:20.363Z</time>
      </trkpt>
      <trkpt lat="47.79084" lon="-2.39197">
        <ele>74.391166</ele>
        <time>2022-02-07T19:37:27.944Z</time>
      </trkpt>
      <trkpt lat="47.79248" lon="-2.39014">
        <ele>74.61777</ele>
        <time>2022-02-07T19:38:02.664Z</time>
      </trkpt>
      <trkpt lat="47.79345" lon="-2.38917">
        <ele>70.997609</ele>
        <time>2022-02-07T19:38:30.149Z</time>
      </trkpt>
      <trkpt lat="47.79477" lon="-2.38819">
        <ele>66.233555</ele>
        <time>2022-02-07T19:39:05.206Z</time>
      </trkpt>
      <trkpt lat="47.79527" lon="-2.38757">
        <ele>65.822293</ele>
        <time>2022-02-07T19:39:22.468Z</time>
      </trkpt>
      <trkpt lat="47.79563" lon="-2.38747">
        <ele>65.59243</ele>
        <time>2022-02-07T19:39:33.776Z</time>
      </trkpt>
      <trkpt lat="47.79629" lon="-2.38744">
        <ele>66.330904</ele>
        <time>2022-02-07T19:39:59.298Z</time>
      </trkpt>
      <trkpt lat="47.79662" lon="-2.38741">
        <ele>67.914209</ele>
        <time>2022-02-07T19:40:10.672Z</time>
      </trkpt>
      <trkpt lat="47.79913" lon="-2.38724">
        <ele>79.262846</ele>
        <time>2022-02-07T19:41:54.836Z</time>
      </trkpt>
      <trkpt lat="47.79948" lon="-2.38717">
        <ele>80.75733</ele>
        <time>2022-02-07T19:42:04.969Z</time>
      </trkpt>
      <trkpt lat="47.7997" lon="-2.387">
        <ele>81.452622</ele>
        <time>2022-02-07T19:42:10.936Z</time>
      </trkpt>
      <trkpt lat="47.79981" lon="-2.3869">
        <ele>81.149723</ele>
        <time>2022-02-07T19:42:13.710Z</time>
      </trkpt>
      <trkpt lat="47.8003" lon="-2.38608">
        <ele>79.426738</ele>
        <time>2022-02-07T19:42:25.811Z</time>
      </trkpt>
      <trkpt lat="47.80123" lon="-2.38489">
        <ele>75.583839</ele>
        <time>2022-02-07T19:42:42.309Z</time>
      </trkpt>
      <trkpt lat="47.80188" lon="-2.38393">
        <ele>70.889719</ele>
        <time>2022-02-07T19:42:54.290Z</time>
      </trkpt>
      <trkpt lat="47.80258" lon="-2.38345">
        <ele>66.571042</ele>
        <time>2022-02-07T19:43:04.882Z</time>
      </trkpt>
      <trkpt lat="47.80322" lon="-2.38216">
        <ele>59.428869</ele>
        <time>2022-02-07T19:43:18.790Z</time>
      </trkpt>
      <trkpt lat="47.80331" lon="-2.38162">
        <ele>56.978103</ele>
        <time>2022-02-07T19:43:23.294Z</time>
      </trkpt>
      <trkpt lat="47.80329" lon="-2.38116">
        <ele>53.992606</ele>
        <time>2022-02-07T19:43:27.084Z</time>
      </trkpt>
      <trkpt lat="47.80336" lon="-2.38094">
        <ele>52.216112</ele>
        <time>2022-02-07T19:43:29.011Z</time>
      </trkpt>
      <trkpt lat="47.8039" lon="-2.38083">
        <ele>46.21964</ele>
        <time>2022-02-07T19:43:35.364Z</time>
      </trkpt>
      <trkpt lat="47.80449" lon="-2.38067">
        <ele>39.515743</ele>
        <time>2022-02-07T19:43:42.377Z</time>
      </trkpt>
      <trkpt lat="47.8049" lon="-2.38054">
        <ele>35.237471</ele>
        <time>2022-02-07T19:43:47.115Z</time>
      </trkpt>
      <trkpt lat="47.80509" lon="-2.38048">
        <ele>33.532961</ele>
        <time>2022-02-07T19:43:49.356Z</time>
      </trkpt>
      <trkpt lat="47.80563" lon="-2.38023">
        <ele>28.62389</ele>
        <time>2022-02-07T19:43:56.175Z</time>
      </trkpt>
      <trkpt lat="47.80597" lon="-2.37997">
        <ele>25.351066</ele>
        <time>2022-02-07T19:44:00.893Z</time>
      </trkpt>
      <trkpt lat="47.80613" lon="-2.37981">
        <ele>23.70153</ele>
        <time>2022-02-07T19:44:14.156Z</time>
      </trkpt>
      <trkpt lat="47.80636" lon="-2.38013">
        <ele>20.939586</ele>
        <time>2022-02-07T19:44:18.093Z</time>
      </trkpt>
      <trkpt lat="47.80677" lon="-2.38043">
        <ele>19.545324</ele>
        <time>2022-02-07T19:44:24.115Z</time>
      </trkpt>
      <trkpt lat="47.80718" lon="-2.3805">
        <ele>18.403779</ele>
        <time>2022-02-07T19:44:29.501Z</time>
      </trkpt>
      <trkpt lat="47.80775" lon="-2.38038">
        <ele>16.804716</ele>
        <time>2022-02-07T19:44:38.069Z</time>
      </trkpt>
      <trkpt lat="47.80844" lon="-2.38047">
        <ele>15.661497</ele>
        <time>2022-02-07T19:44:49.860Z</time>
      </trkpt>
      <trkpt lat="47.80854" lon="-2.38047">
        <ele>15.631681</ele>
        <time>2022-02-07T19:44:51.588Z</time>
      </trkpt>
      <trkpt lat="47.80866" lon="-2.38037">
        <ele>15.585967</ele>
        <time>2022-02-07T19:44:54.051Z</time>
      </trkpt>
      <trkpt lat="47.80882" lon="-2.38042">
        <ele>15.535592</ele>
        <time>2022-02-07T19:44:56.732Z</time>
      </trkpt>
      <trkpt lat="47.80973" lon="-2.38104">
        <ele>15.216373</ele>
        <time>2022-02-07T19:45:14.070Z</time>
      </trkpt>
      <trkpt lat="47.81004" lon="-2.38124">
        <ele>15.155876</ele>
        <time>2022-02-07T19:45:20.333Z</time>
      </trkpt>
      <trkpt lat="47.81034" lon="-2.38059">
        <ele>15.0826</ele>
        <time>2022-02-07T19:45:30.012Z</time>
      </trkpt>
      <trkpt lat="47.8104" lon="-2.38045">
        <ele>15.067071</ele>
        <time>2022-02-07T19:45:32.164Z</time>
      </trkpt>
      <trkpt lat="47.81047" lon="-2.3801">
        <ele>15.032315</ele>
        <time>2022-02-07T19:45:36.444Z</time>
      </trkpt>
      <trkpt lat="47.81047" lon="-2.37973">
        <ele>14.998088</ele>
        <time>2022-02-07T19:45:40.771Z</time>
      </trkpt>
      <trkpt lat="47.81047" lon="-2.37959">
        <ele>14.984985</ele>
        <time>2022-02-07T19:45:42.423Z</time>
      </trkpt>
      <trkpt lat="47.8105" lon="-2.37942">
        <ele>14.968477</ele>
        <time>2022-02-07T19:45:44.522Z</time>
      </trkpt>
      <trkpt lat="47.81053" lon="-2.37927">
        <ele>14.95401</ele>
        <time>2022-02-07T19:45:46.323Z</time>
      </trkpt>
      <trkpt lat="47.81058" lon="-2.37917">
        <ele>14.942501</ele>
        <time>2022-02-07T19:45:47.822Z</time>
      </trkpt>
      <trkpt lat="47.81078" lon="-2.37901">
        <ele>14.936707</ele>
        <time>2022-02-07T19:45:51.918Z</time>
      </trkpt>
      <trkpt lat="47.8107" lon="-2.37891">
        <ele>14.934094</ele>
        <time>2022-02-07T19:45:53.748Z</time>
      </trkpt>
      <trkpt lat="47.81053" lon="-2.37884">
        <ele>14.929666</ele>
        <time>2022-02-07T19:45:56.903Z</time>
      </trkpt>
      <trkpt lat="47.8102" lon="-2.37882">
        <ele>14.921249</ele>
        <time>2022-02-07T19:46:02.728Z</time>
      </trkpt>
      <trkpt lat="47.80997" lon="-2.37876">
        <ele>14.915243</ele>
        <time>2022-02-07T19:46:06.985Z</time>
      </trkpt>
      <trkpt lat="47.80996" lon="-2.37871">
        <ele>14.914364</ele>
        <time>2022-02-07T19:46:07.609Z</time>
      </trkpt>
      <trkpt lat="47.80993" lon="-2.37834">
        <ele>14.908008</ele>
        <time>2022-02-07T19:46:12.233Z</time>
      </trkpt>
      <trkpt lat="47.80993" lon="-2.37829">
        <ele>14.906992</ele>
        <time>2022-02-07T19:46:13.014Z</time>
      </trkpt>
      <trkpt lat="47.80991" lon="-2.37798">
        <ele>14.901654</ele>
        <time>2022-02-07T19:46:16.992Z</time>
      </trkpt>
      <trkpt lat="47.81014" lon="-2.3779">
        <ele>14.896721</ele>
        <time>2022-02-07T19:46:21.042Z</time>
      </trkpt>
      <trkpt lat="47.8099" lon="-2.3772">
        <ele>14.898849</ele>
        <time>2022-02-07T19:46:30.220Z</time>
      </trkpt>
      <trkpt lat="47.80959" lon="-2.37632">
        <ele>14.901574</ele>
        <time>2022-02-07T19:46:42.267Z</time>
      </trkpt>
      <trkpt lat="47.80946" lon="-2.37568">
        <ele>14.903396</ele>
        <time>2022-02-07T19:46:50.209Z</time>
      </trkpt>
      <trkpt lat="47.80943" lon="-2.37489">
        <ele>14.927107</ele>
        <time>2022-02-07T19:46:59.781Z</time>
      </trkpt>
      <trkpt lat="47.80959" lon="-2.37234">
        <ele>15.186164</ele>
        <time>2022-02-07T19:47:30.656Z</time>
      </trkpt>
      <trkpt lat="47.80963" lon="-2.37184">
        <ele>15.366752</ele>
        <time>2022-02-07T19:47:37.072Z</time>
      </trkpt>
      <trkpt lat="47.80967" lon="-2.37131">
        <ele>15.560831</ele>
        <time>2022-02-07T19:47:44.296Z</time>
      </trkpt>
      <trkpt lat="47.80971" lon="-2.37065">
        <ele>15.802782</ele>
        <time>2022-02-07T19:47:53.726Z</time>
      </trkpt>
      <trkpt lat="47.80977" lon="-2.36986">
        <ele>16.100707</ele>
        <time>2022-02-07T19:48:05.134Z</time>
      </trkpt>
      <trkpt lat="47.80982" lon="-2.36916">
        <ele>16.379835</ele>
        <time>2022-02-07T19:48:15.548Z</time>
      </trkpt>
      <trkpt lat="47.80984" lon="-2.36899">
        <ele>16.445746</ele>
        <time>2022-02-07T19:48:18.076Z</time>
      </trkpt>
      <trkpt lat="47.81" lon="-2.36772">
        <ele>16.957043</ele>
        <time>2022-02-07T19:48:35.833Z</time>
      </trkpt>
      <trkpt lat="47.81025" lon="-2.36569">
        <ele>16.080217</ele>
        <time>2022-02-07T19:48:58.830Z</time>
      </trkpt>
      <trkpt lat="47.81033" lon="-2.36501">
        <ele>15.729549</ele>
        <time>2022-02-07T19:49:05.769Z</time>
      </trkpt>
      <trkpt lat="47.81045" lon="-2.36208">
        <ele>13.506472</ele>
        <time>2022-02-07T19:49:36.056Z</time>
      </trkpt>
      <trkpt lat="47.81077" lon="-2.35935">
        <ele>14.042025</ele>
        <time>2022-02-07T19:50:13.106Z</time>
      </trkpt>
      <trkpt lat="47.8108" lon="-2.35874">
        <ele>14.249034</ele>
        <time>2022-02-07T19:50:21.819Z</time>
      </trkpt>
      <trkpt lat="47.81081" lon="-2.35861">
        <ele>14.293643</ele>
        <time>2022-02-07T19:50:23.625Z</time>
      </trkpt>
      <trkpt lat="47.81076" lon="-2.35723">
        <ele>14.764854</ele>
        <time>2022-02-07T19:50:42.046Z</time>
      </trkpt>
      <trkpt lat="47.81072" lon="-2.35603">
        <ele>14.988054</ele>
        <time>2022-02-07T19:50:57.016Z</time>
      </trkpt>
      <trkpt lat="47.81098" lon="-2.35377">
        <ele>15.148049</ele>
        <time>2022-02-07T19:51:25.360Z</time>
      </trkpt>
      <trkpt lat="47.811" lon="-2.35297">
        <ele>15.031926</ele>
        <time>2022-02-07T19:51:34.800Z</time>
      </trkpt>
      <trkpt lat="47.81089" lon="-2.3509">
        <ele>14.603771</ele>
        <time>2022-02-07T19:51:58.227Z</time>
      </trkpt>
      <trkpt lat="47.81084" lon="-2.35031">
        <ele>14.406508</ele>
        <time>2022-02-07T19:52:04.851Z</time>
      </trkpt>
      <trkpt lat="47.81084" lon="-2.35023">
        <ele>14.37817</ele>
        <time>2022-02-07T19:52:05.809Z</time>
      </trkpt>
      <trkpt lat="47.81081" lon="-2.34985">
        <ele>14.251917</ele>
        <time>2022-02-07T19:52:10.090Z</time>
      </trkpt>
      <trkpt lat="47.81081" lon="-2.34978">
        <ele>14.230206</ele>
        <time>2022-02-07T19:52:10.797Z</time>
      </trkpt>
      <trkpt lat="47.81073" lon="-2.34887">
        <ele>13.929869</ele>
        <time>2022-02-07T19:52:21.196Z</time>
      </trkpt>
      <trkpt lat="47.81013" lon="-2.34364">
        <ele>12.755204</ele>
        <time>2022-02-07T19:53:22.003Z</time>
      </trkpt>
      <trkpt lat="47.81005" lon="-2.34203">
        <ele>12.88189</ele>
        <time>2022-02-07T19:53:40.974Z</time>
      </trkpt>
      <trkpt lat="47.81006" lon="-2.34114">
        <ele>12.952051</ele>
        <time>2022-02-07T19:53:52.429Z</time>
      </trkpt>
      <trkpt lat="47.81005" lon="-2.34037">
        <ele>13.828817</ele>
        <time>2022-02-07T19:54:02.830Z</time>
      </trkpt>
      <trkpt lat="47.81056" lon="-2.34024">
        <ele>14.961757</ele>
        <time>2022-02-07T19:54:15.037Z</time>
      </trkpt>
      <trkpt lat="47.81114" lon="-2.34009">
        <ele>16.217056</ele>
        <time>2022-02-07T19:54:31.613Z</time>
      </trkpt>
      <trkpt lat="47.81135" lon="-2.33972">
        <ele>17.038036</ele>
        <time>2022-02-07T19:54:42.379Z</time>
      </trkpt>
      <trkpt lat="47.81163" lon="-2.33894">
        <ele>20.220044</ele>
        <time>2022-02-07T19:55:04.414Z</time>
      </trkpt>
      <trkpt lat="47.81198" lon="-2.33859">
        <ele>22.50515</ele>
        <time>2022-02-07T19:55:22.013Z</time>
      </trkpt>
      <trkpt lat="47.81351" lon="-2.33775">
        <ele>31.201537</ele>
        <time>2022-02-07T19:56:30.623Z</time>
      </trkpt>
      <trkpt lat="47.81402" lon="-2.33766">
        <ele>33.911569</ele>
        <time>2022-02-07T19:56:49.708Z</time>
      </trkpt>
      <trkpt lat="47.81469" lon="-2.33781">
        <ele>37.081523</ele>
        <time>2022-02-07T19:57:13.527Z</time>
      </trkpt>
      <trkpt lat="47.81489" lon="-2.33769">
        <ele>37.868791</ele>
        <time>2022-02-07T19:57:20.874Z</time>
      </trkpt>
      <trkpt lat="47.81503" lon="-2.33745">
        <ele>38.680301</ele>
        <time>2022-02-07T19:57:27.782Z</time>
      </trkpt>
      <trkpt lat="47.81537" lon="-2.33612">
        <ele>42.226779</ele>
        <time>2022-02-07T19:57:58.138Z</time>
      </trkpt>
      <trkpt lat="47.81539" lon="-2.33563">
        <ele>43.113478</ele>
        <time>2022-02-07T19:58:08.575Z</time>
      </trkpt>
      <trkpt lat="47.81526" lon="-2.33481">
        <ele>44.219352</ele>
        <time>2022-02-07T19:58:25.658Z</time>
      </trkpt>
      <trkpt lat="47.8153" lon="-2.33441">
        <ele>44.748927</ele>
        <time>2022-02-07T19:58:32.801Z</time>
      </trkpt>
      <trkpt lat="47.81551" lon="-2.33376">
        <ele>45.696164</ele>
        <time>2022-02-07T19:58:44.080Z</time>
      </trkpt>
      <trkpt lat="47.81583" lon="-2.33335">
        <ele>46.144117</ele>
        <time>2022-02-07T19:58:52.130Z</time>
      </trkpt>
      <trkpt lat="47.81592" lon="-2.33311">
        <ele>45.981273</ele>
        <time>2022-02-07T19:58:55.289Z</time>
      </trkpt>
      <trkpt lat="47.81612" lon="-2.33158">
        <ele>45.083821</ele>
        <time>2022-02-07T19:59:12.097Z</time>
      </trkpt>
      <trkpt lat="47.81666" lon="-2.33016">
        <ele>43.612144</ele>
        <time>2022-02-07T19:59:28.378Z</time>
      </trkpt>
      <trkpt lat="47.81674" lon="-2.32985">
        <ele>43.243542</ele>
        <time>2022-02-07T19:59:31.688Z</time>
      </trkpt>
      <trkpt lat="47.81698" lon="-2.32717">
        <ele>40.824445</ele>
        <time>2022-02-07T19:59:59.301Z</time>
      </trkpt>
      <trkpt lat="47.81709" lon="-2.32679">
        <ele>40.541283</ele>
        <time>2022-02-07T20:00:03.767Z</time>
      </trkpt>
      <trkpt lat="47.81778" lon="-2.32522">
        <ele>39.458535</ele>
        <time>2022-02-07T20:00:24.987Z</time>
      </trkpt>
      <trkpt lat="47.81824" lon="-2.3242">
        <ele>38.885196</ele>
        <time>2022-02-07T20:00:38.640Z</time>
      </trkpt>
      <trkpt lat="47.81837" lon="-2.32391">
        <ele>38.718211</ele>
        <time>2022-02-07T20:00:42.471Z</time>
      </trkpt>
      <trkpt lat="47.81899" lon="-2.32257">
        <ele>36.810509</ele>
        <time>2022-02-07T20:00:59.187Z</time>
      </trkpt>
      <trkpt lat="47.82004" lon="-2.32029">
        <ele>32.258186</ele>
        <time>2022-02-07T20:01:25.513Z</time>
      </trkpt>
      <trkpt lat="47.82028" lon="-2.31975">
        <ele>30.995951</ele>
        <time>2022-02-07T20:01:31.436Z</time>
      </trkpt>
      <trkpt lat="47.82064" lon="-2.3193">
        <ele>29.709271</ele>
        <time>2022-02-07T20:01:37.782Z</time>
      </trkpt>
      <trkpt lat="47.82102" lon="-2.31899">
        <ele>28.644765</ele>
        <time>2022-02-07T20:01:43.606Z</time>
      </trkpt>
      <trkpt lat="47.82148" lon="-2.3185">
        <ele>27.276596</ele>
        <time>2022-02-07T20:01:51.350Z</time>
      </trkpt>
      <trkpt lat="47.82168" lon="-2.31819">
        <ele>26.566763</ele>
        <time>2022-02-07T20:01:55.722Z</time>
      </trkpt>
      <trkpt lat="47.82173" lon="-2.31757">
        <ele>25.725068</ele>
        <time>2022-02-07T20:02:02.174Z</time>
      </trkpt>
      <trkpt lat="47.82296" lon="-2.3167">
        <ele>26.147067</ele>
        <time>2022-02-07T20:02:27.093Z</time>
      </trkpt>
      <trkpt lat="47.82362" lon="-2.31653">
        <ele>26.595507</ele>
        <time>2022-02-07T20:02:43.918Z</time>
      </trkpt>
      <trkpt lat="47.82392" lon="-2.31637">
        <ele>26.952466</ele>
        <time>2022-02-07T20:02:51.672Z</time>
      </trkpt>
      <trkpt lat="47.82473" lon="-2.31476">
        <ele>28.254732</ele>
        <time>2022-02-07T20:03:20.954Z</time>
      </trkpt>
      <trkpt lat="47.82538" lon="-2.3141">
        <ele>28.068074</ele>
        <time>2022-02-07T20:03:35.522Z</time>
      </trkpt>
      <trkpt lat="47.8258" lon="-2.31381">
        <ele>27.958114</ele>
        <time>2022-02-07T20:03:43.220Z</time>
      </trkpt>
      <trkpt lat="47.82666" lon="-2.31364">
        <ele>27.365635</ele>
        <time>2022-02-07T20:03:56.554Z</time>
      </trkpt>
      <trkpt lat="47.82792" lon="-2.31395">
        <ele>26.022454</ele>
        <time>2022-02-07T20:04:16.583Z</time>
      </trkpt>
      <trkpt lat="47.82824" lon="-2.31404">
        <ele>25.976237</ele>
        <time>2022-02-07T20:04:21.975Z</time>
      </trkpt>
      <trkpt lat="47.82998" lon="-2.31408">
        <ele>26.066557</ele>
        <time>2022-02-07T20:04:54.562Z</time>
      </trkpt>
      <trkpt lat="47.83196" lon="-2.31357">
        <ele>26.886771</ele>
        <time>2022-02-07T20:05:33.991Z</time>
      </trkpt>
      <trkpt lat="47.83269" lon="-2.31327">
        <ele>27.208337</ele>
        <time>2022-02-07T20:05:48.438Z</time>
      </trkpt>
      <trkpt lat="47.83323" lon="-2.31263">
        <ele>27.716542</ele>
        <time>2022-02-07T20:06:00.608Z</time>
      </trkpt>
      <trkpt lat="47.83359" lon="-2.31199">
        <ele>29.402204</ele>
        <time>2022-02-07T20:06:13.766Z</time>
      </trkpt>
      <trkpt lat="47.83365" lon="-2.31124">
        <ele>30.914548</ele>
        <time>2022-02-07T20:06:26.862Z</time>
      </trkpt>
      <trkpt lat="47.8345" lon="-2.30031">
        <ele>69.846774</ele>
        <time>2022-02-07T20:11:36.678Z</time>
      </trkpt>
      <trkpt lat="47.83491" lon="-2.29623">
        <ele>71.683043</ele>
        <time>2022-02-07T20:12:26.120Z</time>
      </trkpt>
      <trkpt lat="47.835" lon="-2.29581">
        <ele>71.7961</ele>
        <time>2022-02-07T20:12:31.599Z</time>
      </trkpt>
      <trkpt lat="47.83505" lon="-2.29556">
        <ele>71.865543</ele>
        <time>2022-02-07T20:12:35.246Z</time>
      </trkpt>
      <trkpt lat="47.83512" lon="-2.29528">
        <ele>71.943865</ele>
        <time>2022-02-07T20:12:39.281Z</time>
      </trkpt>
      <trkpt lat="47.83521" lon="-2.29492">
        <ele>72.043828</ele>
        <time>2022-02-07T20:12:44.963Z</time>
      </trkpt>
      <trkpt lat="47.83568" lon="-2.29299">
        <ele>73.099912</ele>
        <time>2022-02-07T20:13:17.142Z</time>
      </trkpt>
      <trkpt lat="47.83574" lon="-2.29258">
        <ele>73.358514</ele>
        <time>2022-02-07T20:13:23.394Z</time>
      </trkpt>
      <trkpt lat="47.83588" lon="-2.28882">
        <ele>74.641497</ele>
        <time>2022-02-07T20:14:14.472Z</time>
      </trkpt>
      <trkpt lat="47.83665" lon="-2.28604">
        <ele>75.190353</ele>
        <time>2022-02-07T20:14:53.919Z</time>
      </trkpt>
      <trkpt lat="47.83722" lon="-2.28396">
        <ele>75.475574</ele>
        <time>2022-02-07T20:15:23.252Z</time>
      </trkpt>
      <trkpt lat="47.83701" lon="-2.27783">
        <ele>74.848903</ele>
        <time>2022-02-07T20:16:38.133Z</time>
      </trkpt>
      <trkpt lat="47.83694" lon="-2.27472">
        <ele>74.276804</ele>
        <time>2022-02-07T20:17:15.527Z</time>
      </trkpt>
      <trkpt lat="47.83682" lon="-2.27395">
        <ele>74.110518</ele>
        <time>2022-02-07T20:17:25.001Z</time>
      </trkpt>
      <trkpt lat="47.83685" lon="-2.27362">
        <ele>74.040645</ele>
        <time>2022-02-07T20:17:29.004Z</time>
      </trkpt>
      <trkpt lat="47.83708" lon="-2.27271">
        <ele>73.864516</ele>
        <time>2022-02-07T20:17:40.490Z</time>
      </trkpt>
      <trkpt lat="47.83731" lon="-2.27177">
        <ele>73.687191</ele>
        <time>2022-02-07T20:17:52.327Z</time>
      </trkpt>
      <trkpt lat="47.83737" lon="-2.2706">
        <ele>73.591747</ele>
        <time>2022-02-07T20:18:06.843Z</time>
      </trkpt>
      <trkpt lat="47.8375" lon="-2.26938">
        <ele>73.750057</ele>
        <time>2022-02-07T20:18:23.002Z</time>
      </trkpt>
      <trkpt lat="47.83808" lon="-2.26664">
        <ele>73.373523</ele>
        <time>2022-02-07T20:19:00.686Z</time>
      </trkpt>
      <trkpt lat="47.83813" lon="-2.26226">
        <ele>69.298152</ele>
        <time>2022-02-07T20:19:46.819Z</time>
      </trkpt>
      <trkpt lat="47.83976" lon="-2.2621">
        <ele>67.879597</ele>
        <time>2022-02-07T20:20:13.175Z</time>
      </trkpt>
      <trkpt lat="47.84313" lon="-2.26351">
        <ele>72.037461</ele>
        <time>2022-02-07T20:21:39.760Z</time>
      </trkpt>
      <trkpt lat="47.84356" lon="-2.26115">
        <ele>73.783842</ele>
        <time>2022-02-07T20:22:15.052Z</time>
      </trkpt>
      <trkpt lat="47.84382" lon="-2.26039">
        <ele>74.965894</ele>
        <time>2022-02-07T20:22:28.615Z</time>
      </trkpt>
      <trkpt lat="47.84484" lon="-2.25863">
        <ele>78.778006</ele>
        <time>2022-02-07T20:23:14.698Z</time>
      </trkpt>
      <trkpt lat="47.84501" lon="-2.25815">
        <ele>79.955728</ele>
        <time>2022-02-07T20:23:26.772Z</time>
      </trkpt>
      <trkpt lat="47.84521" lon="-2.25693">
        <ele>82.691325</ele>
        <time>2022-02-07T20:23:54.230Z</time>
      </trkpt>
      <trkpt lat="47.84522" lon="-2.25686">
        <ele>82.855184</ele>
        <time>2022-02-07T20:23:55.823Z</time>
      </trkpt>
      <trkpt lat="47.84606" lon="-2.25162">
        <ele>93.559088</ele>
        <time>2022-02-07T20:25:45.868Z</time>
      </trkpt>
      <trkpt lat="47.84612" lon="-2.25051">
        <ele>95.112964</ele>
        <time>2022-02-07T20:26:06.923Z</time>
      </trkpt>
      <trkpt lat="47.84634" lon="-2.24936">
        <ele>96.725386</ele>
        <time>2022-02-07T20:26:27.824Z</time>
      </trkpt>
      <trkpt lat="47.84638" lon="-2.24892">
        <ele>97.330121</ele>
        <time>2022-02-07T20:26:35.166Z</time>
      </trkpt>
      <trkpt lat="47.84636" lon="-2.24851">
        <ele>97.632827</ele>
        <time>2022-02-07T20:26:41.614Z</time>
      </trkpt>
      <trkpt lat="47.84605" lon="-2.2477">
        <ele>98.296276</ele>
        <time>2022-02-07T20:26:55.653Z</time>
      </trkpt>
      <trkpt lat="47.84601" lon="-2.24741">
        <ele>98.508135</ele>
        <time>2022-02-07T20:27:00.056Z</time>
      </trkpt>
      <trkpt lat="47.84599" lon="-2.24725">
        <ele>98.622444</ele>
        <time>2022-02-07T20:27:02.447Z</time>
      </trkpt>
      <trkpt lat="47.84599" lon="-2.24643">
        <ele>99.214738</ele>
        <time>2022-02-07T20:27:14.729Z</time>
      </trkpt>
      <trkpt lat="47.84606" lon="-2.24577">
        <ele>99.566521</ele>
        <time>2022-02-07T20:27:24.817Z</time>
      </trkpt>
      <trkpt lat="47.84867" lon="-2.24683">
        <ele>100.492957</ele>
        <time>2022-02-07T20:28:22.505Z</time>
      </trkpt>
      <trkpt lat="47.84753" lon="-2.23939">
        <ele>92.233488</ele>
        <time>2022-02-07T20:29:38.022Z</time>
      </trkpt>
      <trkpt lat="47.84746" lon="-2.23913">
        <ele>91.969583</ele>
        <time>2022-02-07T20:29:40.999Z</time>
      </trkpt>
      <trkpt lat="47.84743" lon="-2.239">
        <ele>91.837373</ele>
        <time>2022-02-07T20:29:42.475Z</time>
      </trkpt>
      <trkpt lat="47.84705" lon="-2.23756">
        <ele>91.000445</ele>
        <time>2022-02-07T20:29:59.592Z</time>
      </trkpt>
      <trkpt lat="47.84689" lon="-2.23678">
        <ele>90.841576</ele>
        <time>2022-02-07T20:30:09.339Z</time>
      </trkpt>
      <trkpt lat="47.84666" lon="-2.22992">
        <ele>89.948573</ele>
        <time>2022-02-07T20:31:30.334Z</time>
      </trkpt>
      <trkpt lat="47.84671" lon="-2.22635">
        <ele>86.770888</ele>
        <time>2022-02-07T20:32:07.873Z</time>
      </trkpt>
      <trkpt lat="47.84659" lon="-2.22496">
        <ele>84.826422</ele>
        <time>2022-02-07T20:32:20.913Z</time>
      </trkpt>
      <trkpt lat="47.84622" lon="-2.22335">
        <ele>82.052484</ele>
        <time>2022-02-07T20:32:36.758Z</time>
      </trkpt>
      <trkpt lat="47.84596" lon="-2.22213">
        <ele>80.491665</ele>
        <time>2022-02-07T20:32:49.678Z</time>
      </trkpt>
      <trkpt lat="47.84586" lon="-2.22164">
        <ele>80.369048</ele>
        <time>2022-02-07T20:32:55.437Z</time>
      </trkpt>
      <trkpt lat="47.8458" lon="-2.22024">
        <ele>80.034924</ele>
        <time>2022-02-07T20:33:12.071Z</time>
      </trkpt>
      <trkpt lat="47.84585" lon="-2.21956">
        <ele>79.972307</ele>
        <time>2022-02-07T20:33:20.938Z</time>
      </trkpt>
      <trkpt lat="47.84628" lon="-2.21815">
        <ele>80.125842</ele>
        <time>2022-02-07T20:33:42.108Z</time>
      </trkpt>
      <trkpt lat="47.84655" lon="-2.21728">
        <ele>80.000537</ele>
        <time>2022-02-07T20:33:53.054Z</time>
      </trkpt>
      <trkpt lat="47.84664" lon="-2.21678">
        <ele>79.16085</ele>
        <time>2022-02-07T20:33:58.465Z</time>
      </trkpt>
      <trkpt lat="47.84666" lon="-2.21628">
        <ele>78.345597</ele>
        <time>2022-02-07T20:34:03.544Z</time>
      </trkpt>
      <trkpt lat="47.84676" lon="-2.21217">
        <ele>69.68427</ele>
        <time>2022-02-07T20:34:40.725Z</time>
      </trkpt>
      <trkpt lat="47.84668" lon="-2.21161">
        <ele>68.221271</ele>
        <time>2022-02-07T20:34:45.820Z</time>
      </trkpt>
      <trkpt lat="47.84656" lon="-2.21117">
        <ele>67.003848</ele>
        <time>2022-02-07T20:34:50.086Z</time>
      </trkpt>
      <trkpt lat="47.84611" lon="-2.21022">
        <ele>63.981096</ele>
        <time>2022-02-07T20:35:00.472Z</time>
      </trkpt>
      <trkpt lat="47.84541" lon="-2.20927">
        <ele>60.743078</ele>
        <time>2022-02-07T20:35:12.819Z</time>
      </trkpt>
      <trkpt lat="47.84498" lon="-2.2087">
        <ele>58.971053</ele>
        <time>2022-02-07T20:35:20.673Z</time>
      </trkpt>
      <trkpt lat="47.84458" lon="-2.20816">
        <ele>57.288602</ele>
        <time>2022-02-07T20:35:28.849Z</time>
      </trkpt>
      <trkpt lat="47.84488" lon="-2.20753">
        <ele>56.249454</ele>
        <time>2022-02-07T20:35:36.164Z</time>
      </trkpt>
      <trkpt lat="47.84493" lon="-2.20744">
        <ele>56.112632</ele>
        <time>2022-02-07T20:35:37.343Z</time>
      </trkpt>
      <trkpt lat="47.84522" lon="-2.20687">
        <ele>55.30144</ele>
        <time>2022-02-07T20:35:44.562Z</time>
      </trkpt>
      <trkpt lat="47.84523" lon="-2.20682">
        <ele>55.246768</ele>
        <time>2022-02-07T20:35:45.135Z</time>
      </trkpt>
      <trkpt lat="47.84559" lon="-2.2067">
        <ele>54.633477</ele>
        <time>2022-02-07T20:35:51.047Z</time>
      </trkpt>
      <trkpt lat="47.84632" lon="-2.2061">
        <ele>53.291741</ele>
        <time>2022-02-07T20:36:04.527Z</time>
      </trkpt>
      <trkpt lat="47.84708" lon="-2.20561">
        <ele>52.063785</ele>
        <time>2022-02-07T20:36:16.864Z</time>
      </trkpt>
      <trkpt lat="47.84795" lon="-2.2053">
        <ele>51.587889</ele>
        <time>2022-02-07T20:36:32.003Z</time>
      </trkpt>
      <trkpt lat="47.84818" lon="-2.20513">
        <ele>51.922111</ele>
        <time>2022-02-07T20:36:37.296Z</time>
      </trkpt>
      <trkpt lat="47.84919" lon="-2.2034">
        <ele>54.2566</ele>
        <time>2022-02-07T20:37:18.674Z</time>
      </trkpt>
      <trkpt lat="47.85007" lon="-2.20189">
        <ele>57.573683</ele>
        <time>2022-02-07T20:37:58.149Z</time>
      </trkpt>
      <trkpt lat="47.85068" lon="-2.20119">
        <ele>58.871452</ele>
        <time>2022-02-07T20:38:18.970Z</time>
      </trkpt>
      <trkpt lat="47.85082" lon="-2.20101">
        <ele>59.1633</ele>
        <time>2022-02-07T20:38:23.850Z</time>
      </trkpt>
      <trkpt lat="47.85095" lon="-2.20073">
        <ele>59.503822</ele>
        <time>2022-02-07T20:38:29.358Z</time>
      </trkpt>
      <trkpt lat="47.85111" lon="-2.20027">
        <ele>60.024113</ele>
        <time>2022-02-07T20:38:37.422Z</time>
      </trkpt>
      <trkpt lat="47.8513" lon="-2.20002">
        <ele>60.41222</ele>
        <time>2022-02-07T20:38:43.194Z</time>
      </trkpt>
      <trkpt lat="47.8513" lon="-2.19982">
        <ele>60.61245</ele>
        <time>2022-02-07T20:38:46.056Z</time>
      </trkpt>
      <trkpt lat="47.85216" lon="-2.19676">
        <ele>61.578883</ele>
        <time>2022-02-07T20:39:29.939Z</time>
      </trkpt>
      <trkpt lat="47.85284" lon="-2.19436">
        <ele>63.124463</ele>
        <time>2022-02-07T20:40:05.392Z</time>
      </trkpt>
      <trkpt lat="47.8531" lon="-2.19343">
        <ele>64.767177</ele>
        <time>2022-02-07T20:40:25.690Z</time>
      </trkpt>
      <trkpt lat="47.85317" lon="-2.19313">
        <ele>65.287037</ele>
        <time>2022-02-07T20:40:31.308Z</time>
      </trkpt>
      <trkpt lat="47.85333" lon="-2.19236">
        <ele>66.590976</ele>
        <time>2022-02-07T20:40:49.405Z</time>
      </trkpt>
      <trkpt lat="47.85343" lon="-2.19216">
        <ele>67.11445</ele>
        <time>2022-02-07T20:40:53.617Z</time>
      </trkpt>
      <trkpt lat="47.8536" lon="-2.19202">
        <ele>67.696027</ele>
        <time>2022-02-07T20:41:00.926Z</time>
      </trkpt>
      <trkpt lat="47.85432" lon="-2.19186">
        <ele>69.944796</ele>
        <time>2022-02-07T20:41:24.967Z</time>
      </trkpt>
      <trkpt lat="47.85447" lon="-2.1917">
        <ele>70.522753</ele>
        <time>2022-02-07T20:41:29.879Z</time>
      </trkpt>
      <trkpt lat="47.85474" lon="-2.19102">
        <ele>72.155084</ele>
        <time>2022-02-07T20:41:47.535Z</time>
      </trkpt>
      <trkpt lat="47.85481" lon="-2.19098">
        <ele>72.268898</ele>
        <time>2022-02-07T20:41:48.980Z</time>
      </trkpt>
      <trkpt lat="47.855" lon="-2.19105">
        <ele>72.494576</ele>
        <time>2022-02-07T20:41:53.656Z</time>
      </trkpt>
      <trkpt lat="47.85515" lon="-2.19101">
        <ele>72.670117</ele>
        <time>2022-02-07T20:41:56.480Z</time>
      </trkpt>
      <trkpt lat="47.85532" lon="-2.19081">
        <ele>72.919102</ele>
        <time>2022-02-07T20:42:01.494Z</time>
      </trkpt>
      <trkpt lat="47.85599" lon="-2.19032">
        <ele>73.781328</ele>
        <time>2022-02-07T20:42:17.489Z</time>
      </trkpt>
      <trkpt lat="47.85609" lon="-2.18996">
        <ele>74.081347</ele>
        <time>2022-02-07T20:42:23.092Z</time>
      </trkpt>
      <trkpt lat="47.85622" lon="-2.18999">
        <ele>74.23771</ele>
        <time>2022-02-07T20:42:26.087Z</time>
      </trkpt>
      <trkpt lat="47.85792" lon="-2.19141">
        <ele>76.47852</ele>
        <time>2022-02-07T20:43:10.891Z</time>
      </trkpt>
      <trkpt lat="47.85861" lon="-2.19199">
        <ele>77.613085</ele>
        <time>2022-02-07T20:43:30.274Z</time>
      </trkpt>
      <trkpt lat="47.85904" lon="-2.19222">
        <ele>78.264436</ele>
        <time>2022-02-07T20:43:41.222Z</time>
      </trkpt>
      <trkpt lat="47.85955" lon="-2.19224">
        <ele>79.040497</ele>
        <time>2022-02-07T20:43:53.592Z</time>
      </trkpt>
      <trkpt lat="47.86187" lon="-2.19193">
        <ele>84.774938</ele>
        <time>2022-02-07T20:44:54.841Z</time>
      </trkpt>
      <trkpt lat="47.86333" lon="-2.19081">
        <ele>92.20943</ele>
        <time>2022-02-07T20:45:59.218Z</time>
      </trkpt>
      <trkpt lat="47.86376" lon="-2.19069">
        <ele>94.736555</ele>
        <time>2022-02-07T20:46:18.825Z</time>
      </trkpt>
      <trkpt lat="47.86416" lon="-2.19074">
        <ele>96.996669</ele>
        <time>2022-02-07T20:46:35.514Z</time>
      </trkpt>
      <trkpt lat="47.86485" lon="-2.19082">
        <ele>100.489753</ele>
        <time>2022-02-07T20:47:04.978Z</time>
      </trkpt>
      <trkpt lat="47.8652" lon="-2.19057">
        <ele>101.658681</ele>
        <time>2022-02-07T20:47:19.808Z</time>
      </trkpt>
      <trkpt lat="47.86555" lon="-2.19048">
        <ele>102.716034</ele>
        <time>2022-02-07T20:47:32.073Z</time>
      </trkpt>
      <trkpt lat="47.86584" lon="-2.19049">
        <ele>103.56069</ele>
        <time>2022-02-07T20:47:40.789Z</time>
      </trkpt>
      <trkpt lat="47.86583" lon="-2.19046">
        <ele>103.621417</ele>
        <time>2022-02-07T20:47:41.329Z</time>
      </trkpt>
      <trkpt lat="47.86569" lon="-2.1892">
        <ele>104.717492</ele>
        <time>2022-02-07T20:47:58.354Z</time>
      </trkpt>
      <trkpt lat="47.8672" lon="-2.18634">
        <ele>98.624692</ele>
        <time>2022-02-07T20:48:34.047Z</time>
      </trkpt>
      <trkpt lat="47.86734" lon="-2.18594">
        <ele>97.636391</ele>
        <time>2022-02-07T20:48:38.294Z</time>
      </trkpt>
      <trkpt lat="47.86741" lon="-2.18563">
        <ele>96.912209</ele>
        <time>2022-02-07T20:48:41.384Z</time>
      </trkpt>
      <trkpt lat="47.86746" lon="-2.18256">
        <ele>90.597898</ele>
        <time>2022-02-07T20:49:10.625Z</time>
      </trkpt>
      <trkpt lat="47.86763" lon="-2.18216">
        <ele>90.444125</ele>
        <time>2022-02-07T20:49:15.759Z</time>
      </trkpt>
      <trkpt lat="47.86771" lon="-2.18208">
        <ele>90.479065</ele>
        <time>2022-02-07T20:49:17.351Z</time>
      </trkpt>
      <trkpt lat="47.86789" lon="-2.18189">
        <ele>90.558664</ele>
        <time>2022-02-07T20:49:21.078Z</time>
      </trkpt>
      <trkpt lat="47.86863" lon="-2.1813">
        <ele>90.867097</ele>
        <time>2022-02-07T20:49:38.541Z</time>
      </trkpt>
      <trkpt lat="47.8696" lon="-2.17993">
        <ele>94.141327</ele>
        <time>2022-02-07T20:50:18.293Z</time>
      </trkpt>
      <trkpt lat="47.87122" lon="-2.17751">
        <ele>102.629853</ele>
        <time>2022-02-07T20:51:38.443Z</time>
      </trkpt>
      <trkpt lat="47.87173" lon="-2.17674">
        <ele>105.017714</ele>
        <time>2022-02-07T20:52:02.010Z</time>
      </trkpt>
      <trkpt lat="47.87175" lon="-2.17669">
        <ele>105.11824</ele>
        <time>2022-02-07T20:52:03.200Z</time>
      </trkpt>
      <trkpt lat="47.87243" lon="-2.17511">
        <ele>108.455006</ele>
        <time>2022-02-07T20:52:39.082Z</time>
      </trkpt>
      <trkpt lat="47.87281" lon="-2.17399">
        <ele>110.127844</ele>
        <time>2022-02-07T20:53:00.658Z</time>
      </trkpt>
      <trkpt lat="47.87341" lon="-2.17441">
        <ele>111.333653</ele>
        <time>2022-02-07T20:53:17.041Z</time>
      </trkpt>
      <trkpt lat="47.87462" lon="-2.17519">
        <ele>114.407985</ele>
        <time>2022-02-07T20:53:52.046Z</time>
      </trkpt>
      <trkpt lat="47.87533" lon="-2.17561">
        <ele>116.402738</ele>
        <time>2022-02-07T20:54:15.418Z</time>
      </trkpt>
      <trkpt lat="47.87574" lon="-2.17578">
        <ele>117.668499</ele>
        <time>2022-02-07T20:54:29.278Z</time>
      </trkpt>
      <trkpt lat="47.87594" lon="-2.17585">
        <ele>118.312591</ele>
        <time>2022-02-07T20:54:35.942Z</time>
      </trkpt>
      <trkpt lat="47.87677" lon="-2.1761">
        <ele>121.033703</ele>
        <time>2022-02-07T20:55:03.194Z</time>
      </trkpt>
      <trkpt lat="47.87699" lon="-2.17618">
        <ele>121.756438</ele>
        <time>2022-02-07T20:55:10.383Z</time>
      </trkpt>
      <trkpt lat="47.87741" lon="-2.17631">
        <ele>123.013217</ele>
        <time>2022-02-07T20:55:23.261Z</time>
      </trkpt>
      <trkpt lat="47.87848" lon="-2.17639">
        <ele>125.584022</ele>
        <time>2022-02-07T20:55:52.590Z</time>
      </trkpt>
      <trkpt lat="47.87912" lon="-2.17657">
        <ele>127.283446</ele>
        <time>2022-02-07T20:56:10.071Z</time>
      </trkpt>
      <trkpt lat="47.88007" lon="-2.17764">
        <ele>131.676439</ele>
        <time>2022-02-07T20:56:47.517Z</time>
      </trkpt>
      <trkpt lat="47.88071" lon="-2.17836">
        <ele>134.966628</ele>
        <time>2022-02-07T20:57:19.157Z</time>
      </trkpt>
      <trkpt lat="47.88173" lon="-2.17953">
        <ele>141.270414</ele>
        <time>2022-02-07T20:58:09.935Z</time>
      </trkpt>
      <trkpt lat="47.88189" lon="-2.17972">
        <ele>142.246372</ele>
        <time>2022-02-07T20:58:17.328Z</time>
      </trkpt>
      <trkpt lat="47.88269" lon="-2.18063">
        <ele>145.111569</ele>
        <time>2022-02-07T20:58:49.611Z</time>
      </trkpt>
      <trkpt lat="47.88337" lon="-2.1814">
        <ele>147.484794</ele>
        <time>2022-02-07T20:59:11.296Z</time>
      </trkpt>
      <trkpt lat="47.88413" lon="-2.18229">
        <ele>149.295013</ele>
        <time>2022-02-07T20:59:35.542Z</time>
      </trkpt>
      <trkpt lat="47.88704" lon="-2.18499">
        <ele>155.564555</ele>
        <time>2022-02-07T21:01:46.568Z</time>
      </trkpt>
      <trkpt lat="47.88707" lon="-2.18502">
        <ele>155.600753</ele>
        <time>2022-02-07T21:01:47.670Z</time>
      </trkpt>
      <trkpt lat="47.88715" lon="-2.18515">
        <ele>155.736696</ele>
        <time>2022-02-07T21:01:51.953Z</time>
      </trkpt>
      <trkpt lat="47.88706" lon="-2.18677">
        <ele>156.315053</ele>
        <time>2022-02-07T21:02:25.304Z</time>
      </trkpt>
      <trkpt lat="47.88651" lon="-2.18878">
        <ele>154.591266</ele>
        <time>2022-02-07T21:03:04.590Z</time>
      </trkpt>
      <trkpt lat="47.88614" lon="-2.19062">
        <ele>151.011433</ele>
        <time>2022-02-07T21:03:36.861Z</time>
      </trkpt>
      <trkpt lat="47.88607" lon="-2.19132">
        <ele>149.656454</ele>
        <time>2022-02-07T21:03:48.582Z</time>
      </trkpt>
      <trkpt lat="47.88595" lon="-2.19375">
        <ele>144.018521</ele>
        <time>2022-02-07T21:04:28.240Z</time>
      </trkpt>
      <trkpt lat="47.8859" lon="-2.19462">
        <ele>141.957546</ele>
        <time>2022-02-07T21:04:42.557Z</time>
      </trkpt>
      <trkpt lat="47.88587" lon="-2.19495">
        <ele>141.168088</ele>
        <time>2022-02-07T21:04:47.949Z</time>
      </trkpt>
      <trkpt lat="47.8858" lon="-2.19576">
        <ele>139.243022</ele>
        <time>2022-02-07T21:05:01.130Z</time>
      </trkpt>
      <trkpt lat="47.88517" lon="-2.19839">
        <ele>132.903582</ele>
        <time>2022-02-07T21:05:46.457Z</time>
      </trkpt>
      <trkpt lat="47.88428" lon="-2.19851">
        <ele>130.368286</ele>
        <time>2022-02-07T21:06:08.968Z</time>
      </trkpt>
      <trkpt lat="47.88403" lon="-2.19887">
        <ele>129.752092</ele>
        <time>2022-02-07T21:06:18.011Z</time>
      </trkpt>
      <trkpt lat="47.88406" lon="-2.1992">
        <ele>129.356858</ele>
        <time>2022-02-07T21:06:23.946Z</time>
      </trkpt>
      <trkpt lat="47.88403" lon="-2.19945">
        <ele>129.057941</ele>
        <time>2022-02-07T21:06:28.420Z</time>
      </trkpt>
      <trkpt lat="47.8839" lon="-2.19973">
        <ele>128.659548</ele>
        <time>2022-02-07T21:06:34.486Z</time>
      </trkpt>
      <trkpt lat="47.88372" lon="-2.19983">
        <ele>128.308412</ele>
        <time>2022-02-07T21:06:39.838Z</time>
      </trkpt>
      <trkpt lat="47.8826" lon="-2.19972">
        <ele>127.084529</ele>
        <time>2022-02-07T21:07:10.938Z</time>
      </trkpt>
      <trkpt lat="47.88194" lon="-2.19943">
        <ele>126.552702</ele>
        <time>2022-02-07T21:07:30.218Z</time>
      </trkpt>
      <trkpt lat="47.8819" lon="-2.19964">
        <ele>126.4391</ele>
        <time>2022-02-07T21:07:34.363Z</time>
      </trkpt>
      <trkpt lat="47.88186" lon="-2.1998">
        <ele>126.351069</ele>
        <time>2022-02-07T21:07:37.566Z</time>
      </trkpt>
      <trkpt lat="47.88075" lon="-2.20111">
        <ele>126.15232</ele>
        <time>2022-02-07T21:08:18.264Z</time>
      </trkpt>
      <trkpt lat="47.87969" lon="-2.20237">
        <ele>126.764588</ele>
        <time>2022-02-07T21:09:02.533Z</time>
      </trkpt>
      <trkpt lat="47.87774" lon="-2.20347">
        <ele>127.451728</ele>
        <time>2022-02-07T21:10:11.212Z</time>
      </trkpt>
      <trkpt lat="47.87782" lon="-2.20395">
        <ele>127.453513</ele>
        <time>2022-02-07T21:10:34.082Z</time>
      </trkpt>
      <trkpt lat="47.87802" lon="-2.20427">
        <ele>127.455118</ele>
        <time>2022-02-07T21:10:54.639Z</time>
      </trkpt>
      <trkpt lat="47.87852" lon="-2.20571">
        <ele>124.807606</ele>
        <time>2022-02-07T21:12:10.312Z</time>
      </trkpt>
      <trkpt lat="47.87865" lon="-2.20587">
        <ele>124.407094</ele>
        <time>2022-02-07T21:12:21.723Z</time>
      </trkpt>
      <trkpt lat="47.87866" lon="-2.20591">
        <ele>124.336945</ele>
        <time>2022-02-07T21:12:23.719Z</time>
      </trkpt>
      <trkpt lat="47.87873" lon="-2.20612">
        <ele>123.952323</ele>
        <time>2022-02-07T21:12:34.698Z</time>
      </trkpt>
      <trkpt lat="47.87868" lon="-2.20632">
        <ele>123.602772</ele>
        <time>2022-02-07T21:12:44.677Z</time>
      </trkpt>
      <trkpt lat="47.87864" lon="-2.20642">
        <ele>123.400433</ele>
        <time>2022-02-07T21:12:50.459Z</time>
      </trkpt>
      <trkpt lat="47.87833" lon="-2.20673">
        <ele>122.427222</ele>
        <time>2022-02-07T21:13:16.250Z</time>
      </trkpt>
      <trkpt lat="47.87814" lon="-2.20682">
        <ele>121.881766</ele>
        <time>2022-02-07T21:13:30.168Z</time>
      </trkpt>
      <trkpt lat="47.87754" lon="-2.20671">
        <ele>120.256391</ele>
        <time>2022-02-07T21:14:11.625Z</time>
      </trkpt>
      <trkpt lat="47.87736" lon="-2.20658">
        <ele>119.692387</ele>
        <time>2022-02-07T21:14:26.016Z</time>
      </trkpt>
      <trkpt lat="47.87724" lon="-2.2066">
        <ele>119.370189</ele>
        <time>2022-02-07T21:14:34.249Z</time>
      </trkpt>
      <trkpt lat="47.87716" lon="-2.20662">
        <ele>119.163391</ele>
        <time>2022-02-07T21:14:39.520Z</time>
      </trkpt>
      <trkpt lat="47.87701" lon="-2.20803">
        <ele>118.050225</ele>
        <time>2022-02-07T21:15:45.977Z</time>
      </trkpt>
      <trkpt lat="47.87713" lon="-2.20811">
        <ele>118.024493</ele>
        <time>2022-02-07T21:15:54.973Z</time>
      </trkpt>
      <trkpt lat="47.87733" lon="-2.20796">
        <ele>117.97999</ele>
        <time>2022-02-07T21:16:10.483Z</time>
      </trkpt>
      <trkpt lat="47.87759" lon="-2.20827">
        <ele>117.912534</ele>
        <time>2022-02-07T21:16:34.070Z</time>
      </trkpt>
      <trkpt lat="47.87759" lon="-2.20836">
        <ele>117.900725</ele>
        <time>2022-02-07T21:16:38.203Z</time>
      </trkpt>
      <trkpt lat="47.87765" lon="-2.20854">
        <ele>117.87334</ele>
        <time>2022-02-07T21:16:42.219Z</time>
      </trkpt>
      <trkpt lat="47.87775" lon="-2.2085">
        <ele>117.85357</ele>
        <time>2022-02-07T21:16:44.250Z</time>
      </trkpt>
      <trkpt lat="47.8779" lon="-2.20886">
        <ele>117.844799</ele>
        <time>2022-02-07T21:17:03.667Z</time>
      </trkpt>
      <trkpt lat="47.87789" lon="-2.20911">
        <ele>117.944618</ele>
        <time>2022-02-07T21:17:15.525Z</time>
      </trkpt>
      <trkpt lat="47.87795" lon="-2.20919">
        <ele>117.990071</ele>
        <time>2022-02-07T21:17:20.967Z</time>
      </trkpt>
      <trkpt lat="47.878" lon="-2.20917">
        <ele>118.021315</ele>
        <time>2022-02-07T21:17:24.643Z</time>
      </trkpt>
      <trkpt lat="47.8781" lon="-2.20913">
        <ele>118.082005</ele>
        <time>2022-02-07T21:17:31.861Z</time>
      </trkpt>
      <trkpt lat="47.87822" lon="-2.20893">
        <ele>118.188235</ele>
        <time>2022-02-07T21:17:44.469Z</time>
      </trkpt>
      <trkpt lat="47.8784" lon="-2.20899">
        <ele>118.290875</ele>
        <time>2022-02-07T21:17:56.642Z</time>
      </trkpt>
      <trkpt lat="47.8788" lon="-2.20961">
        <ele>118.632555</ele>
        <time>2022-02-07T21:18:37.260Z</time>
      </trkpt>
      <trkpt lat="47.87858" lon="-2.21057">
        <ele>118.827079</ele>
        <time>2022-02-07T21:18:48.260Z</time>
      </trkpt>
      <trkpt lat="47.87848" lon="-2.21101">
        <ele>118.788298</ele>
        <time>2022-02-07T21:18:54.041Z</time>
      </trkpt>
      <trkpt lat="47.87848" lon="-2.21101">
        <ele>118.788298</ele>
        <time>2022-02-07T21:18:54.054Z</time>
      </trkpt>
      <trkpt lat="47.87837" lon="-2.2115">
        <ele>118.745476</ele>
        <time>2022-02-07T21:19:03.033Z</time>
      </trkpt>
      <trkpt lat="47.87826" lon="-2.21202">
        <ele>118.700757</ele>
        <time>2022-02-07T21:19:12.402Z</time>
      </trkpt>
      <trkpt lat="47.8789" lon="-2.21228">
        <ele>118.789747</ele>
        <time>2022-02-07T21:19:25.689Z</time>
      </trkpt>
      <trkpt lat="47.87958" lon="-2.21287">
        <ele>119.453001</ele>
        <time>2022-02-07T21:19:42.469Z</time>
      </trkpt>
      <trkpt lat="47.88026" lon="-2.2137">
        <ele>120.14516</ele>
        <time>2022-02-07T21:20:04.825Z</time>
      </trkpt>
      <trkpt lat="47.88173" lon="-2.21601">
        <ele>119.111597</ele>
        <time>2022-02-07T21:20:41.896Z</time>
      </trkpt>
      <trkpt lat="47.88186" lon="-2.21615">
        <ele>118.905285</ele>
        <time>2022-02-07T21:20:44.571Z</time>
      </trkpt>
      <trkpt lat="47.88189" lon="-2.21632">
        <ele>118.749556</ele>
        <time>2022-02-07T21:20:46.754Z</time>
      </trkpt>
      <trkpt lat="47.88287" lon="-2.21799">
        <ele>116.542576</ele>
        <time>2022-02-07T21:21:11.886Z</time>
      </trkpt>
      <trkpt lat="47.88336" lon="-2.21905">
        <ele>114.761362</ele>
        <time>2022-02-07T21:21:26.221Z</time>
      </trkpt>
      <trkpt lat="47.88361" lon="-2.21975">
        <ele>113.673563</ele>
        <time>2022-02-07T21:21:35.015Z</time>
      </trkpt>
      <trkpt lat="47.88382" lon="-2.22054">
        <ele>111.995107</ele>
        <time>2022-02-07T21:21:43.875Z</time>
      </trkpt>
      <trkpt lat="47.88354" lon="-2.22106">
        <ele>110.628735</ele>
        <time>2022-02-07T21:21:50.721Z</time>
      </trkpt>
      <trkpt lat="47.88336" lon="-2.22116">
        <ele>110.050892</ele>
        <time>2022-02-07T21:21:53.815Z</time>
      </trkpt>
      <trkpt lat="47.8842" lon="-2.22119">
        <ele>107.231894</ele>
        <time>2022-02-07T21:22:06.956Z</time>
      </trkpt>
      <trkpt lat="47.88427" lon="-2.22132">
        <ele>106.764696</ele>
        <time>2022-02-07T21:22:08.487Z</time>
      </trkpt>
      <trkpt lat="47.88412" lon="-2.22219">
        <ele>104.140802</ele>
        <time>2022-02-07T21:22:17.415Z</time>
      </trkpt>
      <trkpt lat="47.88417" lon="-2.22228">
        <ele>103.797872</ele>
        <time>2022-02-07T21:22:18.495Z</time>
      </trkpt>
      <trkpt lat="47.88438" lon="-2.22234">
        <ele>102.854785</ele>
        <time>2022-02-07T21:22:21.585Z</time>
      </trkpt>
      <trkpt lat="47.88526" lon="-2.22242">
        <ele>98.938454</ele>
        <time>2022-02-07T21:22:34.402Z</time>
      </trkpt>
      <trkpt lat="47.88556" lon="-2.22244">
        <ele>97.534831</ele>
        <time>2022-02-07T21:22:38.835Z</time>
      </trkpt>
      <trkpt lat="47.88721" lon="-2.22209">
        <ele>90.308072</ele>
        <time>2022-02-07T21:23:02.949Z</time>
      </trkpt>
      <trkpt lat="47.88736" lon="-2.22198">
        <ele>89.67479</ele>
        <time>2022-02-07T21:23:05.619Z</time>
      </trkpt>
      <trkpt lat="47.88769" lon="-2.22145">
        <ele>87.919017</ele>
        <time>2022-02-07T21:23:12.995Z</time>
      </trkpt>
      <trkpt lat="47.88781" lon="-2.22173">
        <ele>87.101371</ele>
        <time>2022-02-07T21:23:16.206Z</time>
      </trkpt>
      <trkpt lat="47.88825" lon="-2.22232">
        <ele>84.964785</ele>
        <time>2022-02-07T21:23:24.683Z</time>
      </trkpt>
      <trkpt lat="47.88856" lon="-2.22275">
        <ele>83.505876</ele>
        <time>2022-02-07T21:23:30.779Z</time>
      </trkpt>
      <trkpt lat="47.88874" lon="-2.22287">
        <ele>82.850704</ele>
        <time>2022-02-07T21:23:33.504Z</time>
      </trkpt>
      <trkpt lat="47.89121" lon="-2.22292">
        <ele>74.290879</ele>
        <time>2022-02-07T21:24:08.416Z</time>
      </trkpt>
      <trkpt lat="47.89162" lon="-2.22307">
        <ele>72.826533</ele>
        <time>2022-02-07T21:24:14.422Z</time>
      </trkpt>
      <trkpt lat="47.89267" lon="-2.22355">
        <ele>69.232014</ele>
        <time>2022-02-07T21:24:30.028Z</time>
      </trkpt>
      <trkpt lat="47.89327" lon="-2.22412">
        <ele>66.884885</ele>
        <time>2022-02-07T21:24:40.376Z</time>
      </trkpt>
      <trkpt lat="47.89427" lon="-2.22476">
        <ele>63.68332</ele>
        <time>2022-02-07T21:24:55.770Z</time>
      </trkpt>
      <trkpt lat="47.89452" lon="-2.22535">
        <ele>62.286143</ele>
        <time>2022-02-07T21:25:02.687Z</time>
      </trkpt>
      <trkpt lat="47.89478" lon="-2.22566">
        <ele>61.543544</ele>
        <time>2022-02-07T21:25:07.722Z</time>
      </trkpt>
      <trkpt lat="47.89481" lon="-2.22581">
        <ele>61.411138</ele>
        <time>2022-02-07T21:25:09.341Z</time>
      </trkpt>
      <trkpt lat="47.89487" lon="-2.22633">
        <ele>60.988818</ele>
        <time>2022-02-07T21:25:14.817Z</time>
      </trkpt>
      <trkpt lat="47.89487" lon="-2.22637">
        <ele>60.952475</ele>
        <time>2022-02-07T21:25:15.290Z</time>
      </trkpt>
      <trkpt lat="47.89485" lon="-2.22697">
        <ele>60.472341</ele>
        <time>2022-02-07T21:25:21.743Z</time>
      </trkpt>
      <trkpt lat="47.89477" lon="-2.22746">
        <ele>60.065176</ele>
        <time>2022-02-07T21:25:27.412Z</time>
      </trkpt>
      <trkpt lat="47.89449" lon="-2.22822">
        <ele>59.607348</ele>
        <time>2022-02-07T21:25:37.767Z</time>
      </trkpt>
      <trkpt lat="47.89379" lon="-2.23202">
        <ele>59.932626</ele>
        <time>2022-02-07T21:26:33.641Z</time>
      </trkpt>
      <trkpt lat="47.89373" lon="-2.23213">
        <ele>59.888048</ele>
        <time>2022-02-07T21:26:35.746Z</time>
      </trkpt>
      <trkpt lat="47.89375" lon="-2.23228">
        <ele>59.843299</ele>
        <time>2022-02-07T21:26:37.446Z</time>
      </trkpt>
      <trkpt lat="47.89822" lon="-2.23365">
        <ele>51.276381</ele>
        <time>2022-02-07T21:27:46.408Z</time>
      </trkpt>
      <trkpt lat="47.89842" lon="-2.23464">
        <ele>50.634867</ele>
        <time>2022-02-07T21:27:57.935Z</time>
      </trkpt>
      <trkpt lat="47.89856" lon="-2.23489">
        <ele>50.430523</ele>
        <time>2022-02-07T21:28:01.830Z</time>
      </trkpt>
      <trkpt lat="47.89861" lon="-2.235">
        <ele>50.347781</ele>
        <time>2022-02-07T21:28:03.422Z</time>
      </trkpt>
      <trkpt lat="47.89878" lon="-2.2353">
        <ele>50.104772</ele>
        <time>2022-02-07T21:28:08.226Z</time>
      </trkpt>
      <trkpt lat="47.89904" lon="-2.23607">
        <ele>49.885803</ele>
        <time>2022-02-07T21:28:19.404Z</time>
      </trkpt>
      <trkpt lat="47.89935" lon="-2.23641">
        <ele>49.832877</ele>
        <time>2022-02-07T21:28:26.784Z</time>
      </trkpt>
      <trkpt lat="47.89967" lon="-2.23666">
        <ele>49.783891</ele>
        <time>2022-02-07T21:28:33.445Z</time>
      </trkpt>
      <trkpt lat="47.89989" lon="-2.23634">
        <ele>49.741136</ele>
        <time>2022-02-07T21:28:39.061Z</time>
      </trkpt>
      <trkpt lat="47.90001" lon="-2.23601">
        <ele>49.706413</ele>
        <time>2022-02-07T21:28:43.521Z</time>
      </trkpt>
      <trkpt lat="47.90012" lon="-2.2359">
        <ele>49.652034</ele>
        <time>2022-02-07T21:28:45.833Z</time>
      </trkpt>
      <trkpt lat="47.90033" lon="-2.23586">
        <ele>49.41897</ele>
        <time>2022-02-07T21:28:49.406Z</time>
      </trkpt>
      <trkpt lat="47.90139" lon="-2.23631">
        <ele>48.191346</ele>
        <time>2022-02-07T21:29:07.297Z</time>
      </trkpt>
      <trkpt lat="47.90272" lon="-2.23615">
        <ele>46.922459</ele>
        <time>2022-02-07T21:29:28.884Z</time>
      </trkpt>
      <trkpt lat="47.90293" lon="-2.23606">
        <ele>46.738104</ele>
        <time>2022-02-07T21:29:32.450Z</time>
      </trkpt>
      <trkpt lat="47.90319" lon="-2.23551">
        <ele>46.348144</ele>
        <time>2022-02-07T21:29:40.257Z</time>
      </trkpt>
      <trkpt lat="47.90322" lon="-2.23542">
        <ele>46.286204</ele>
        <time>2022-02-07T21:29:41.547Z</time>
      </trkpt>
      <trkpt lat="47.90353" lon="-2.23516">
        <ele>46.26061</ele>
        <time>2022-02-07T21:29:47.916Z</time>
      </trkpt>
      <trkpt lat="47.90375" lon="-2.23638">
        <ele>46.878532</ele>
        <time>2022-02-07T21:30:06.019Z</time>
      </trkpt>
      <trkpt lat="47.90382" lon="-2.23716">
        <ele>47.264093</ele>
        <time>2022-02-07T21:30:19.363Z</time>
      </trkpt>
      <trkpt lat="47.90384" lon="-2.23797">
        <ele>48.020313</ele>
        <time>2022-02-07T21:30:32.768Z</time>
      </trkpt>
      <trkpt lat="47.90333" lon="-2.2424">
        <ele>54.139084</ele>
        <time>2022-02-07T21:31:58.610Z</time>
      </trkpt>
      <trkpt lat="47.90334" lon="-2.24351">
        <ele>55.243596</ele>
        <time>2022-02-07T21:32:18.721Z</time>
      </trkpt>
      <trkpt lat="47.90348" lon="-2.24433">
        <ele>55.864488</ele>
        <time>2022-02-07T21:32:33.100Z</time>
      </trkpt>
      <trkpt lat="47.90349" lon="-2.24438">
        <ele>55.90433</ele>
        <time>2022-02-07T21:32:34.010Z</time>
      </trkpt>
      <trkpt lat="47.9042" lon="-2.24752">
        <ele>56.793688</ele>
        <time>2022-02-07T21:33:20.896Z</time>
      </trkpt>
      <trkpt lat="47.90393" lon="-2.24919">
        <ele>56.186441</ele>
        <time>2022-02-07T21:33:41.573Z</time>
      </trkpt>
      <trkpt lat="47.90383" lon="-2.24956">
        <ele>55.98628</ele>
        <time>2022-02-07T21:33:46.288Z</time>
      </trkpt>
      <trkpt lat="47.90327" lon="-2.2507">
        <ele>55.376098</ele>
        <time>2022-02-07T21:34:03.451Z</time>
      </trkpt>
      <trkpt lat="47.90276" lon="-2.25154">
        <ele>55.123426</ele>
        <time>2022-02-07T21:34:18.346Z</time>
      </trkpt>
      <trkpt lat="47.90247" lon="-2.25241">
        <ele>54.908609</ele>
        <time>2022-02-07T21:34:30.970Z</time>
      </trkpt>
      <trkpt lat="47.90232" lon="-2.25309">
        <ele>54.584323</ele>
        <time>2022-02-07T21:34:39.972Z</time>
      </trkpt>
      <trkpt lat="47.90235" lon="-2.25454">
        <ele>53.771517</ele>
        <time>2022-02-07T21:34:57.678Z</time>
      </trkpt>
      <trkpt lat="47.9025" lon="-2.25536">
        <ele>53.26998</ele>
        <time>2022-02-07T21:35:07.659Z</time>
      </trkpt>
      <trkpt lat="47.9027" lon="-2.25592">
        <ele>52.794632</ele>
        <time>2022-02-07T21:35:14.980Z</time>
      </trkpt>
      <trkpt lat="47.90418" lon="-2.25908">
        <ele>50.518781</ele>
        <time>2022-02-07T21:36:00.900Z</time>
      </trkpt>
      <trkpt lat="47.9055" lon="-2.26186">
        <ele>50.788436</ele>
        <time>2022-02-07T21:36:48.294Z</time>
      </trkpt>
      <trkpt lat="47.90647" lon="-2.26395">
        <ele>52.303499</ele>
        <time>2022-02-07T21:37:29.366Z</time>
      </trkpt>
      <trkpt lat="47.90694" lon="-2.2651">
        <ele>52.97862</ele>
        <time>2022-02-07T21:37:49.863Z</time>
      </trkpt>
      <trkpt lat="47.90725" lon="-2.26633">
        <ele>53.607835</ele>
        <time>2022-02-07T21:38:08.895Z</time>
      </trkpt>
      <trkpt lat="47.90731" lon="-2.26714">
        <ele>54.341352</ele>
        <time>2022-02-07T21:38:21.886Z</time>
      </trkpt>
      <trkpt lat="47.90731" lon="-2.26725">
        <ele>54.456479</ele>
        <time>2022-02-07T21:38:23.596Z</time>
      </trkpt>
      <trkpt lat="47.90729" lon="-2.26783">
        <ele>55.056032</ele>
        <time>2022-02-07T21:38:33.442Z</time>
      </trkpt>
      <trkpt lat="47.90701" lon="-2.27021">
        <ele>57.893724</ele>
        <time>2022-02-07T21:39:18.786Z</time>
      </trkpt>
      <trkpt lat="47.90704" lon="-2.27209">
        <ele>60.281084</ele>
        <time>2022-02-07T21:39:54.229Z</time>
      </trkpt>
      <trkpt lat="47.90736" lon="-2.2733">
        <ele>61.109084</ele>
        <time>2022-02-07T21:40:15.820Z</time>
      </trkpt>
      <trkpt lat="47.90752" lon="-2.2737">
        <ele>61.406998</ele>
        <time>2022-02-07T21:40:23.109Z</time>
      </trkpt>
      <trkpt lat="47.90922" lon="-2.27697">
        <ele>61.4938</ele>
        <time>2022-02-07T21:41:17.606Z</time>
      </trkpt>
      <trkpt lat="47.91097" lon="-2.28032">
        <ele>60.134212</ele>
        <time>2022-02-07T21:42:09.349Z</time>
      </trkpt>
      <trkpt lat="47.91103" lon="-2.28054">
        <ele>60.070256</ele>
        <time>2022-02-07T21:42:12.622Z</time>
      </trkpt>
      <trkpt lat="47.91163" lon="-2.28084">
        <ele>61.654447</ele>
        <time>2022-02-07T21:42:27.189Z</time>
      </trkpt>
      <trkpt lat="47.91209" lon="-2.28102">
        <ele>63.013331</ele>
        <time>2022-02-07T21:42:40.685Z</time>
      </trkpt>
      <trkpt lat="47.91274" lon="-2.2811">
        <ele>64.900691</ele>
        <time>2022-02-07T21:43:03.528Z</time>
      </trkpt>
      <trkpt lat="47.91421" lon="-2.28127">
        <ele>71.762726</ele>
        <time>2022-02-07T21:43:59.677Z</time>
      </trkpt>
      <trkpt lat="47.91456" lon="-2.28112">
        <ele>73.515294</ele>
        <time>2022-02-07T21:44:13.345Z</time>
      </trkpt>
      <trkpt lat="47.91546" lon="-2.28045">
        <ele>77.10564</ele>
        <time>2022-02-07T21:44:47.064Z</time>
      </trkpt>
      <trkpt lat="47.91646" lon="-2.28016">
        <ele>80.388198</ele>
        <time>2022-02-07T21:45:17.099Z</time>
      </trkpt>
      <trkpt lat="47.91781" lon="-2.28005">
        <ele>82.870686</ele>
        <time>2022-02-07T21:45:52.028Z</time>
      </trkpt>
      <trkpt lat="47.91819" lon="-2.27994">
        <ele>83.448012</ele>
        <time>2022-02-07T21:45:59.813Z</time>
      </trkpt>
      <trkpt lat="47.91845" lon="-2.27978">
        <ele>83.533938</ele>
        <time>2022-02-07T21:46:05.727Z</time>
      </trkpt>
      <trkpt lat="47.91894" lon="-2.27917">
        <ele>83.725098</ele>
        <time>2022-02-07T21:46:18.042Z</time>
      </trkpt>
      <trkpt lat="47.91929" lon="-2.27852">
        <ele>83.896907</ele>
        <time>2022-02-07T21:46:28.946Z</time>
      </trkpt>
      <trkpt lat="47.91942" lon="-2.27845">
        <ele>83.93636</ele>
        <time>2022-02-07T21:46:31.056Z</time>
      </trkpt>
      <trkpt lat="47.91942" lon="-2.27851">
        <ele>83.949205</ele>
        <time>2022-02-07T21:46:32.262Z</time>
      </trkpt>
      <trkpt lat="47.91946" lon="-2.27925">
        <ele>83.422127</ele>
        <time>2022-02-07T21:46:39.983Z</time>
      </trkpt>
      <trkpt lat="47.91951" lon="-2.27938">
        <ele>83.298545</ele>
        <time>2022-02-07T21:46:41.595Z</time>
      </trkpt>
      <trkpt lat="47.91959" lon="-2.27957">
        <ele>83.113429</ele>
        <time>2022-02-07T21:46:44.041Z</time>
      </trkpt>
      <trkpt lat="47.91992" lon="-2.28027">
        <ele>82.409834</ele>
        <time>2022-02-07T21:46:53.119Z</time>
      </trkpt>
      <trkpt lat="47.91996" lon="-2.28015">
        <ele>82.294429</ele>
        <time>2022-02-07T21:46:54.665Z</time>
      </trkpt>
      <trkpt lat="47.92" lon="-2.27994">
        <ele>82.120366</ele>
        <time>2022-02-07T21:46:56.992Z</time>
      </trkpt>
      <trkpt lat="47.92014" lon="-2.27916">
        <ele>80.945648</ele>
        <time>2022-02-07T21:47:05.297Z</time>
      </trkpt>
      <trkpt lat="47.91983" lon="-2.27845">
        <ele>79.100185</ele>
        <time>2022-02-07T21:47:12.923Z</time>
      </trkpt>
      <trkpt lat="47.91986" lon="-2.27827">
        <ele>78.699557</ele>
        <time>2022-02-07T21:47:14.555Z</time>
      </trkpt>
      <trkpt lat="47.9199" lon="-2.27745">
        <ele>76.885429</ele>
        <time>2022-02-07T21:47:21.855Z</time>
      </trkpt>
      <trkpt lat="47.92007" lon="-2.27686">
        <ele>75.562218</ele>
        <time>2022-02-07T21:47:27.589Z</time>
      </trkpt>
      <trkpt lat="47.92016" lon="-2.27653">
        <ele>74.916757</ele>
        <time>2022-02-07T21:47:30.867Z</time>
      </trkpt>
      <trkpt lat="47.92018" lon="-2.27644">
        <ele>74.749128</ele>
        <time>2022-02-07T21:47:31.726Z</time>
      </trkpt>
      <trkpt lat="47.92023" lon="-2.27572">
        <ele>73.468769</ele>
        <time>2022-02-07T21:47:38.389Z</time>
      </trkpt>
      <trkpt lat="47.92029" lon="-2.27458">
        <ele>71.434185</ele>
        <time>2022-02-07T21:47:49.568Z</time>
      </trkpt>
      <trkpt lat="47.92034" lon="-2.27416">
        <ele>70.882536</ele>
        <time>2022-02-07T21:47:53.803Z</time>
      </trkpt>
      <trkpt lat="47.92042" lon="-2.274">
        <ele>70.683444</ele>
        <time>2022-02-07T21:47:55.958Z</time>
      </trkpt>
      <trkpt lat="47.9207" lon="-2.27375">
        <ele>70.22457</ele>
        <time>2022-02-07T21:48:00.966Z</time>
      </trkpt>
      <trkpt lat="47.9209" lon="-2.27253">
        <ele>69.034193</ele>
        <time>2022-02-07T21:48:14.771Z</time>
      </trkpt>
      <trkpt lat="47.92138" lon="-2.27079">
        <ele>66.756727</ele>
        <time>2022-02-07T21:48:34.596Z</time>
      </trkpt>
      <trkpt lat="47.92166" lon="-2.26918">
        <ele>64.683529</ele>
        <time>2022-02-07T21:48:51.484Z</time>
      </trkpt>
      <trkpt lat="47.92177" lon="-2.26882">
        <ele>64.276884</ele>
        <time>2022-02-07T21:48:55.439Z</time>
      </trkpt>
      <trkpt lat="47.92216" lon="-2.26809">
        <ele>63.303202</ele>
        <time>2022-02-07T21:49:05.254Z</time>
      </trkpt>
      <trkpt lat="47.92231" lon="-2.26754">
        <ele>62.684209</ele>
        <time>2022-02-07T21:49:11.706Z</time>
      </trkpt>
      <trkpt lat="47.92251" lon="-2.26757">
        <ele>62.383236</ele>
        <time>2022-02-07T21:49:17.213Z</time>
      </trkpt>
      <trkpt lat="47.92301" lon="-2.26746">
        <ele>62.373876</ele>
        <time>2022-02-07T21:49:31.704Z</time>
      </trkpt>
      <trkpt lat="47.92323" lon="-2.26727">
        <ele>62.435097</ele>
        <time>2022-02-07T21:49:39.132Z</time>
      </trkpt>
      <trkpt lat="47.92368" lon="-2.26665">
        <ele>62.58467</ele>
        <time>2022-02-07T21:49:57.757Z</time>
      </trkpt>
      <trkpt lat="47.9241" lon="-2.26616">
        <ele>62.790522</ele>
        <time>2022-02-07T21:50:15.554Z</time>
      </trkpt>
      <trkpt lat="47.92422" lon="-2.26587">
        <ele>63.386708</ele>
        <time>2022-02-07T21:50:23.755Z</time>
      </trkpt>
      <trkpt lat="47.92437" lon="-2.26509">
        <ele>64.826521</ele>
        <time>2022-02-07T21:50:44.564Z</time>
      </trkpt>
      <trkpt lat="47.92446" lon="-2.26491">
        <ele>65.230387</ele>
        <time>2022-02-07T21:50:50.823Z</time>
      </trkpt>
      <trkpt lat="47.92463" lon="-2.26478">
        <ele>65.728168</ele>
        <time>2022-02-07T21:50:58.478Z</time>
      </trkpt>
      <trkpt lat="47.92607" lon="-2.26415">
        <ele>70.623892</ele>
        <time>2022-02-07T21:52:05.604Z</time>
      </trkpt>
      <trkpt lat="47.92609" lon="-2.26415">
        <ele>70.67769</ele>
        <time>2022-02-07T21:52:07.178Z</time>
      </trkpt>
      <trkpt lat="47.92703" lon="-2.26382">
        <ele>74.249589</ele>
        <time>2022-02-07T21:52:49.731Z</time>
      </trkpt>
      <trkpt lat="47.92789" lon="-2.26336">
        <ele>76.792422</ele>
        <time>2022-02-07T21:53:28.247Z</time>
      </trkpt>
      <trkpt lat="47.92872" lon="-2.26305">
        <ele>79.134285</ele>
        <time>2022-02-07T21:54:01.372Z</time>
      </trkpt>
      <trkpt lat="47.92943" lon="-2.26287">
        <ele>80.48371</ele>
        <time>2022-02-07T21:54:28.953Z</time>
      </trkpt>
      <trkpt lat="47.93024" lon="-2.2628">
        <ele>82.010545</ele>
        <time>2022-02-07T21:54:59.095Z</time>
      </trkpt>
      <trkpt lat="47.93033" lon="-2.26286">
        <ele>82.199805</ele>
        <time>2022-02-07T21:55:02.922Z</time>
      </trkpt>
      <trkpt lat="47.9303" lon="-2.26345">
        <ele>82.739473</ele>
        <time>2022-02-07T21:55:12.555Z</time>
      </trkpt>
      <trkpt lat="47.93037" lon="-2.2638">
        <ele>82.988841</ele>
        <time>2022-02-07T21:55:18.122Z</time>
      </trkpt>
      <trkpt lat="47.93062" lon="-2.26445">
        <ele>83.485958</ele>
        <time>2022-02-07T21:55:28.732Z</time>
      </trkpt>
      <trkpt lat="47.93081" lon="-2.26433">
        <ele>83.693212</ele>
        <time>2022-02-07T21:55:33.100Z</time>
      </trkpt>
      <trkpt lat="47.93114" lon="-2.26435">
        <ele>84.030796</ele>
        <time>2022-02-07T21:55:40.468Z</time>
      </trkpt>
      <trkpt lat="47.93218" lon="-2.26477">
        <ele>85.326204</ele>
        <time>2022-02-07T21:56:04.722Z</time>
      </trkpt>
      <trkpt lat="47.93373" lon="-2.26496">
        <ele>87.873441</ele>
        <time>2022-02-07T21:56:42.756Z</time>
      </trkpt>
      <trkpt lat="47.93426" lon="-2.26477">
        <ele>89.109876</ele>
        <time>2022-02-07T21:56:57.986Z</time>
      </trkpt>
      <trkpt lat="47.93481" lon="-2.26434">
        <ele>90.51857</ele>
        <time>2022-02-07T21:57:15.755Z</time>
      </trkpt>
      <trkpt lat="47.93507" lon="-2.2642">
        <ele>91.334398</ele>
        <time>2022-02-07T21:57:24.697Z</time>
      </trkpt>
      <trkpt lat="47.93621" lon="-2.26387">
        <ele>95.096114</ele>
        <time>2022-02-07T21:58:02.765Z</time>
      </trkpt>
      <trkpt lat="47.9367" lon="-2.26385">
        <ele>96.560398</ele>
        <time>2022-02-07T21:58:19.162Z</time>
      </trkpt>
      <trkpt lat="47.9379" lon="-2.26408">
        <ele>97.680526</ele>
        <time>2022-02-07T21:58:49.311Z</time>
      </trkpt>
      <trkpt lat="47.93796" lon="-2.26416">
        <ele>97.756107</ele>
        <time>2022-02-07T21:58:51.264Z</time>
      </trkpt>
      <trkpt lat="47.93794" lon="-2.26438">
        <ele>97.898518</ele>
        <time>2022-02-07T21:58:53.964Z</time>
      </trkpt>
      <trkpt lat="47.9383" lon="-2.26786">
        <ele>94.53406</ele>
        <time>2022-02-07T21:59:29.826Z</time>
      </trkpt>
      <trkpt lat="47.93842" lon="-2.26835">
        <ele>94.338441</ele>
        <time>2022-02-07T21:59:35.473Z</time>
      </trkpt>
      <trkpt lat="47.93857" lon="-2.26848">
        <ele>94.245636</ele>
        <time>2022-02-07T21:59:38.315Z</time>
      </trkpt>
      <trkpt lat="47.93912" lon="-2.26872">
        <ele>93.926683</ele>
        <time>2022-02-07T21:59:48.750Z</time>
      </trkpt>
      <trkpt lat="47.94017" lon="-2.26904">
        <ele>93.736315</ele>
        <time>2022-02-07T22:00:11.908Z</time>
      </trkpt>
      <trkpt lat="47.94051" lon="-2.26912">
        <ele>93.768452</ele>
        <time>2022-02-07T22:00:18.573Z</time>
      </trkpt>
      <trkpt lat="47.94101" lon="-2.26926">
        <ele>93.817735</ele>
        <time>2022-02-07T22:00:28.484Z</time>
      </trkpt>
      <trkpt lat="47.94085" lon="-2.27057">
        <ele>92.988148</ele>
        <time>2022-02-07T22:00:43.363Z</time>
      </trkpt>
      <trkpt lat="47.94087" lon="-2.27111">
        <ele>92.447573</ele>
        <time>2022-02-07T22:00:48.985Z</time>
      </trkpt>
      <trkpt lat="47.94117" lon="-2.27179">
        <ele>91.63637</ele>
        <time>2022-02-07T22:00:57.287Z</time>
      </trkpt>
      <trkpt lat="47.94151" lon="-2.27239">
        <ele>90.93609</ele>
        <time>2022-02-07T22:01:05.485Z</time>
      </trkpt>
      <trkpt lat="47.94211" lon="-2.27316">
        <ele>90.064642</ele>
        <time>2022-02-07T22:01:18.480Z</time>
      </trkpt>
      <trkpt lat="47.94246" lon="-2.27387">
        <ele>89.418022</ele>
        <time>2022-02-07T22:01:28.452Z</time>
      </trkpt>
      <trkpt lat="47.94278" lon="-2.27464">
        <ele>89.058665</ele>
        <time>2022-02-07T22:01:38.942Z</time>
      </trkpt>
      <trkpt lat="47.94314" lon="-2.27602">
        <ele>88.721956</ele>
        <time>2022-02-07T22:01:56.692Z</time>
      </trkpt>
      <trkpt lat="47.94351" lon="-2.27711">
        <ele>88.611332</ele>
        <time>2022-02-07T22:02:11.721Z</time>
      </trkpt>
      <trkpt lat="47.9438" lon="-2.27756">
        <ele>88.636294</ele>
        <time>2022-02-07T22:02:19.749Z</time>
      </trkpt>
      <trkpt lat="47.94408" lon="-2.27784">
        <ele>88.656148</ele>
        <time>2022-02-07T22:02:26.207Z</time>
      </trkpt>
      <trkpt lat="47.94447" lon="-2.27818">
        <ele>88.683143</ele>
        <time>2022-02-07T22:02:34.892Z</time>
      </trkpt>
      <trkpt lat="47.94531" lon="-2.27865">
        <ele>88.665915</ele>
        <time>2022-02-07T22:02:51.257Z</time>
      </trkpt>
      <trkpt lat="47.94533" lon="-2.27875">
        <ele>88.663096</ele>
        <time>2022-02-07T22:02:52.591Z</time>
      </trkpt>
      <trkpt lat="47.94552" lon="-2.27977">
        <ele>88.635829</ele>
        <time>2022-02-07T22:03:05.638Z</time>
      </trkpt>
      <trkpt lat="47.94549" lon="-2.28049">
        <ele>88.700978</ele>
        <time>2022-02-07T22:03:14.400Z</time>
      </trkpt>
      <trkpt lat="47.94531" lon="-2.28104">
        <ele>88.874933</ele>
        <time>2022-02-07T22:03:22.110Z</time>
      </trkpt>
      <trkpt lat="47.94515" lon="-2.28179">
        <ele>89.099316</ele>
        <time>2022-02-07T22:03:32.492Z</time>
      </trkpt>
      <trkpt lat="47.94507" lon="-2.28257">
        <ele>89.324772</ele>
        <time>2022-02-07T22:03:43.541Z</time>
      </trkpt>
      <trkpt lat="47.94514" lon="-2.28284">
        <ele>89.449017</ele>
        <time>2022-02-07T22:03:48.226Z</time>
      </trkpt>
      <trkpt lat="47.94523" lon="-2.28315">
        <ele>89.750773</ele>
        <time>2022-02-07T22:03:53.620Z</time>
      </trkpt>
      <trkpt lat="47.94524" lon="-2.28473">
        <ele>91.164189</ele>
        <time>2022-02-07T22:04:18.853Z</time>
      </trkpt>
      <trkpt lat="47.94528" lon="-2.2852">
        <ele>91.588437</ele>
        <time>2022-02-07T22:04:26.570Z</time>
      </trkpt>
      <trkpt lat="47.94525" lon="-2.2862">
        <ele>92.793473</ele>
        <time>2022-02-07T22:04:43.406Z</time>
      </trkpt>
      <trkpt lat="47.94462" lon="-2.28613">
        <ele>94.002092</ele>
        <time>2022-02-07T22:04:59.611Z</time>
      </trkpt>
      <trkpt lat="47.94423" lon="-2.28728">
        <ele>95.671891</ele>
        <time>2022-02-07T22:05:23.203Z</time>
      </trkpt>
      <trkpt lat="47.94394" lon="-2.28814">
        <ele>96.8813</ele>
        <time>2022-02-07T22:05:40.536Z</time>
      </trkpt>
      <trkpt lat="47.94387" lon="-2.2885">
        <ele>97.351764</ele>
        <time>2022-02-07T22:05:47.469Z</time>
      </trkpt>
      <trkpt lat="47.9439" lon="-2.28901">
        <ele>97.989265</ele>
        <time>2022-02-07T22:05:56.320Z</time>
      </trkpt>
      <trkpt lat="47.94405" lon="-2.29004">
        <ele>98.770863</ele>
        <time>2022-02-07T22:06:13.344Z</time>
      </trkpt>
      <trkpt lat="47.94376" lon="-2.29257">
        <ele>99.029165</ele>
        <time>2022-02-07T22:06:45.766Z</time>
      </trkpt>
      <trkpt lat="47.94318" lon="-2.29472">
        <ele>97.66764</ele>
        <time>2022-02-07T22:07:11.503Z</time>
      </trkpt>
      <trkpt lat="47.94422" lon="-2.29424">
        <ele>95.830153</ele>
        <time>2022-02-07T22:07:28.663Z</time>
      </trkpt>
      <trkpt lat="47.94394" lon="-2.29545">
        <ele>94.057621</ele>
        <time>2022-02-07T22:07:51.253Z</time>
      </trkpt>
      <trkpt lat="47.94355" lon="-2.29721">
        <ele>89.584278</ele>
        <time>2022-02-07T22:08:21.784Z</time>
      </trkpt>
      <trkpt lat="47.94423" lon="-2.29796">
        <ele>85.49424</ele>
        <time>2022-02-07T22:08:32.901Z</time>
      </trkpt>
      <trkpt lat="47.94547" lon="-2.29891">
        <ele>77.432869</ele>
        <time>2022-02-07T22:08:50.650Z</time>
      </trkpt>
      <trkpt lat="47.9457" lon="-2.29924">
        <ele>76.154218</ele>
        <time>2022-02-07T22:08:54.834Z</time>
      </trkpt>
      <trkpt lat="47.94587" lon="-2.29982">
        <ele>74.451215</ele>
        <time>2022-02-07T22:09:00.548Z</time>
      </trkpt>
      <trkpt lat="47.94598" lon="-2.30005">
        <ele>73.697511</ele>
        <time>2022-02-07T22:09:03.152Z</time>
      </trkpt>
      <trkpt lat="47.94614" lon="-2.30021">
        <ele>72.93636</ele>
        <time>2022-02-07T22:09:05.797Z</time>
      </trkpt>
      <trkpt lat="47.94644" lon="-2.30034">
        <ele>71.663083</ele>
        <time>2022-02-07T22:09:10.357Z</time>
      </trkpt>
      <trkpt lat="47.94832" lon="-2.30003">
        <ele>68.069712</ele>
        <time>2022-02-07T22:09:40.127Z</time>
      </trkpt>
      <trkpt lat="47.94964" lon="-2.29893">
        <ele>67.855713</ele>
        <time>2022-02-07T22:10:07.512Z</time>
      </trkpt>
      <trkpt lat="47.95121" lon="-2.29867">
        <ele>69.054757</ele>
        <time>2022-02-07T22:10:43.594Z</time>
      </trkpt>
      <trkpt lat="47.95209" lon="-2.29813">
        <ele>70.11041</ele>
        <time>2022-02-07T22:11:05.729Z</time>
      </trkpt>
      <trkpt lat="47.95245" lon="-2.29806">
        <ele>70.551795</ele>
        <time>2022-02-07T22:11:14.129Z</time>
      </trkpt>
      <trkpt lat="47.95339" lon="-2.29806">
        <ele>71.676493</ele>
        <time>2022-02-07T22:11:35.946Z</time>
      </trkpt>
      <trkpt lat="47.95378" lon="-2.29665">
        <ele>72.665959</ele>
        <time>2022-02-07T22:11:59.810Z</time>
      </trkpt>
      <trkpt lat="47.95384" lon="-2.29602">
        <ele>73.043015</ele>
        <time>2022-02-07T22:12:09.504Z</time>
      </trkpt>
      <trkpt lat="47.95397" lon="-2.29529">
        <ele>73.486422</ele>
        <time>2022-02-07T22:12:20.302Z</time>
      </trkpt>
      <trkpt lat="47.95427" lon="-2.29434">
        <ele>73.458255</ele>
        <time>2022-02-07T22:12:33.968Z</time>
      </trkpt>
      <trkpt lat="47.95474" lon="-2.29325">
        <ele>73.275513</ele>
        <time>2022-02-07T22:12:49.095Z</time>
      </trkpt>
      <trkpt lat="47.95551" lon="-2.29214">
        <ele>73.192654</ele>
        <time>2022-02-07T22:13:07.608Z</time>
      </trkpt>
      <trkpt lat="47.95563" lon="-2.29171">
        <ele>73.187314</ele>
        <time>2022-02-07T22:13:13.122Z</time>
      </trkpt>
      <trkpt lat="47.95568" lon="-2.2911">
        <ele>73.180318</ele>
        <time>2022-02-07T22:13:20.867Z</time>
      </trkpt>
      <trkpt lat="47.95574" lon="-2.29117">
        <ele>73.178997</ele>
        <time>2022-02-07T22:13:22.425Z</time>
      </trkpt>
      <trkpt lat="47.95585" lon="-2.2913">
        <ele>73.17661</ele>
        <time>2022-02-07T22:13:25.465Z</time>
      </trkpt>
      <trkpt lat="47.95635" lon="-2.29189">
        <ele>74.026396</ele>
        <time>2022-02-07T22:13:39.893Z</time>
      </trkpt>
      <trkpt lat="47.95641" lon="-2.29198">
        <ele>74.163442</ele>
        <time>2022-02-07T22:13:42.084Z</time>
      </trkpt>
      <trkpt lat="47.95645" lon="-2.29205">
        <ele>74.268113</ele>
        <time>2022-02-07T22:13:43.562Z</time>
      </trkpt>
      <trkpt lat="47.9565" lon="-2.29212">
        <ele>74.380562</ele>
        <time>2022-02-07T22:13:45.148Z</time>
      </trkpt>
      <trkpt lat="47.95675" lon="-2.29258">
        <ele>75.044927</ele>
        <time>2022-02-07T22:13:55.025Z</time>
      </trkpt>
      <trkpt lat="47.95692" lon="-2.29269">
        <ele>75.346599</ele>
        <time>2022-02-07T22:13:59.626Z</time>
      </trkpt>
      <trkpt lat="47.95692" lon="-2.29269">
        <ele>75.346599</ele>
        <time>2022-02-07T22:13:59.685Z</time>
      </trkpt>
      <trkpt lat="47.95704" lon="-2.29273">
        <ele>75.542268</ele>
        <time>2022-02-07T22:14:02.533Z</time>
      </trkpt>
      <trkpt lat="47.95735" lon="-2.29287">
        <ele>76.078491</ele>
        <time>2022-02-07T22:14:11.202Z</time>
      </trkpt>
      <trkpt lat="47.95727" lon="-2.29312">
        <ele>76.471695</ele>
        <time>2022-02-07T22:14:15.987Z</time>
      </trkpt>
      <trkpt lat="47.95724" lon="-2.29331">
        <ele>76.776675</ele>
        <time>2022-02-07T22:14:19.866Z</time>
      </trkpt>
      <trkpt lat="47.95715" lon="-2.29417">
        <ele>78.137394</ele>
        <time>2022-02-07T22:14:36.057Z</time>
      </trkpt>
      <trkpt lat="47.95742" lon="-2.29433">
        <ele>78.81035</ele>
        <time>2022-02-07T22:14:43.926Z</time>
      </trkpt>
      <trkpt lat="47.95771" lon="-2.2947">
        <ele>79.685491</ele>
        <time>2022-02-07T22:14:53.805Z</time>
      </trkpt>
      <trkpt lat="47.9579" lon="-2.2948">
        <ele>80.15743</ele>
        <time>2022-02-07T22:14:59.069Z</time>
      </trkpt>
      <trkpt lat="47.95811" lon="-2.29481">
        <ele>80.68785</ele>
        <time>2022-02-07T22:15:04.653Z</time>
      </trkpt>
      <trkpt lat="47.95837" lon="-2.29483">
        <ele>81.3771</ele>
        <time>2022-02-07T22:15:11.481Z</time>
      </trkpt>
      <trkpt lat="47.95854" lon="-2.29494">
        <ele>81.856722</ele>
        <time>2022-02-07T22:15:17.227Z</time>
      </trkpt>
      <trkpt lat="47.95893" lon="-2.29534">
        <ele>83.116768</ele>
        <time>2022-02-07T22:15:31.361Z</time>
      </trkpt>
      <trkpt lat="47.95913" lon="-2.29537">
        <ele>83.640884</ele>
        <time>2022-02-07T22:15:37.154Z</time>
      </trkpt>
      <trkpt lat="47.95969" lon="-2.2957">
        <ele>85.152034</ele>
        <time>2022-02-07T22:15:54.302Z</time>
      </trkpt>
      <trkpt lat="47.95994" lon="-2.29581">
        <ele>85.511875</ele>
        <time>2022-02-07T22:16:01.836Z</time>
      </trkpt>
      <trkpt lat="47.96068" lon="-2.29551">
        <ele>86.587852</ele>
        <time>2022-02-07T22:16:21.256Z</time>
      </trkpt>
      <trkpt lat="47.96114" lon="-2.29547">
        <ele>87.239898</ele>
        <time>2022-02-07T22:16:31.103Z</time>
      </trkpt>
      <trkpt lat="47.96208" lon="-2.29567">
        <ele>87.070788</ele>
        <time>2022-02-07T22:16:48.847Z</time>
      </trkpt>
      <trkpt lat="47.96298" lon="-2.2963">
        <ele>86.33561</ele>
        <time>2022-02-07T22:17:06.334Z</time>
      </trkpt>
      <trkpt lat="47.96411" lon="-2.29683">
        <ele>85.687673</ele>
        <time>2022-02-07T22:17:27.882Z</time>
      </trkpt>
      <trkpt lat="47.96433" lon="-2.29693">
        <ele>85.564595</ele>
        <time>2022-02-07T22:17:32.236Z</time>
      </trkpt>
      <trkpt lat="47.96488" lon="-2.29709">
        <ele>85.393971</ele>
        <time>2022-02-07T22:17:43.032Z</time>
      </trkpt>
      <trkpt lat="47.96535" lon="-2.29756">
        <ele>86.076251</ele>
        <time>2022-02-07T22:17:55.621Z</time>
      </trkpt>
      <trkpt lat="47.96587" lon="-2.29775">
        <ele>86.722119</ele>
        <time>2022-02-07T22:18:09.352Z</time>
      </trkpt>
      <trkpt lat="47.9661" lon="-2.29794">
        <ele>87.039322</ele>
        <time>2022-02-07T22:18:15.996Z</time>
      </trkpt>
      <trkpt lat="47.96618" lon="-2.29794">
        <ele>87.145633</ele>
        <time>2022-02-07T22:18:18.658Z</time>
      </trkpt>
      <trkpt lat="47.96618" lon="-2.298">
        <ele>87.190949</ele>
        <time>2022-02-07T22:18:19.573Z</time>
      </trkpt>
      <trkpt lat="47.96694" lon="-2.29776">
        <ele>88.467837</ele>
        <time>2022-02-07T22:18:49.157Z</time>
      </trkpt>
      <trkpt lat="47.9675" lon="-2.2984">
        <ele>89.78262</ele>
        <time>2022-02-07T22:19:16.869Z</time>
      </trkpt>
      <trkpt lat="47.96784" lon="-2.29865">
        <ele>90.479037</ele>
        <time>2022-02-07T22:19:30.672Z</time>
      </trkpt>
      <trkpt lat="47.96823" lon="-2.2987">
        <ele>90.789401</ele>
        <time>2022-02-07T22:19:43.866Z</time>
      </trkpt>
      <trkpt lat="47.9685" lon="-2.29861">
        <ele>90.753756</ele>
        <time>2022-02-07T22:19:52.114Z</time>
      </trkpt>
      <trkpt lat="47.96899" lon="-2.29881">
        <ele>90.686735</ele>
        <time>2022-02-07T22:20:07.092Z</time>
      </trkpt>
      <trkpt lat="47.97014" lon="-2.29814">
        <ele>90.317941</ele>
        <time>2022-02-07T22:20:41.664Z</time>
      </trkpt>
      <trkpt lat="47.97131" lon="-2.29824">
        <ele>89.616579</ele>
        <time>2022-02-07T22:21:13.895Z</time>
      </trkpt>
      <trkpt lat="47.97137" lon="-2.29825">
        <ele>89.581031</ele>
        <time>2022-02-07T22:21:15.485Z</time>
      </trkpt>
      <trkpt lat="47.97141" lon="-2.29831">
        <ele>89.542381</ele>
        <time>2022-02-07T22:21:17.822Z</time>
      </trkpt>
      <trkpt lat="47.97148" lon="-2.29874">
        <ele>89.940044</ele>
        <time>2022-02-07T22:21:27.019Z</time>
      </trkpt>
      <trkpt lat="47.97232" lon="-2.29775">
        <ele>92.081303</ele>
        <time>2022-02-07T22:21:53.884Z</time>
      </trkpt>
      <trkpt lat="47.97241" lon="-2.29758">
        <ele>92.373032</ele>
        <time>2022-02-07T22:21:58.694Z</time>
      </trkpt>
      <trkpt lat="47.97511" lon="-2.29669">
        <ele>101.093215</ele>
        <time>2022-02-07T22:24:01.687Z</time>
      </trkpt>
      <trkpt lat="47.97546" lon="-2.29642">
        <ele>102.039983</ele>
        <time>2022-02-07T22:24:16.675Z</time>
      </trkpt>
      <trkpt lat="47.97596" lon="-2.29615">
        <ele>103.324106</ele>
        <time>2022-02-07T22:24:36.564Z</time>
      </trkpt>
      <trkpt lat="47.97683" lon="-2.29579">
        <ele>104.504702</ele>
        <time>2022-02-07T22:25:06.833Z</time>
      </trkpt>
      <trkpt lat="47.97684" lon="-2.29571">
        <ele>104.55053</ele>
        <time>2022-02-07T22:25:08.927Z</time>
      </trkpt>
      <trkpt lat="47.9769" lon="-2.29234">
        <ele>106.082103</ele>
        <time>2022-02-07T22:26:21.490Z</time>
      </trkpt>
      <trkpt lat="47.97669" lon="-2.2907">
        <ele>106.438265</ele>
        <time>2022-02-07T22:26:56.201Z</time>
      </trkpt>
      <trkpt lat="47.97733" lon="-2.29033">
        <ele>106.471897</ele>
        <time>2022-02-07T22:27:08.984Z</time>
      </trkpt>
      <trkpt lat="47.97864" lon="-2.2899">
        <ele>106.261993</ele>
        <time>2022-02-07T22:27:32.129Z</time>
      </trkpt>
      <trkpt lat="47.97898" lon="-2.28973">
        <ele>106.141952</ele>
        <time>2022-02-07T22:27:38.130Z</time>
      </trkpt>
      <trkpt lat="47.97855" lon="-2.28657">
        <ele>105.516667</ele>
        <time>2022-02-07T22:28:14.666Z</time>
      </trkpt>
      <trkpt lat="47.97846" lon="-2.28597">
        <ele>105.411018</ele>
        <time>2022-02-07T22:28:22.055Z</time>
      </trkpt>
      <trkpt lat="47.9783" lon="-2.28522">
        <ele>105.314016</ele>
        <time>2022-02-07T22:28:31.961Z</time>
      </trkpt>
      <trkpt lat="47.97824" lon="-2.28455">
        <ele>105.230982</ele>
        <time>2022-02-07T22:28:39.836Z</time>
      </trkpt>
      <trkpt lat="47.9778" lon="-2.28361">
        <ele>105.090203</ele>
        <time>2022-02-07T22:28:53.037Z</time>
      </trkpt>
      <trkpt lat="47.97774" lon="-2.28347">
        <ele>104.924174</ele>
        <time>2022-02-07T22:28:54.967Z</time>
      </trkpt>
      <trkpt lat="47.97762" lon="-2.28298">
        <ele>104.346211</ele>
        <time>2022-02-07T22:29:00.630Z</time>
      </trkpt>
      <trkpt lat="47.97761" lon="-2.28262">
        <ele>103.939237</ele>
        <time>2022-02-07T22:29:04.459Z</time>
      </trkpt>
      <trkpt lat="47.9777" lon="-2.28145">
        <ele>102.621059</ele>
        <time>2022-02-07T22:29:15.894Z</time>
      </trkpt>
      <trkpt lat="47.97769" lon="-2.28098">
        <ele>102.094477</ele>
        <time>2022-02-07T22:29:20.300Z</time>
      </trkpt>
      <trkpt lat="47.97756" lon="-2.28035">
        <ele>101.098314</ele>
        <time>2022-02-07T22:29:26.544Z</time>
      </trkpt>
      <trkpt lat="47.97758" lon="-2.27991">
        <ele>100.421877</ele>
        <time>2022-02-07T22:29:30.711Z</time>
      </trkpt>
      <trkpt lat="47.97781" lon="-2.27889">
        <ele>98.769216</ele>
        <time>2022-02-07T22:29:41.034Z</time>
      </trkpt>
      <trkpt lat="47.97775" lon="-2.27839">
        <ele>97.995231</ele>
        <time>2022-02-07T22:29:45.949Z</time>
      </trkpt>
      <trkpt lat="47.97747" lon="-2.27792">
        <ele>97.411557</ele>
        <time>2022-02-07T22:29:52.381Z</time>
      </trkpt>
      <trkpt lat="47.97624" lon="-2.27679">
        <ele>95.461693</ele>
        <time>2022-02-07T22:30:15.047Z</time>
      </trkpt>
      <trkpt lat="47.97591" lon="-2.27644">
        <ele>94.833016</ele>
        <time>2022-02-07T22:30:21.407Z</time>
      </trkpt>
      <trkpt lat="47.97589" lon="-2.27635">
        <ele>94.736605</ele>
        <time>2022-02-07T22:30:22.349Z</time>
      </trkpt>
      <trkpt lat="47.97595" lon="-2.27616">
        <ele>94.511657</ele>
        <time>2022-02-07T22:30:26.232Z</time>
      </trkpt>
      <trkpt lat="47.97586" lon="-2.27584">
        <ele>94.156289</ele>
        <time>2022-02-07T22:30:32.426Z</time>
      </trkpt>
      <trkpt lat="47.97563" lon="-2.27558">
        <ele>93.713445</ele>
        <time>2022-02-07T22:30:40.034Z</time>
      </trkpt>
      <trkpt lat="47.97545" lon="-2.27503">
        <ele>93.084411</ele>
        <time>2022-02-07T22:30:50.670Z</time>
      </trkpt>
      <trkpt lat="47.97515" lon="-2.27455">
        <ele>92.549196</ele>
        <time>2022-02-07T22:31:02.042Z</time>
      </trkpt>
      <trkpt lat="47.97521" lon="-2.27303">
        <ele>91.587371</ele>
        <time>2022-02-07T22:31:18.672Z</time>
      </trkpt>
      <trkpt lat="47.97557" lon="-2.27236">
        <ele>91.122057</ele>
        <time>2022-02-07T22:31:28.933Z</time>
      </trkpt>
      <trkpt lat="47.97581" lon="-2.27207">
        <ele>91.730089</ele>
        <time>2022-02-07T22:31:38.311Z</time>
      </trkpt>
      <trkpt lat="47.97651" lon="-2.27161">
        <ele>93.25111</ele>
        <time>2022-02-07T22:32:05.202Z</time>
      </trkpt>
      <trkpt lat="47.97711" lon="-2.27099">
        <ele>94.787972</ele>
        <time>2022-02-07T22:32:35.468Z</time>
      </trkpt>
      <trkpt lat="47.97727" lon="-2.27062">
        <ele>96.526184</ele>
        <time>2022-02-07T22:32:50.856Z</time>
      </trkpt>
      <trkpt lat="47.97818" lon="-2.26954">
        <ele>103.319326</ele>
        <time>2022-02-07T22:33:53.322Z</time>
      </trkpt>
      <trkpt lat="47.97822" lon="-2.26948">
        <ele>103.642768</ele>
        <time>2022-02-07T22:33:58.231Z</time>
      </trkpt>
      <trkpt lat="47.97885" lon="-2.26859">
        <ele>108.859052</ele>
        <time>2022-02-07T22:34:46.807Z</time>
      </trkpt>
      <trkpt lat="47.97908" lon="-2.26819">
        <ele>110.987996</ele>
        <time>2022-02-07T22:35:06.313Z</time>
      </trkpt>
      <trkpt lat="47.97917" lon="-2.26732">
        <ele>114.587442</ele>
        <time>2022-02-07T22:35:37.107Z</time>
      </trkpt>
      <trkpt lat="47.97927" lon="-2.26706">
        <ele>115.771106</ele>
        <time>2022-02-07T22:35:46.392Z</time>
      </trkpt>
      <trkpt lat="47.9796" lon="-2.26692">
        <ele>117.782723</ele>
        <time>2022-02-07T22:36:04.171Z</time>
      </trkpt>
      <trkpt lat="47.9807" lon="-2.26771">
        <ele>124.905109</ele>
        <time>2022-02-07T22:37:08.588Z</time>
      </trkpt>
      <trkpt lat="47.98096" lon="-2.26777">
        <ele>126.450229</ele>
        <time>2022-02-07T22:37:23.279Z</time>
      </trkpt>
      <trkpt lat="47.9812" lon="-2.26783">
        <ele>128.02319</ele>
        <time>2022-02-07T22:37:37.149Z</time>
      </trkpt>
      <trkpt lat="47.98148" lon="-2.26779">
        <ele>129.84361</ele>
        <time>2022-02-07T22:37:52.620Z</time>
      </trkpt>
      <trkpt lat="47.98166" lon="-2.2676">
        <ele>131.30847</ele>
        <time>2022-02-07T22:38:05.067Z</time>
      </trkpt>
      <trkpt lat="47.98171" lon="-2.26738">
        <ele>132.328278</ele>
        <time>2022-02-07T22:38:14.687Z</time>
      </trkpt>
      <trkpt lat="47.98143" lon="-2.26625">
        <ele>137.579964</ele>
        <time>2022-02-07T22:39:00.905Z</time>
      </trkpt>
      <trkpt lat="47.98086" lon="-2.26472">
        <ele>143.86125</ele>
        <time>2022-02-07T22:40:00.018Z</time>
      </trkpt>
      <trkpt lat="47.98057" lon="-2.26349">
        <ele>148.478584</ele>
        <time>2022-02-07T22:40:42.374Z</time>
      </trkpt>
      <trkpt lat="47.98056" lon="-2.26326">
        <ele>149.290226</ele>
        <time>2022-02-07T22:40:49.751Z</time>
      </trkpt>
      <trkpt lat="47.98059" lon="-2.26305">
        <ele>150.088832</ele>
        <time>2022-02-07T22:40:58.324Z</time>
      </trkpt>
      <trkpt lat="47.98077" lon="-2.26286">
        <ele>151.282904</ele>
        <time>2022-02-07T22:41:09.046Z</time>
      </trkpt>
      <trkpt lat="47.98092" lon="-2.26284">
        <ele>152.114086</ele>
        <time>2022-02-07T22:41:17.616Z</time>
      </trkpt>
      <trkpt lat="47.98128" lon="-2.26293">
        <ele>154.140803</ele>
        <time>2022-02-07T22:41:36.503Z</time>
      </trkpt>
      <trkpt lat="47.98147" lon="-2.26291">
        <ele>155.168459</ele>
        <time>2022-02-07T22:41:45.356Z</time>
      </trkpt>
      <trkpt lat="47.98156" lon="-2.2628">
        <ele>155.802702</ele>
        <time>2022-02-07T22:41:52.438Z</time>
      </trkpt>
      <trkpt lat="47.98165" lon="-2.26235">
        <ele>157.544165</ele>
        <time>2022-02-07T22:42:08.998Z</time>
      </trkpt>
      <trkpt lat="47.98165" lon="-2.26197">
        <ele>158.907522</ele>
        <time>2022-02-07T22:42:21.542Z</time>
      </trkpt>
      <trkpt lat="47.98152" lon="-2.26077">
        <ele>163.295126</ele>
        <time>2022-02-07T22:43:05.480Z</time>
      </trkpt>
      <trkpt lat="47.98146" lon="-2.26022">
        <ele>165.286655</ele>
        <time>2022-02-07T22:43:25.066Z</time>
      </trkpt>
      <trkpt lat="47.98157" lon="-2.25989">
        <ele>166.607396</ele>
        <time>2022-02-07T22:43:36.989Z</time>
      </trkpt>
      <trkpt lat="47.98167" lon="-2.25979">
        <ele>167.263837</ele>
        <time>2022-02-07T22:43:42.601Z</time>
      </trkpt>
      <trkpt lat="47.98211" lon="-2.25978">
        <ele>168.599076</ele>
        <time>2022-02-07T22:44:02.356Z</time>
      </trkpt>
      <trkpt lat="47.9831" lon="-2.25988">
        <ele>171.609637</ele>
        <time>2022-02-07T22:44:43.953Z</time>
      </trkpt>
      <trkpt lat="47.98335" lon="-2.25983">
        <ele>172.362044</ele>
        <time>2022-02-07T22:44:53.759Z</time>
      </trkpt>
      <trkpt lat="47.98698" lon="-2.2577">
        <ele>176.444953</ele>
        <time>2022-02-07T22:47:04.229Z</time>
      </trkpt>
      <trkpt lat="47.9886" lon="-2.25674">
        <ele>177.046846</ele>
        <time>2022-02-07T22:47:59.700Z</time>
      </trkpt>
      <trkpt lat="47.98867" lon="-2.25671">
        <ele>176.982717</ele>
        <time>2022-02-07T22:48:01.698Z</time>
      </trkpt>
      <trkpt lat="47.98989" lon="-2.25537">
        <ele>175.556064</ele>
        <time>2022-02-07T22:48:25.318Z</time>
      </trkpt>
      <trkpt lat="47.9904" lon="-2.25482">
        <ele>175.148292</ele>
        <time>2022-02-07T22:48:34.882Z</time>
      </trkpt>
      <trkpt lat="47.99137" lon="-2.25403">
        <ele>174.475109</ele>
        <time>2022-02-07T22:48:53.144Z</time>
      </trkpt>
      <trkpt lat="47.99148" lon="-2.25421">
        <ele>174.419313</ele>
        <time>2022-02-07T22:48:58.695Z</time>
      </trkpt>
      <trkpt lat="47.99159" lon="-2.25457">
        <ele>174.726013</ele>
        <time>2022-02-07T22:49:06.984Z</time>
      </trkpt>
      <trkpt lat="47.99217" lon="-2.25539">
        <ele>175.648398</ele>
        <time>2022-02-07T22:49:35.428Z</time>
      </trkpt>
      <trkpt lat="47.9922" lon="-2.25543">
        <ele>175.689164</ele>
        <time>2022-02-07T22:49:36.818Z</time>
      </trkpt>
      <trkpt lat="47.99292" lon="-2.2555">
        <ele>176.467521</ele>
        <time>2022-02-07T22:50:03.257Z</time>
      </trkpt>
      <trkpt lat="47.99379" lon="-2.25525">
        <ele>176.630988</ele>
        <time>2022-02-07T22:50:31.800Z</time>
      </trkpt>
      <trkpt lat="47.99389" lon="-2.25513">
        <ele>176.655032</ele>
        <time>2022-02-07T22:50:36.134Z</time>
      </trkpt>
      <trkpt lat="47.994" lon="-2.25493">
        <ele>176.686504</ele>
        <time>2022-02-07T22:50:41.093Z</time>
      </trkpt>
      <trkpt lat="47.99436" lon="-2.25515">
        <ele>176.757022</ele>
        <time>2022-02-07T22:50:52.065Z</time>
      </trkpt>
      <trkpt lat="47.99519" lon="-2.25494">
        <ele>175.972441</ele>
        <time>2022-02-07T22:51:14.642Z</time>
      </trkpt>
      <trkpt lat="47.99541" lon="-2.25479">
        <ele>175.676935</ele>
        <time>2022-02-07T22:51:20.955Z</time>
      </trkpt>
      <trkpt lat="47.99633" lon="-2.25496">
        <ele>174.616199</ele>
        <time>2022-02-07T22:51:46.218Z</time>
      </trkpt>
      <trkpt lat="47.99621" lon="-2.25589">
        <ele>174.911663</ele>
        <time>2022-02-07T22:51:57.570Z</time>
      </trkpt>
      <trkpt lat="47.99614" lon="-2.25677">
        <ele>175.187587</ele>
        <time>2022-02-07T22:52:09.743Z</time>
      </trkpt>
      <trkpt lat="47.99616" lon="-2.25759">
        <ele>175.480189</ele>
        <time>2022-02-07T22:52:23.395Z</time>
      </trkpt>
      <trkpt lat="47.99618" lon="-2.25861">
        <ele>176.873332</ele>
        <time>2022-02-07T22:52:41.612Z</time>
      </trkpt>
      <trkpt lat="47.99607" lon="-2.25986">
        <ele>178.588618</ele>
        <time>2022-02-07T22:53:04.579Z</time>
      </trkpt>
      <trkpt lat="47.99602" lon="-2.26042">
        <ele>179.347341</ele>
        <time>2022-02-07T22:53:14.906Z</time>
      </trkpt>
      <trkpt lat="47.99589" lon="-2.26142">
        <ele>180.618137</ele>
        <time>2022-02-07T22:53:33.053Z</time>
      </trkpt>
      <trkpt lat="47.99564" lon="-2.26297">
        <ele>182.599033</ele>
        <time>2022-02-07T22:54:00.622Z</time>
      </trkpt>
      <trkpt lat="47.99547" lon="-2.26347">
        <ele>183.154079</ele>
        <time>2022-02-07T22:54:09.567Z</time>
      </trkpt>
      <trkpt lat="47.99514" lon="-2.26492">
        <ele>184.681953</ele>
        <time>2022-02-07T22:54:34.029Z</time>
      </trkpt>
      <trkpt lat="47.9949" lon="-2.26606">
        <ele>185.911744</ele>
        <time>2022-02-07T22:54:54.143Z</time>
      </trkpt>
      <trkpt lat="47.99488" lon="-2.26629">
        <ele>186.162998</ele>
        <time>2022-02-07T22:55:00.122Z</time>
      </trkpt>
      <trkpt lat="47.99464" lon="-2.26735">
        <ele>187.348286</ele>
        <time>2022-02-07T22:55:27.966Z</time>
      </trkpt>
      <trkpt lat="47.99457" lon="-2.26763">
        <ele>187.65628</ele>
        <time>2022-02-07T22:55:34.954Z</time>
      </trkpt>
      <trkpt lat="47.99447" lon="-2.26806">
        <ele>187.909039</ele>
        <time>2022-02-07T22:55:45.671Z</time>
      </trkpt>
      <trkpt lat="47.99421" lon="-2.26928">
        <ele>187.038143</ele>
        <time>2022-02-07T22:56:12.920Z</time>
      </trkpt>
      <trkpt lat="47.99355" lon="-2.27207">
        <ele>181.599661</ele>
        <time>2022-02-07T22:57:01.825Z</time>
      </trkpt>
      <trkpt lat="47.9934" lon="-2.2725">
        <ele>180.272082</ele>
        <time>2022-02-07T22:57:09.250Z</time>
      </trkpt>
      <trkpt lat="47.99299" lon="-2.27415">
        <ele>174.965466</ele>
        <time>2022-02-07T22:57:35.774Z</time>
      </trkpt>
      <trkpt lat="47.99289" lon="-2.27489">
        <ele>172.572253</ele>
        <time>2022-02-07T22:57:47.583Z</time>
      </trkpt>
      <trkpt lat="47.9926" lon="-2.27585">
        <ele>169.348366</ele>
        <time>2022-02-07T22:58:04.793Z</time>
      </trkpt>
      <trkpt lat="47.99229" lon="-2.27713">
        <ele>165.49185</ele>
        <time>2022-02-07T22:58:26.887Z</time>
      </trkpt>
      <trkpt lat="47.99147" lon="-2.27986">
        <ele>155.066114</ele>
        <time>2022-02-07T22:59:12.452Z</time>
      </trkpt>
      <trkpt lat="47.99131" lon="-2.28056">
        <ele>152.275198</ele>
        <time>2022-02-07T22:59:23.485Z</time>
      </trkpt>
      <trkpt lat="47.99125" lon="-2.28099">
        <ele>150.804739</ele>
        <time>2022-02-07T22:59:29.839Z</time>
      </trkpt>
      <trkpt lat="47.99094" lon="-2.28304">
        <ele>143.666793</ele>
        <time>2022-02-07T23:00:02.153Z</time>
      </trkpt>
      <trkpt lat="47.99098" lon="-2.28341">
        <ele>143.069034</ele>
        <time>2022-02-07T23:00:08.439Z</time>
      </trkpt>
      <trkpt lat="47.99108" lon="-2.28378">
        <ele>142.583175</ele>
        <time>2022-02-07T23:00:15.371Z</time>
      </trkpt>
      <trkpt lat="47.99129" lon="-2.2845">
        <ele>141.654851</ele>
        <time>2022-02-07T23:00:28.956Z</time>
      </trkpt>
      <trkpt lat="47.99142" lon="-2.28629">
        <ele>139.891491</ele>
        <time>2022-02-07T23:01:03.095Z</time>
      </trkpt>
      <trkpt lat="47.9915" lon="-2.28662">
        <ele>139.707034</ele>
        <time>2022-02-07T23:01:09.976Z</time>
      </trkpt>
      <trkpt lat="47.99145" lon="-2.28718">
        <ele>139.403809</ele>
        <time>2022-02-07T23:01:21.068Z</time>
      </trkpt>
      <trkpt lat="47.99152" lon="-2.28737">
        <ele>139.284378</ele>
        <time>2022-02-07T23:01:23.853Z</time>
      </trkpt>
      <trkpt lat="47.99168" lon="-2.2876">
        <ele>139.10659</ele>
        <time>2022-02-07T23:01:28.025Z</time>
      </trkpt>
      <trkpt lat="47.99207" lon="-2.28764">
        <ele>138.796284</ele>
        <time>2022-02-07T23:01:34.786Z</time>
      </trkpt>
      <trkpt lat="47.99219" lon="-2.28772">
        <ele>138.349936</ele>
        <time>2022-02-07T23:01:36.861Z</time>
      </trkpt>
      <trkpt lat="47.99235" lon="-2.28813">
        <ele>137.072589</ele>
        <time>2022-02-07T23:01:42.074Z</time>
      </trkpt>
      <trkpt lat="47.99276" lon="-2.28877">
        <ele>134.715228</ele>
        <time>2022-02-07T23:01:51.194Z</time>
      </trkpt>
      <trkpt lat="47.99399" lon="-2.28982">
        <ele>127.937794</ele>
        <time>2022-02-07T23:02:10.994Z</time>
      </trkpt>
      <trkpt lat="47.9944" lon="-2.2909">
        <ele>123.136507</ele>
        <time>2022-02-07T23:02:22.497Z</time>
      </trkpt>
      <trkpt lat="47.99515" lon="-2.29244">
        <ele>116.548534</ele>
        <time>2022-02-07T23:02:40.633Z</time>
      </trkpt>
      <trkpt lat="47.99599" lon="-2.29349">
        <ele>111.885875</ele>
        <time>2022-02-07T23:02:56.472Z</time>
      </trkpt>
      <trkpt lat="47.99689" lon="-2.29493">
        <ele>109.415389</ele>
        <time>2022-02-07T23:03:18.666Z</time>
      </trkpt>
      <trkpt lat="47.99727" lon="-2.29471">
        <ele>109.15185</ele>
        <time>2022-02-07T23:03:31.417Z</time>
      </trkpt>
      <trkpt lat="47.99752" lon="-2.29431">
        <ele>109.551764</ele>
        <time>2022-02-07T23:03:43.679Z</time>
      </trkpt>
      <trkpt lat="47.99806" lon="-2.29376">
        <ele>110.268232</ele>
        <time>2022-02-07T23:04:07.417Z</time>
      </trkpt>
      <trkpt lat="47.99825" lon="-2.29344">
        <ele>110.580326</ele>
        <time>2022-02-07T23:04:18.703Z</time>
      </trkpt>
      <trkpt lat="47.99834" lon="-2.2934">
        <ele>110.681936</ele>
        <time>2022-02-07T23:04:22.285Z</time>
      </trkpt>
      <trkpt lat="47.99904" lon="-2.29304">
        <ele>110.94443</ele>
        <time>2022-02-07T23:04:46.406Z</time>
      </trkpt>
      <trkpt lat="47.99942" lon="-2.29267">
        <ele>110.952794</ele>
        <time>2022-02-07T23:04:59.528Z</time>
      </trkpt>
      <trkpt lat="47.99995" lon="-2.29171">
        <ele>110.968431</ele>
        <time>2022-02-07T23:05:23.332Z</time>
      </trkpt>
      <trkpt lat="48.00024" lon="-2.29141">
        <ele>110.484404</ele>
        <time>2022-02-07T23:05:33.363Z</time>
      </trkpt>
      <trkpt lat="48.00079" lon="-2.28981">
        <ele>108.822027</ele>
        <time>2022-02-07T23:06:06.509Z</time>
      </trkpt>
      <trkpt lat="48.00091" lon="-2.28884">
        <ele>106.783806</ele>
        <time>2022-02-07T23:06:22.714Z</time>
      </trkpt>
      <trkpt lat="48.00106" lon="-2.28841">
        <ele>105.447758</ele>
        <time>2022-02-07T23:06:30.409Z</time>
      </trkpt>
      <trkpt lat="48.00124" lon="-2.28792">
        <ele>103.900129</ele>
        <time>2022-02-07T23:06:39.276Z</time>
      </trkpt>
      <trkpt lat="48.00143" lon="-2.28776">
        <ele>102.987163</ele>
        <time>2022-02-07T23:06:44.599Z</time>
      </trkpt>
      <trkpt lat="48.00151" lon="-2.28745">
        <ele>102.069559</ele>
        <time>2022-02-07T23:06:49.825Z</time>
      </trkpt>
      <trkpt lat="48.00153" lon="-2.28787">
        <ele>100.887381</ele>
        <time>2022-02-07T23:06:53.483Z</time>
      </trkpt>
      <trkpt lat="48.0018" lon="-2.2887">
        <ele>98.057597</ele>
        <time>2022-02-07T23:07:01.549Z</time>
      </trkpt>
      <trkpt lat="48.00189" lon="-2.28884">
        <ele>97.469358</ele>
        <time>2022-02-07T23:07:03.207Z</time>
      </trkpt>
      <trkpt lat="48.00225" lon="-2.28911">
        <ele>95.632614</ele>
        <time>2022-02-07T23:07:08.549Z</time>
      </trkpt>
      <trkpt lat="48.00267" lon="-2.28906">
        <ele>93.688999</ele>
        <time>2022-02-07T23:07:14.309Z</time>
      </trkpt>
      <trkpt lat="48.00444" lon="-2.28826">
        <ele>89.359689</ele>
        <time>2022-02-07T23:07:42.367Z</time>
      </trkpt>
      <trkpt lat="48.00521" lon="-2.28793">
        <ele>89.386241</ele>
        <time>2022-02-07T23:07:56.288Z</time>
      </trkpt>
      <trkpt lat="48.00544" lon="-2.28754">
        <ele>89.552741</ele>
        <time>2022-02-07T23:08:02.395Z</time>
      </trkpt>
      <trkpt lat="48.00563" lon="-2.28713">
        <ele>89.710008</ele>
        <time>2022-02-07T23:08:08.654Z</time>
      </trkpt>
      <trkpt lat="48.00561" lon="-2.28702">
        <ele>89.749742</ele>
        <time>2022-02-07T23:08:11.085Z</time>
      </trkpt>
      <trkpt lat="48.00588" lon="-2.28649">
        <ele>90.421747</ele>
        <time>2022-02-07T23:08:25.146Z</time>
      </trkpt>
      <trkpt lat="48.00593" lon="-2.28656">
        <ele>90.906615</ele>
        <time>2022-02-07T23:08:27.587Z</time>
      </trkpt>
      <trkpt lat="48.00579" lon="-2.2868">
        <ele>92.329854</ele>
        <time>2022-02-07T23:08:36.186Z</time>
      </trkpt>
      <trkpt lat="48.00593" lon="-2.28656">
        <ele>93.753093</ele>
        <time>2022-02-07T23:08:45.364Z</time>
      </trkpt>
      <trkpt lat="48.00588" lon="-2.28649">
        <ele>94.23796</ele>
        <time>2022-02-07T23:08:48.831Z</time>
      </trkpt>
      <trkpt lat="48.00603" lon="-2.28647">
        <ele>95.268294</ele>
        <time>2022-02-07T23:08:56.214Z</time>
      </trkpt>
      <trkpt lat="48.00611" lon="-2.28643">
        <ele>95.836432</ele>
        <time>2022-02-07T23:08:59.791Z</time>
      </trkpt>
      <trkpt lat="48.00577" lon="-2.28581">
        <ele>99.436891</ele>
        <time>2022-02-07T23:09:32.819Z</time>
      </trkpt>
      <trkpt lat="48.0048" lon="-2.28463">
        <ele>110.252956</ele>
        <time>2022-02-07T23:11:02.246Z</time>
      </trkpt>
      <trkpt lat="48.00425" lon="-2.28406">
        <ele>116.580941</ele>
        <time>2022-02-07T23:11:49.473Z</time>
      </trkpt>
      <trkpt lat="48.00402" lon="-2.28282">
        <ele>121.99511</ele>
        <time>2022-02-07T23:12:39.207Z</time>
      </trkpt>
      <trkpt lat="48.00394" lon="-2.2827">
        <ele>122.561964</ele>
        <time>2022-02-07T23:12:44.627Z</time>
      </trkpt>
      <trkpt lat="48.00338" lon="-2.28226">
        <ele>125.577502</ele>
        <time>2022-02-07T23:13:11.710Z</time>
      </trkpt>
      <trkpt lat="48.00298" lon="-2.28271">
        <ele>127.9657</ele>
        <time>2022-02-07T23:13:31.858Z</time>
      </trkpt>
      <trkpt lat="48.00229" lon="-2.28366">
        <ele>131.943434</ele>
        <time>2022-02-07T23:14:14.096Z</time>
      </trkpt>
      <trkpt lat="48.00214" lon="-2.28371">
        <ele>132.595315</ele>
        <time>2022-02-07T23:14:21.331Z</time>
      </trkpt>
      <trkpt lat="48.00149" lon="-2.28251">
        <ele>137.002122</ele>
        <time>2022-02-07T23:15:13.025Z</time>
      </trkpt>
      <trkpt lat="48.00149" lon="-2.28234">
        <ele>137.521691</ele>
        <time>2022-02-07T23:15:18.978Z</time>
      </trkpt>
      <trkpt lat="48.00182" lon="-2.28142">
        <ele>140.580652</ele>
        <time>2022-02-07T23:15:54.481Z</time>
      </trkpt>
      <trkpt lat="48.00195" lon="-2.28123">
        <ele>141.365217</ele>
        <time>2022-02-07T23:16:02.883Z</time>
      </trkpt>
      <trkpt lat="48.00222" lon="-2.2802">
        <ele>143.794194</ele>
        <time>2022-02-07T23:16:33.145Z</time>
      </trkpt>
      <trkpt lat="48.00233" lon="-2.2799">
        <ele>144.176146</ele>
        <time>2022-02-07T23:16:41.242Z</time>
      </trkpt>
      <trkpt lat="48.00246" lon="-2.27952">
        <ele>144.655312</ele>
        <time>2022-02-07T23:16:51.055Z</time>
      </trkpt>
      <trkpt lat="48.00282" lon="-2.27877">
        <ele>145.680914</ele>
        <time>2022-02-07T23:17:12.053Z</time>
      </trkpt>
      <trkpt lat="48.00294" lon="-2.27827">
        <ele>146.275027</ele>
        <time>2022-02-07T23:17:24.592Z</time>
      </trkpt>
      <trkpt lat="48.00319" lon="-2.27772">
        <ele>147.06041</ele>
        <time>2022-02-07T23:17:40.500Z</time>
      </trkpt>
      <trkpt lat="48.0041" lon="-2.27631">
        <ele>149.399241</ele>
        <time>2022-02-07T23:18:29.110Z</time>
      </trkpt>
      <trkpt lat="48.00454" lon="-2.27573">
        <ele>150.498298</ele>
        <time>2022-02-07T23:18:51.560Z</time>
      </trkpt>
      <trkpt lat="48.00484" lon="-2.2752">
        <ele>151.383101</ele>
        <time>2022-02-07T23:19:09.269Z</time>
      </trkpt>
      <trkpt lat="48.00564" lon="-2.27402">
        <ele>153.059691</ele>
        <time>2022-02-07T23:19:50.552Z</time>
      </trkpt>
      <trkpt lat="48.00632" lon="-2.27247">
        <ele>153.699789</ele>
        <time>2022-02-07T23:20:29.580Z</time>
      </trkpt>
      <trkpt lat="48.00646" lon="-2.27216">
        <ele>153.801222</ele>
        <time>2022-02-07T23:20:36.548Z</time>
      </trkpt>
      <trkpt lat="48.00686" lon="-2.27083">
        <ele>152.973717</ele>
        <time>2022-02-07T23:21:03.897Z</time>
      </trkpt>
      <trkpt lat="48.00688" lon="-2.27041">
        <ele>152.735185</ele>
        <time>2022-02-07T23:21:11.498Z</time>
      </trkpt>
      <trkpt lat="48.00676" lon="-2.27012">
        <ele>152.540032</ele>
        <time>2022-02-07T23:21:17.588Z</time>
      </trkpt>
      <trkpt lat="48.00649" lon="-2.26998">
        <ele>152.303715</ele>
        <time>2022-02-07T23:21:25.233Z</time>
      </trkpt>
      <trkpt lat="48.00607" lon="-2.26992">
        <ele>152.504194</ele>
        <time>2022-02-07T23:21:37.131Z</time>
      </trkpt>
      <trkpt lat="48.00592" lon="-2.26972">
        <ele>152.604252</ele>
        <time>2022-02-07T23:21:43.797Z</time>
      </trkpt>
      <trkpt lat="48.00526" lon="-2.26988">
        <ele>152.940103</ele>
        <time>2022-02-07T23:22:05.752Z</time>
      </trkpt>
      <trkpt lat="48.00473" lon="-2.27031">
        <ele>153.463376</ele>
        <time>2022-02-07T23:22:25.859Z</time>
      </trkpt>
      <trkpt lat="48.00462" lon="-2.27026">
        <ele>153.777082</ele>
        <time>2022-02-07T23:22:30.897Z</time>
      </trkpt>
      <trkpt lat="48.00437" lon="-2.26964">
        <ele>155.158693</ele>
        <time>2022-02-07T23:22:49.289Z</time>
      </trkpt>
      <trkpt lat="48.0042" lon="-2.26919">
        <ele>156.144884</ele>
        <time>2022-02-07T23:23:03.824Z</time>
      </trkpt>
      <trkpt lat="48.00415" lon="-2.26853">
        <ele>157.408876</ele>
        <time>2022-02-07T23:23:23.065Z</time>
      </trkpt>
      <trkpt lat="48.00403" lon="-2.2681">
        <ele>158.309354</ele>
        <time>2022-02-07T23:23:37.744Z</time>
      </trkpt>
      <trkpt lat="48.00382" lon="-2.26769">
        <ele>159.516691</ele>
        <time>2022-02-07T23:23:52.672Z</time>
      </trkpt>
      <trkpt lat="48.00365" lon="-2.2675">
        <ele>160.307096</ele>
        <time>2022-02-07T23:24:02.792Z</time>
      </trkpt>
      <trkpt lat="48.00328" lon="-2.26738">
        <ele>161.639164</ele>
        <time>2022-02-07T23:24:20.371Z</time>
      </trkpt>
      <trkpt lat="48.00304" lon="-2.26703">
        <ele>162.827812</ele>
        <time>2022-02-07T23:24:35.876Z</time>
      </trkpt>
      <trkpt lat="48.00277" lon="-2.26695">
        <ele>163.821015</ele>
        <time>2022-02-07T23:24:47.930Z</time>
      </trkpt>
      <trkpt lat="48.00255" lon="-2.26572">
        <ele>165.718009</ele>
        <time>2022-02-07T23:25:20.522Z</time>
      </trkpt>
      <trkpt lat="48.00246" lon="-2.26527">
        <ele>166.221565</ele>
        <time>2022-02-07T23:25:30.853Z</time>
      </trkpt>
      <trkpt lat="48.00248" lon="-2.26405">
        <ele>167.543829</ele>
        <time>2022-02-07T23:25:59.327Z</time>
      </trkpt>
      <trkpt lat="48.00242" lon="-2.26391">
        <ele>167.741165</ele>
        <time>2022-02-07T23:26:03.073Z</time>
      </trkpt>
      <trkpt lat="48.00233" lon="-2.26385">
        <ele>167.970313</ele>
        <time>2022-02-07T23:26:06.607Z</time>
      </trkpt>
      <trkpt lat="48.00189" lon="-2.26378">
        <ele>168.973178</ele>
        <time>2022-02-07T23:26:21.455Z</time>
      </trkpt>
      <trkpt lat="48.00146" lon="-2.26237">
        <ele>171.337834</ele>
        <time>2022-02-07T23:27:02.214Z</time>
      </trkpt>
      <trkpt lat="48.00096" lon="-2.26073">
        <ele>175.399498</ele>
        <time>2022-02-07T23:27:57.169Z</time>
      </trkpt>
      <trkpt lat="48.00115" lon="-2.26041">
        <ele>176.422771</ele>
        <time>2022-02-07T23:28:06.716Z</time>
      </trkpt>
      <trkpt lat="48.00124" lon="-2.26008">
        <ele>177.270018</ele>
        <time>2022-02-07T23:28:14.212Z</time>
      </trkpt>
      <trkpt lat="48.0012" lon="-2.25857">
        <ele>180.699912</ele>
        <time>2022-02-07T23:28:45.885Z</time>
      </trkpt>
      <trkpt lat="48.00107" lon="-2.25775">
        <ele>182.57199</ele>
        <time>2022-02-07T23:29:03.519Z</time>
      </trkpt>
      <trkpt lat="48.00108" lon="-2.25754">
        <ele>183.0502</ele>
        <time>2022-02-07T23:29:07.671Z</time>
      </trkpt>
      <trkpt lat="48.00129" lon="-2.25708">
        <ele>184.449745</ele>
        <time>2022-02-07T23:29:19.039Z</time>
      </trkpt>
      <trkpt lat="48.00178" lon="-2.25649">
        <ele>188.390906</ele>
        <time>2022-02-07T23:29:42.574Z</time>
      </trkpt>
      <trkpt lat="48.002" lon="-2.25754">
        <ele>193.042195</ele>
        <time>2022-02-07T23:30:15.856Z</time>
      </trkpt>
      <trkpt lat="48.00213" lon="-2.25753">
        <ele>193.842609</ele>
        <time>2022-02-07T23:30:23.821Z</time>
      </trkpt>
      <trkpt lat="48.00243" lon="-2.25745">
        <ele>195.861453</ele>
        <time>2022-02-07T23:30:43.852Z</time>
      </trkpt>
      <trkpt lat="48.00293" lon="-2.25706">
        <ele>201.016695</ele>
        <time>2022-02-07T23:31:22.354Z</time>
      </trkpt>
      <trkpt lat="48.00301" lon="-2.25702">
        <ele>201.821098</ele>
        <time>2022-02-07T23:31:28.245Z</time>
      </trkpt>
      <trkpt lat="48.00336" lon="-2.25681">
        <ele>205.233923</ele>
        <time>2022-02-07T23:31:53.707Z</time>
      </trkpt>
      <trkpt lat="48.00365" lon="-2.25634">
        <ele>209.208351</ele>
        <time>2022-02-07T23:32:23.870Z</time>
      </trkpt>
      <trkpt lat="48.00375" lon="-2.25591">
        <ele>211.999045</ele>
        <time>2022-02-07T23:32:43.753Z</time>
      </trkpt>
      <trkpt lat="48.00388" lon="-2.25558">
        <ele>213.558342</ele>
        <time>2022-02-07T23:32:59.171Z</time>
      </trkpt>
      <trkpt lat="48.00419" lon="-2.25476">
        <ele>217.508339</ele>
        <time>2022-02-07T23:33:35.800Z</time>
      </trkpt>
      <trkpt lat="48.00423" lon="-2.25438">
        <ele>219.138207</ele>
        <time>2022-02-07T23:33:49.818Z</time>
      </trkpt>
      <trkpt lat="48.00436" lon="-2.25388">
        <ele>221.366275</ele>
        <time>2022-02-07T23:34:07.174Z</time>
      </trkpt>
      <trkpt lat="48.00464" lon="-2.25339">
        <ele>223.63607</ele>
        <time>2022-02-07T23:34:27.608Z</time>
      </trkpt>
      <trkpt lat="48.00535" lon="-2.25239">
        <ele>226.653868</ele>
        <time>2022-02-07T23:35:10.356Z</time>
      </trkpt>
      <trkpt lat="48.0057" lon="-2.25202">
        <ele>227.964197</ele>
        <time>2022-02-07T23:35:27.048Z</time>
      </trkpt>
      <trkpt lat="48.00568" lon="-2.25175">
        <ele>228.527201</ele>
        <time>2022-02-07T23:35:33.531Z</time>
      </trkpt>
      <trkpt lat="48.00574" lon="-2.25157">
        <ele>228.729705</ele>
        <time>2022-02-07T23:35:38.552Z</time>
      </trkpt>
      <trkpt lat="48.00554" lon="-2.2513">
        <ele>228.520835</ele>
        <time>2022-02-07T23:35:48.069Z</time>
      </trkpt>
      <trkpt lat="48.00536" lon="-2.25119">
        <ele>228.376252</ele>
        <time>2022-02-07T23:35:54.762Z</time>
      </trkpt>
      <trkpt lat="48.00522" lon="-2.25101">
        <ele>228.231648</ele>
        <time>2022-02-07T23:36:01.093Z</time>
      </trkpt>
      <trkpt lat="48.0052" lon="-2.25081">
        <ele>228.126307</ele>
        <time>2022-02-07T23:36:06.359Z</time>
      </trkpt>
      <trkpt lat="48.00524" lon="-2.25023">
        <ele>227.831816</ele>
        <time>2022-02-07T23:36:17.330Z</time>
      </trkpt>
      <trkpt lat="48.00536" lon="-2.24893">
        <ele>225.222544</ele>
        <time>2022-02-07T23:36:38.468Z</time>
      </trkpt>
      <trkpt lat="48.00527" lon="-2.24869">
        <ele>223.979072</ele>
        <time>2022-02-07T23:36:42.675Z</time>
      </trkpt>
      <trkpt lat="48.00351" lon="-2.24822">
        <ele>211.298839</ele>
        <time>2022-02-07T23:37:20.625Z</time>
      </trkpt>
      <trkpt lat="48.0032" lon="-2.24823">
        <ele>208.957645</ele>
        <time>2022-02-07T23:37:27.189Z</time>
      </trkpt>
      <trkpt lat="48.0032" lon="-2.24774">
        <ele>206.530524</ele>
        <time>2022-02-07T23:37:34.133Z</time>
      </trkpt>
      <trkpt lat="48.0035" lon="-2.24617">
        <ele>199.593999</ele>
        <time>2022-02-07T23:37:58.334Z</time>
      </trkpt>
      <trkpt lat="48.00358" lon="-2.24577">
        <ele>198.316958</ele>
        <time>2022-02-07T23:38:04.949Z</time>
      </trkpt>
      <trkpt lat="48.00359" lon="-2.24522">
        <ele>196.66318</ele>
        <time>2022-02-07T23:38:13.794Z</time>
      </trkpt>
      <trkpt lat="48.00367" lon="-2.24453">
        <ele>194.5296</ele>
        <time>2022-02-07T23:38:25.350Z</time>
      </trkpt>
      <trkpt lat="48.00377" lon="-2.24405">
        <ele>193.059119</ele>
        <time>2022-02-07T23:38:33.522Z</time>
      </trkpt>
      <trkpt lat="48.00392" lon="-2.24372">
        <ele>192.020714</ele>
        <time>2022-02-07T23:38:39.691Z</time>
      </trkpt>
      <trkpt lat="48.00398" lon="-2.24343">
        <ele>191.236149</ele>
        <time>2022-02-07T23:38:44.470Z</time>
      </trkpt>
      <trkpt lat="48.0041" lon="-2.24325">
        <ele>190.566974</ele>
        <time>2022-02-07T23:38:48.375Z</time>
      </trkpt>
      <trkpt lat="48.00426" lon="-2.24281">
        <ele>189.270262</ele>
        <time>2022-02-07T23:38:52.905Z</time>
      </trkpt>
      <trkpt lat="48.00441" lon="-2.24207">
        <ele>187.268562</ele>
        <time>2022-02-07T23:39:00.131Z</time>
      </trkpt>
      <trkpt lat="48.00424" lon="-2.24201">
        <ele>186.557216</ele>
        <time>2022-02-07T23:39:02.679Z</time>
      </trkpt>
      <trkpt lat="48.00377" lon="-2.24221">
        <ele>185.578606</ele>
        <time>2022-02-07T23:39:09.976Z</time>
      </trkpt>
      <trkpt lat="48.00389" lon="-2.24189">
        <ele>185.13637</ele>
        <time>2022-02-07T23:39:13.774Z</time>
      </trkpt>
      <trkpt lat="48.00399" lon="-2.24145">
        <ele>184.582829</ele>
        <time>2022-02-07T23:39:18.546Z</time>
      </trkpt>
      <trkpt lat="48.00413" lon="-2.24005">
        <ele>183.024398</ele>
        <time>2022-02-07T23:39:33.899Z</time>
      </trkpt>
      <trkpt lat="48.0046" lon="-2.23818">
        <ele>182.119725</ele>
        <time>2022-02-07T23:39:57.577Z</time>
      </trkpt>
      <trkpt lat="48.00465" lon="-2.23799">
        <ele>182.025522</ele>
        <time>2022-02-07T23:39:59.953Z</time>
      </trkpt>
      <trkpt lat="48.00511" lon="-2.23686">
        <ele>179.942078</ele>
        <time>2022-02-07T23:40:14.536Z</time>
      </trkpt>
      <trkpt lat="48.00599" lon="-2.23536">
        <ele>175.373495</ele>
        <time>2022-02-07T23:40:33.077Z</time>
      </trkpt>
      <trkpt lat="48.00567" lon="-2.2351">
        <ele>173.015071</ele>
        <time>2022-02-07T23:40:37.864Z</time>
      </trkpt>
      <trkpt lat="48.00556" lon="-2.23402">
        <ele>168.303613</ele>
        <time>2022-02-07T23:40:47.056Z</time>
      </trkpt>
      <trkpt lat="48.00537" lon="-2.23387">
        <ele>166.955194</ele>
        <time>2022-02-07T23:40:51.419Z</time>
      </trkpt>
      <trkpt lat="48.00522" lon="-2.2339">
        <ele>165.950156</ele>
        <time>2022-02-07T23:40:54.887Z</time>
      </trkpt>
      <trkpt lat="48.00487" lon="-2.234">
        <ele>163.628376</ele>
        <time>2022-02-07T23:41:02.474Z</time>
      </trkpt>
      <trkpt lat="48.00449" lon="-2.2338">
        <ele>160.954555</ele>
        <time>2022-02-07T23:41:11.322Z</time>
      </trkpt>
      <trkpt lat="48.00438" lon="-2.23369">
        <ele>160.093371</ele>
        <time>2022-02-07T23:41:13.984Z</time>
      </trkpt>
      <trkpt lat="48.00412" lon="-2.23312">
        <ele>157.041655</ele>
        <time>2022-02-07T23:41:24.288Z</time>
      </trkpt>
      <trkpt lat="48.00388" lon="-2.23294">
        <ele>155.24254</ele>
        <time>2022-02-07T23:41:30.262Z</time>
      </trkpt>
      <trkpt lat="48.00371" lon="-2.23299">
        <ele>154.086026</ele>
        <time>2022-02-07T23:41:34.574Z</time>
      </trkpt>
      <trkpt lat="48.00354" lon="-2.23343">
        <ele>152.443808</ele>
        <time>2022-02-07T23:41:42.233Z</time>
      </trkpt>
      <trkpt lat="48.00349" lon="-2.23345">
        <ele>152.25286</ele>
        <time>2022-02-07T23:41:43.390Z</time>
      </trkpt>
      <trkpt lat="48.00328" lon="-2.23321">
        <ele>151.221592</ele>
        <time>2022-02-07T23:41:49.343Z</time>
      </trkpt>
      <trkpt lat="48.00326" lon="-2.23252">
        <ele>149.419634</ele>
        <time>2022-02-07T23:42:00.785Z</time>
      </trkpt>
      <trkpt lat="48.00322" lon="-2.23241">
        <ele>149.087182</ele>
        <time>2022-02-07T23:42:02.913Z</time>
      </trkpt>
      <trkpt lat="48.00317" lon="-2.23237">
        <ele>148.876626</ele>
        <time>2022-02-07T23:42:04.113Z</time>
      </trkpt>
      <trkpt lat="48.00248" lon="-2.23187">
        <ele>146.261183</ele>
        <time>2022-02-07T23:42:22.900Z</time>
      </trkpt>
      <trkpt lat="48.00237" lon="-2.2317">
        <ele>146.177199</ele>
        <time>2022-02-07T23:42:27.116Z</time>
      </trkpt>
      <trkpt lat="48.00224" lon="-2.23125">
        <ele>146.003598</ele>
        <time>2022-02-07T23:42:36.159Z</time>
      </trkpt>
      <trkpt lat="48.00219" lon="-2.23121">
        <ele>145.971637</ele>
        <time>2022-02-07T23:42:37.925Z</time>
      </trkpt>
      <trkpt lat="48.00219" lon="-2.23121">
        <ele>145.971637</ele>
        <time>2022-02-07T23:42:37.931Z</time>
      </trkpt>
      <trkpt lat="48.00201" lon="-2.23213">
        <ele>145.634432</ele>
        <time>2022-02-07T23:42:49.571Z</time>
      </trkpt>
      <trkpt lat="48.00147" lon="-2.23483">
        <ele>145.731678</ele>
        <time>2022-02-07T23:43:28.507Z</time>
      </trkpt>
      <trkpt lat="48.00113" lon="-2.23441">
        <ele>145.810939</ele>
        <time>2022-02-07T23:43:36.194Z</time>
      </trkpt>
      <trkpt lat="48.00064" lon="-2.23404">
        <ele>145.107716</ele>
        <time>2022-02-07T23:43:44.979Z</time>
      </trkpt>
      <trkpt lat="48.00038" lon="-2.23395">
        <ele>144.75526</ele>
        <time>2022-02-07T23:43:49.275Z</time>
      </trkpt>
      <trkpt lat="48.00021" lon="-2.2339">
        <ele>144.53654</ele>
        <time>2022-02-07T23:43:51.866Z</time>
      </trkpt>
      <trkpt lat="47.99918" lon="-2.23332">
        <ele>143.423204</ele>
        <time>2022-02-07T23:44:09.455Z</time>
      </trkpt>
      <trkpt lat="47.99908" lon="-2.23334">
        <ele>143.39618</ele>
        <time>2022-02-07T23:44:12.526Z</time>
      </trkpt>
      <trkpt lat="47.99895" lon="-2.23316">
        <ele>143.348846</ele>
        <time>2022-02-07T23:44:17.569Z</time>
      </trkpt>
      <trkpt lat="47.99885" lon="-2.23267">
        <ele>143.255159</ele>
        <time>2022-02-07T23:44:27.702Z</time>
      </trkpt>
      <trkpt lat="47.99871" lon="-2.2325">
        <ele>143.205534</ele>
        <time>2022-02-07T23:44:33.038Z</time>
      </trkpt>
      <trkpt lat="47.99866" lon="-2.23246">
        <ele>143.191087</ele>
        <time>2022-02-07T23:44:35.021Z</time>
      </trkpt>
      <trkpt lat="47.99869" lon="-2.23239">
        <ele>143.176082</ele>
        <time>2022-02-07T23:44:36.613Z</time>
      </trkpt>
      <trkpt lat="47.99851" lon="-2.23222">
        <ele>143.119038</ele>
        <time>2022-02-07T23:44:42.787Z</time>
      </trkpt>
      <trkpt lat="47.99822" lon="-2.23156">
        <ele>143.081511</ele>
        <time>2022-02-07T23:44:59.851Z</time>
      </trkpt>
      <trkpt lat="47.998" lon="-2.23124">
        <ele>143.185497</ele>
        <time>2022-02-07T23:45:09.493Z</time>
      </trkpt>
      <trkpt lat="47.99756" lon="-2.23097">
        <ele>143.347152</ele>
        <time>2022-02-07T23:45:24.312Z</time>
      </trkpt>
      <trkpt lat="47.99751" lon="-2.23069">
        <ele>143.413439</ele>
        <time>2022-02-07T23:45:30.356Z</time>
      </trkpt>
      <trkpt lat="47.99743" lon="-2.23062">
        <ele>143.445603</ele>
        <time>2022-02-07T23:45:33.297Z</time>
      </trkpt>
      <trkpt lat="47.99719" lon="-2.23058">
        <ele>143.527645</ele>
        <time>2022-02-07T23:45:40.666Z</time>
      </trkpt>
      <trkpt lat="47.99711" lon="-2.22994">
        <ele>143.603241</ele>
        <time>2022-02-07T23:45:53.745Z</time>
      </trkpt>
      <trkpt lat="47.99685" lon="-2.22948">
        <ele>143.480902</ele>
        <time>2022-02-07T23:46:05.652Z</time>
      </trkpt>
      <trkpt lat="47.99655" lon="-2.22951">
        <ele>143.38563</ele>
        <time>2022-02-07T23:46:14.859Z</time>
      </trkpt>
      <trkpt lat="47.99613" lon="-2.22934">
        <ele>143.252571</ele>
        <time>2022-02-07T23:46:27.088Z</time>
      </trkpt>
      <trkpt lat="47.99588" lon="-2.22911">
        <ele>143.161992</ele>
        <time>2022-02-07T23:46:35.438Z</time>
      </trkpt>
      <trkpt lat="47.99556" lon="-2.22906">
        <ele>143.056147</ele>
        <time>2022-02-07T23:46:44.244Z</time>
      </trkpt>
      <trkpt lat="47.99531" lon="-2.22885">
        <ele>142.924274</ele>
        <time>2022-02-07T23:46:52.449Z</time>
      </trkpt>
      <trkpt lat="47.99518" lon="-2.2284">
        <ele>142.774407</ele>
        <time>2022-02-07T23:47:01.876Z</time>
      </trkpt>
      <trkpt lat="47.99519" lon="-2.22818">
        <ele>142.70723</ele>
        <time>2022-02-07T23:47:06.322Z</time>
      </trkpt>
      <trkpt lat="47.99513" lon="-2.2281">
        <ele>142.672335</ele>
        <time>2022-02-07T23:47:08.262Z</time>
      </trkpt>
      <trkpt lat="47.99511" lon="-2.22784">
        <ele>142.593651</ele>
        <time>2022-02-07T23:47:13.836Z</time>
      </trkpt>
      <trkpt lat="47.99514" lon="-2.22766">
        <ele>142.537638</ele>
        <time>2022-02-07T23:47:17.485Z</time>
      </trkpt>
      <trkpt lat="47.99501" lon="-2.22717">
        <ele>142.375468</ele>
        <time>2022-02-07T23:47:27.882Z</time>
      </trkpt>
      <trkpt lat="47.9949" lon="-2.22709">
        <ele>142.319352</ele>
        <time>2022-02-07T23:47:31.221Z</time>
      </trkpt>
      <trkpt lat="47.99473" lon="-2.22662">
        <ele>142.132637</ele>
        <time>2022-02-07T23:47:41.361Z</time>
      </trkpt>
      <trkpt lat="47.99461" lon="-2.22648">
        <ele>142.049634</ele>
        <time>2022-02-07T23:47:45.810Z</time>
      </trkpt>
      <trkpt lat="47.9946" lon="-2.22647">
        <ele>142.043904</ele>
        <time>2022-02-07T23:47:46.123Z</time>
      </trkpt>
      <trkpt lat="47.99455" lon="-2.22575">
        <ele>141.778761</ele>
        <time>2022-02-07T23:47:59.703Z</time>
      </trkpt>
      <trkpt lat="47.9947" lon="-2.22549">
        <ele>141.651934</ele>
        <time>2022-02-07T23:48:06.414Z</time>
      </trkpt>
      <trkpt lat="47.99485" lon="-2.22538">
        <ele>141.56014</ele>
        <time>2022-02-07T23:48:11.205Z</time>
      </trkpt>
      <trkpt lat="47.9954" lon="-2.22547">
        <ele>141.262552</ele>
        <time>2022-02-07T23:48:26.874Z</time>
      </trkpt>
      <trkpt lat="47.99577" lon="-2.22527">
        <ele>141.105388</ele>
        <time>2022-02-07T23:48:37.871Z</time>
      </trkpt>
      <trkpt lat="47.99594" lon="-2.22496">
        <ele>140.997539</ele>
        <time>2022-02-07T23:48:45.402Z</time>
      </trkpt>
      <trkpt lat="47.99608" lon="-2.22484">
        <ele>140.933829</ele>
        <time>2022-02-07T23:48:49.820Z</time>
      </trkpt>
      <trkpt lat="47.99615" lon="-2.22439">
        <ele>140.808339</ele>
        <time>2022-02-07T23:48:58.732Z</time>
      </trkpt>
      <trkpt lat="47.99613" lon="-2.22421">
        <ele>140.760866</ele>
        <time>2022-02-07T23:49:02.199Z</time>
      </trkpt>
      <trkpt lat="47.99575" lon="-2.22353">
        <ele>140.493248</ele>
        <time>2022-02-07T23:49:19.696Z</time>
      </trkpt>
      <trkpt lat="47.99565" lon="-2.22346">
        <ele>140.405478</ele>
        <time>2022-02-07T23:49:23.237Z</time>
      </trkpt>
      <trkpt lat="47.99541" lon="-2.22306">
        <ele>140.129124</ele>
        <time>2022-02-07T23:49:33.883Z</time>
      </trkpt>
      <trkpt lat="47.99536" lon="-2.2229">
        <ele>140.038456</ele>
        <time>2022-02-07T23:49:37.345Z</time>
      </trkpt>
      <trkpt lat="47.99535" lon="-2.22235">
        <ele>139.756562</ele>
        <time>2022-02-07T23:49:47.743Z</time>
      </trkpt>
      <trkpt lat="47.99512" lon="-2.22138">
        <ele>139.224043</ele>
        <time>2022-02-07T23:50:06.398Z</time>
      </trkpt>
      <trkpt lat="47.99507" lon="-2.22077">
        <ele>138.7697</ele>
        <time>2022-02-07T23:50:17.166Z</time>
      </trkpt>
      <trkpt lat="47.9952" lon="-2.21957">
        <ele>137.814608</ele>
        <time>2022-02-07T23:50:38.893Z</time>
      </trkpt>
      <trkpt lat="47.9953" lon="-2.21924">
        <ele>137.534848</ele>
        <time>2022-02-07T23:50:45.459Z</time>
      </trkpt>
      <trkpt lat="47.99526" lon="-2.219">
        <ele>137.341216</ele>
        <time>2022-02-07T23:50:49.972Z</time>
      </trkpt>
      <trkpt lat="47.99511" lon="-2.2187">
        <ele>137.082655</ele>
        <time>2022-02-07T23:50:57.003Z</time>
      </trkpt>
      <trkpt lat="47.99318" lon="-2.21731">
        <ele>138.712464</ele>
        <time>2022-02-07T23:52:08.968Z</time>
      </trkpt>
      <trkpt lat="47.99295" lon="-2.21687">
        <ele>139.028306</ele>
        <time>2022-02-07T23:52:21.594Z</time>
      </trkpt>
      <trkpt lat="47.99287" lon="-2.21651">
        <ele>139.241662</ele>
        <time>2022-02-07T23:52:29.868Z</time>
      </trkpt>
      <trkpt lat="47.99283" lon="-2.21599">
        <ele>139.536728</ele>
        <time>2022-02-07T23:52:41.818Z</time>
      </trkpt>
      <trkpt lat="47.99286" lon="-2.21536">
        <ele>139.890253</ele>
        <time>2022-02-07T23:52:55.573Z</time>
      </trkpt>
      <trkpt lat="47.99296" lon="-2.21517">
        <ele>139.939279</ele>
        <time>2022-02-07T23:53:00.379Z</time>
      </trkpt>
      <trkpt lat="47.99306" lon="-2.21449">
        <ele>140.002025</ele>
        <time>2022-02-07T23:53:15.692Z</time>
      </trkpt>
      <trkpt lat="47.99319" lon="-2.21431">
        <ele>140.02534</ele>
        <time>2022-02-07T23:53:20.775Z</time>
      </trkpt>
      <trkpt lat="47.99326" lon="-2.21429">
        <ele>140.034618</ele>
        <time>2022-02-07T23:53:22.737Z</time>
      </trkpt>
      <trkpt lat="47.99326" lon="-2.21413">
        <ele>140.04889</ele>
        <time>2022-02-07T23:53:26.530Z</time>
      </trkpt>
      <trkpt lat="47.99326" lon="-2.21413">
        <ele>140.04889</ele>
        <time>2022-02-07T23:53:26.570Z</time>
      </trkpt>
      <trkpt lat="47.99345" lon="-2.21376">
        <ele>140.091169</ele>
        <time>2022-02-07T23:53:35.839Z</time>
      </trkpt>
      <trkpt lat="47.99387" lon="-2.21353">
        <ele>140.151156</ele>
        <time>2022-02-07T23:53:49.196Z</time>
      </trkpt>
      <trkpt lat="47.99394" lon="-2.21334">
        <ele>140.122472</ele>
        <time>2022-02-07T23:53:53.222Z</time>
      </trkpt>
      <trkpt lat="47.99428" lon="-2.21294">
        <ele>139.777371</ele>
        <time>2022-02-07T23:54:05.064Z</time>
      </trkpt>
      <trkpt lat="47.99442" lon="-2.21261">
        <ele>139.564617</ele>
        <time>2022-02-07T23:54:12.234Z</time>
      </trkpt>
      <trkpt lat="47.99462" lon="-2.2113">
        <ele>138.850518</ele>
        <time>2022-02-07T23:54:36.837Z</time>
      </trkpt>
      <trkpt lat="47.99454" lon="-2.21055">
        <ele>138.948643</ele>
        <time>2022-02-07T23:54:51.386Z</time>
      </trkpt>
      <trkpt lat="47.99441" lon="-2.20994">
        <ele>139.224336</ele>
        <time>2022-02-07T23:55:05.476Z</time>
      </trkpt>
      <trkpt lat="47.99391" lon="-2.20914">
        <ele>139.690258</ele>
        <time>2022-02-07T23:55:30.277Z</time>
      </trkpt>
      <trkpt lat="47.99369" lon="-2.20803">
        <ele>139.587358</ele>
        <time>2022-02-07T23:55:57.626Z</time>
      </trkpt>
      <trkpt lat="47.99364" lon="-2.20753">
        <ele>139.387475</ele>
        <time>2022-02-07T23:56:07.842Z</time>
      </trkpt>
      <trkpt lat="47.99368" lon="-2.20685">
        <ele>139.116327</ele>
        <time>2022-02-07T23:56:20.836Z</time>
      </trkpt>
      <trkpt lat="47.9939" lon="-2.20543">
        <ele>137.554894</ele>
        <time>2022-02-07T23:56:45.302Z</time>
      </trkpt>
      <trkpt lat="47.99371" lon="-2.20444">
        <ele>135.674354</ele>
        <time>2022-02-07T23:57:02.274Z</time>
      </trkpt>
      <trkpt lat="47.99325" lon="-2.20353">
        <ele>133.822135</ele>
        <time>2022-02-07T23:57:21.397Z</time>
      </trkpt>
      <trkpt lat="47.99289" lon="-2.20342">
        <ele>133.512903</ele>
        <time>2022-02-07T23:57:31.228Z</time>
      </trkpt>
      <trkpt lat="47.99254" lon="-2.20307">
        <ele>133.164871</ele>
        <time>2022-02-07T23:57:42.691Z</time>
      </trkpt>
      <trkpt lat="47.9924" lon="-2.20277">
        <ele>132.96187</ele>
        <time>2022-02-07T23:57:49.595Z</time>
      </trkpt>
      <trkpt lat="47.99203" lon="-2.20179">
        <ele>132.314939</ele>
        <time>2022-02-07T23:58:13.799Z</time>
      </trkpt>
      <trkpt lat="47.99198" lon="-2.20153">
        <ele>132.137868</ele>
        <time>2022-02-07T23:58:18.868Z</time>
      </trkpt>
      <trkpt lat="47.99166" lon="-2.20085">
        <ele>131.585601</ele>
        <time>2022-02-07T23:58:34.145Z</time>
      </trkpt>
      <trkpt lat="47.99155" lon="-2.20035">
        <ele>131.235683</ele>
        <time>2022-02-07T23:58:43.783Z</time>
      </trkpt>
      <trkpt lat="47.99159" lon="-2.19993">
        <ele>130.954353</ele>
        <time>2022-02-07T23:58:51.424Z</time>
      </trkpt>
      <trkpt lat="47.9917" lon="-2.19986">
        <ele>130.840571</ele>
        <time>2022-02-07T23:58:54.559Z</time>
      </trkpt>
      <trkpt lat="47.992" lon="-2.19928">
        <ele>130.499826</ele>
        <time>2022-02-07T23:59:07.487Z</time>
      </trkpt>
      <trkpt lat="47.99196" lon="-2.19897">
        <ele>130.398428</ele>
        <time>2022-02-07T23:59:13.291Z</time>
      </trkpt>
      <trkpt lat="47.9917" lon="-2.19826">
        <ele>130.13654</ele>
        <time>2022-02-07T23:59:28.447Z</time>
      </trkpt>
      <trkpt lat="47.99162" lon="-2.19816">
        <ele>130.085981</ele>
        <time>2022-02-07T23:59:31.762Z</time>
      </trkpt>
      <trkpt lat="47.9915" lon="-2.19812">
        <ele>130.026432</ele>
        <time>2022-02-07T23:59:35.240Z</time>
      </trkpt>
      <trkpt lat="47.99126" lon="-2.19819">
        <ele>129.908811</ele>
        <time>2022-02-07T23:59:42.695Z</time>
      </trkpt>
      <trkpt lat="47.99076" lon="-2.19819">
        <ele>129.779606</ele>
        <time>2022-02-07T23:59:58.955Z</time>
      </trkpt>
      <trkpt lat="47.9906" lon="-2.19805">
        <ele>129.787271</ele>
        <time>2022-02-08T00:00:05.760Z</time>
      </trkpt>
      <trkpt lat="47.99049" lon="-2.19768">
        <ele>129.798212</ele>
        <time>2022-02-08T00:00:14.539Z</time>
      </trkpt>
      <trkpt lat="47.99049" lon="-2.19759">
        <ele>129.800621</ele>
        <time>2022-02-08T00:00:16.675Z</time>
      </trkpt>
      <trkpt lat="47.9905" lon="-2.19682">
        <ele>129.821543</ele>
        <time>2022-02-08T00:00:31.866Z</time>
      </trkpt>
      <trkpt lat="47.99078" lon="-2.19566">
        <ele>129.306667</ele>
        <time>2022-02-08T00:00:55.163Z</time>
      </trkpt>
      <trkpt lat="47.99078" lon="-2.19531">
        <ele>128.84957</ele>
        <time>2022-02-08T00:01:01.279Z</time>
      </trkpt>
      <trkpt lat="47.99062" lon="-2.19476">
        <ele>128.06348</ele>
        <time>2022-02-08T00:01:11.577Z</time>
      </trkpt>
      <trkpt lat="47.99025" lon="-2.19425">
        <ele>127.071941</ele>
        <time>2022-02-08T00:01:24.484Z</time>
      </trkpt>
      <trkpt lat="47.99004" lon="-2.19354">
        <ele>126.069179</ele>
        <time>2022-02-08T00:01:37.622Z</time>
      </trkpt>
      <trkpt lat="47.99002" lon="-2.19336">
        <ele>125.856673</ele>
        <time>2022-02-08T00:01:40.591Z</time>
      </trkpt>
      <trkpt lat="47.99007" lon="-2.19313">
        <ele>125.555601</ele>
        <time>2022-02-08T00:01:44.879Z</time>
      </trkpt>
      <trkpt lat="47.9902" lon="-2.19289">
        <ele>125.179765</ele>
        <time>2022-02-08T00:01:50.232Z</time>
      </trkpt>
      <trkpt lat="47.99063" lon="-2.19237">
        <ele>124.181662</ele>
        <time>2022-02-08T00:02:04.836Z</time>
      </trkpt>
      <trkpt lat="47.99069" lon="-2.19204">
        <ele>123.773869</ele>
        <time>2022-02-08T00:02:10.798Z</time>
      </trkpt>
      <trkpt lat="47.99056" lon="-2.19178">
        <ele>123.381513</ele>
        <time>2022-02-08T00:02:16.668Z</time>
      </trkpt>
      <trkpt lat="47.98999" lon="-2.19147">
        <ele>122.258139</ele>
        <time>2022-02-08T00:02:33.077Z</time>
      </trkpt>
      <trkpt lat="47.98945" lon="-2.19095">
        <ele>121.035488</ele>
        <time>2022-02-08T00:02:49.750Z</time>
      </trkpt>
      <trkpt lat="47.98919" lon="-2.19002">
        <ele>119.758931</ele>
        <time>2022-02-08T00:03:07.447Z</time>
      </trkpt>
      <trkpt lat="47.98899" lon="-2.18977">
        <ele>119.187783</ele>
        <time>2022-02-08T00:03:14.008Z</time>
      </trkpt>
      <trkpt lat="47.98895" lon="-2.18962">
        <ele>118.93683</ele>
        <time>2022-02-08T00:03:16.976Z</time>
      </trkpt>
      <trkpt lat="47.98884" lon="-2.18858">
        <ele>117.307083</ele>
        <time>2022-02-08T00:03:35.184Z</time>
      </trkpt>
      <trkpt lat="47.98857" lon="-2.18776">
        <ele>115.892463</ele>
        <time>2022-02-08T00:03:50.387Z</time>
      </trkpt>
      <trkpt lat="47.98838" lon="-2.18773">
        <ele>115.463234</ele>
        <time>2022-02-08T00:03:55.294Z</time>
      </trkpt>
      <trkpt lat="47.98732" lon="-2.18831">
        <ele>113.501364</ele>
        <time>2022-02-08T00:04:25.124Z</time>
      </trkpt>
      <trkpt lat="47.98692" lon="-2.18835">
        <ele>112.809391</ele>
        <time>2022-02-08T00:04:35.779Z</time>
      </trkpt>
      <trkpt lat="47.98673" lon="-2.18827">
        <ele>112.4661</ele>
        <time>2022-02-08T00:04:41.099Z</time>
      </trkpt>
      <trkpt lat="47.98653" lon="-2.1881">
        <ele>112.138595</ele>
        <time>2022-02-08T00:04:47.444Z</time>
      </trkpt>
      <trkpt lat="47.98603" lon="-2.18698">
        <ele>110.993715</ele>
        <time>2022-02-08T00:05:11.609Z</time>
      </trkpt>
      <trkpt lat="47.9856" lon="-2.18658">
        <ele>110.33378</ele>
        <time>2022-02-08T00:05:25.747Z</time>
      </trkpt>
      <trkpt lat="47.98549" lon="-2.18636">
        <ele>110.100698</ele>
        <time>2022-02-08T00:05:30.722Z</time>
      </trkpt>
      <trkpt lat="47.9854" lon="-2.18599">
        <ele>109.932972</ele>
        <time>2022-02-08T00:05:37.872Z</time>
      </trkpt>
      <trkpt lat="47.98529" lon="-2.18595">
        <ele>109.863765</ele>
        <time>2022-02-08T00:05:41.129Z</time>
      </trkpt>
      <trkpt lat="47.98511" lon="-2.186">
        <ele>109.756826</ele>
        <time>2022-02-08T00:05:46.164Z</time>
      </trkpt>
      <trkpt lat="47.98471" lon="-2.18623">
        <ele>109.509125</ele>
        <time>2022-02-08T00:05:58.076Z</time>
      </trkpt>
      <trkpt lat="47.98426" lon="-2.18662">
        <ele>109.204187</ele>
        <time>2022-02-08T00:06:13.247Z</time>
      </trkpt>
      <trkpt lat="47.98393" lon="-2.18704">
        <ele>109.05934</ele>
        <time>2022-02-08T00:06:26.302Z</time>
      </trkpt>
      <trkpt lat="47.98348" lon="-2.18729">
        <ele>109.180685</ele>
        <time>2022-02-08T00:06:40.936Z</time>
      </trkpt>
      <trkpt lat="47.98297" lon="-2.18722">
        <ele>109.309451</ele>
        <time>2022-02-08T00:06:56.300Z</time>
      </trkpt>
      <trkpt lat="47.9826" lon="-2.18701">
        <ele>109.407922</ele>
        <time>2022-02-08T00:07:07.836Z</time>
      </trkpt>
      <trkpt lat="47.98253" lon="-2.18688">
        <ele>109.438086</ele>
        <time>2022-02-08T00:07:11.368Z</time>
      </trkpt>
      <trkpt lat="47.98246" lon="-2.18659">
        <ele>109.531492</ele>
        <time>2022-02-08T00:07:18.112Z</time>
      </trkpt>
      <trkpt lat="47.98215" lon="-2.18616">
        <ele>110.088682</ele>
        <time>2022-02-08T00:07:32.387Z</time>
      </trkpt>
      <trkpt lat="47.98177" lon="-2.18536">
        <ele>110.959413</ele>
        <time>2022-02-08T00:07:56.864Z</time>
      </trkpt>
      <trkpt lat="47.98175" lon="-2.18512">
        <ele>111.179422</ele>
        <time>2022-02-08T00:08:02.788Z</time>
      </trkpt>
      <trkpt lat="47.98155" lon="-2.1843">
        <ele>111.820181</ele>
        <time>2022-02-08T00:08:23.324Z</time>
      </trkpt>
      <trkpt lat="47.98134" lon="-2.18403">
        <ele>111.562506</ele>
        <time>2022-02-08T00:08:32.997Z</time>
      </trkpt>
      <trkpt lat="47.98125" lon="-2.1837">
        <ele>111.336669</ele>
        <time>2022-02-08T00:08:40.798Z</time>
      </trkpt>
      <trkpt lat="47.98118" lon="-2.18201">
        <ele>110.272329</ele>
        <time>2022-02-08T00:09:11.519Z</time>
      </trkpt>
      <trkpt lat="47.98116" lon="-2.18156">
        <ele>109.471643</ele>
        <time>2022-02-08T00:09:18.609Z</time>
      </trkpt>
      <trkpt lat="47.98099" lon="-2.18043">
        <ele>106.880197</ele>
        <time>2022-02-08T00:09:36.946Z</time>
      </trkpt>
      <trkpt lat="47.98078" lon="-2.17949">
        <ele>104.668223</ele>
        <time>2022-02-08T00:09:49.169Z</time>
      </trkpt>
      <trkpt lat="47.98028" lon="-2.17943">
        <ele>104.281606</ele>
        <time>2022-02-08T00:09:56.548Z</time>
      </trkpt>
      <trkpt lat="47.98072" lon="-2.17934">
        <ele>104.41202</ele>
        <time>2022-02-08T00:10:09.070Z</time>
      </trkpt>
      <trkpt lat="47.98067" lon="-2.17917">
        <ele>104.448532</ele>
        <time>2022-02-08T00:10:12.675Z</time>
      </trkpt>
      <trkpt lat="47.97977" lon="-2.17898">
        <ele>104.737672</ele>
        <time>2022-02-08T00:10:47.743Z</time>
      </trkpt>
      <trkpt lat="47.97938" lon="-2.17883">
        <ele>105.076552</ele>
        <time>2022-02-08T00:11:03.135Z</time>
      </trkpt>
      <trkpt lat="47.9792" lon="-2.17854">
        <ele>105.297912</ele>
        <time>2022-02-08T00:11:13.175Z</time>
      </trkpt>
      <trkpt lat="47.97913" lon="-2.17807">
        <ele>105.565769</ele>
        <time>2022-02-08T00:11:24.542Z</time>
      </trkpt>
      <trkpt lat="47.97915" lon="-2.17794">
        <ele>105.642715</ele>
        <time>2022-02-08T00:11:27.211Z</time>
      </trkpt>
      <trkpt lat="47.97952" lon="-2.17708">
        <ele>106.216498</ele>
        <time>2022-02-08T00:11:46.559Z</time>
      </trkpt>
      <trkpt lat="47.97995" lon="-2.17684">
        <ele>105.874201</ele>
        <time>2022-02-08T00:11:59.300Z</time>
      </trkpt>
      <trkpt lat="47.98006" lon="-2.1767">
        <ele>105.763591</ele>
        <time>2022-02-08T00:12:03.758Z</time>
      </trkpt>
      <trkpt lat="47.98013" lon="-2.17635">
        <ele>105.577369</ele>
        <time>2022-02-08T00:12:10.393Z</time>
      </trkpt>
      <trkpt lat="47.98011" lon="-2.17539">
        <ele>105.091276</ele>
        <time>2022-02-08T00:12:28.281Z</time>
      </trkpt>
      <trkpt lat="47.9799" lon="-2.17511">
        <ele>104.873915</ele>
        <time>2022-02-08T00:12:36.372Z</time>
      </trkpt>
      <trkpt lat="47.97979" lon="-2.17489">
        <ele>104.784222</ele>
        <time>2022-02-08T00:12:41.313Z</time>
      </trkpt>
      <trkpt lat="47.97946" lon="-2.1739">
        <ele>104.452788</ele>
        <time>2022-02-08T00:13:02.419Z</time>
      </trkpt>
      <trkpt lat="47.9794" lon="-2.17324">
        <ele>104.250677</ele>
        <time>2022-02-08T00:13:16.670Z</time>
      </trkpt>
      <trkpt lat="47.97965" lon="-2.17266">
        <ele>104.044268</ele>
        <time>2022-02-08T00:13:29.659Z</time>
      </trkpt>
      <trkpt lat="47.98037" lon="-2.1718">
        <ele>103.52925</ele>
        <time>2022-02-08T00:13:54.972Z</time>
      </trkpt>
      <trkpt lat="47.98055" lon="-2.17159">
        <ele>103.400948</ele>
        <time>2022-02-08T00:14:01.266Z</time>
      </trkpt>
      <trkpt lat="47.98074" lon="-2.17116">
        <ele>103.207356</ele>
        <time>2022-02-08T00:14:11.138Z</time>
      </trkpt>
      <trkpt lat="47.98079" lon="-2.17059">
        <ele>103.089062</ele>
        <time>2022-02-08T00:14:22.580Z</time>
      </trkpt>
      <trkpt lat="47.98051" lon="-2.16866">
        <ele>103.751776</ele>
        <time>2022-02-08T00:15:06.965Z</time>
      </trkpt>
      <trkpt lat="47.98052" lon="-2.16828">
        <ele>103.879056</ele>
        <time>2022-02-08T00:15:15.753Z</time>
      </trkpt>
      <trkpt lat="47.98064" lon="-2.16793">
        <ele>103.691214</ele>
        <time>2022-02-08T00:15:23.993Z</time>
      </trkpt>
      <trkpt lat="47.98157" lon="-2.16655">
        <ele>101.129166</ele>
        <time>2022-02-08T00:15:58.177Z</time>
      </trkpt>
      <trkpt lat="47.98206" lon="-2.16522">
        <ele>98.479608</ele>
        <time>2022-02-08T00:16:22.572Z</time>
      </trkpt>
      <trkpt lat="47.98226" lon="-2.16456">
        <ele>97.038726</ele>
        <time>2022-02-08T00:16:34.585Z</time>
      </trkpt>
      <trkpt lat="47.98241" lon="-2.16428">
        <ele>96.330684</ele>
        <time>2022-02-08T00:16:40.545Z</time>
      </trkpt>
      <trkpt lat="47.98262" lon="-2.16325">
        <ele>94.649979</ele>
        <time>2022-02-08T00:16:59.146Z</time>
      </trkpt>
      <trkpt lat="47.98248" lon="-2.16278">
        <ele>94.134991</ele>
        <time>2022-02-08T00:17:08.455Z</time>
      </trkpt>
      <trkpt lat="47.98236" lon="-2.162">
        <ele>93.339142</ele>
        <time>2022-02-08T00:17:22.788Z</time>
      </trkpt>
      <trkpt lat="47.9822" lon="-2.16133">
        <ele>92.635282</ele>
        <time>2022-02-08T00:17:35.355Z</time>
      </trkpt>
      <trkpt lat="47.98177" lon="-2.16052">
        <ele>92.629506</ele>
        <time>2022-02-08T00:17:55.683Z</time>
      </trkpt>
      <trkpt lat="47.98164" lon="-2.1604">
        <ele>92.681873</ele>
        <time>2022-02-08T00:18:00.337Z</time>
      </trkpt>
      <trkpt lat="47.98136" lon="-2.15984">
        <ele>92.845781</ele>
        <time>2022-02-08T00:18:14.741Z</time>
      </trkpt>
      <trkpt lat="47.98108" lon="-2.15948">
        <ele>92.974805</ele>
        <time>2022-02-08T00:18:27.047Z</time>
      </trkpt>
      <trkpt lat="47.98107" lon="-2.15924">
        <ele>93.030302</ele>
        <time>2022-02-08T00:18:33.441Z</time>
      </trkpt>
      <trkpt lat="47.98106" lon="-2.15885">
        <ele>93.15913</ele>
        <time>2022-02-08T00:18:42.098Z</time>
      </trkpt>
      <trkpt lat="47.98114" lon="-2.15857">
        <ele>93.279087</ele>
        <time>2022-02-08T00:18:49.606Z</time>
      </trkpt>
      <trkpt lat="47.98188" lon="-2.15737">
        <ele>93.912823</ele>
        <time>2022-02-08T00:19:26.985Z</time>
      </trkpt>
      <trkpt lat="47.98225" lon="-2.15723">
        <ele>94.032731</ele>
        <time>2022-02-08T00:19:37.204Z</time>
      </trkpt>
      <trkpt lat="47.9824" lon="-2.15706">
        <ele>93.735037</ele>
        <time>2022-02-08T00:19:42.354Z</time>
      </trkpt>
      <trkpt lat="47.98289" lon="-2.15558">
        <ele>92.05381</ele>
        <time>2022-02-08T00:20:11.054Z</time>
      </trkpt>
      <trkpt lat="47.98305" lon="-2.15402">
        <ele>90.947369</ele>
        <time>2022-02-08T00:20:39.732Z</time>
      </trkpt>
      <trkpt lat="47.98329" lon="-2.15307">
        <ele>90.480362</ele>
        <time>2022-02-08T00:20:59.426Z</time>
      </trkpt>
      <trkpt lat="47.98362" lon="-2.15087">
        <ele>89.377171</ele>
        <time>2022-02-08T00:21:43.166Z</time>
      </trkpt>
      <trkpt lat="47.98363" lon="-2.1499">
        <ele>88.886795</ele>
        <time>2022-02-08T00:22:00.421Z</time>
      </trkpt>
      <trkpt lat="47.98357" lon="-2.14952">
        <ele>88.631357</ele>
        <time>2022-02-08T00:22:07.490Z</time>
      </trkpt>
      <trkpt lat="47.9835" lon="-2.14907">
        <ele>88.230542</ele>
        <time>2022-02-08T00:22:16.449Z</time>
      </trkpt>
      <trkpt lat="47.98338" lon="-2.14859">
        <ele>87.782279</ele>
        <time>2022-02-08T00:22:26.080Z</time>
      </trkpt>
      <trkpt lat="47.98316" lon="-2.14797">
        <ele>87.179822</ele>
        <time>2022-02-08T00:22:38.716Z</time>
      </trkpt>
      <trkpt lat="47.98294" lon="-2.14766">
        <ele>86.785608</ele>
        <time>2022-02-08T00:22:46.748Z</time>
      </trkpt>
      <trkpt lat="47.98259" lon="-2.14766">
        <ele>86.17197</ele>
        <time>2022-02-08T00:22:56.151Z</time>
      </trkpt>
      <trkpt lat="47.98307" lon="-2.14653">
        <ele>83.471394</ele>
        <time>2022-02-08T00:23:19.422Z</time>
      </trkpt>
      <trkpt lat="47.98318" lon="-2.14615">
        <ele>82.657963</ele>
        <time>2022-02-08T00:23:26.097Z</time>
      </trkpt>
      <trkpt lat="47.98322" lon="-2.14588">
        <ele>82.103696</ele>
        <time>2022-02-08T00:23:30.534Z</time>
      </trkpt>
      <trkpt lat="47.9832" lon="-2.14545">
        <ele>81.232074</ele>
        <time>2022-02-08T00:23:37.223Z</time>
      </trkpt>
      <trkpt lat="47.98306" lon="-2.14501">
        <ele>79.978858</ele>
        <time>2022-02-08T00:23:44.751Z</time>
      </trkpt>
      <trkpt lat="47.98297" lon="-2.14488">
        <ele>79.455572</ele>
        <time>2022-02-08T00:23:46.522Z</time>
      </trkpt>
      <trkpt lat="47.98223" lon="-2.14373">
        <ele>75.124616</ele>
        <time>2022-02-08T00:24:01.100Z</time>
      </trkpt>
      <trkpt lat="47.9819" lon="-2.14344">
        <ele>73.632909</ele>
        <time>2022-02-08T00:24:06.409Z</time>
      </trkpt>
      <trkpt lat="47.98216" lon="-2.14283">
        <ele>72.663799</ele>
        <time>2022-02-08T00:24:13.084Z</time>
      </trkpt>
      <trkpt lat="47.98219" lon="-2.14274">
        <ele>72.529577</ele>
        <time>2022-02-08T00:24:14.011Z</time>
      </trkpt>
      <trkpt lat="47.98224" lon="-2.14263">
        <ele>72.358387</ele>
        <time>2022-02-08T00:24:15.200Z</time>
      </trkpt>
      <trkpt lat="47.98265" lon="-2.14163">
        <ele>70.770393</ele>
        <time>2022-02-08T00:24:27.337Z</time>
      </trkpt>
      <trkpt lat="47.98346" lon="-2.13965">
        <ele>69.499703</ele>
        <time>2022-02-08T00:24:52.639Z</time>
      </trkpt>
      <trkpt lat="47.98352" lon="-2.13953">
        <ele>69.452364</ele>
        <time>2022-02-08T00:24:54.457Z</time>
      </trkpt>
      <trkpt lat="47.98376" lon="-2.1391">
        <ele>69.268079</ele>
        <time>2022-02-08T00:25:01.600Z</time>
      </trkpt>
      <trkpt lat="47.98352" lon="-2.13904">
        <ele>69.185868</ele>
        <time>2022-02-08T00:25:06.278Z</time>
      </trkpt>
      <trkpt lat="47.98226" lon="-2.13901">
        <ele>68.904755</ele>
        <time>2022-02-08T00:25:29.017Z</time>
      </trkpt>
      <trkpt lat="47.98141" lon="-2.13899">
        <ele>68.84473</ele>
        <time>2022-02-08T00:25:43.933Z</time>
      </trkpt>
      <trkpt lat="47.98064" lon="-2.13833">
        <ele>68.903439</ele>
        <time>2022-02-08T00:26:00.197Z</time>
      </trkpt>
      <trkpt lat="47.98106" lon="-2.13685">
        <ele>71.265899</ele>
        <time>2022-02-08T00:26:24.554Z</time>
      </trkpt>
      <trkpt lat="47.98105" lon="-2.13671">
        <ele>71.622176</ele>
        <time>2022-02-08T00:26:27.163Z</time>
      </trkpt>
      <trkpt lat="47.98035" lon="-2.13618">
        <ele>74.604139</ele>
        <time>2022-02-08T00:26:53.889Z</time>
      </trkpt>
      <trkpt lat="47.9817" lon="-2.1318">
        <ele>104.242305</ele>
        <time>2022-02-08T00:30:32.008Z</time>
      </trkpt>
      <trkpt lat="47.98173" lon="-2.13164">
        <ele>105.457444</ele>
        <time>2022-02-08T00:30:42.640Z</time>
      </trkpt>
      <trkpt lat="47.9818" lon="-2.1313">
        <ele>108.004055</ele>
        <time>2022-02-08T00:31:00.164Z</time>
      </trkpt>
      <trkpt lat="47.98192" lon="-2.13062">
        <ele>112.97721</ele>
        <time>2022-02-08T00:31:39.891Z</time>
      </trkpt>
      <trkpt lat="47.98235" lon="-2.12978">
        <ele>119.811807</ele>
        <time>2022-02-08T00:32:33.978Z</time>
      </trkpt>
      <trkpt lat="47.98252" lon="-2.12929">
        <ele>123.41586</ele>
        <time>2022-02-08T00:32:59.634Z</time>
      </trkpt>
      <trkpt lat="47.98258" lon="-2.12864">
        <ele>127.71571</ele>
        <time>2022-02-08T00:33:25.503Z</time>
      </trkpt>
      <trkpt lat="47.98282" lon="-2.12766">
        <ele>131.387446</ele>
        <time>2022-02-08T00:34:00.664Z</time>
      </trkpt>
      <trkpt lat="47.98296" lon="-2.12664">
        <ele>134.265336</ele>
        <time>2022-02-08T00:34:32.650Z</time>
      </trkpt>
      <trkpt lat="47.98302" lon="-2.12646">
        <ele>134.852245</ele>
        <time>2022-02-08T00:34:38.981Z</time>
      </trkpt>
      <trkpt lat="47.98327" lon="-2.12607">
        <ele>136.342532</ele>
        <time>2022-02-08T00:34:49.336Z</time>
      </trkpt>
      <trkpt lat="47.98333" lon="-2.12578">
        <ele>136.646143</ele>
        <time>2022-02-08T00:34:54.652Z</time>
      </trkpt>
      <trkpt lat="47.98332" lon="-2.12547">
        <ele>136.80593</ele>
        <time>2022-02-08T00:35:00.609Z</time>
      </trkpt>
      <trkpt lat="47.98329" lon="-2.12541">
        <ele>136.844973</ele>
        <time>2022-02-08T00:35:01.810Z</time>
      </trkpt>
      <trkpt lat="47.98334" lon="-2.12493">
        <ele>137.093269</ele>
        <time>2022-02-08T00:35:09.214Z</time>
      </trkpt>
      <trkpt lat="47.98353" lon="-2.12455">
        <ele>137.333142</ele>
        <time>2022-02-08T00:35:15.547Z</time>
      </trkpt>
      <trkpt lat="47.98366" lon="-2.12407">
        <ele>137.596227</ele>
        <time>2022-02-08T00:35:21.677Z</time>
      </trkpt>
      <trkpt lat="47.98363" lon="-2.12387">
        <ele>137.704778</ele>
        <time>2022-02-08T00:35:24.170Z</time>
      </trkpt>
      <trkpt lat="47.98343" lon="-2.12323">
        <ele>137.777382</ele>
        <time>2022-02-08T00:35:32.881Z</time>
      </trkpt>
      <trkpt lat="47.98343" lon="-2.12279">
        <ele>137.618299</ele>
        <time>2022-02-08T00:35:38.077Z</time>
      </trkpt>
      <trkpt lat="47.98374" lon="-2.12303">
        <ele>137.429917</ele>
        <time>2022-02-08T00:35:44.181Z</time>
      </trkpt>
      <trkpt lat="47.98395" lon="-2.12308">
        <ele>137.316579</ele>
        <time>2022-02-08T00:35:47.857Z</time>
      </trkpt>
      <trkpt lat="47.9846" lon="-2.1229">
        <ele>136.958938</ele>
        <time>2022-02-08T00:35:59.009Z</time>
      </trkpt>
      <trkpt lat="47.98517" lon="-2.12228">
        <ele>136.497471</ele>
        <time>2022-02-08T00:36:11.276Z</time>
      </trkpt>
      <trkpt lat="47.98624" lon="-2.12111">
        <ele>135.652016</ele>
        <time>2022-02-08T00:36:33.879Z</time>
      </trkpt>
      <trkpt lat="47.98603" lon="-2.12037">
        <ele>135.387739</ele>
        <time>2022-02-08T00:36:43.225Z</time>
      </trkpt>
      <trkpt lat="47.98582" lon="-2.11936">
        <ele>135.039259</ele>
        <time>2022-02-08T00:36:55.608Z</time>
      </trkpt>
      <trkpt lat="47.98579" lon="-2.11787">
        <ele>134.676219</ele>
        <time>2022-02-08T00:37:13.235Z</time>
      </trkpt>
      <trkpt lat="47.98568" lon="-2.11647">
        <ele>134.4103</ele>
        <time>2022-02-08T00:37:30.150Z</time>
      </trkpt>
      <trkpt lat="47.98535" lon="-2.1152">
        <ele>134.423827</ele>
        <time>2022-02-08T00:37:47.166Z</time>
      </trkpt>
      <trkpt lat="47.98521" lon="-2.1143">
        <ele>134.49833</ele>
        <time>2022-02-08T00:37:59.119Z</time>
      </trkpt>
      <trkpt lat="47.98514" lon="-2.11322">
        <ele>134.584115</ele>
        <time>2022-02-08T00:38:13.212Z</time>
      </trkpt>
      <trkpt lat="47.98535" lon="-2.11197">
        <ele>134.68246</ele>
        <time>2022-02-08T00:38:29.515Z</time>
      </trkpt>
      <trkpt lat="47.98572" lon="-2.11012">
        <ele>134.990207</ele>
        <time>2022-02-08T00:38:53.940Z</time>
      </trkpt>
      <trkpt lat="47.98587" lon="-2.10938">
        <ele>135.192648</ele>
        <time>2022-02-08T00:39:04.331Z</time>
      </trkpt>
      <trkpt lat="47.98663" lon="-2.11009">
        <ele>135.538338</ele>
        <time>2022-02-08T00:39:23.249Z</time>
      </trkpt>
      <trkpt lat="47.98772" lon="-2.11139">
        <ele>136.028118</ele>
        <time>2022-02-08T00:39:52.683Z</time>
      </trkpt>
      <trkpt lat="47.98798" lon="-2.11142">
        <ele>136.037069</ele>
        <time>2022-02-08T00:39:57.603Z</time>
      </trkpt>
      <trkpt lat="47.99138" lon="-2.11006">
        <ele>131.068097</ele>
        <time>2022-02-08T00:40:53.622Z</time>
      </trkpt>
      <trkpt lat="47.99213" lon="-2.11267">
        <ele>128.568649</ele>
        <time>2022-02-08T00:41:45.057Z</time>
      </trkpt>
      <trkpt lat="47.9923" lon="-2.11279">
        <ele>128.262967</ele>
        <time>2022-02-08T00:41:50.176Z</time>
      </trkpt>
      <trkpt lat="47.99246" lon="-2.1129">
        <ele>127.972335</ele>
        <time>2022-02-08T00:41:55.046Z</time>
      </trkpt>
      <trkpt lat="47.9938" lon="-2.11347">
        <ele>125.702295</ele>
        <time>2022-02-08T00:42:31.707Z</time>
      </trkpt>
      <trkpt lat="47.99428" lon="-2.11389">
        <ele>124.641368</ele>
        <time>2022-02-08T00:42:46.063Z</time>
      </trkpt>
      <trkpt lat="47.99469" lon="-2.11441">
        <ele>123.616193</ele>
        <time>2022-02-08T00:42:59.909Z</time>
      </trkpt>
      <trkpt lat="47.99482" lon="-2.11419">
        <ele>123.233663</ele>
        <time>2022-02-08T00:43:02.934Z</time>
      </trkpt>
      <trkpt lat="47.99497" lon="-2.11412">
        <ele>122.950952</ele>
        <time>2022-02-08T00:43:05.067Z</time>
      </trkpt>
      <trkpt lat="47.99506" lon="-2.11411">
        <ele>122.765187</ele>
        <time>2022-02-08T00:43:07.651Z</time>
      </trkpt>
      <trkpt lat="47.99584" lon="-2.11359">
        <ele>122.267028</ele>
        <time>2022-02-08T00:43:30.272Z</time>
      </trkpt>
      <trkpt lat="47.99657" lon="-2.1136">
        <ele>122.191607</ele>
        <time>2022-02-08T00:43:52.115Z</time>
      </trkpt>
      <trkpt lat="47.99709" lon="-2.1134">
        <ele>122.362706</ele>
        <time>2022-02-08T00:44:10.879Z</time>
      </trkpt>
      <trkpt lat="47.99732" lon="-2.11295">
        <ele>123.249953</ele>
        <time>2022-02-08T00:44:25.723Z</time>
      </trkpt>
      <trkpt lat="47.99753" lon="-2.11255">
        <ele>124.048657</ele>
        <time>2022-02-08T00:44:39.142Z</time>
      </trkpt>
      <trkpt lat="47.99785" lon="-2.11173">
        <ele>125.530059</ele>
        <time>2022-02-08T00:45:04.496Z</time>
      </trkpt>
      <trkpt lat="47.99793" lon="-2.11143">
        <ele>126.036234</ele>
        <time>2022-02-08T00:45:11.595Z</time>
      </trkpt>
      <trkpt lat="47.99804" lon="-2.11044">
        <ele>127.267046</ele>
        <time>2022-02-08T00:45:30.438Z</time>
      </trkpt>
      <trkpt lat="47.99823" lon="-2.10975">
        <ele>128.133244</ele>
        <time>2022-02-08T00:45:43.363Z</time>
      </trkpt>
      <trkpt lat="47.99821" lon="-2.10958">
        <ele>128.337774</ele>
        <time>2022-02-08T00:45:46.640Z</time>
      </trkpt>
      <trkpt lat="47.99828" lon="-2.10937">
        <ele>128.605956</ele>
        <time>2022-02-08T00:45:50.868Z</time>
      </trkpt>
      <trkpt lat="47.99846" lon="-2.10936">
        <ele>128.915003</ele>
        <time>2022-02-08T00:45:54.644Z</time>
      </trkpt>
      <trkpt lat="47.99849" lon="-2.10931">
        <ele>129.000637</ele>
        <time>2022-02-08T00:45:55.795Z</time>
      </trkpt>
      <trkpt lat="47.99875" lon="-2.10856">
        <ele>129.589182</ele>
        <time>2022-02-08T00:46:07.448Z</time>
      </trkpt>
      <trkpt lat="47.99921" lon="-2.10721">
        <ele>130.042232</ele>
        <time>2022-02-08T00:46:38.738Z</time>
      </trkpt>
      <trkpt lat="47.99932" lon="-2.10658">
        <ele>130.236742</ele>
        <time>2022-02-08T00:47:09.032Z</time>
      </trkpt>
      <trkpt lat="47.99938" lon="-2.10622">
        <ele>130.410719</ele>
        <time>2022-02-08T00:47:26.153Z</time>
      </trkpt>
      <trkpt lat="47.99935" lon="-2.1061">
        <ele>130.478487</ele>
        <time>2022-02-08T00:47:32.329Z</time>
      </trkpt>
      <trkpt lat="47.99976" lon="-2.10539">
        <ele>130.957933</ele>
        <time>2022-02-08T00:47:44.707Z</time>
      </trkpt>
      <trkpt lat="47.99988" lon="-2.10519">
        <ele>131.094779</ele>
        <time>2022-02-08T00:47:48.335Z</time>
      </trkpt>
      <trkpt lat="48.00001" lon="-2.10496">
        <ele>131.249777</ele>
        <time>2022-02-08T00:47:52.506Z</time>
      </trkpt>
      <trkpt lat="48.00009" lon="-2.10483">
        <ele>131.340016</ele>
        <time>2022-02-08T00:47:55.071Z</time>
      </trkpt>
      <trkpt lat="48.00083" lon="-2.10353">
        <ele>132.923935</ele>
        <time>2022-02-08T00:48:22.355Z</time>
      </trkpt>
      <trkpt lat="48.00129" lon="-2.10273">
        <ele>134.109659</ele>
        <time>2022-02-08T00:48:40.217Z</time>
      </trkpt>
      <trkpt lat="48.00165" lon="-2.10214">
        <ele>134.949619</ele>
        <time>2022-02-08T00:48:53.616Z</time>
      </trkpt>
      <trkpt lat="48.00189" lon="-2.10107">
        <ele>135.984921</ele>
        <time>2022-02-08T00:49:12.114Z</time>
      </trkpt>
      <trkpt lat="48.00185" lon="-2.10008">
        <ele>136.892063</ele>
        <time>2022-02-08T00:49:26.934Z</time>
      </trkpt>
      <trkpt lat="48.00182" lon="-2.09936">
        <ele>137.34411</ele>
        <time>2022-02-08T00:49:36.761Z</time>
      </trkpt>
      <trkpt lat="48.00187" lon="-2.09893">
        <ele>137.543287</ele>
        <time>2022-02-08T00:49:42.527Z</time>
      </trkpt>
      <trkpt lat="48.00203" lon="-2.09841">
        <ele>137.808277</ele>
        <time>2022-02-08T00:49:50.586Z</time>
      </trkpt>
      <trkpt lat="48.00257" lon="-2.09708">
        <ele>138.434727</ele>
        <time>2022-02-08T00:50:11.798Z</time>
      </trkpt>
      <trkpt lat="48.00268" lon="-2.0968">
        <ele>138.495488</ele>
        <time>2022-02-08T00:50:16.160Z</time>
      </trkpt>
      <trkpt lat="48.00273" lon="-2.09666">
        <ele>138.524118</ele>
        <time>2022-02-08T00:50:18.178Z</time>
      </trkpt>
      <trkpt lat="48.00279" lon="-2.09652">
        <ele>138.555616</ele>
        <time>2022-02-08T00:50:20.465Z</time>
      </trkpt>
      <trkpt lat="48.00329" lon="-2.09528">
        <ele>138.821901</ele>
        <time>2022-02-08T00:50:38.681Z</time>
      </trkpt>
      <trkpt lat="48.00412" lon="-2.09317">
        <ele>138.271441</ele>
        <time>2022-02-08T00:51:06.723Z</time>
      </trkpt>
      <trkpt lat="48.00431" lon="-2.09266">
        <ele>138.113286</ele>
        <time>2022-02-08T00:51:12.876Z</time>
      </trkpt>
      <trkpt lat="48.00434" lon="-2.09256">
        <ele>138.084223</ele>
        <time>2022-02-08T00:51:14.007Z</time>
      </trkpt>
      <trkpt lat="48.00445" lon="-2.09229">
        <ele>137.996798</ele>
        <time>2022-02-08T00:51:17.467Z</time>
      </trkpt>
      <trkpt lat="48.00452" lon="-2.0922">
        <ele>137.960166</ele>
        <time>2022-02-08T00:51:18.908Z</time>
      </trkpt>
      <trkpt lat="48.00452" lon="-2.09207">
        <ele>137.924017</ele>
        <time>2022-02-08T00:51:20.377Z</time>
      </trkpt>
      <trkpt lat="48.00458" lon="-2.09204">
        <ele>137.897823</ele>
        <time>2022-02-08T00:51:21.411Z</time>
      </trkpt>
      <trkpt lat="48.00462" lon="-2.09218">
        <ele>137.85548</ele>
        <time>2022-02-08T00:51:23.139Z</time>
      </trkpt>
      <trkpt lat="48.00468" lon="-2.09224">
        <ele>137.826678</ele>
        <time>2022-02-08T00:51:24.296Z</time>
      </trkpt>
      <trkpt lat="48.00487" lon="-2.09241">
        <ele>137.733463</ele>
        <time>2022-02-08T00:51:28.113Z</time>
      </trkpt>
      <trkpt lat="48.0053" lon="-2.0929">
        <ele>137.512039</ele>
        <time>2022-02-08T00:51:37.390Z</time>
      </trkpt>
      <trkpt lat="48.00539" lon="-2.09297">
        <ele>137.471627</ele>
        <time>2022-02-08T00:51:39.124Z</time>
      </trkpt>
      <trkpt lat="48.00582" lon="-2.09338">
        <ele>137.538279</ele>
        <time>2022-02-08T00:51:48.337Z</time>
      </trkpt>
      <trkpt lat="48.00729" lon="-2.09212">
        <ele>138.175719</ele>
        <time>2022-02-08T00:52:42.639Z</time>
      </trkpt>
      <trkpt lat="48.00933" lon="-2.08996">
        <ele>137.820958</ele>
        <time>2022-02-08T00:53:56.367Z</time>
      </trkpt>
      <trkpt lat="48.01093" lon="-2.09035">
        <ele>136.712121</ele>
        <time>2022-02-08T00:54:41.452Z</time>
      </trkpt>
      <trkpt lat="48.01313" lon="-2.09085">
        <ele>134.943762</ele>
        <time>2022-02-08T00:55:43.367Z</time>
      </trkpt>
      <trkpt lat="48.01351" lon="-2.09097">
        <ele>134.678938</ele>
        <time>2022-02-08T00:55:54.384Z</time>
      </trkpt>
      <trkpt lat="48.01384" lon="-2.09108">
        <ele>134.533868</ele>
        <time>2022-02-08T00:56:04.288Z</time>
      </trkpt>
      <trkpt lat="48.01465" lon="-2.09151">
        <ele>134.63903</ele>
        <time>2022-02-08T00:56:29.523Z</time>
      </trkpt>
      <trkpt lat="48.0157" lon="-2.09173">
        <ele>134.986534</ele>
        <time>2022-02-08T00:57:02.759Z</time>
      </trkpt>
      <trkpt lat="48.01582" lon="-2.0917">
        <ele>135.105023</ele>
        <time>2022-02-08T00:57:06.318Z</time>
      </trkpt>
      <trkpt lat="48.01611" lon="-2.09203">
        <ele>135.488276</ele>
        <time>2022-02-08T00:57:14.250Z</time>
      </trkpt>
      <trkpt lat="48.01721" lon="-2.0929">
        <ele>136.916952</ele>
        <time>2022-02-08T00:57:43.919Z</time>
      </trkpt>
      <trkpt lat="48.01726" lon="-2.09261">
        <ele>137.282954</ele>
        <time>2022-02-08T00:57:49.096Z</time>
      </trkpt>
      <trkpt lat="48.01739" lon="-2.09236">
        <ele>137.671789</ele>
        <time>2022-02-08T00:57:54.528Z</time>
      </trkpt>
      <trkpt lat="48.01774" lon="-2.09191">
        <ele>138.503798</ele>
        <time>2022-02-08T00:58:06.491Z</time>
      </trkpt>
      <trkpt lat="48.01884" lon="-2.09115">
        <ele>140.859961</ele>
        <time>2022-02-08T00:58:38.986Z</time>
      </trkpt>
      <trkpt lat="48.01914" lon="-2.09122">
        <ele>141.506962</ele>
        <time>2022-02-08T00:58:47.146Z</time>
      </trkpt>
      <trkpt lat="48.02007" lon="-2.0915">
        <ele>143.553538</ele>
        <time>2022-02-08T00:59:13.361Z</time>
      </trkpt>
      <trkpt lat="48.02042" lon="-2.08896">
        <ele>146.888515</ele>
        <time>2022-02-08T00:59:59.313Z</time>
      </trkpt>
      <trkpt lat="48.02056" lon="-2.08846">
        <ele>147.392141</ele>
        <time>2022-02-08T01:00:08.202Z</time>
      </trkpt>
      <trkpt lat="48.02076" lon="-2.08799">
        <ele>147.740304</ele>
        <time>2022-02-08T01:00:16.899Z</time>
      </trkpt>
      <trkpt lat="48.02236" lon="-2.08517">
        <ele>149.667491</ele>
        <time>2022-02-08T01:01:09.336Z</time>
      </trkpt>
      <trkpt lat="48.02251" lon="-2.08471">
        <ele>149.884143</ele>
        <time>2022-02-08T01:01:16.545Z</time>
      </trkpt>
      <trkpt lat="48.02257" lon="-2.08425">
        <ele>150.070103</ele>
        <time>2022-02-08T01:01:22.877Z</time>
      </trkpt>
      <trkpt lat="48.02251" lon="-2.08208">
        <ele>150.907356</ele>
        <time>2022-02-08T01:01:52.907Z</time>
      </trkpt>
      <trkpt lat="48.02241" lon="-2.08148">
        <ele>151.183668</ele>
        <time>2022-02-08T01:02:01.815Z</time>
      </trkpt>
      <trkpt lat="48.02217" lon="-2.08063">
        <ele>151.681485</ele>
        <time>2022-02-08T01:02:15.220Z</time>
      </trkpt>
      <trkpt lat="48.02266" lon="-2.08035">
        <ele>152.10732</ele>
        <time>2022-02-08T01:02:26.426Z</time>
      </trkpt>
      <trkpt lat="48.02353" lon="-2.0799">
        <ele>152.748101</ele>
        <time>2022-02-08T01:02:45.778Z</time>
      </trkpt>
      <trkpt lat="48.02287" lon="-2.07532">
        <ele>154.374668</ele>
        <time>2022-02-08T01:03:50.236Z</time>
      </trkpt>
      <trkpt lat="48.02284" lon="-2.07521">
        <ele>154.413451</ele>
        <time>2022-02-08T01:03:51.568Z</time>
      </trkpt>
      <trkpt lat="48.02279" lon="-2.07502">
        <ele>154.487334</ele>
        <time>2022-02-08T01:03:54.158Z</time>
      </trkpt>
      <trkpt lat="48.02389" lon="-2.07325">
        <ele>155.368092</ele>
        <time>2022-02-08T01:04:45.707Z</time>
      </trkpt>
      <trkpt lat="48.02389" lon="-2.07324">
        <ele>155.369581</ele>
        <time>2022-02-08T01:04:45.926Z</time>
      </trkpt>
      <trkpt lat="48.02389" lon="-2.07324">
        <ele>155.369581</ele>
        <time>2022-02-08T01:04:45.978Z</time>
      </trkpt>
      <trkpt lat="48.02389" lon="-2.07324">
        <ele>155.369581</ele>
        <time>2022-02-08T01:04:45.978Z</time>
      </trkpt>
      <trkpt lat="48.02447" lon="-2.07242">
        <ele>155.472989</ele>
        <time>2022-02-08T01:05:06.489Z</time>
      </trkpt>
      <trkpt lat="48.02504" lon="-2.07159">
        <ele>155.576456</ele>
        <time>2022-02-08T01:05:27.011Z</time>
      </trkpt>
      <trkpt lat="48.02504" lon="-2.07159">
        <ele>155.576456</ele>
        <time>2022-02-08T01:05:27.011Z</time>
      </trkpt>
      <trkpt lat="48.02549" lon="-2.07089">
        <ele>155.162326</ele>
        <time>2022-02-08T01:05:43.891Z</time>
      </trkpt>
      <trkpt lat="48.02594" lon="-2.07018">
        <ele>154.532142</ele>
        <time>2022-02-08T01:06:00.802Z</time>
      </trkpt>
      <trkpt lat="48.02639" lon="-2.06947">
        <ele>153.902626</ele>
        <time>2022-02-08T01:06:17.690Z</time>
      </trkpt>
      <trkpt lat="48.02639" lon="-2.06947">
        <ele>153.902626</ele>
        <time>2022-02-08T01:06:17.715Z</time>
      </trkpt>
      <trkpt lat="48.02713" lon="-2.06822">
        <ele>153.194398</ele>
        <time>2022-02-08T01:06:49.337Z</time>
      </trkpt>
      <trkpt lat="48.02773" lon="-2.06723">
        <ele>152.515329</ele>
        <time>2022-02-08T01:07:15.402Z</time>
      </trkpt>
      <trkpt lat="48.02873" lon="-2.06549">
        <ele>150.417774</ele>
        <time>2022-02-08T01:07:57.270Z</time>
      </trkpt>
      <trkpt lat="48.02998" lon="-2.06439">
        <ele>146.248345</ele>
        <time>2022-02-08T01:08:32.897Z</time>
      </trkpt>
      <trkpt lat="48.0324" lon="-2.06224">
        <ele>137.208056</ele>
        <time>2022-02-08T01:09:41.998Z</time>
      </trkpt>
      <trkpt lat="48.03375" lon="-2.06137">
        <ele>132.735516</ele>
        <time>2022-02-08T01:10:18.307Z</time>
      </trkpt>
      <trkpt lat="48.03422" lon="-2.06008">
        <ele>130.097927</ele>
        <time>2022-02-08T01:10:42.992Z</time>
      </trkpt>
      <trkpt lat="48.03499" lon="-2.06085">
        <ele>127.829336</ele>
        <time>2022-02-08T01:10:56.804Z</time>
      </trkpt>
      <trkpt lat="48.03559" lon="-2.0612">
        <ele>126.460361</ele>
        <time>2022-02-08T01:11:06.733Z</time>
      </trkpt>
      <trkpt lat="48.03631" lon="-2.06189">
        <ele>124.636339</ele>
        <time>2022-02-08T01:11:19.993Z</time>
      </trkpt>
      <trkpt lat="48.03719" lon="-2.0626">
        <ele>122.186528</ele>
        <time>2022-02-08T01:11:35.317Z</time>
      </trkpt>
      <trkpt lat="48.03731" lon="-2.06275">
        <ele>121.8069</ele>
        <time>2022-02-08T01:11:39.290Z</time>
      </trkpt>
      <trkpt lat="48.03757" lon="-2.06284">
        <ele>121.152055</ele>
        <time>2022-02-08T01:11:46.087Z</time>
      </trkpt>
      <trkpt lat="48.03884" lon="-2.06278">
        <ele>116.535811</ele>
        <time>2022-02-08T01:12:16.827Z</time>
      </trkpt>
      <trkpt lat="48.03933" lon="-2.06251">
        <ele>114.452544</ele>
        <time>2022-02-08T01:12:28.992Z</time>
      </trkpt>
      <trkpt lat="48.03985" lon="-2.06259">
        <ele>112.618932</ele>
        <time>2022-02-08T01:12:41.303Z</time>
      </trkpt>
      <trkpt lat="48.04045" lon="-2.06268">
        <ele>110.946937</ele>
        <time>2022-02-08T01:12:55.701Z</time>
      </trkpt>
      <trkpt lat="48.04109" lon="-2.06262">
        <ele>109.174628</ele>
        <time>2022-02-08T01:13:11.935Z</time>
      </trkpt>
      <trkpt lat="48.04204" lon="-2.06286">
        <ele>108.69086</ele>
        <time>2022-02-08T01:13:38.980Z</time>
      </trkpt>
      <trkpt lat="48.0422" lon="-2.063">
        <ele>108.833577</ele>
        <time>2022-02-08T01:13:45.078Z</time>
      </trkpt>
      <trkpt lat="48.04286" lon="-2.06438">
        <ele>109.980067</ele>
        <time>2022-02-08T01:14:26.105Z</time>
      </trkpt>
      <trkpt lat="48.04317" lon="-2.06489">
        <ele>111.298839</ele>
        <time>2022-02-08T01:14:45.420Z</time>
      </trkpt>
      <trkpt lat="48.04358" lon="-2.06531">
        <ele>112.727914</ele>
        <time>2022-02-08T01:15:06.744Z</time>
      </trkpt>
      <trkpt lat="48.04392" lon="-2.06555">
        <ele>113.786733</ele>
        <time>2022-02-08T01:15:22.480Z</time>
      </trkpt>
      <trkpt lat="48.04433" lon="-2.06581">
        <ele>114.934142</ele>
        <time>2022-02-08T01:15:36.463Z</time>
      </trkpt>
      <trkpt lat="48.04479" lon="-2.06582">
        <ele>115.728925</ele>
        <time>2022-02-08T01:15:49.610Z</time>
      </trkpt>
      <trkpt lat="48.04494" lon="-2.0659">
        <ele>115.992748</ele>
        <time>2022-02-08T01:15:54.378Z</time>
      </trkpt>
      <trkpt lat="48.0449" lon="-2.06569">
        <ele>116.239371</ele>
        <time>2022-02-08T01:15:57.914Z</time>
      </trkpt>
      <trkpt lat="48.045" lon="-2.06516">
        <ele>116.87546</ele>
        <time>2022-02-08T01:16:07.279Z</time>
      </trkpt>
      <trkpt lat="48.04505" lon="-2.065">
        <ele>117.082793</ele>
        <time>2022-02-08T01:16:10.153Z</time>
      </trkpt>
      <trkpt lat="48.04519" lon="-2.06487">
        <ele>117.371307</ele>
        <time>2022-02-08T01:16:14.041Z</time>
      </trkpt>
      <trkpt lat="48.0454" lon="-2.06481">
        <ele>117.749386</ele>
        <time>2022-02-08T01:16:18.160Z</time>
      </trkpt>
      <trkpt lat="48.04551" lon="-2.06462">
        <ele>117.761151</ele>
        <time>2022-02-08T01:16:21.169Z</time>
      </trkpt>
      <trkpt lat="48.0457" lon="-2.064">
        <ele>117.47987</ele>
        <time>2022-02-08T01:16:29.333Z</time>
      </trkpt>
      <trkpt lat="48.04608" lon="-2.06274">
        <ele>116.914692</ele>
        <time>2022-02-08T01:16:44.666Z</time>
      </trkpt>
      <trkpt lat="48.04617" lon="-2.0618">
        <ele>116.39206</ele>
        <time>2022-02-08T01:16:55.222Z</time>
      </trkpt>
      <trkpt lat="48.04613" lon="-2.06105">
        <ele>115.875969</ele>
        <time>2022-02-08T01:17:03.751Z</time>
      </trkpt>
      <trkpt lat="48.04718" lon="-2.06083">
        <ele>114.836955</ele>
        <time>2022-02-08T01:17:32.554Z</time>
      </trkpt>
      <trkpt lat="48.04771" lon="-2.06082">
        <ele>114.51854</ele>
        <time>2022-02-08T01:17:47.088Z</time>
      </trkpt>
      <trkpt lat="48.04908" lon="-2.06105">
        <ele>114.158392</ele>
        <time>2022-02-08T01:18:26.540Z</time>
      </trkpt>
      <trkpt lat="48.04928" lon="-2.06099">
        <ele>114.499825</ele>
        <time>2022-02-08T01:18:33.087Z</time>
      </trkpt>
      <trkpt lat="48.05045" lon="-2.06009">
        <ele>116.709973</ele>
        <time>2022-02-08T01:19:23.106Z</time>
      </trkpt>
      <trkpt lat="48.05039" lon="-2.05999">
        <ele>116.872522</ele>
        <time>2022-02-08T01:19:25.805Z</time>
      </trkpt>
      <trkpt lat="48.05078" lon="-2.0596">
        <ele>118.29777</ele>
        <time>2022-02-08T01:19:41.425Z</time>
      </trkpt>
      <trkpt lat="48.05128" lon="-2.05937">
        <ele>119.851111</ele>
        <time>2022-02-08T01:19:58.434Z</time>
      </trkpt>
      <trkpt lat="48.05161" lon="-2.05922">
        <ele>120.896257</ele>
        <time>2022-02-08T01:20:10.107Z</time>
      </trkpt>
      <trkpt lat="48.05263" lon="-2.0585">
        <ele>123.446853</ele>
        <time>2022-02-08T01:20:45.047Z</time>
      </trkpt>
      <trkpt lat="48.05284" lon="-2.05827">
        <ele>123.901926</ele>
        <time>2022-02-08T01:20:53.056Z</time>
      </trkpt>
      <trkpt lat="48.05296" lon="-2.0584">
        <ele>124.162673</ele>
        <time>2022-02-08T01:20:57.748Z</time>
      </trkpt>
      <trkpt lat="48.05315" lon="-2.05809">
        <ele>124.665323</ele>
        <time>2022-02-08T01:21:04.447Z</time>
      </trkpt>
      <trkpt lat="48.05329" lon="-2.05789">
        <ele>125.000733</ele>
        <time>2022-02-08T01:21:08.671Z</time>
      </trkpt>
      <trkpt lat="48.05346" lon="-2.05762">
        <ele>125.413482</ele>
        <time>2022-02-08T01:21:13.907Z</time>
      </trkpt>
      <trkpt lat="48.05412" lon="-2.05693">
        <ele>123.93671</ele>
        <time>2022-02-08T01:21:26.904Z</time>
      </trkpt>
      <trkpt lat="48.05419" lon="-2.05685">
        <ele>123.771921</ele>
        <time>2022-02-08T01:21:28.168Z</time>
      </trkpt>
      <trkpt lat="48.05394" lon="-2.0564">
        <ele>123.053582</ele>
        <time>2022-02-08T01:21:33.674Z</time>
      </trkpt>
      <trkpt lat="48.0538" lon="-2.05615">
        <ele>122.65649</ele>
        <time>2022-02-08T01:21:36.664Z</time>
      </trkpt>
      <trkpt lat="48.05364" lon="-2.05575">
        <ele>122.056973</ele>
        <time>2022-02-08T01:21:40.880Z</time>
      </trkpt>
      <trkpt lat="48.05355" lon="-2.05555">
        <ele>121.614181</ele>
        <time>2022-02-08T01:21:43.022Z</time>
      </trkpt>
      <trkpt lat="48.05325" lon="-2.05423">
        <ele>119.041634</ele>
        <time>2022-02-08T01:21:55.607Z</time>
      </trkpt>
      <trkpt lat="48.05314" lon="-2.0537">
        <ele>118.026139</ele>
        <time>2022-02-08T01:22:00.740Z</time>
      </trkpt>
      <trkpt lat="48.05293" lon="-2.05234">
        <ele>117.307656</ele>
        <time>2022-02-08T01:22:15.711Z</time>
      </trkpt>
      <trkpt lat="48.0529" lon="-2.05162">
        <ele>117.411738</ele>
        <time>2022-02-08T01:22:25.041Z</time>
      </trkpt>
      <trkpt lat="48.05292" lon="-2.05084">
        <ele>117.523125</ele>
        <time>2022-02-08T01:22:37.208Z</time>
      </trkpt>
      <trkpt lat="48.05283" lon="-2.05014">
        <ele>117.849965</ele>
        <time>2022-02-08T01:22:48.854Z</time>
      </trkpt>
      <trkpt lat="48.05191" lon="-2.04634">
        <ele>118.702025</ele>
        <time>2022-02-08T01:23:45.575Z</time>
      </trkpt>
      <trkpt lat="48.05083" lon="-2.04193">
        <ele>111.666552</ele>
        <time>2022-02-08T01:24:29.372Z</time>
      </trkpt>
      <trkpt lat="48.05076" lon="-2.04131">
        <ele>110.692419</ele>
        <time>2022-02-08T01:24:35.145Z</time>
      </trkpt>
      <trkpt lat="48.05076" lon="-2.04018">
        <ele>109.178037</ele>
        <time>2022-02-08T01:24:46.506Z</time>
      </trkpt>
      <trkpt lat="48.05098" lon="-2.03942">
        <ele>109.03643</ele>
        <time>2022-02-08T01:24:55.905Z</time>
      </trkpt>
      <trkpt lat="48.05108" lon="-2.03881">
        <ele>108.929685</ele>
        <time>2022-02-08T01:25:03.372Z</time>
      </trkpt>
      <trkpt lat="48.05108" lon="-2.03858">
        <ele>108.890558</ele>
        <time>2022-02-08T01:25:06.565Z</time>
      </trkpt>
      <trkpt lat="48.0511" lon="-2.03618">
        <ele>109.008208</ele>
        <time>2022-02-08T01:25:40.561Z</time>
      </trkpt>
      <trkpt lat="48.05107" lon="-2.03589">
        <ele>109.055943</ele>
        <time>2022-02-08T01:25:44.238Z</time>
      </trkpt>
      <trkpt lat="48.05092" lon="-2.03423">
        <ele>109.023005</ele>
        <time>2022-02-08T01:26:04.072Z</time>
      </trkpt>
      <trkpt lat="48.05092" lon="-2.03196">
        <ele>108.801164</ele>
        <time>2022-02-08T01:26:31.005Z</time>
      </trkpt>
      <trkpt lat="48.0508" lon="-2.03116">
        <ele>109.05133</ele>
        <time>2022-02-08T01:26:42.222Z</time>
      </trkpt>
      <trkpt lat="48.05067" lon="-2.03016">
        <ele>109.360496</ele>
        <time>2022-02-08T01:26:57.072Z</time>
      </trkpt>
      <trkpt lat="48.05084" lon="-2.02834">
        <ele>109.973987</ele>
        <time>2022-02-08T01:27:23.597Z</time>
      </trkpt>
      <trkpt lat="48.05078" lon="-2.02765">
        <ele>110.212142</ele>
        <time>2022-02-08T01:27:32.858Z</time>
      </trkpt>
      <trkpt lat="48.05039" lon="-2.02596">
        <ele>110.856546</ele>
        <time>2022-02-08T01:27:55.222Z</time>
      </trkpt>
      <trkpt lat="48.05031" lon="-2.02427">
        <ele>111.649094</ele>
        <time>2022-02-08T01:28:20.087Z</time>
      </trkpt>
      <trkpt lat="48.05034" lon="-2.02366">
        <ele>112.319784</ele>
        <time>2022-02-08T01:28:30.009Z</time>
      </trkpt>
      <trkpt lat="48.05042" lon="-2.02278">
        <ele>113.310984</ele>
        <time>2022-02-08T01:28:45.534Z</time>
      </trkpt>
      <trkpt lat="48.05044" lon="-2.02268">
        <ele>113.426062</ele>
        <time>2022-02-08T01:28:47.321Z</time>
      </trkpt>
      <trkpt lat="48.05051" lon="-2.02242">
        <ele>113.736141</ele>
        <time>2022-02-08T01:28:52.254Z</time>
      </trkpt>
      <trkpt lat="48.05074" lon="-2.0221">
        <ele>114.25233</ele>
        <time>2022-02-08T01:29:00.525Z</time>
      </trkpt>
      <trkpt lat="48.05105" lon="-2.02198">
        <ele>114.713167</ele>
        <time>2022-02-08T01:29:09.269Z</time>
      </trkpt>
      <trkpt lat="48.05141" lon="-2.02215">
        <ele>115.225422</ele>
        <time>2022-02-08T01:29:19.295Z</time>
      </trkpt>
      <trkpt lat="48.0533" lon="-2.0235">
        <ele>116.703469</ele>
        <time>2022-02-08T01:30:06.394Z</time>
      </trkpt>
      <trkpt lat="48.05441" lon="-2.02365">
        <ele>115.942093</ele>
        <time>2022-02-08T01:30:24.617Z</time>
      </trkpt>
      <trkpt lat="48.05492" lon="-2.02366">
        <ele>114.539935</ele>
        <time>2022-02-08T01:30:32.233Z</time>
      </trkpt>
      <trkpt lat="48.05509" lon="-2.02361">
        <ele>114.050467</ele>
        <time>2022-02-08T01:30:34.836Z</time>
      </trkpt>
      <trkpt lat="48.05539" lon="-2.02347">
        <ele>113.180345</ele>
        <time>2022-02-08T01:30:39.353Z</time>
      </trkpt>
      <trkpt lat="48.05632" lon="-2.02279">
        <ele>109.659478</ele>
        <time>2022-02-08T01:30:53.771Z</time>
      </trkpt>
      <trkpt lat="48.05756" lon="-2.02224">
        <ele>104.216251</ele>
        <time>2022-02-08T01:31:11.456Z</time>
      </trkpt>
      <trkpt lat="48.05825" lon="-2.02207">
        <ele>101.395524</ele>
        <time>2022-02-08T01:31:20.916Z</time>
      </trkpt>
      <trkpt lat="48.06095" lon="-2.02226">
        <ele>91.862059</ele>
        <time>2022-02-08T01:31:58.738Z</time>
      </trkpt>
      <trkpt lat="48.06136" lon="-2.02229">
        <ele>91.004476</ele>
        <time>2022-02-08T01:32:05.209Z</time>
      </trkpt>
      <trkpt lat="48.06175" lon="-2.02205">
        <ele>90.7078</ele>
        <time>2022-02-08T01:32:12.464Z</time>
      </trkpt>
      <trkpt lat="48.06246" lon="-2.02197">
        <ele>90.216944</ele>
        <time>2022-02-08T01:32:25.266Z</time>
      </trkpt>
      <trkpt lat="48.06238" lon="-2.02106">
        <ele>89.820121</ele>
        <time>2022-02-08T01:32:37.035Z</time>
      </trkpt>
      <trkpt lat="48.0621" lon="-2.01361">
        <ele>87.352012</ele>
        <time>2022-02-08T01:34:03.785Z</time>
      </trkpt>
      <trkpt lat="48.0621" lon="-2.01007">
        <ele>86.290427</ele>
        <time>2022-02-08T01:34:45.539Z</time>
      </trkpt>
      <trkpt lat="48.06211" lon="-2.0095">
        <ele>85.991177</ele>
        <time>2022-02-08T01:34:52.405Z</time>
      </trkpt>
      <trkpt lat="48.06212" lon="-2.00929">
        <ele>85.880222</ele>
        <time>2022-02-08T01:34:54.911Z</time>
      </trkpt>
      <trkpt lat="48.06242" lon="-2.00311">
        <ele>83.138243</ele>
        <time>2022-02-08T01:36:04.507Z</time>
      </trkpt>
      <trkpt lat="48.06248" lon="-2.00202">
        <ele>83.587331</ele>
        <time>2022-02-08T01:36:18.601Z</time>
      </trkpt>
      <trkpt lat="48.06484" lon="-2.00443">
        <ele>90.347663</ele>
        <time>2022-02-08T01:37:43.745Z</time>
      </trkpt>
      <trkpt lat="48.06504" lon="-2.00476">
        <ele>91.106282</ele>
        <time>2022-02-08T01:37:52.535Z</time>
      </trkpt>
      <trkpt lat="48.06519" lon="-2.00475">
        <ele>91.486844</ele>
        <time>2022-02-08T01:37:56.808Z</time>
      </trkpt>
      <trkpt lat="48.06771" lon="-2.00605">
        <ele>92.426488</ele>
        <time>2022-02-08T01:38:55.192Z</time>
      </trkpt>
      <trkpt lat="48.07017" lon="-2.00781">
        <ele>86.064759</ele>
        <time>2022-02-08T01:39:34.485Z</time>
      </trkpt>
      <trkpt lat="48.07048" lon="-2.00724">
        <ele>85.4858</ele>
        <time>2022-02-08T01:39:41.971Z</time>
      </trkpt>
      <trkpt lat="48.07053" lon="-2.0072">
        <ele>85.41223</ele>
        <time>2022-02-08T01:39:42.980Z</time>
      </trkpt>
      <trkpt lat="48.07089" lon="-2.00689">
        <ele>84.941329</ele>
        <time>2022-02-08T01:39:49.633Z</time>
      </trkpt>
      <trkpt lat="48.07207" lon="-2.0061">
        <ele>83.890435</ele>
        <time>2022-02-08T01:40:12.997Z</time>
      </trkpt>
      <trkpt lat="48.07272" lon="-2.00557">
        <ele>83.75672</ele>
        <time>2022-02-08T01:40:26.561Z</time>
      </trkpt>
      <trkpt lat="48.07282" lon="-2.00549">
        <ele>83.735394</ele>
        <time>2022-02-08T01:40:29.999Z</time>
      </trkpt>
      <trkpt lat="48.07324" lon="-2.00539">
        <ele>83.65898</ele>
        <time>2022-02-08T01:40:42.278Z</time>
      </trkpt>
      <trkpt lat="48.07336" lon="-2.0055">
        <ele>83.607682</ele>
        <time>2022-02-08T01:40:46.504Z</time>
      </trkpt>
      <trkpt lat="48.07391" lon="-2.00599">
        <ele>83.273673</ele>
        <time>2022-02-08T01:41:04.782Z</time>
      </trkpt>
      <trkpt lat="48.0744" lon="-2.00676">
        <ele>82.900615</ele>
        <time>2022-02-08T01:41:24.905Z</time>
      </trkpt>
      <trkpt lat="48.07527" lon="-2.00774">
        <ele>82.41901</ele>
        <time>2022-02-08T01:41:55.734Z</time>
      </trkpt>
      <trkpt lat="48.07556" lon="-2.0081">
        <ele>82.268793</ele>
        <time>2022-02-08T01:42:06.517Z</time>
      </trkpt>
      <trkpt lat="48.0758" lon="-2.00852">
        <ele>82.120334</ele>
        <time>2022-02-08T01:42:17.273Z</time>
      </trkpt>
      <trkpt lat="48.07632" lon="-2.0094">
        <ele>82.019371</ele>
        <time>2022-02-08T01:42:40.191Z</time>
      </trkpt>
      <trkpt lat="48.07641" lon="-2.00964">
        <ele>82.035129</ele>
        <time>2022-02-08T01:42:45.746Z</time>
      </trkpt>
      <trkpt lat="48.0785" lon="-2.01171">
        <ele>82.662141</ele>
        <time>2022-02-08T01:44:02.175Z</time>
      </trkpt>
      <trkpt lat="48.0788" lon="-2.01201">
        <ele>82.803307</ele>
        <time>2022-02-08T01:44:13.894Z</time>
      </trkpt>
      <trkpt lat="48.07995" lon="-2.01396">
        <ele>84.242616</ele>
        <time>2022-02-08T01:45:11.630Z</time>
      </trkpt>
      <trkpt lat="48.0803" lon="-2.01435">
        <ele>84.570299</ele>
        <time>2022-02-08T01:45:26.037Z</time>
      </trkpt>
      <trkpt lat="48.08055" lon="-2.0148">
        <ele>84.833668</ele>
        <time>2022-02-08T01:45:38.683Z</time>
      </trkpt>
      <trkpt lat="48.08092" lon="-2.01521">
        <ele>85.146226</ele>
        <time>2022-02-08T01:45:53.564Z</time>
      </trkpt>
      <trkpt lat="48.08161" lon="-2.0156">
        <ele>85.702414</ele>
        <time>2022-02-08T01:46:17.050Z</time>
      </trkpt>
      <trkpt lat="48.08182" lon="-2.01578">
        <ele>86.079262</ele>
        <time>2022-02-08T01:46:24.793Z</time>
      </trkpt>
      <trkpt lat="48.08142" lon="-2.01596">
        <ele>86.730133</ele>
        <time>2022-02-08T01:46:33.377Z</time>
      </trkpt>
      <trkpt lat="48.08158" lon="-2.01735">
        <ele>88.211126</ele>
        <time>2022-02-08T01:46:57.603Z</time>
      </trkpt>
      <trkpt lat="48.08149" lon="-2.01816">
        <ele>90.271984</ele>
        <time>2022-02-08T01:47:13.806Z</time>
      </trkpt>
      <trkpt lat="48.08137" lon="-2.0185">
        <ele>91.432707</ele>
        <time>2022-02-08T01:47:22.938Z</time>
      </trkpt>
      <trkpt lat="48.08069" lon="-2.01997">
        <ele>96.802542</ele>
        <time>2022-02-08T01:48:10.652Z</time>
      </trkpt>
      <trkpt lat="48.08029" lon="-2.02061">
        <ele>99.599435</ele>
        <time>2022-02-08T01:48:35.405Z</time>
      </trkpt>
      <trkpt lat="48.07995" lon="-2.02121">
        <ele>102.07384</ele>
        <time>2022-02-08T01:48:55.615Z</time>
      </trkpt>
      <trkpt lat="48.07985" lon="-2.02166">
        <ele>103.565478</ele>
        <time>2022-02-08T01:49:07.506Z</time>
      </trkpt>
      <trkpt lat="48.07965" lon="-2.02335">
        <ele>106.217751</ele>
        <time>2022-02-08T01:49:42.416Z</time>
      </trkpt>
      <trkpt lat="48.07964" lon="-2.02372">
        <ele>106.564216</ele>
        <time>2022-02-08T01:49:47.973Z</time>
      </trkpt>
      <trkpt lat="48.0797" lon="-2.02415">
        <ele>106.969448</ele>
        <time>2022-02-08T01:49:53.860Z</time>
      </trkpt>
      <trkpt lat="48.08068" lon="-2.02423">
        <ele>106.451259</ele>
        <time>2022-02-08T01:50:21.030Z</time>
      </trkpt>
      <trkpt lat="48.08269" lon="-2.02393">
        <ele>102.753683</ele>
        <time>2022-02-08T01:51:12.184Z</time>
      </trkpt>
      <trkpt lat="48.08269" lon="-2.02393">
        <ele>102.753683</ele>
        <time>2022-02-08T01:51:12.238Z</time>
      </trkpt>
      <trkpt lat="48.08273" lon="-2.02406">
        <ele>102.606816</ele>
        <time>2022-02-08T01:51:14.774Z</time>
      </trkpt>
      <trkpt lat="48.08262" lon="-2.02534">
        <ele>101.284996</ele>
        <time>2022-02-08T01:51:38.419Z</time>
      </trkpt>
      <trkpt lat="48.08261" lon="-2.02589">
        <ele>101.660824</ele>
        <time>2022-02-08T01:51:49.322Z</time>
      </trkpt>
      <trkpt lat="48.08253" lon="-2.0265">
        <ele>102.277003</ele>
        <time>2022-02-08T01:52:04.151Z</time>
      </trkpt>
      <trkpt lat="48.08298" lon="-2.02776">
        <ele>103.700258</ele>
        <time>2022-02-08T01:52:40.861Z</time>
      </trkpt>
      <trkpt lat="48.08308" lon="-2.02838">
        <ele>104.25801</ele>
        <time>2022-02-08T01:52:56.748Z</time>
      </trkpt>
      <trkpt lat="48.08316" lon="-2.02846">
        <ele>104.376572</ele>
        <time>2022-02-08T01:53:02.000Z</time>
      </trkpt>
      <trkpt lat="48.0839" lon="-2.02837">
        <ele>105.284437</ele>
        <time>2022-02-08T01:53:28.793Z</time>
      </trkpt>
      <trkpt lat="48.08404" lon="-2.02842">
        <ele>105.465086</ele>
        <time>2022-02-08T01:53:32.945Z</time>
      </trkpt>
      <trkpt lat="48.0844" lon="-2.02878">
        <ele>105.990085</ele>
        <time>2022-02-08T01:53:46.334Z</time>
      </trkpt>
      <trkpt lat="48.08448" lon="-2.02914">
        <ele>105.960457</ele>
        <time>2022-02-08T01:53:54.767Z</time>
      </trkpt>
      <trkpt lat="48.08498" lon="-2.02974">
        <ele>105.472395</ele>
        <time>2022-02-08T01:54:11.942Z</time>
      </trkpt>
      <trkpt lat="48.0852" lon="-2.03025">
        <ele>105.170923</ele>
        <time>2022-02-08T01:54:22.573Z</time>
      </trkpt>
      <trkpt lat="48.0853" lon="-2.03026">
        <ele>105.090453</ele>
        <time>2022-02-08T01:54:24.820Z</time>
      </trkpt>
      <trkpt lat="48.08629" lon="-2.03072">
        <ele>105.529325</ele>
        <time>2022-02-08T01:54:48.628Z</time>
      </trkpt>
      <trkpt lat="48.0866" lon="-2.03107">
        <ele>106.087202</ele>
        <time>2022-02-08T01:54:59.387Z</time>
      </trkpt>
      <trkpt lat="48.08794" lon="-2.03223">
        <ele>109.124579</ele>
        <time>2022-02-08T01:55:52.647Z</time>
      </trkpt>
      <trkpt lat="48.08857" lon="-2.03247">
        <ele>110.79927</ele>
        <time>2022-02-08T01:56:14.932Z</time>
      </trkpt>
      <trkpt lat="48.08909" lon="-2.03255">
        <ele>112.062296</ele>
        <time>2022-02-08T01:56:32.535Z</time>
      </trkpt>
      <trkpt lat="48.08965" lon="-2.03281">
        <ele>112.726679</ele>
        <time>2022-02-08T01:56:50.742Z</time>
      </trkpt>
      <trkpt lat="48.09004" lon="-2.03277">
        <ele>113.16194</ele>
        <time>2022-02-08T01:57:01.730Z</time>
      </trkpt>
      <trkpt lat="48.09048" lon="-2.03286">
        <ele>113.664984</ele>
        <time>2022-02-08T01:57:13.235Z</time>
      </trkpt>
      <trkpt lat="48.09098" lon="-2.0328">
        <ele>113.817084</ele>
        <time>2022-02-08T01:57:24.879Z</time>
      </trkpt>
      <trkpt lat="48.09126" lon="-2.03259">
        <ele>113.505586</ele>
        <time>2022-02-08T01:57:31.996Z</time>
      </trkpt>
      <trkpt lat="48.09156" lon="-2.03238">
        <ele>113.181381</ele>
        <time>2022-02-08T01:57:39.120Z</time>
      </trkpt>
      <trkpt lat="48.09187" lon="-2.03192">
        <ele>112.754179</ele>
        <time>2022-02-08T01:57:48.377Z</time>
      </trkpt>
      <trkpt lat="48.09229" lon="-2.03155">
        <ele>112.27483</ele>
        <time>2022-02-08T01:57:58.351Z</time>
      </trkpt>
      <trkpt lat="48.09246" lon="-2.03141">
        <ele>111.943233</ele>
        <time>2022-02-08T01:58:02.226Z</time>
      </trkpt>
      <trkpt lat="48.09259" lon="-2.03078">
        <ele>111.121225</ele>
        <time>2022-02-08T01:58:13.685Z</time>
      </trkpt>
      <trkpt lat="48.09246" lon="-2.03016">
        <ele>110.325879</ele>
        <time>2022-02-08T01:58:25.056Z</time>
      </trkpt>
      <trkpt lat="48.09254" lon="-2.02961">
        <ele>109.61556</ele>
        <time>2022-02-08T01:58:35.014Z</time>
      </trkpt>
      <trkpt lat="48.09259" lon="-2.02892">
        <ele>108.775211</ele>
        <time>2022-02-08T01:58:46.760Z</time>
      </trkpt>
      <trkpt lat="48.09259" lon="-2.0289">
        <ele>108.749687</ele>
        <time>2022-02-08T01:58:47.167Z</time>
      </trkpt>
      <trkpt lat="48.09263" lon="-2.02865">
        <ele>108.461728</ele>
        <time>2022-02-08T01:58:50.091Z</time>
      </trkpt>
      <trkpt lat="48.0926" lon="-2.02842">
        <ele>108.206392</ele>
        <time>2022-02-08T01:58:52.568Z</time>
      </trkpt>
      <trkpt lat="48.0925" lon="-2.02825">
        <ele>107.953038</ele>
        <time>2022-02-08T01:58:55.227Z</time>
      </trkpt>
      <trkpt lat="48.09248" lon="-2.02773">
        <ele>107.377891</ele>
        <time>2022-02-08T01:59:00.982Z</time>
      </trkpt>
      <trkpt lat="48.09249" lon="-2.02771">
        <ele>107.353202</ele>
        <time>2022-02-08T01:59:01.387Z</time>
      </trkpt>
      <trkpt lat="48.09249" lon="-2.0277">
        <ele>107.339013</ele>
        <time>2022-02-08T01:59:01.535Z</time>
      </trkpt>
      <trkpt lat="48.09268" lon="-2.0276">
        <ele>107.01318</ele>
        <time>2022-02-08T01:59:04.736Z</time>
      </trkpt>
      <trkpt lat="48.09285" lon="-2.02773">
        <ele>106.698164</ele>
        <time>2022-02-08T01:59:08.108Z</time>
      </trkpt>
      <trkpt lat="48.09304" lon="-2.02801">
        <ele>106.250628</ele>
        <time>2022-02-08T01:59:12.800Z</time>
      </trkpt>
      <trkpt lat="48.09364" lon="-2.0284">
        <ele>105.577793</ele>
        <time>2022-02-08T01:59:24.323Z</time>
      </trkpt>
      <trkpt lat="48.09405" lon="-2.0285">
        <ele>105.268787</ele>
        <time>2022-02-08T01:59:31.759Z</time>
      </trkpt>
      <trkpt lat="48.09428" lon="-2.02848">
        <ele>105.097644</ele>
        <time>2022-02-08T01:59:36.116Z</time>
      </trkpt>
      <trkpt lat="48.09443" lon="-2.02835">
        <ele>104.965137</ele>
        <time>2022-02-08T01:59:39.529Z</time>
      </trkpt>
      <trkpt lat="48.0948" lon="-2.02756">
        <ele>104.470951</ele>
        <time>2022-02-08T01:59:51.801Z</time>
      </trkpt>
      <trkpt lat="48.09507" lon="-2.02683">
        <ele>104.001929</ele>
        <time>2022-02-08T02:00:01.947Z</time>
      </trkpt>
      <trkpt lat="48.09512" lon="-2.02653">
        <ele>103.824787</ele>
        <time>2022-02-08T02:00:05.693Z</time>
      </trkpt>
      <trkpt lat="48.09513" lon="-2.02638">
        <ele>103.738415</ele>
        <time>2022-02-08T02:00:07.531Z</time>
      </trkpt>
      <trkpt lat="48.09495" lon="-2.02557">
        <ele>103.254622</ele>
        <time>2022-02-08T02:00:17.552Z</time>
      </trkpt>
      <trkpt lat="48.09474" lon="-2.02521">
        <ele>103.014715</ele>
        <time>2022-02-08T02:00:23.163Z</time>
      </trkpt>
      <trkpt lat="48.0946" lon="-2.02511">
        <ele>102.955853</ele>
        <time>2022-02-08T02:00:25.950Z</time>
      </trkpt>
      <trkpt lat="48.09444" lon="-2.02484">
        <ele>102.863769</ele>
        <time>2022-02-08T02:00:30.243Z</time>
      </trkpt>
      <trkpt lat="48.09407" lon="-2.02444">
        <ele>102.69295</ele>
        <time>2022-02-08T02:00:38.389Z</time>
      </trkpt>
      <trkpt lat="48.09382" lon="-2.02379">
        <ele>102.502994</ele>
        <time>2022-02-08T02:00:48.259Z</time>
      </trkpt>
      <trkpt lat="48.09368" lon="-2.02361">
        <ele>102.434007</ele>
        <time>2022-02-08T02:00:52.278Z</time>
      </trkpt>
      <trkpt lat="48.09351" lon="-2.02356">
        <ele>102.367581</ele>
        <time>2022-02-08T02:00:56.306Z</time>
      </trkpt>
      <trkpt lat="48.09335" lon="-2.02367">
        <ele>102.403847</ele>
        <time>2022-02-08T02:01:00.561Z</time>
      </trkpt>
      <trkpt lat="48.0932" lon="-2.024">
        <ele>102.474279</ele>
        <time>2022-02-08T02:01:06.609Z</time>
      </trkpt>
      <trkpt lat="48.09303" lon="-2.02415">
        <ele>102.526038</ele>
        <time>2022-02-08T02:01:10.680Z</time>
      </trkpt>
      <trkpt lat="48.09279" lon="-2.02419">
        <ele>102.591135</ele>
        <time>2022-02-08T02:01:15.667Z</time>
      </trkpt>
      <trkpt lat="48.09278" lon="-2.02419">
        <ele>102.594877</ele>
        <time>2022-02-08T02:01:16.099Z</time>
      </trkpt>
      <trkpt lat="48.09242" lon="-2.02392">
        <ele>102.701328</ele>
        <time>2022-02-08T02:01:24.186Z</time>
      </trkpt>
      <trkpt lat="48.09235" lon="-2.02363">
        <ele>102.75707</ele>
        <time>2022-02-08T02:01:28.834Z</time>
      </trkpt>
      <trkpt lat="48.09234" lon="-2.02361">
        <ele>102.761213</ele>
        <time>2022-02-08T02:01:29.219Z</time>
      </trkpt>
      <trkpt lat="48.09237" lon="-2.02339">
        <ele>102.801197</ele>
        <time>2022-02-08T02:01:32.057Z</time>
      </trkpt>
      <trkpt lat="48.09232" lon="-2.02314">
        <ele>102.837825</ele>
        <time>2022-02-08T02:01:36.096Z</time>
      </trkpt>
      <trkpt lat="48.09231" lon="-2.02305">
        <ele>102.826426</ele>
        <time>2022-02-08T02:01:37.074Z</time>
      </trkpt>
      <trkpt lat="48.09237" lon="-2.02295">
        <ele>102.810447</ele>
        <time>2022-02-08T02:01:38.774Z</time>
      </trkpt>
      <trkpt lat="48.09279" lon="-2.02281">
        <ele>102.731366</ele>
        <time>2022-02-08T02:01:47.373Z</time>
      </trkpt>
      <trkpt lat="48.09285" lon="-2.02269">
        <ele>102.714218</ele>
        <time>2022-02-08T02:01:49.437Z</time>
      </trkpt>
      <trkpt lat="48.0931" lon="-2.02246">
        <ele>102.660697</ele>
        <time>2022-02-08T02:01:54.746Z</time>
      </trkpt>
      <trkpt lat="48.09321" lon="-2.02193">
        <ele>102.593274</ele>
        <time>2022-02-08T02:02:01.485Z</time>
      </trkpt>
      <trkpt lat="48.09335" lon="-2.0216">
        <ele>102.546746</ele>
        <time>2022-02-08T02:02:05.899Z</time>
      </trkpt>
      <trkpt lat="48.09338" lon="-2.021">
        <ele>102.717618</ele>
        <time>2022-02-08T02:02:15.390Z</time>
      </trkpt>
      <trkpt lat="48.09301" lon="-2.02047">
        <ele>103.18204</ele>
        <time>2022-02-08T02:02:28.857Z</time>
      </trkpt>
      <trkpt lat="48.09291" lon="-2.02043">
        <ele>103.275624</ele>
        <time>2022-02-08T02:02:32.941Z</time>
      </trkpt>
      <trkpt lat="48.09279" lon="-2.0205">
        <ele>103.38622</ele>
        <time>2022-02-08T02:02:35.994Z</time>
      </trkpt>
      <trkpt lat="48.09266" lon="-2.02045">
        <ele>103.507297</ele>
        <time>2022-02-08T02:02:39.258Z</time>
      </trkpt>
      <trkpt lat="48.0925" lon="-2.0205">
        <ele>103.656939</ele>
        <time>2022-02-08T02:02:44.211Z</time>
      </trkpt>
      <trkpt lat="48.09232" lon="-2.02044">
        <ele>103.822459</ele>
        <time>2022-02-08T02:02:47.820Z</time>
      </trkpt>
      <trkpt lat="48.09227" lon="-2.02029">
        <ele>103.921069</ele>
        <time>2022-02-08T02:02:51.323Z</time>
      </trkpt>
      <trkpt lat="48.09227" lon="-2.02027">
        <ele>103.934622</ele>
        <time>2022-02-08T02:02:51.745Z</time>
      </trkpt>
      <trkpt lat="48.09205" lon="-2.01957">
        <ele>103.590186</ele>
        <time>2022-02-08T02:03:00.887Z</time>
      </trkpt>
      <trkpt lat="48.09201" lon="-2.01928">
        <ele>103.239645</ele>
        <time>2022-02-08T02:03:04.743Z</time>
      </trkpt>
      <trkpt lat="48.0921" lon="-2.0189">
        <ele>102.754413</ele>
        <time>2022-02-08T02:03:09.102Z</time>
      </trkpt>
      <trkpt lat="48.09219" lon="-2.01834">
        <ele>102.05572</ele>
        <time>2022-02-08T02:03:15.643Z</time>
      </trkpt>
      <trkpt lat="48.09219" lon="-2.01832">
        <ele>102.030901</ele>
        <time>2022-02-08T02:03:16.145Z</time>
      </trkpt>
      <trkpt lat="48.09221" lon="-2.01825">
        <ele>101.93895</ele>
        <time>2022-02-08T02:03:17.348Z</time>
      </trkpt>
      <trkpt lat="48.09222" lon="-2.01823">
        <ele>101.911295</ele>
        <time>2022-02-08T02:03:17.734Z</time>
      </trkpt>
      <trkpt lat="48.09238" lon="-2.01791">
        <ele>101.418231</ele>
        <time>2022-02-08T02:03:21.922Z</time>
      </trkpt>
      <trkpt lat="48.09242" lon="-2.01786">
        <ele>101.33027</ele>
        <time>2022-02-08T02:03:22.680Z</time>
      </trkpt>
      <trkpt lat="48.0927" lon="-2.01749">
        <ele>100.597739</ele>
        <time>2022-02-08T02:03:28.339Z</time>
      </trkpt>
      <trkpt lat="48.09316" lon="-2.01781">
        <ele>99.431456</ele>
        <time>2022-02-08T02:03:35.982Z</time>
      </trkpt>
      <trkpt lat="48.09317" lon="-2.01781">
        <ele>99.394599</ele>
        <time>2022-02-08T02:03:36.351Z</time>
      </trkpt>
      <trkpt lat="48.09346" lon="-2.01776">
        <ele>98.738565</ele>
        <time>2022-02-08T02:03:40.810Z</time>
      </trkpt>
      <trkpt lat="48.09385" lon="-2.01746">
        <ele>97.726063</ele>
        <time>2022-02-08T02:03:48.161Z</time>
      </trkpt>
      <trkpt lat="48.09416" lon="-2.01703">
        <ele>96.739385</ele>
        <time>2022-02-08T02:03:55.798Z</time>
      </trkpt>
      <trkpt lat="48.09445" lon="-2.01641">
        <ele>96.693202</ele>
        <time>2022-02-08T02:04:05.074Z</time>
      </trkpt>
      <trkpt lat="48.0945" lon="-2.01632">
        <ele>96.686841</ele>
        <time>2022-02-08T02:04:06.592Z</time>
      </trkpt>
      <trkpt lat="48.09458" lon="-2.01635">
        <ele>96.680609</ele>
        <time>2022-02-08T02:04:08.139Z</time>
      </trkpt>
      <trkpt lat="48.09538" lon="-2.01671">
        <ele>96.616777</ele>
        <time>2022-02-08T02:04:24.361Z</time>
      </trkpt>
      <trkpt lat="48.09642" lon="-2.01706">
        <ele>97.141974</ele>
        <time>2022-02-08T02:04:45.691Z</time>
      </trkpt>
      <trkpt lat="48.09673" lon="-2.01723">
        <ele>97.379361</ele>
        <time>2022-02-08T02:04:52.850Z</time>
      </trkpt>
      <trkpt lat="48.0969" lon="-2.01745">
        <ele>97.541563</ele>
        <time>2022-02-08T02:05:00.460Z</time>
      </trkpt>
      <trkpt lat="48.09704" lon="-2.0175">
        <ele>97.645315</ele>
        <time>2022-02-08T02:05:05.405Z</time>
      </trkpt>
      <trkpt lat="48.0971" lon="-2.01776">
        <ele>97.778086</ele>
        <time>2022-02-08T02:05:11.655Z</time>
      </trkpt>
      <trkpt lat="48.099" lon="-2.01896">
        <ele>99.897876</ele>
        <time>2022-02-08T02:06:22.355Z</time>
      </trkpt>
      <trkpt lat="48.0993" lon="-2.01903">
        <ele>99.914661</ele>
        <time>2022-02-08T02:06:32.336Z</time>
      </trkpt>
      <trkpt lat="48.09957" lon="-2.01903">
        <ele>99.929886</ele>
        <time>2022-02-08T02:06:41.022Z</time>
      </trkpt>
      <trkpt lat="48.10105" lon="-2.0186">
        <ele>100.036302</ele>
        <time>2022-02-08T02:07:24.226Z</time>
      </trkpt>
      <trkpt lat="48.10109" lon="-2.01859">
        <ele>100.040406</ele>
        <time>2022-02-08T02:07:25.349Z</time>
      </trkpt>
      <trkpt lat="48.10118" lon="-2.01852">
        <ele>100.051776</ele>
        <time>2022-02-08T02:07:28.238Z</time>
      </trkpt>
      <trkpt lat="48.10179" lon="-2.01852">
        <ele>100.120385</ele>
        <time>2022-02-08T02:07:46.334Z</time>
      </trkpt>
      <trkpt lat="48.10177" lon="-2.01871">
        <ele>100.135191</ele>
        <time>2022-02-08T02:07:50.080Z</time>
      </trkpt>
      <trkpt lat="48.10168" lon="-2.0195">
        <ele>100.205207</ele>
        <time>2022-02-08T02:08:06.599Z</time>
      </trkpt>
      <trkpt lat="48.10167" lon="-2.01957">
        <ele>100.260467</ele>
        <time>2022-02-08T02:08:09.205Z</time>
      </trkpt>
      <trkpt lat="48.10143" lon="-2.0214">
        <ele>101.748197</ele>
        <time>2022-02-08T02:08:52.655Z</time>
      </trkpt>
      <trkpt lat="48.10139" lon="-2.02166">
        <ele>101.954572</ele>
        <time>2022-02-08T02:08:59.933Z</time>
      </trkpt>
      <trkpt lat="48.10115" lon="-2.02271">
        <ele>102.357462</ele>
        <time>2022-02-08T02:09:23.970Z</time>
      </trkpt>
      <trkpt lat="48.10097" lon="-2.02377">
        <ele>102.402589</ele>
        <time>2022-02-08T02:09:46.761Z</time>
      </trkpt>
      <trkpt lat="48.10139" lon="-2.02394">
        <ele>102.429556</ele>
        <time>2022-02-08T02:09:59.117Z</time>
      </trkpt>
      <trkpt lat="48.10166" lon="-2.02404">
        <ele>102.390267</ele>
        <time>2022-02-08T02:10:06.815Z</time>
      </trkpt>
      <trkpt lat="48.1018" lon="-2.024">
        <ele>102.280521</ele>
        <time>2022-02-08T02:10:10.846Z</time>
      </trkpt>
      <trkpt lat="48.10212" lon="-2.02385">
        <ele>102.039447</ele>
        <time>2022-02-08T02:10:19.686Z</time>
      </trkpt>
      <trkpt lat="48.1022" lon="-2.02366">
        <ele>101.929128</ele>
        <time>2022-02-08T02:10:23.657Z</time>
      </trkpt>
      <trkpt lat="48.1023" lon="-2.02357">
        <ele>101.841119</ele>
        <time>2022-02-08T02:10:27.098Z</time>
      </trkpt>
      <trkpt lat="48.10242" lon="-2.02334">
        <ele>101.698236</ele>
        <time>2022-02-08T02:10:32.578Z</time>
      </trkpt>
      <trkpt lat="48.10255" lon="-2.02272">
        <ele>101.379023</ele>
        <time>2022-02-08T02:10:44.953Z</time>
      </trkpt>
      <trkpt lat="48.10266" lon="-2.02265">
        <ele>101.290416</ele>
        <time>2022-02-08T02:10:48.541Z</time>
      </trkpt>
      <trkpt lat="48.10285" lon="-2.02273">
        <ele>101.149603</ele>
        <time>2022-02-08T02:10:53.844Z</time>
      </trkpt>
      <trkpt lat="48.10318" lon="-2.02319">
        <ele>100.797279</ele>
        <time>2022-02-08T02:11:07.011Z</time>
      </trkpt>
      <trkpt lat="48.10314" lon="-2.0236">
        <ele>100.584737</ele>
        <time>2022-02-08T02:11:14.740Z</time>
      </trkpt>
      <trkpt lat="48.10302" lon="-2.02387">
        <ele>100.41418</ele>
        <time>2022-02-08T02:11:21.217Z</time>
      </trkpt>
      <trkpt lat="48.10286" lon="-2.02424">
        <ele>100.186342</ele>
        <time>2022-02-08T02:11:29.314Z</time>
      </trkpt>
      <trkpt lat="48.1027" lon="-2.02504">
        <ele>99.753616</ele>
        <time>2022-02-08T02:11:44.480Z</time>
      </trkpt>
      <trkpt lat="48.10267" lon="-2.02549">
        <ele>99.373424</ele>
        <time>2022-02-08T02:11:52.962Z</time>
      </trkpt>
      <trkpt lat="48.10275" lon="-2.02547">
        <ele>99.268351</ele>
        <time>2022-02-08T02:11:55.031Z</time>
      </trkpt>
      <trkpt lat="48.10274" lon="-2.02569">
        <ele>99.07253</ele>
        <time>2022-02-08T02:11:58.990Z</time>
      </trkpt>
      <trkpt lat="48.10295" lon="-2.02556">
        <ele>98.771063</ele>
        <time>2022-02-08T02:12:05.028Z</time>
      </trkpt>
      <trkpt lat="48.10315" lon="-2.02573">
        <ele>98.461762</ele>
        <time>2022-02-08T02:12:11.375Z</time>
      </trkpt>
      <trkpt lat="48.10323" lon="-2.02584">
        <ele>98.323305</ele>
        <time>2022-02-08T02:12:14.073Z</time>
      </trkpt>
      <trkpt lat="48.10332" lon="-2.02596">
        <ele>98.16187</ele>
        <time>2022-02-08T02:12:17.307Z</time>
      </trkpt>
      <trkpt lat="48.10325" lon="-2.02604">
        <ele>98.040187</ele>
        <time>2022-02-08T02:12:19.857Z</time>
      </trkpt>
      <trkpt lat="48.10308" lon="-2.0269">
        <ele>97.307607</ele>
        <time>2022-02-08T02:12:35.786Z</time>
      </trkpt>
      <trkpt lat="48.10296" lon="-2.02719">
        <ele>97.230881</ele>
        <time>2022-02-08T02:12:41.926Z</time>
      </trkpt>
      <trkpt lat="48.10282" lon="-2.02731">
        <ele>97.176635</ele>
        <time>2022-02-08T02:12:46.156Z</time>
      </trkpt>
      <trkpt lat="48.10275" lon="-2.02738">
        <ele>97.144854</ele>
        <time>2022-02-08T02:12:48.707Z</time>
      </trkpt>
      <trkpt lat="48.10226" lon="-2.02777">
        <ele>96.955704</ele>
        <time>2022-02-08T02:13:04.666Z</time>
      </trkpt>
      <trkpt lat="48.10183" lon="-2.02811">
        <ele>96.791279</ele>
        <time>2022-02-08T02:13:20.289Z</time>
      </trkpt>
      <trkpt lat="48.1016" lon="-2.02853">
        <ele>96.713856</ele>
        <time>2022-02-08T02:13:32.011Z</time>
      </trkpt>
      <trkpt lat="48.1015" lon="-2.02875">
        <ele>96.711304</ele>
        <time>2022-02-08T02:13:37.581Z</time>
      </trkpt>
      <trkpt lat="48.10125" lon="-2.02868">
        <ele>96.707659</ele>
        <time>2022-02-08T02:13:45.275Z</time>
      </trkpt>
      <trkpt lat="48.10123" lon="-2.02775">
        <ele>96.698914</ele>
        <time>2022-02-08T02:13:59.383Z</time>
      </trkpt>
      <trkpt lat="48.1009" lon="-2.02766">
        <ele>96.69409</ele>
        <time>2022-02-08T02:14:09.217Z</time>
      </trkpt>
      <trkpt lat="48.10076" lon="-2.02762">
        <ele>96.692122</ele>
        <time>2022-02-08T02:14:13.301Z</time>
      </trkpt>
      <trkpt lat="48.10037" lon="-2.02779">
        <ele>96.690388</ele>
        <time>2022-02-08T02:14:25.188Z</time>
      </trkpt>
      <trkpt lat="48.10034" lon="-2.02811">
        <ele>96.690388</ele>
        <time>2022-02-08T02:14:29.425Z</time>
      </trkpt>
      <trkpt lat="48.10033" lon="-2.02833">
        <ele>96.690388</ele>
        <time>2022-02-08T02:14:32.160Z</time>
      </trkpt>
      <trkpt lat="48.10027" lon="-2.02888">
        <ele>96.690388</ele>
        <time>2022-02-08T02:14:39.054Z</time>
      </trkpt>
      <trkpt lat="48.10061" lon="-2.029">
        <ele>96.690388</ele>
        <time>2022-02-08T02:14:48.961Z</time>
      </trkpt>
    </trkseg>
  </trk>
</gpx>